<?xml version="1.0" encoding="UTF-8" standalone="no" ?>
<gpx xmlns="http://www.topografix.com/GPX/1/1" xmlns:xsi="http://www.w3.org/2001/XMLSchema-instance" xsi:schemaLocation="http://www.topografix.com/GPX/1/1 http://www.topografix.com/GPX/1/1/gpx.xsd" version="1.1" creator="VisuGPX - https://www.visugpx.com">
  <metadata>
    <name>Tullins-St Marcellin</name>
    <desc><![CDATA[Train Grenoble)Tullins
Retour en train St Marcellin-Grenoble
Beau temps un peu frais]]></desc>
  </metadata>
  <trk>
    <name><![CDATA[Tullins-St Marcellin_1]]></name>
    <trkseg>
      <trkpt lat="45.30093" lon="5.4916">
        <ele>206.24442</ele>
        <time>2017-09-15T08:17:52Z</time>
      </trkpt>
      <trkpt lat="45.30096" lon="5.49135">
        <ele>205.92023</ele>
        <time>2017-09-15T08:17:57Z</time>
      </trkpt>
      <trkpt lat="45.30092" lon="5.491">
        <ele>203.76743</ele>
        <time>2017-09-15T08:18:03Z</time>
      </trkpt>
      <trkpt lat="45.30095" lon="5.49067">
        <ele>203.10298</ele>
        <time>2017-09-15T08:18:09Z</time>
      </trkpt>
      <trkpt lat="45.3009" lon="5.49054">
        <ele>202.989</ele>
        <time>2017-09-15T08:18:14Z</time>
      </trkpt>
      <trkpt lat="45.30086" lon="5.49046">
        <ele>202.8835</ele>
        <time>2017-09-15T08:18:20Z</time>
      </trkpt>
      <trkpt lat="45.30088" lon="5.49033">
        <ele>202.98006</ele>
        <time>2017-09-15T08:18:25Z</time>
      </trkpt>
      <trkpt lat="45.30082" lon="5.49006">
        <ele>203.40767</ele>
        <time>2017-09-15T08:18:31Z</time>
      </trkpt>
      <trkpt lat="45.30084" lon="5.48982">
        <ele>203.67142</ele>
        <time>2017-09-15T08:18:37Z</time>
      </trkpt>
      <trkpt lat="45.30091" lon="5.48965">
        <ele>203.834</ele>
        <time>2017-09-15T08:18:42Z</time>
      </trkpt>
      <trkpt lat="45.30094" lon="5.48932">
        <ele>204.47922</ele>
        <time>2017-09-15T08:18:48Z</time>
      </trkpt>
      <trkpt lat="45.30094" lon="5.48908">
        <ele>204.63692</ele>
        <time>2017-09-15T08:18:53Z</time>
      </trkpt>
      <trkpt lat="45.30094" lon="5.48875">
        <ele>204.56876</ele>
        <time>2017-09-15T08:18:59Z</time>
      </trkpt>
      <trkpt lat="45.30093" lon="5.48849">
        <ele>204.49973</ele>
        <time>2017-09-15T08:19:04Z</time>
      </trkpt>
      <trkpt lat="45.30088" lon="5.48818">
        <ele>204.84567</ele>
        <time>2017-09-15T08:19:10Z</time>
      </trkpt>
      <trkpt lat="45.30073" lon="5.48793">
        <ele>205.90419</ele>
        <time>2017-09-15T08:19:15Z</time>
      </trkpt>
      <trkpt lat="45.30057" lon="5.48763">
        <ele>208.4625</ele>
        <time>2017-09-15T08:19:21Z</time>
      </trkpt>
      <trkpt lat="45.30042" lon="5.48735">
        <ele>210.27487</ele>
        <time>2017-09-15T08:19:27Z</time>
      </trkpt>
      <trkpt lat="45.3003" lon="5.48706">
        <ele>211.96202</ele>
        <time>2017-09-15T08:19:33Z</time>
      </trkpt>
      <trkpt lat="45.30017" lon="5.48682">
        <ele>212.33278</ele>
        <time>2017-09-15T08:19:39Z</time>
      </trkpt>
      <trkpt lat="45.30002" lon="5.4866">
        <ele>212.10414</ele>
        <time>2017-09-15T08:19:45Z</time>
      </trkpt>
      <trkpt lat="45.29991" lon="5.48636">
        <ele>212.2326</ele>
        <time>2017-09-15T08:19:51Z</time>
      </trkpt>
      <trkpt lat="45.29985" lon="5.48613">
        <ele>212.35144</ele>
        <time>2017-09-15T08:19:56Z</time>
      </trkpt>
      <trkpt lat="45.29974" lon="5.48589">
        <ele>212.59227</ele>
        <time>2017-09-15T08:20:02Z</time>
      </trkpt>
      <trkpt lat="45.29964" lon="5.48575">
        <ele>212.84357</ele>
        <time>2017-09-15T08:20:07Z</time>
      </trkpt>
      <trkpt lat="45.2995" lon="5.48558">
        <ele>213.18745</ele>
        <time>2017-09-15T08:20:13Z</time>
      </trkpt>
      <trkpt lat="45.29933" lon="5.48545">
        <ele>213.66563</ele>
        <time>2017-09-15T08:20:19Z</time>
      </trkpt>
      <trkpt lat="45.29914" lon="5.48534">
        <ele>214.09206</ele>
        <time>2017-09-15T08:20:25Z</time>
      </trkpt>
      <trkpt lat="45.29895" lon="5.48525">
        <ele>214.50676</ele>
        <time>2017-09-15T08:20:31Z</time>
      </trkpt>
      <trkpt lat="45.29878" lon="5.48518">
        <ele>214.85739</ele>
        <time>2017-09-15T08:20:36Z</time>
      </trkpt>
      <trkpt lat="45.2986" lon="5.48511">
        <ele>215.4529</ele>
        <time>2017-09-15T08:20:42Z</time>
      </trkpt>
      <trkpt lat="45.29842" lon="5.48505">
        <ele>215.94588</ele>
        <time>2017-09-15T08:20:48Z</time>
      </trkpt>
      <trkpt lat="45.29825" lon="5.48498">
        <ele>216.54402</ele>
        <time>2017-09-15T08:20:54Z</time>
      </trkpt>
      <trkpt lat="45.29803" lon="5.48487">
        <ele>217.27887</ele>
        <time>2017-09-15T08:21:00Z</time>
      </trkpt>
      <trkpt lat="45.29793" lon="5.48469">
        <ele>218.42422</ele>
        <time>2017-09-15T08:21:06Z</time>
      </trkpt>
      <trkpt lat="45.29789" lon="5.48452">
        <ele>219.75015</ele>
        <time>2017-09-15T08:21:12Z</time>
      </trkpt>
      <trkpt lat="45.29786" lon="5.48431">
        <ele>221.03955</ele>
        <time>2017-09-15T08:21:18Z</time>
      </trkpt>
      <trkpt lat="45.29782" lon="5.48413">
        <ele>221.93364</ele>
        <time>2017-09-15T08:21:23Z</time>
      </trkpt>
      <trkpt lat="45.29785" lon="5.48392">
        <ele>222.86992</ele>
        <time>2017-09-15T08:21:29Z</time>
      </trkpt>
      <trkpt lat="45.29784" lon="5.48369">
        <ele>224.4605</ele>
        <time>2017-09-15T08:21:35Z</time>
      </trkpt>
      <trkpt lat="45.2979" lon="5.48352">
        <ele>225.96509</ele>
        <time>2017-09-15T08:21:41Z</time>
      </trkpt>
      <trkpt lat="45.29791" lon="5.48339">
        <ele>227.10791</ele>
        <time>2017-09-15T08:21:47Z</time>
      </trkpt>
      <trkpt lat="45.29794" lon="5.48329">
        <ele>228.15015</ele>
        <time>2017-09-15T08:21:53Z</time>
      </trkpt>
      <trkpt lat="45.29806" lon="5.48314">
        <ele>229.36441</ele>
        <time>2017-09-15T08:22:07Z</time>
      </trkpt>
      <trkpt lat="45.29814" lon="5.48302">
        <ele>230.00148</ele>
        <time>2017-09-15T08:22:13Z</time>
      </trkpt>
      <trkpt lat="45.29825" lon="5.48289">
        <ele>230.59831</ele>
        <time>2017-09-15T08:22:18Z</time>
      </trkpt>
      <trkpt lat="45.29837" lon="5.48275">
        <ele>231.61087</ele>
        <time>2017-09-15T08:22:24Z</time>
      </trkpt>
      <trkpt lat="45.29848" lon="5.48263">
        <ele>232.81253</ele>
        <time>2017-09-15T08:22:30Z</time>
      </trkpt>
      <trkpt lat="45.29858" lon="5.48251">
        <ele>234.01817</ele>
        <time>2017-09-15T08:22:36Z</time>
      </trkpt>
      <trkpt lat="45.29868" lon="5.48244">
        <ele>235.57289</ele>
        <time>2017-09-15T08:22:42Z</time>
      </trkpt>
      <trkpt lat="45.29877" lon="5.48238">
        <ele>236.9672</ele>
        <time>2017-09-15T08:22:47Z</time>
      </trkpt>
      <trkpt lat="45.29888" lon="5.4823">
        <ele>238.11592</ele>
        <time>2017-09-15T08:22:53Z</time>
      </trkpt>
      <trkpt lat="45.29901" lon="5.48224">
        <ele>239.18883</ele>
        <time>2017-09-15T08:22:59Z</time>
      </trkpt>
      <trkpt lat="45.29913" lon="5.48216">
        <ele>240.13118</ele>
        <time>2017-09-15T08:23:05Z</time>
      </trkpt>
      <trkpt lat="45.29922" lon="5.48204">
        <ele>240.95303</ele>
        <time>2017-09-15T08:23:10Z</time>
      </trkpt>
      <trkpt lat="45.29929" lon="5.48196">
        <ele>242.49445</ele>
        <time>2017-09-15T08:23:16Z</time>
      </trkpt>
      <trkpt lat="45.2994" lon="5.48186">
        <ele>244.22124</ele>
        <time>2017-09-15T08:23:22Z</time>
      </trkpt>
      <trkpt lat="45.29949" lon="5.48174">
        <ele>246.19905</ele>
        <time>2017-09-15T08:23:28Z</time>
      </trkpt>
      <trkpt lat="45.29954" lon="5.48161">
        <ele>247.7534</ele>
        <time>2017-09-15T08:23:34Z</time>
      </trkpt>
      <trkpt lat="45.29958" lon="5.48151">
        <ele>248.6872</ele>
        <time>2017-09-15T08:23:39Z</time>
      </trkpt>
      <trkpt lat="45.29964" lon="5.48139">
        <ele>249.4205</ele>
        <time>2017-09-15T08:23:45Z</time>
      </trkpt>
      <trkpt lat="45.29966" lon="5.48121">
        <ele>250.30478</ele>
        <time>2017-09-15T08:23:51Z</time>
      </trkpt>
      <trkpt lat="45.29973" lon="5.48108">
        <ele>251.5208</ele>
        <time>2017-09-15T08:23:56Z</time>
      </trkpt>
      <trkpt lat="45.29978" lon="5.481">
        <ele>252.87659</ele>
        <time>2017-09-15T08:24:01Z</time>
      </trkpt>
      <trkpt lat="45.29985" lon="5.4809">
        <ele>254.54237</ele>
        <time>2017-09-15T08:24:07Z</time>
      </trkpt>
      <trkpt lat="45.29992" lon="5.48081">
        <ele>256.10907</ele>
        <time>2017-09-15T08:24:12Z</time>
      </trkpt>
      <trkpt lat="45.29992" lon="5.48068">
        <ele>257.61526</ele>
        <time>2017-09-15T08:24:18Z</time>
      </trkpt>
      <trkpt lat="45.29989" lon="5.48053">
        <ele>258.46893</ele>
        <time>2017-09-15T08:24:24Z</time>
      </trkpt>
      <trkpt lat="45.29986" lon="5.48044">
        <ele>258.98465</ele>
        <time>2017-09-15T08:24:29Z</time>
      </trkpt>
      <trkpt lat="45.29982" lon="5.48035">
        <ele>259.5798</ele>
        <time>2017-09-15T08:24:34Z</time>
      </trkpt>
      <trkpt lat="45.29972" lon="5.48025">
        <ele>260.1961</ele>
        <time>2017-09-15T08:24:40Z</time>
      </trkpt>
      <trkpt lat="45.29962" lon="5.48014">
        <ele>260.88577</ele>
        <time>2017-09-15T08:24:46Z</time>
      </trkpt>
      <trkpt lat="45.29952" lon="5.48003">
        <ele>261.49567</ele>
        <time>2017-09-15T08:24:52Z</time>
      </trkpt>
      <trkpt lat="45.29944" lon="5.47992">
        <ele>262.44727</ele>
        <time>2017-09-15T08:24:58Z</time>
      </trkpt>
      <trkpt lat="45.29936" lon="5.4798">
        <ele>263.45328</ele>
        <time>2017-09-15T08:25:04Z</time>
      </trkpt>
      <trkpt lat="45.29927" lon="5.47968">
        <ele>264.2907</ele>
        <time>2017-09-15T08:25:10Z</time>
      </trkpt>
      <trkpt lat="45.29918" lon="5.47956">
        <ele>265.22174</ele>
        <time>2017-09-15T08:25:15Z</time>
      </trkpt>
      <trkpt lat="45.29911" lon="5.47948">
        <ele>266.35788</ele>
        <time>2017-09-15T08:25:20Z</time>
      </trkpt>
      <trkpt lat="45.29903" lon="5.47941">
        <ele>267.46176</ele>
        <time>2017-09-15T08:25:25Z</time>
      </trkpt>
      <trkpt lat="45.29896" lon="5.47937">
        <ele>269.0969</ele>
        <time>2017-09-15T08:25:31Z</time>
      </trkpt>
      <trkpt lat="45.29888" lon="5.47929">
        <ele>270.99045</ele>
        <time>2017-09-15T08:25:37Z</time>
      </trkpt>
      <trkpt lat="45.29883" lon="5.47921">
        <ele>272.75006</ele>
        <time>2017-09-15T08:25:42Z</time>
      </trkpt>
      <trkpt lat="45.29876" lon="5.47909">
        <ele>274.71008</ele>
        <time>2017-09-15T08:25:48Z</time>
      </trkpt>
      <trkpt lat="45.29869" lon="5.47895">
        <ele>276.6001</ele>
        <time>2017-09-15T08:25:54Z</time>
      </trkpt>
      <trkpt lat="45.29861" lon="5.47884">
        <ele>278.66565</ele>
        <time>2017-09-15T08:26:00Z</time>
      </trkpt>
      <trkpt lat="45.29852" lon="5.47871">
        <ele>280.6659</ele>
        <time>2017-09-15T08:26:06Z</time>
      </trkpt>
      <trkpt lat="45.29808" lon="5.47799">
        <ele>285.9389</ele>
        <time>2017-09-15T08:26:39Z</time>
      </trkpt>
      <trkpt lat="45.29801" lon="5.47787">
        <ele>286.13184</ele>
        <time>2017-09-15T08:26:44Z</time>
      </trkpt>
      <trkpt lat="45.29792" lon="5.47776">
        <ele>286.54785</ele>
        <time>2017-09-15T08:26:50Z</time>
      </trkpt>
      <trkpt lat="45.29785" lon="5.47768">
        <ele>286.89185</ele>
        <time>2017-09-15T08:26:55Z</time>
      </trkpt>
      <trkpt lat="45.29775" lon="5.47762">
        <ele>287.0765</ele>
        <time>2017-09-15T08:27:01Z</time>
      </trkpt>
      <trkpt lat="45.29766" lon="5.47758">
        <ele>287.45218</ele>
        <time>2017-09-15T08:27:07Z</time>
      </trkpt>
      <trkpt lat="45.29761" lon="5.47747">
        <ele>287.7702</ele>
        <time>2017-09-15T08:27:12Z</time>
      </trkpt>
      <trkpt lat="45.29769" lon="5.47735">
        <ele>288.21713</ele>
        <time>2017-09-15T08:27:18Z</time>
      </trkpt>
      <trkpt lat="45.29781" lon="5.4774">
        <ele>288.82605</ele>
        <time>2017-09-15T08:27:24Z</time>
      </trkpt>
      <trkpt lat="45.29792" lon="5.47749">
        <ele>289.5385</ele>
        <time>2017-09-15T08:27:30Z</time>
      </trkpt>
      <trkpt lat="45.29806" lon="5.4776">
        <ele>293.09082</ele>
        <time>2017-09-15T08:29:34Z</time>
      </trkpt>
      <trkpt lat="45.29815" lon="5.47767">
        <ele>294.1994</ele>
        <time>2017-09-15T08:29:40Z</time>
      </trkpt>
      <trkpt lat="45.29823" lon="5.4777">
        <ele>295.46182</ele>
        <time>2017-09-15T08:29:46Z</time>
      </trkpt>
      <trkpt lat="45.29831" lon="5.47774">
        <ele>296.48935</ele>
        <time>2017-09-15T08:29:51Z</time>
      </trkpt>
      <trkpt lat="45.29841" lon="5.47781">
        <ele>297.78174</ele>
        <time>2017-09-15T08:29:57Z</time>
      </trkpt>
      <trkpt lat="45.29849" lon="5.47787">
        <ele>299.40207</ele>
        <time>2017-09-15T08:30:03Z</time>
      </trkpt>
      <trkpt lat="45.29859" lon="5.47796">
        <ele>301.19452</ele>
        <time>2017-09-15T08:30:09Z</time>
      </trkpt>
      <trkpt lat="45.29867" lon="5.47803">
        <ele>302.49023</ele>
        <time>2017-09-15T08:30:14Z</time>
      </trkpt>
      <trkpt lat="45.29878" lon="5.47811">
        <ele>303.52167</ele>
        <time>2017-09-15T08:30:19Z</time>
      </trkpt>
      <trkpt lat="45.29887" lon="5.47819">
        <ele>304.68182</ele>
        <time>2017-09-15T08:30:25Z</time>
      </trkpt>
      <trkpt lat="45.29897" lon="5.4783">
        <ele>305.5966</ele>
        <time>2017-09-15T08:30:31Z</time>
      </trkpt>
      <trkpt lat="45.29905" lon="5.47839">
        <ele>306.23306</ele>
        <time>2017-09-15T08:30:36Z</time>
      </trkpt>
      <trkpt lat="45.29915" lon="5.4785">
        <ele>307.18985</ele>
        <time>2017-09-15T08:30:42Z</time>
      </trkpt>
      <trkpt lat="45.29924" lon="5.47861">
        <ele>308.2491</ele>
        <time>2017-09-15T08:30:48Z</time>
      </trkpt>
      <trkpt lat="45.29934" lon="5.47871">
        <ele>309.2109</ele>
        <time>2017-09-15T08:30:53Z</time>
      </trkpt>
      <trkpt lat="45.29942" lon="5.47879">
        <ele>310.58936</ele>
        <time>2017-09-15T08:30:59Z</time>
      </trkpt>
      <trkpt lat="45.29952" lon="5.47887">
        <ele>311.79675</ele>
        <time>2017-09-15T08:31:04Z</time>
      </trkpt>
      <trkpt lat="45.29964" lon="5.47896">
        <ele>313.1212</ele>
        <time>2017-09-15T08:31:10Z</time>
      </trkpt>
      <trkpt lat="45.29976" lon="5.47904">
        <ele>314.28445</ele>
        <time>2017-09-15T08:31:16Z</time>
      </trkpt>
      <trkpt lat="45.29987" lon="5.4791">
        <ele>315.23712</ele>
        <time>2017-09-15T08:31:22Z</time>
      </trkpt>
      <trkpt lat="45.29998" lon="5.47918">
        <ele>316.0657</ele>
        <time>2017-09-15T08:31:28Z</time>
      </trkpt>
      <trkpt lat="45.30008" lon="5.47925">
        <ele>316.56436</ele>
        <time>2017-09-15T08:31:33Z</time>
      </trkpt>
      <trkpt lat="45.30018" lon="5.47933">
        <ele>317.30698</ele>
        <time>2017-09-15T08:31:39Z</time>
      </trkpt>
      <trkpt lat="45.30029" lon="5.47942">
        <ele>318.07687</ele>
        <time>2017-09-15T08:31:45Z</time>
      </trkpt>
      <trkpt lat="45.30038" lon="5.47949">
        <ele>318.64026</ele>
        <time>2017-09-15T08:31:51Z</time>
      </trkpt>
      <trkpt lat="45.30046" lon="5.47959">
        <ele>318.99585</ele>
        <time>2017-09-15T08:31:56Z</time>
      </trkpt>
      <trkpt lat="45.30055" lon="5.47966">
        <ele>319.27133</ele>
        <time>2017-09-15T08:32:01Z</time>
      </trkpt>
      <trkpt lat="45.30066" lon="5.47974">
        <ele>319.76028</ele>
        <time>2017-09-15T08:32:07Z</time>
      </trkpt>
      <trkpt lat="45.30076" lon="5.47971">
        <ele>320.3108</ele>
        <time>2017-09-15T08:32:12Z</time>
      </trkpt>
      <trkpt lat="45.30085" lon="5.4796">
        <ele>321.12534</ele>
        <time>2017-09-15T08:32:18Z</time>
      </trkpt>
      <trkpt lat="45.30091" lon="5.47949">
        <ele>321.76392</ele>
        <time>2017-09-15T08:32:23Z</time>
      </trkpt>
      <trkpt lat="45.30099" lon="5.47935">
        <ele>322.41833</ele>
        <time>2017-09-15T08:32:29Z</time>
      </trkpt>
      <trkpt lat="45.30109" lon="5.4792">
        <ele>322.95334</ele>
        <time>2017-09-15T08:32:35Z</time>
      </trkpt>
      <trkpt lat="45.30122" lon="5.47914">
        <ele>323.43018</ele>
        <time>2017-09-15T08:32:41Z</time>
      </trkpt>
      <trkpt lat="45.30133" lon="5.47914">
        <ele>324.09982</ele>
        <time>2017-09-15T08:32:47Z</time>
      </trkpt>
      <trkpt lat="45.30144" lon="5.47921">
        <ele>324.93158</ele>
        <time>2017-09-15T08:32:53Z</time>
      </trkpt>
      <trkpt lat="45.30154" lon="5.4793">
        <ele>325.8254</ele>
        <time>2017-09-15T08:32:59Z</time>
      </trkpt>
      <trkpt lat="45.30161" lon="5.47942">
        <ele>326.66336</ele>
        <time>2017-09-15T08:33:05Z</time>
      </trkpt>
      <trkpt lat="45.30167" lon="5.47955">
        <ele>327.46423</ele>
        <time>2017-09-15T08:33:11Z</time>
      </trkpt>
      <trkpt lat="45.30172" lon="5.47969">
        <ele>328.43234</ele>
        <time>2017-09-15T08:33:17Z</time>
      </trkpt>
      <trkpt lat="45.30177" lon="5.47982">
        <ele>329.56335</ele>
        <time>2017-09-15T08:33:23Z</time>
      </trkpt>
      <trkpt lat="45.30182" lon="5.47997">
        <ele>330.92563</ele>
        <time>2017-09-15T08:33:29Z</time>
      </trkpt>
      <trkpt lat="45.30189" lon="5.48011">
        <ele>332.3561</ele>
        <time>2017-09-15T08:33:35Z</time>
      </trkpt>
      <trkpt lat="45.30198" lon="5.48027">
        <ele>333.90207</ele>
        <time>2017-09-15T08:33:41Z</time>
      </trkpt>
      <trkpt lat="45.30204" lon="5.48035">
        <ele>335.14798</ele>
        <time>2017-09-15T08:33:46Z</time>
      </trkpt>
      <trkpt lat="45.30213" lon="5.48044">
        <ele>336.38556</ele>
        <time>2017-09-15T08:33:52Z</time>
      </trkpt>
      <trkpt lat="45.30224" lon="5.48053">
        <ele>337.6772</ele>
        <time>2017-09-15T08:33:58Z</time>
      </trkpt>
      <trkpt lat="45.30229" lon="5.48063">
        <ele>338.60696</ele>
        <time>2017-09-15T08:34:03Z</time>
      </trkpt>
      <trkpt lat="45.30234" lon="5.4808">
        <ele>339.74274</ele>
        <time>2017-09-15T08:34:09Z</time>
      </trkpt>
      <trkpt lat="45.3024" lon="5.48092">
        <ele>340.63992</ele>
        <time>2017-09-15T08:34:14Z</time>
      </trkpt>
      <trkpt lat="45.30247" lon="5.48097">
        <ele>341.43997</ele>
        <time>2017-09-15T08:34:19Z</time>
      </trkpt>
      <trkpt lat="45.30259" lon="5.48096">
        <ele>342.26636</ele>
        <time>2017-09-15T08:34:25Z</time>
      </trkpt>
      <trkpt lat="45.30269" lon="5.4809">
        <ele>343.07953</ele>
        <time>2017-09-15T08:34:31Z</time>
      </trkpt>
      <trkpt lat="45.30277" lon="5.48081">
        <ele>343.7705</ele>
        <time>2017-09-15T08:34:36Z</time>
      </trkpt>
      <trkpt lat="45.30285" lon="5.4807">
        <ele>344.47986</ele>
        <time>2017-09-15T08:34:42Z</time>
      </trkpt>
      <trkpt lat="45.30292" lon="5.48061">
        <ele>345.00726</ele>
        <time>2017-09-15T08:34:47Z</time>
      </trkpt>
      <trkpt lat="45.30301" lon="5.48051">
        <ele>345.55777</ele>
        <time>2017-09-15T08:34:52Z</time>
      </trkpt>
      <trkpt lat="45.30307" lon="5.48043">
        <ele>346.42633</ele>
        <time>2017-09-15T08:34:58Z</time>
      </trkpt>
      <trkpt lat="45.30316" lon="5.48036">
        <ele>347.45215</ele>
        <time>2017-09-15T08:35:03Z</time>
      </trkpt>
      <trkpt lat="45.30327" lon="5.48024">
        <ele>348.65475</ele>
        <time>2017-09-15T08:35:09Z</time>
      </trkpt>
      <trkpt lat="45.30337" lon="5.48013">
        <ele>349.9637</ele>
        <time>2017-09-15T08:35:15Z</time>
      </trkpt>
      <trkpt lat="45.30347" lon="5.48002">
        <ele>351.12573</ele>
        <time>2017-09-15T08:35:21Z</time>
      </trkpt>
      <trkpt lat="45.30357" lon="5.47989">
        <ele>352.12408</ele>
        <time>2017-09-15T08:35:27Z</time>
      </trkpt>
      <trkpt lat="45.30364" lon="5.47981">
        <ele>352.91962</ele>
        <time>2017-09-15T08:35:32Z</time>
      </trkpt>
      <trkpt lat="45.30372" lon="5.47972">
        <ele>353.70355</ele>
        <time>2017-09-15T08:35:37Z</time>
      </trkpt>
      <trkpt lat="45.3038" lon="5.4796">
        <ele>354.4918</ele>
        <time>2017-09-15T08:35:43Z</time>
      </trkpt>
      <trkpt lat="45.30388" lon="5.47951">
        <ele>355.18234</ele>
        <time>2017-09-15T08:35:48Z</time>
      </trkpt>
      <trkpt lat="45.30399" lon="5.4794">
        <ele>355.9227</ele>
        <time>2017-09-15T08:35:54Z</time>
      </trkpt>
      <trkpt lat="45.30406" lon="5.47931">
        <ele>356.55203</ele>
        <time>2017-09-15T08:35:59Z</time>
      </trkpt>
      <trkpt lat="45.30413" lon="5.47925">
        <ele>357.29196</ele>
        <time>2017-09-15T08:36:04Z</time>
      </trkpt>
      <trkpt lat="45.30423" lon="5.47918">
        <ele>358.5085</ele>
        <time>2017-09-15T08:36:10Z</time>
      </trkpt>
      <trkpt lat="45.30435" lon="5.47907">
        <ele>359.90176</ele>
        <time>2017-09-15T08:36:16Z</time>
      </trkpt>
      <trkpt lat="45.30444" lon="5.47902">
        <ele>361.07257</ele>
        <time>2017-09-15T08:36:21Z</time>
      </trkpt>
      <trkpt lat="45.30456" lon="5.47895">
        <ele>362.52072</ele>
        <time>2017-09-15T08:36:27Z</time>
      </trkpt>
      <trkpt lat="45.30464" lon="5.47889">
        <ele>363.68817</ele>
        <time>2017-09-15T08:36:32Z</time>
      </trkpt>
      <trkpt lat="45.30473" lon="5.47883">
        <ele>365.08975</ele>
        <time>2017-09-15T08:36:38Z</time>
      </trkpt>
      <trkpt lat="45.30483" lon="5.47877">
        <ele>366.37994</ele>
        <time>2017-09-15T08:36:43Z</time>
      </trkpt>
      <trkpt lat="45.30493" lon="5.47871">
        <ele>367.55008</ele>
        <time>2017-09-15T08:36:48Z</time>
      </trkpt>
      <trkpt lat="45.30503" lon="5.47863">
        <ele>368.8476</ele>
        <time>2017-09-15T08:36:54Z</time>
      </trkpt>
      <trkpt lat="45.30508" lon="5.47856">
        <ele>369.74045</ele>
        <time>2017-09-15T08:36:59Z</time>
      </trkpt>
      <trkpt lat="45.30517" lon="5.47847">
        <ele>370.5896</ele>
        <time>2017-09-15T08:37:05Z</time>
      </trkpt>
      <trkpt lat="45.30524" lon="5.47836">
        <ele>371.19922</ele>
        <time>2017-09-15T08:37:10Z</time>
      </trkpt>
      <trkpt lat="45.30532" lon="5.47827">
        <ele>371.66473</ele>
        <time>2017-09-15T08:37:15Z</time>
      </trkpt>
      <trkpt lat="45.30548" lon="5.47823">
        <ele>372.49966</ele>
        <time>2017-09-15T08:37:21Z</time>
      </trkpt>
      <trkpt lat="45.30558" lon="5.47824">
        <ele>373.76904</ele>
        <time>2017-09-15T08:37:27Z</time>
      </trkpt>
      <trkpt lat="45.30572" lon="5.47827">
        <ele>375.0013</ele>
        <time>2017-09-15T08:37:33Z</time>
      </trkpt>
      <trkpt lat="45.30584" lon="5.47834">
        <ele>376.57962</ele>
        <time>2017-09-15T08:37:39Z</time>
      </trkpt>
      <trkpt lat="45.306" lon="5.47832">
        <ele>378.35336</ele>
        <time>2017-09-15T08:37:45Z</time>
      </trkpt>
      <trkpt lat="45.30611" lon="5.47827">
        <ele>379.72873</ele>
        <time>2017-09-15T08:37:50Z</time>
      </trkpt>
      <trkpt lat="45.30621" lon="5.47818">
        <ele>381.1774</ele>
        <time>2017-09-15T08:37:56Z</time>
      </trkpt>
      <trkpt lat="45.30633" lon="5.47807">
        <ele>382.3911</ele>
        <time>2017-09-15T08:38:02Z</time>
      </trkpt>
      <trkpt lat="45.30646" lon="5.47798">
        <ele>383.52426</ele>
        <time>2017-09-15T08:38:08Z</time>
      </trkpt>
      <trkpt lat="45.30657" lon="5.47788">
        <ele>384.5802</ele>
        <time>2017-09-15T08:38:14Z</time>
      </trkpt>
      <trkpt lat="45.30667" lon="5.4778">
        <ele>385.51926</ele>
        <time>2017-09-15T08:38:20Z</time>
      </trkpt>
      <trkpt lat="45.30674" lon="5.47774">
        <ele>386.40033</ele>
        <time>2017-09-15T08:38:25Z</time>
      </trkpt>
      <trkpt lat="45.30684" lon="5.47763">
        <ele>387.76315</ele>
        <time>2017-09-15T08:38:31Z</time>
      </trkpt>
      <trkpt lat="45.30693" lon="5.47749">
        <ele>389.1277</ele>
        <time>2017-09-15T08:38:37Z</time>
      </trkpt>
      <trkpt lat="45.30699" lon="5.47737">
        <ele>390.23126</ele>
        <time>2017-09-15T08:38:42Z</time>
      </trkpt>
      <trkpt lat="45.30703" lon="5.47721">
        <ele>391.676</ele>
        <time>2017-09-15T08:38:48Z</time>
      </trkpt>
      <trkpt lat="45.30709" lon="5.47705">
        <ele>392.93082</ele>
        <time>2017-09-15T08:38:54Z</time>
      </trkpt>
      <trkpt lat="45.30713" lon="5.4769">
        <ele>393.89624</ele>
        <time>2017-09-15T08:38:59Z</time>
      </trkpt>
      <trkpt lat="45.30718" lon="5.47675">
        <ele>394.3762</ele>
        <time>2017-09-15T08:39:04Z</time>
      </trkpt>
      <trkpt lat="45.30731" lon="5.47659">
        <ele>394.71338</ele>
        <time>2017-09-15T08:39:10Z</time>
      </trkpt>
      <trkpt lat="45.30737" lon="5.47646">
        <ele>395.26413</ele>
        <time>2017-09-15T08:39:16Z</time>
      </trkpt>
      <trkpt lat="45.30747" lon="5.47635">
        <ele>395.81012</ele>
        <time>2017-09-15T08:39:21Z</time>
      </trkpt>
      <trkpt lat="45.30758" lon="5.47622">
        <ele>396.5394</ele>
        <time>2017-09-15T08:39:27Z</time>
      </trkpt>
      <trkpt lat="45.30767" lon="5.47608">
        <ele>397.18274</ele>
        <time>2017-09-15T08:39:33Z</time>
      </trkpt>
      <trkpt lat="45.30765" lon="5.4759">
        <ele>397.87738</ele>
        <time>2017-09-15T08:39:39Z</time>
      </trkpt>
      <trkpt lat="45.3075" lon="5.47582">
        <ele>398.68362</ele>
        <time>2017-09-15T08:39:45Z</time>
      </trkpt>
      <trkpt lat="45.3074" lon="5.47588">
        <ele>399.39435</ele>
        <time>2017-09-15T08:39:51Z</time>
      </trkpt>
      <trkpt lat="45.30733" lon="5.47598">
        <ele>399.96387</ele>
        <time>2017-09-15T08:39:56Z</time>
      </trkpt>
      <trkpt lat="45.30725" lon="5.47611">
        <ele>400.80606</ele>
        <time>2017-09-15T08:40:02Z</time>
      </trkpt>
      <trkpt lat="45.30717" lon="5.47623">
        <ele>401.61258</ele>
        <time>2017-09-15T08:40:08Z</time>
      </trkpt>
      <trkpt lat="45.30707" lon="5.47635">
        <ele>402.59576</ele>
        <time>2017-09-15T08:40:14Z</time>
      </trkpt>
      <trkpt lat="45.30697" lon="5.47646">
        <ele>403.66476</ele>
        <time>2017-09-15T08:40:20Z</time>
      </trkpt>
      <trkpt lat="45.30687" lon="5.47657">
        <ele>404.86948</ele>
        <time>2017-09-15T08:40:26Z</time>
      </trkpt>
      <trkpt lat="45.30679" lon="5.47669">
        <ele>406.47266</ele>
        <time>2017-09-15T08:40:32Z</time>
      </trkpt>
      <trkpt lat="45.3067" lon="5.47676">
        <ele>408.02213</ele>
        <time>2017-09-15T08:40:38Z</time>
      </trkpt>
      <trkpt lat="45.30662" lon="5.47681">
        <ele>409.27115</ele>
        <time>2017-09-15T08:40:43Z</time>
      </trkpt>
      <trkpt lat="45.30649" lon="5.47688">
        <ele>410.86072</ele>
        <time>2017-09-15T08:40:49Z</time>
      </trkpt>
      <trkpt lat="45.30637" lon="5.47684">
        <ele>412.30853</ele>
        <time>2017-09-15T08:40:55Z</time>
      </trkpt>
      <trkpt lat="45.30629" lon="5.47673">
        <ele>413.58105</ele>
        <time>2017-09-15T08:41:01Z</time>
      </trkpt>
      <trkpt lat="45.30623" lon="5.47662">
        <ele>414.47977</ele>
        <time>2017-09-15T08:41:06Z</time>
      </trkpt>
      <trkpt lat="45.30612" lon="5.47653">
        <ele>415.35233</ele>
        <time>2017-09-15T08:41:12Z</time>
      </trkpt>
      <trkpt lat="45.30602" lon="5.47647">
        <ele>416.01346</ele>
        <time>2017-09-15T08:41:17Z</time>
      </trkpt>
      <trkpt lat="45.30591" lon="5.47646">
        <ele>416.6945</ele>
        <time>2017-09-15T08:41:23Z</time>
      </trkpt>
      <trkpt lat="45.30579" lon="5.47647">
        <ele>417.33173</ele>
        <time>2017-09-15T08:41:29Z</time>
      </trkpt>
      <trkpt lat="45.30565" lon="5.47653">
        <ele>417.9592</ele>
        <time>2017-09-15T08:41:35Z</time>
      </trkpt>
      <trkpt lat="45.30553" lon="5.47666">
        <ele>418.96198</ele>
        <time>2017-09-15T08:41:41Z</time>
      </trkpt>
      <trkpt lat="45.30542" lon="5.47677">
        <ele>419.7945</ele>
        <time>2017-09-15T08:41:47Z</time>
      </trkpt>
      <trkpt lat="45.30531" lon="5.47687">
        <ele>420.43814</ele>
        <time>2017-09-15T08:41:53Z</time>
      </trkpt>
      <trkpt lat="45.30518" lon="5.47692">
        <ele>420.76782</ele>
        <time>2017-09-15T08:41:59Z</time>
      </trkpt>
      <trkpt lat="45.30507" lon="5.47696">
        <ele>420.94403</ele>
        <time>2017-09-15T08:42:04Z</time>
      </trkpt>
      <trkpt lat="45.30493" lon="5.47699">
        <ele>421.20303</ele>
        <time>2017-09-15T08:42:10Z</time>
      </trkpt>
      <trkpt lat="45.30482" lon="5.47699">
        <ele>421.49307</ele>
        <time>2017-09-15T08:42:15Z</time>
      </trkpt>
      <trkpt lat="45.3047" lon="5.47696">
        <ele>421.83997</ele>
        <time>2017-09-15T08:42:21Z</time>
      </trkpt>
      <trkpt lat="45.3046" lon="5.47695">
        <ele>422.18948</ele>
        <time>2017-09-15T08:42:26Z</time>
      </trkpt>
      <trkpt lat="45.30446" lon="5.47691">
        <ele>422.7174</ele>
        <time>2017-09-15T08:42:32Z</time>
      </trkpt>
      <trkpt lat="45.30433" lon="5.4769">
        <ele>423.29416</ele>
        <time>2017-09-15T08:42:38Z</time>
      </trkpt>
      <trkpt lat="45.30422" lon="5.47681">
        <ele>423.99066</ele>
        <time>2017-09-15T08:42:44Z</time>
      </trkpt>
      <trkpt lat="45.30422" lon="5.47663">
        <ele>424.82858</ele>
        <time>2017-09-15T08:42:50Z</time>
      </trkpt>
      <trkpt lat="45.3043" lon="5.47655">
        <ele>425.57184</ele>
        <time>2017-09-15T08:42:55Z</time>
      </trkpt>
      <trkpt lat="45.30443" lon="5.47654">
        <ele>426.32217</ele>
        <time>2017-09-15T08:43:01Z</time>
      </trkpt>
      <trkpt lat="45.30456" lon="5.47657">
        <ele>427.14926</ele>
        <time>2017-09-15T08:43:07Z</time>
      </trkpt>
      <trkpt lat="45.30471" lon="5.47656">
        <ele>428.39465</ele>
        <time>2017-09-15T08:43:13Z</time>
      </trkpt>
      <trkpt lat="45.30484" lon="5.47649">
        <ele>429.8001</ele>
        <time>2017-09-15T08:43:19Z</time>
      </trkpt>
      <trkpt lat="45.30495" lon="5.47639">
        <ele>431.10568</ele>
        <time>2017-09-15T08:43:25Z</time>
      </trkpt>
      <trkpt lat="45.30504" lon="5.47629">
        <ele>431.9857</ele>
        <time>2017-09-15T08:43:30Z</time>
      </trkpt>
      <trkpt lat="45.30514" lon="5.47616">
        <ele>432.86188</ele>
        <time>2017-09-15T08:43:36Z</time>
      </trkpt>
      <trkpt lat="45.30523" lon="5.47607">
        <ele>433.61322</ele>
        <time>2017-09-15T08:43:41Z</time>
      </trkpt>
      <trkpt lat="45.30535" lon="5.47596">
        <ele>434.58212</ele>
        <time>2017-09-15T08:43:47Z</time>
      </trkpt>
      <trkpt lat="45.30551" lon="5.4759">
        <ele>435.86224</ele>
        <time>2017-09-15T08:43:53Z</time>
      </trkpt>
      <trkpt lat="45.30566" lon="5.47582">
        <ele>437.0465</ele>
        <time>2017-09-15T08:43:59Z</time>
      </trkpt>
      <trkpt lat="45.30579" lon="5.47571">
        <ele>438.43832</ele>
        <time>2017-09-15T08:44:05Z</time>
      </trkpt>
      <trkpt lat="45.30585" lon="5.47555">
        <ele>439.43475</ele>
        <time>2017-09-15T08:44:10Z</time>
      </trkpt>
      <trkpt lat="45.30595" lon="5.47539">
        <ele>440.2754</ele>
        <time>2017-09-15T08:44:16Z</time>
      </trkpt>
      <trkpt lat="45.30604" lon="5.47524">
        <ele>441.02866</ele>
        <time>2017-09-15T08:44:21Z</time>
      </trkpt>
      <trkpt lat="45.30616" lon="5.47507">
        <ele>441.78854</ele>
        <time>2017-09-15T08:44:27Z</time>
      </trkpt>
      <trkpt lat="45.30626" lon="5.47491">
        <ele>442.51562</ele>
        <time>2017-09-15T08:44:33Z</time>
      </trkpt>
      <trkpt lat="45.30636" lon="5.47476">
        <ele>443.32065</ele>
        <time>2017-09-15T08:44:39Z</time>
      </trkpt>
      <trkpt lat="45.30648" lon="5.47462">
        <ele>444.32037</ele>
        <time>2017-09-15T08:44:45Z</time>
      </trkpt>
      <trkpt lat="45.30663" lon="5.47447">
        <ele>445.2245</ele>
        <time>2017-09-15T08:44:51Z</time>
      </trkpt>
      <trkpt lat="45.30673" lon="5.47432">
        <ele>446.00217</ele>
        <time>2017-09-15T08:44:57Z</time>
      </trkpt>
      <trkpt lat="45.30682" lon="5.47417">
        <ele>446.78073</ele>
        <time>2017-09-15T08:45:03Z</time>
      </trkpt>
      <trkpt lat="45.30691" lon="5.47404">
        <ele>447.89032</ele>
        <time>2017-09-15T08:45:09Z</time>
      </trkpt>
      <trkpt lat="45.307" lon="5.4739">
        <ele>449.38483</ele>
        <time>2017-09-15T08:45:15Z</time>
      </trkpt>
      <trkpt lat="45.30712" lon="5.47376">
        <ele>450.9382</ele>
        <time>2017-09-15T08:45:20Z</time>
      </trkpt>
      <trkpt lat="45.30719" lon="5.47362">
        <ele>452.80966</ele>
        <time>2017-09-15T08:45:26Z</time>
      </trkpt>
      <trkpt lat="45.30724" lon="5.47346">
        <ele>454.42383</ele>
        <time>2017-09-15T08:45:32Z</time>
      </trkpt>
      <trkpt lat="45.3073" lon="5.47327">
        <ele>455.52896</ele>
        <time>2017-09-15T08:45:38Z</time>
      </trkpt>
      <trkpt lat="45.30735" lon="5.47305">
        <ele>455.99777</ele>
        <time>2017-09-15T08:45:44Z</time>
      </trkpt>
      <trkpt lat="45.30742" lon="5.47281">
        <ele>456.4929</ele>
        <time>2017-09-15T08:45:50Z</time>
      </trkpt>
      <trkpt lat="45.3075" lon="5.47259">
        <ele>457.26648</ele>
        <time>2017-09-15T08:45:55Z</time>
      </trkpt>
      <trkpt lat="45.30759" lon="5.47235">
        <ele>458.3881</ele>
        <time>2017-09-15T08:46:01Z</time>
      </trkpt>
      <trkpt lat="45.30763" lon="5.47214">
        <ele>459.0874</ele>
        <time>2017-09-15T08:46:07Z</time>
      </trkpt>
      <trkpt lat="45.30766" lon="5.47196">
        <ele>459.77722</ele>
        <time>2017-09-15T08:46:13Z</time>
      </trkpt>
      <trkpt lat="45.30772" lon="5.47174">
        <ele>460.34085</ele>
        <time>2017-09-15T08:46:19Z</time>
      </trkpt>
      <trkpt lat="45.30791" lon="5.47161">
        <ele>461.56824</ele>
        <time>2017-09-15T08:46:25Z</time>
      </trkpt>
      <trkpt lat="45.30803" lon="5.47155">
        <ele>463.63098</ele>
        <time>2017-09-15T08:46:31Z</time>
      </trkpt>
      <trkpt lat="45.30814" lon="5.47143">
        <ele>466.02435</ele>
        <time>2017-09-15T08:46:37Z</time>
      </trkpt>
      <trkpt lat="45.30821" lon="5.47128">
        <ele>467.89218</ele>
        <time>2017-09-15T08:46:42Z</time>
      </trkpt>
      <trkpt lat="45.30834" lon="5.47117">
        <ele>469.48062</ele>
        <time>2017-09-15T08:46:47Z</time>
      </trkpt>
      <trkpt lat="45.30844" lon="5.47114">
        <ele>470.58563</ele>
        <time>2017-09-15T08:46:52Z</time>
      </trkpt>
      <trkpt lat="45.30853" lon="5.47129">
        <ele>471.5391</ele>
        <time>2017-09-15T08:46:58Z</time>
      </trkpt>
      <trkpt lat="45.30858" lon="5.47142">
        <ele>472.0391</ele>
        <time>2017-09-15T08:47:03Z</time>
      </trkpt>
      <trkpt lat="45.30862" lon="5.47167">
        <ele>472.3308</ele>
        <time>2017-09-15T08:47:09Z</time>
      </trkpt>
      <trkpt lat="45.30865" lon="5.47189">
        <ele>473.02277</ele>
        <time>2017-09-15T08:47:15Z</time>
      </trkpt>
      <trkpt lat="45.3087" lon="5.47205">
        <ele>473.81793</ele>
        <time>2017-09-15T08:47:20Z</time>
      </trkpt>
      <trkpt lat="45.30882" lon="5.47217">
        <ele>474.7272</ele>
        <time>2017-09-15T08:47:26Z</time>
      </trkpt>
      <trkpt lat="45.30896" lon="5.4722">
        <ele>475.34662</ele>
        <time>2017-09-15T08:47:31Z</time>
      </trkpt>
      <trkpt lat="45.30913" lon="5.47224">
        <ele>475.90164</ele>
        <time>2017-09-15T08:47:37Z</time>
      </trkpt>
      <trkpt lat="45.30925" lon="5.47241">
        <ele>476.3348</ele>
        <time>2017-09-15T08:47:43Z</time>
      </trkpt>
      <trkpt lat="45.30928" lon="5.47267">
        <ele>477.4663</ele>
        <time>2017-09-15T08:47:49Z</time>
      </trkpt>
      <trkpt lat="45.30927" lon="5.47288">
        <ele>478.80405</ele>
        <time>2017-09-15T08:47:55Z</time>
      </trkpt>
      <trkpt lat="45.30927" lon="5.47309">
        <ele>479.97058</ele>
        <time>2017-09-15T08:48:00Z</time>
      </trkpt>
      <trkpt lat="45.30928" lon="5.47332">
        <ele>481.39685</ele>
        <time>2017-09-15T08:48:06Z</time>
      </trkpt>
      <trkpt lat="45.30929" lon="5.47355">
        <ele>482.68964</ele>
        <time>2017-09-15T08:48:12Z</time>
      </trkpt>
      <trkpt lat="45.3093" lon="5.47377">
        <ele>483.94482</ele>
        <time>2017-09-15T08:48:18Z</time>
      </trkpt>
      <trkpt lat="45.30932" lon="5.47399">
        <ele>485.06332</ele>
        <time>2017-09-15T08:48:24Z</time>
      </trkpt>
      <trkpt lat="45.30934" lon="5.47416">
        <ele>485.87308</ele>
        <time>2017-09-15T08:48:29Z</time>
      </trkpt>
      <trkpt lat="45.30934" lon="5.47436">
        <ele>486.73413</ele>
        <time>2017-09-15T08:48:35Z</time>
      </trkpt>
      <trkpt lat="45.30936" lon="5.47458">
        <ele>487.83163</ele>
        <time>2017-09-15T08:48:41Z</time>
      </trkpt>
      <trkpt lat="45.30938" lon="5.47481">
        <ele>488.73663</ele>
        <time>2017-09-15T08:48:47Z</time>
      </trkpt>
      <trkpt lat="45.30941" lon="5.47504">
        <ele>489.66394</ele>
        <time>2017-09-15T08:48:53Z</time>
      </trkpt>
      <trkpt lat="45.30946" lon="5.47519">
        <ele>490.38223</ele>
        <time>2017-09-15T08:48:58Z</time>
      </trkpt>
      <trkpt lat="45.30951" lon="5.47535">
        <ele>491.22238</ele>
        <time>2017-09-15T08:49:03Z</time>
      </trkpt>
      <trkpt lat="45.30958" lon="5.47547">
        <ele>492.18655</ele>
        <time>2017-09-15T08:49:08Z</time>
      </trkpt>
      <trkpt lat="45.30967" lon="5.47561">
        <ele>493.25223</ele>
        <time>2017-09-15T08:49:14Z</time>
      </trkpt>
      <trkpt lat="45.30975" lon="5.47576">
        <ele>494.2238</ele>
        <time>2017-09-15T08:49:19Z</time>
      </trkpt>
      <trkpt lat="45.30987" lon="5.4759">
        <ele>494.84256</ele>
        <time>2017-09-15T08:49:25Z</time>
      </trkpt>
      <trkpt lat="45.30995" lon="5.47601">
        <ele>495.322</ele>
        <time>2017-09-15T08:49:31Z</time>
      </trkpt>
      <trkpt lat="45.31009" lon="5.47615">
        <ele>496.36093</ele>
        <time>2017-09-15T08:49:36Z</time>
      </trkpt>
      <trkpt lat="45.31024" lon="5.47627">
        <ele>497.0728</ele>
        <time>2017-09-15T08:49:42Z</time>
      </trkpt>
      <trkpt lat="45.31042" lon="5.47639">
        <ele>497.738</ele>
        <time>2017-09-15T08:49:48Z</time>
      </trkpt>
      <trkpt lat="45.31058" lon="5.47647">
        <ele>499.08084</ele>
        <time>2017-09-15T08:49:54Z</time>
      </trkpt>
      <trkpt lat="45.31073" lon="5.4765">
        <ele>500.35254</ele>
        <time>2017-09-15T08:50:00Z</time>
      </trkpt>
      <trkpt lat="45.31087" lon="5.47648">
        <ele>501.1998</ele>
        <time>2017-09-15T08:50:05Z</time>
      </trkpt>
      <trkpt lat="45.31103" lon="5.47645">
        <ele>502.1391</ele>
        <time>2017-09-15T08:50:11Z</time>
      </trkpt>
      <trkpt lat="45.31118" lon="5.4764">
        <ele>503.23166</ele>
        <time>2017-09-15T08:50:17Z</time>
      </trkpt>
      <trkpt lat="45.31134" lon="5.47635">
        <ele>504.3965</ele>
        <time>2017-09-15T08:50:23Z</time>
      </trkpt>
      <trkpt lat="45.31147" lon="5.47632">
        <ele>505.49756</ele>
        <time>2017-09-15T08:50:28Z</time>
      </trkpt>
      <trkpt lat="45.31163" lon="5.47625">
        <ele>506.9421</ele>
        <time>2017-09-15T08:50:34Z</time>
      </trkpt>
      <trkpt lat="45.31174" lon="5.47618">
        <ele>508.1965</ele>
        <time>2017-09-15T08:50:39Z</time>
      </trkpt>
      <trkpt lat="45.31185" lon="5.47606">
        <ele>509.6508</ele>
        <time>2017-09-15T08:50:45Z</time>
      </trkpt>
      <trkpt lat="45.31191" lon="5.47586">
        <ele>510.79822</ele>
        <time>2017-09-15T08:50:51Z</time>
      </trkpt>
      <trkpt lat="45.31196" lon="5.47573">
        <ele>511.58707</ele>
        <time>2017-09-15T08:50:56Z</time>
      </trkpt>
      <trkpt lat="45.31204" lon="5.47553">
        <ele>512.5462</ele>
        <time>2017-09-15T08:51:02Z</time>
      </trkpt>
      <trkpt lat="45.31209" lon="5.47537">
        <ele>513.57404</ele>
        <time>2017-09-15T08:51:07Z</time>
      </trkpt>
      <trkpt lat="45.31216" lon="5.47517">
        <ele>514.64777</ele>
        <time>2017-09-15T08:51:13Z</time>
      </trkpt>
      <trkpt lat="45.31219" lon="5.47498">
        <ele>515.5956</ele>
        <time>2017-09-15T08:51:18Z</time>
      </trkpt>
      <trkpt lat="45.31226" lon="5.47476">
        <ele>517.36896</ele>
        <time>2017-09-15T08:51:24Z</time>
      </trkpt>
      <trkpt lat="45.31231" lon="5.47456">
        <ele>519.2292</ele>
        <time>2017-09-15T08:51:30Z</time>
      </trkpt>
      <trkpt lat="45.31236" lon="5.47439">
        <ele>520.8131</ele>
        <time>2017-09-15T08:51:36Z</time>
      </trkpt>
      <trkpt lat="45.31239" lon="5.47423">
        <ele>521.804</ele>
        <time>2017-09-15T08:51:41Z</time>
      </trkpt>
      <trkpt lat="45.31243" lon="5.47401">
        <ele>522.6755</ele>
        <time>2017-09-15T08:51:47Z</time>
      </trkpt>
      <trkpt lat="45.31249" lon="5.4738">
        <ele>523.24615</ele>
        <time>2017-09-15T08:51:53Z</time>
      </trkpt>
      <trkpt lat="45.31254" lon="5.47359">
        <ele>523.70746</ele>
        <time>2017-09-15T08:51:59Z</time>
      </trkpt>
      <trkpt lat="45.31261" lon="5.47337">
        <ele>524.24963</ele>
        <time>2017-09-15T08:52:05Z</time>
      </trkpt>
      <trkpt lat="45.31269" lon="5.47316">
        <ele>524.98193</ele>
        <time>2017-09-15T08:52:11Z</time>
      </trkpt>
      <trkpt lat="45.31276" lon="5.473">
        <ele>525.45374</ele>
        <time>2017-09-15T08:52:16Z</time>
      </trkpt>
      <trkpt lat="45.31282" lon="5.47285">
        <ele>526.0467</ele>
        <time>2017-09-15T08:52:21Z</time>
      </trkpt>
      <trkpt lat="45.31289" lon="5.47268">
        <ele>526.85596</ele>
        <time>2017-09-15T08:52:27Z</time>
      </trkpt>
      <trkpt lat="45.31299" lon="5.47249">
        <ele>527.639</ele>
        <time>2017-09-15T08:52:33Z</time>
      </trkpt>
      <trkpt lat="45.31306" lon="5.47234">
        <ele>528.39056</ele>
        <time>2017-09-15T08:52:38Z</time>
      </trkpt>
      <trkpt lat="45.31314" lon="5.47214">
        <ele>529.43243</ele>
        <time>2017-09-15T08:52:44Z</time>
      </trkpt>
      <trkpt lat="45.31322" lon="5.47205">
        <ele>530.3738</ele>
        <time>2017-09-15T08:52:49Z</time>
      </trkpt>
      <trkpt lat="45.31334" lon="5.47202">
        <ele>531.83966</ele>
        <time>2017-09-15T08:52:55Z</time>
      </trkpt>
      <trkpt lat="45.31348" lon="5.47201">
        <ele>533.22943</ele>
        <time>2017-09-15T08:53:01Z</time>
      </trkpt>
      <trkpt lat="45.31358" lon="5.47206">
        <ele>534.248</ele>
        <time>2017-09-15T08:53:07Z</time>
      </trkpt>
      <trkpt lat="45.31374" lon="5.47213">
        <ele>535.91437</ele>
        <time>2017-09-15T08:53:13Z</time>
      </trkpt>
      <trkpt lat="45.31389" lon="5.4722">
        <ele>537.5926</ele>
        <time>2017-09-15T08:53:19Z</time>
      </trkpt>
      <trkpt lat="45.31403" lon="5.47225">
        <ele>539.27747</ele>
        <time>2017-09-15T08:53:25Z</time>
      </trkpt>
      <trkpt lat="45.31416" lon="5.47231">
        <ele>540.84143</ele>
        <time>2017-09-15T08:53:31Z</time>
      </trkpt>
      <trkpt lat="45.31427" lon="5.47233">
        <ele>542.1332</ele>
        <time>2017-09-15T08:53:36Z</time>
      </trkpt>
      <trkpt lat="45.31445" lon="5.4723">
        <ele>543.6427</ele>
        <time>2017-09-15T08:53:42Z</time>
      </trkpt>
      <trkpt lat="45.31459" lon="5.47214">
        <ele>544.66986</ele>
        <time>2017-09-15T08:53:48Z</time>
      </trkpt>
      <trkpt lat="45.31468" lon="5.47195">
        <ele>545.3101</ele>
        <time>2017-09-15T08:53:54Z</time>
      </trkpt>
      <trkpt lat="45.31478" lon="5.47177">
        <ele>545.63745</ele>
        <time>2017-09-15T08:54:00Z</time>
      </trkpt>
      <trkpt lat="45.3149" lon="5.47161">
        <ele>546.11237</ele>
        <time>2017-09-15T08:54:06Z</time>
      </trkpt>
      <trkpt lat="45.31499" lon="5.47148">
        <ele>546.6785</ele>
        <time>2017-09-15T08:54:11Z</time>
      </trkpt>
      <trkpt lat="45.3151" lon="5.47131">
        <ele>547.4672</ele>
        <time>2017-09-15T08:54:17Z</time>
      </trkpt>
      <trkpt lat="45.31525" lon="5.47119">
        <ele>548.19806</ele>
        <time>2017-09-15T08:54:23Z</time>
      </trkpt>
      <trkpt lat="45.31542" lon="5.47109">
        <ele>549.4621</ele>
        <time>2017-09-15T08:54:29Z</time>
      </trkpt>
      <trkpt lat="45.3156" lon="5.471">
        <ele>551.10254</ele>
        <time>2017-09-15T08:54:35Z</time>
      </trkpt>
      <trkpt lat="45.31576" lon="5.47083">
        <ele>552.63586</ele>
        <time>2017-09-15T08:54:41Z</time>
      </trkpt>
      <trkpt lat="45.31589" lon="5.47064">
        <ele>553.75256</ele>
        <time>2017-09-15T08:54:47Z</time>
      </trkpt>
      <trkpt lat="45.31602" lon="5.47048">
        <ele>554.6623</ele>
        <time>2017-09-15T08:54:53Z</time>
      </trkpt>
      <trkpt lat="45.31613" lon="5.47034">
        <ele>555.78015</ele>
        <time>2017-09-15T08:54:59Z</time>
      </trkpt>
      <trkpt lat="45.31623" lon="5.47019">
        <ele>556.6037</ele>
        <time>2017-09-15T08:55:04Z</time>
      </trkpt>
      <trkpt lat="45.31634" lon="5.47001">
        <ele>557.393</ele>
        <time>2017-09-15T08:55:10Z</time>
      </trkpt>
      <trkpt lat="45.31643" lon="5.46986">
        <ele>558.0788</ele>
        <time>2017-09-15T08:55:15Z</time>
      </trkpt>
      <trkpt lat="45.31655" lon="5.46967">
        <ele>558.8072</ele>
        <time>2017-09-15T08:55:21Z</time>
      </trkpt>
      <trkpt lat="45.31664" lon="5.46954">
        <ele>559.46606</ele>
        <time>2017-09-15T08:55:26Z</time>
      </trkpt>
      <trkpt lat="45.31676" lon="5.46942">
        <ele>560.2538</ele>
        <time>2017-09-15T08:55:32Z</time>
      </trkpt>
      <trkpt lat="45.31693" lon="5.46932">
        <ele>561.1204</ele>
        <time>2017-09-15T08:55:38Z</time>
      </trkpt>
      <trkpt lat="45.3171" lon="5.46926">
        <ele>562.11176</ele>
        <time>2017-09-15T08:55:44Z</time>
      </trkpt>
      <trkpt lat="45.31726" lon="5.46922">
        <ele>563.17804</ele>
        <time>2017-09-15T08:55:50Z</time>
      </trkpt>
      <trkpt lat="45.31742" lon="5.46923">
        <ele>564.2514</ele>
        <time>2017-09-15T08:55:56Z</time>
      </trkpt>
      <trkpt lat="45.31756" lon="5.46928">
        <ele>565.0625</ele>
        <time>2017-09-15T08:56:01Z</time>
      </trkpt>
      <trkpt lat="45.31774" lon="5.46934">
        <ele>565.844</ele>
        <time>2017-09-15T08:56:07Z</time>
      </trkpt>
      <trkpt lat="45.31791" lon="5.46939">
        <ele>566.52905</ele>
        <time>2017-09-15T08:56:13Z</time>
      </trkpt>
      <trkpt lat="45.31808" lon="5.46939">
        <ele>567.21643</ele>
        <time>2017-09-15T08:56:19Z</time>
      </trkpt>
      <trkpt lat="45.31824" lon="5.46938">
        <ele>568.01447</ele>
        <time>2017-09-15T08:56:25Z</time>
      </trkpt>
      <trkpt lat="45.31839" lon="5.4693">
        <ele>568.96594</ele>
        <time>2017-09-15T08:56:31Z</time>
      </trkpt>
      <trkpt lat="45.31851" lon="5.46922">
        <ele>569.8446</ele>
        <time>2017-09-15T08:56:36Z</time>
      </trkpt>
      <trkpt lat="45.31862" lon="5.4691">
        <ele>571.03827</ele>
        <time>2017-09-15T08:56:42Z</time>
      </trkpt>
      <trkpt lat="45.31873" lon="5.46894">
        <ele>572.2344</ele>
        <time>2017-09-15T08:56:48Z</time>
      </trkpt>
      <trkpt lat="45.31884" lon="5.46874">
        <ele>573.17554</ele>
        <time>2017-09-15T08:56:54Z</time>
      </trkpt>
      <trkpt lat="45.31895" lon="5.46857">
        <ele>573.94604</ele>
        <time>2017-09-15T08:57:00Z</time>
      </trkpt>
      <trkpt lat="45.3191" lon="5.46854">
        <ele>574.7011</ele>
        <time>2017-09-15T08:57:06Z</time>
      </trkpt>
      <trkpt lat="45.31921" lon="5.46847">
        <ele>575.59265</ele>
        <time>2017-09-15T08:57:12Z</time>
      </trkpt>
      <trkpt lat="45.31931" lon="5.4684">
        <ele>576.64984</ele>
        <time>2017-09-15T08:57:17Z</time>
      </trkpt>
      <trkpt lat="45.3194" lon="5.46827">
        <ele>578.06586</ele>
        <time>2017-09-15T08:57:23Z</time>
      </trkpt>
      <trkpt lat="45.31951" lon="5.46815">
        <ele>579.4803</ele>
        <time>2017-09-15T08:57:29Z</time>
      </trkpt>
      <trkpt lat="45.31959" lon="5.46807">
        <ele>580.8098</ele>
        <time>2017-09-15T08:57:35Z</time>
      </trkpt>
      <trkpt lat="45.31967" lon="5.468">
        <ele>581.84467</ele>
        <time>2017-09-15T08:57:40Z</time>
      </trkpt>
      <trkpt lat="45.31975" lon="5.46791">
        <ele>583.14417</ele>
        <time>2017-09-15T08:57:46Z</time>
      </trkpt>
      <trkpt lat="45.31984" lon="5.46784">
        <ele>584.5975</ele>
        <time>2017-09-15T08:57:52Z</time>
      </trkpt>
      <trkpt lat="45.31994" lon="5.46781">
        <ele>586.35345</ele>
        <time>2017-09-15T08:57:58Z</time>
      </trkpt>
      <trkpt lat="45.32001" lon="5.46777">
        <ele>587.75226</ele>
        <time>2017-09-15T08:58:03Z</time>
      </trkpt>
      <trkpt lat="45.32011" lon="5.46771">
        <ele>589.3159</ele>
        <time>2017-09-15T08:58:09Z</time>
      </trkpt>
      <trkpt lat="45.32018" lon="5.46765">
        <ele>590.5804</ele>
        <time>2017-09-15T08:58:14Z</time>
      </trkpt>
      <trkpt lat="45.32025" lon="5.46759">
        <ele>592.0247</ele>
        <time>2017-09-15T08:58:20Z</time>
      </trkpt>
      <trkpt lat="45.32033" lon="5.46749">
        <ele>593.2592</ele>
        <time>2017-09-15T08:58:26Z</time>
      </trkpt>
      <trkpt lat="45.3204" lon="5.4674">
        <ele>594.4512</ele>
        <time>2017-09-15T08:58:32Z</time>
      </trkpt>
      <trkpt lat="45.32047" lon="5.46731">
        <ele>595.5581</ele>
        <time>2017-09-15T08:58:38Z</time>
      </trkpt>
      <trkpt lat="45.32054" lon="5.46722">
        <ele>596.4816</ele>
        <time>2017-09-15T08:58:44Z</time>
      </trkpt>
      <trkpt lat="45.32058" lon="5.46713">
        <ele>597.3249</ele>
        <time>2017-09-15T08:58:49Z</time>
      </trkpt>
      <trkpt lat="45.32065" lon="5.46705">
        <ele>598.1692</ele>
        <time>2017-09-15T08:58:54Z</time>
      </trkpt>
      <trkpt lat="45.32069" lon="5.46693">
        <ele>599.65234</ele>
        <time>2017-09-15T08:59:00Z</time>
      </trkpt>
      <trkpt lat="45.32074" lon="5.46684">
        <ele>601.79944</ele>
        <time>2017-09-15T08:59:06Z</time>
      </trkpt>
      <trkpt lat="45.3208" lon="5.46674">
        <ele>603.9572</ele>
        <time>2017-09-15T08:59:12Z</time>
      </trkpt>
      <trkpt lat="45.32084" lon="5.46666">
        <ele>605.75653</ele>
        <time>2017-09-15T08:59:17Z</time>
      </trkpt>
      <trkpt lat="45.3209" lon="5.46657">
        <ele>607.54376</ele>
        <time>2017-09-15T08:59:23Z</time>
      </trkpt>
      <trkpt lat="45.32095" lon="5.46651">
        <ele>608.5196</ele>
        <time>2017-09-15T08:59:28Z</time>
      </trkpt>
      <trkpt lat="45.32102" lon="5.46643">
        <ele>609.33655</ele>
        <time>2017-09-15T08:59:34Z</time>
      </trkpt>
      <trkpt lat="45.32109" lon="5.46632">
        <ele>610.38434</ele>
        <time>2017-09-15T08:59:40Z</time>
      </trkpt>
      <trkpt lat="45.32114" lon="5.46622">
        <ele>611.86566</ele>
        <time>2017-09-15T08:59:46Z</time>
      </trkpt>
      <trkpt lat="45.3212" lon="5.46616">
        <ele>613.32404</ele>
        <time>2017-09-15T08:59:52Z</time>
      </trkpt>
      <trkpt lat="45.32131" lon="5.46585">
        <ele>625.10077</ele>
        <time>2017-09-15T09:06:24Z</time>
      </trkpt>
      <trkpt lat="45.32136" lon="5.46575">
        <ele>625.9658</ele>
        <time>2017-09-15T09:06:30Z</time>
      </trkpt>
      <trkpt lat="45.32142" lon="5.46566">
        <ele>626.8353</ele>
        <time>2017-09-15T09:06:36Z</time>
      </trkpt>
      <trkpt lat="45.32148" lon="5.46558">
        <ele>627.79614</ele>
        <time>2017-09-15T09:06:41Z</time>
      </trkpt>
      <trkpt lat="45.32155" lon="5.46548">
        <ele>629.0597</ele>
        <time>2017-09-15T09:06:47Z</time>
      </trkpt>
      <trkpt lat="45.32162" lon="5.46544">
        <ele>630.1699</ele>
        <time>2017-09-15T09:06:52Z</time>
      </trkpt>
      <trkpt lat="45.32168" lon="5.46535">
        <ele>631.43085</ele>
        <time>2017-09-15T09:06:58Z</time>
      </trkpt>
      <trkpt lat="45.32174" lon="5.46527">
        <ele>632.53</ele>
        <time>2017-09-15T09:07:04Z</time>
      </trkpt>
      <trkpt lat="45.3218" lon="5.46517">
        <ele>633.3503</ele>
        <time>2017-09-15T09:07:10Z</time>
      </trkpt>
      <trkpt lat="45.32186" lon="5.46508">
        <ele>634.0861</ele>
        <time>2017-09-15T09:07:16Z</time>
      </trkpt>
      <trkpt lat="45.32191" lon="5.46497">
        <ele>634.75183</ele>
        <time>2017-09-15T09:07:22Z</time>
      </trkpt>
      <trkpt lat="45.32196" lon="5.46487">
        <ele>635.25946</ele>
        <time>2017-09-15T09:07:28Z</time>
      </trkpt>
      <trkpt lat="45.322" lon="5.46482">
        <ele>635.5836</ele>
        <time>2017-09-15T09:07:33Z</time>
      </trkpt>
      <trkpt lat="45.32206" lon="5.46471">
        <ele>635.90106</ele>
        <time>2017-09-15T09:07:39Z</time>
      </trkpt>
      <trkpt lat="45.32209" lon="5.46464">
        <ele>636.2546</ele>
        <time>2017-09-15T09:07:44Z</time>
      </trkpt>
      <trkpt lat="45.32216" lon="5.46458">
        <ele>636.9006</ele>
        <time>2017-09-15T09:07:50Z</time>
      </trkpt>
      <trkpt lat="45.32219" lon="5.46449">
        <ele>637.61194</ele>
        <time>2017-09-15T09:07:55Z</time>
      </trkpt>
      <trkpt lat="45.32237" lon="5.46425">
        <ele>642.37396</ele>
        <time>2017-09-15T09:08:11Z</time>
      </trkpt>
      <trkpt lat="45.32241" lon="5.46417">
        <ele>644.2524</ele>
        <time>2017-09-15T09:08:17Z</time>
      </trkpt>
      <trkpt lat="45.3228" lon="5.46366">
        <ele>656.1122</ele>
        <time>2017-09-15T09:08:52Z</time>
      </trkpt>
      <trkpt lat="45.32286" lon="5.46357">
        <ele>658.10046</ele>
        <time>2017-09-15T09:08:58Z</time>
      </trkpt>
      <trkpt lat="45.32292" lon="5.46351">
        <ele>660.1953</ele>
        <time>2017-09-15T09:09:04Z</time>
      </trkpt>
      <trkpt lat="45.32298" lon="5.46342">
        <ele>662.27203</ele>
        <time>2017-09-15T09:09:10Z</time>
      </trkpt>
      <trkpt lat="45.32305" lon="5.46329">
        <ele>664.12604</ele>
        <time>2017-09-15T09:09:16Z</time>
      </trkpt>
      <trkpt lat="45.32309" lon="5.46318">
        <ele>665.34375</ele>
        <time>2017-09-15T09:09:21Z</time>
      </trkpt>
      <trkpt lat="45.32316" lon="5.46305">
        <ele>666.6161</ele>
        <time>2017-09-15T09:09:27Z</time>
      </trkpt>
      <trkpt lat="45.32321" lon="5.46297">
        <ele>667.68494</ele>
        <time>2017-09-15T09:09:32Z</time>
      </trkpt>
      <trkpt lat="45.32327" lon="5.46287">
        <ele>668.67633</ele>
        <time>2017-09-15T09:09:38Z</time>
      </trkpt>
      <trkpt lat="45.32333" lon="5.46275">
        <ele>669.5375</ele>
        <time>2017-09-15T09:09:44Z</time>
      </trkpt>
      <trkpt lat="45.32338" lon="5.46266">
        <ele>670.19336</ele>
        <time>2017-09-15T09:09:49Z</time>
      </trkpt>
      <trkpt lat="45.32347" lon="5.46258">
        <ele>671.0566</ele>
        <time>2017-09-15T09:09:54Z</time>
      </trkpt>
      <trkpt lat="45.32354" lon="5.46244">
        <ele>672.165</ele>
        <time>2017-09-15T09:10:00Z</time>
      </trkpt>
      <trkpt lat="45.3236" lon="5.46231">
        <ele>673.0943</ele>
        <time>2017-09-15T09:10:06Z</time>
      </trkpt>
      <trkpt lat="45.32365" lon="5.4622">
        <ele>673.90985</ele>
        <time>2017-09-15T09:10:11Z</time>
      </trkpt>
      <trkpt lat="45.3237" lon="5.46205">
        <ele>674.7409</ele>
        <time>2017-09-15T09:10:17Z</time>
      </trkpt>
      <trkpt lat="45.32377" lon="5.46191">
        <ele>676.04614</ele>
        <time>2017-09-15T09:10:23Z</time>
      </trkpt>
      <trkpt lat="45.3238" lon="5.46183">
        <ele>677.206</ele>
        <time>2017-09-15T09:10:28Z</time>
      </trkpt>
      <trkpt lat="45.32386" lon="5.46176">
        <ele>678.5577</ele>
        <time>2017-09-15T09:10:34Z</time>
      </trkpt>
      <trkpt lat="45.32395" lon="5.4617">
        <ele>679.70825</ele>
        <time>2017-09-15T09:10:40Z</time>
      </trkpt>
      <trkpt lat="45.32406" lon="5.46165">
        <ele>681.2181</ele>
        <time>2017-09-15T09:10:46Z</time>
      </trkpt>
      <trkpt lat="45.32417" lon="5.46155">
        <ele>683.2411</ele>
        <time>2017-09-15T09:10:52Z</time>
      </trkpt>
      <trkpt lat="45.32425" lon="5.46148">
        <ele>685.2976</ele>
        <time>2017-09-15T09:10:58Z</time>
      </trkpt>
      <trkpt lat="45.3243" lon="5.46137">
        <ele>686.67664</ele>
        <time>2017-09-15T09:11:03Z</time>
      </trkpt>
      <trkpt lat="45.32435" lon="5.46126">
        <ele>687.99805</ele>
        <time>2017-09-15T09:11:08Z</time>
      </trkpt>
      <trkpt lat="45.32438" lon="5.46114">
        <ele>689.4789</ele>
        <time>2017-09-15T09:11:14Z</time>
      </trkpt>
      <trkpt lat="45.32444" lon="5.46103">
        <ele>690.70337</ele>
        <time>2017-09-15T09:11:20Z</time>
      </trkpt>
      <trkpt lat="45.32452" lon="5.46102">
        <ele>691.59</ele>
        <time>2017-09-15T09:11:26Z</time>
      </trkpt>
      <trkpt lat="45.32458" lon="5.46114">
        <ele>692.5975</ele>
        <time>2017-09-15T09:11:32Z</time>
      </trkpt>
      <trkpt lat="45.32463" lon="5.46125">
        <ele>693.51556</ele>
        <time>2017-09-15T09:11:38Z</time>
      </trkpt>
      <trkpt lat="45.32466" lon="5.46141">
        <ele>694.48114</ele>
        <time>2017-09-15T09:11:44Z</time>
      </trkpt>
      <trkpt lat="45.32471" lon="5.4615">
        <ele>695.2907</ele>
        <time>2017-09-15T09:11:50Z</time>
      </trkpt>
      <trkpt lat="45.32473" lon="5.46157">
        <ele>695.9454</ele>
        <time>2017-09-15T09:11:55Z</time>
      </trkpt>
      <trkpt lat="45.32472" lon="5.46173">
        <ele>696.9722</ele>
        <time>2017-09-15T09:12:01Z</time>
      </trkpt>
      <trkpt lat="45.32468" lon="5.46185">
        <ele>698.2461</ele>
        <time>2017-09-15T09:12:07Z</time>
      </trkpt>
      <trkpt lat="45.32464" lon="5.46193">
        <ele>699.44867</ele>
        <time>2017-09-15T09:12:13Z</time>
      </trkpt>
      <trkpt lat="45.32458" lon="5.46197">
        <ele>700.548</ele>
        <time>2017-09-15T09:12:18Z</time>
      </trkpt>
      <trkpt lat="45.32453" lon="5.46208">
        <ele>701.76825</ele>
        <time>2017-09-15T09:12:24Z</time>
      </trkpt>
      <trkpt lat="45.32447" lon="5.4622">
        <ele>703.0339</ele>
        <time>2017-09-15T09:12:30Z</time>
      </trkpt>
      <trkpt lat="45.32442" lon="5.46231">
        <ele>704.4739</ele>
        <time>2017-09-15T09:12:36Z</time>
      </trkpt>
      <trkpt lat="45.32438" lon="5.46239">
        <ele>705.72186</ele>
        <time>2017-09-15T09:12:41Z</time>
      </trkpt>
      <trkpt lat="45.32432" lon="5.4625">
        <ele>707.1957</ele>
        <time>2017-09-15T09:12:47Z</time>
      </trkpt>
      <trkpt lat="45.32427" lon="5.4626">
        <ele>708.41565</ele>
        <time>2017-09-15T09:12:53Z</time>
      </trkpt>
      <trkpt lat="45.32423" lon="5.46268">
        <ele>709.331</ele>
        <time>2017-09-15T09:12:58Z</time>
      </trkpt>
      <trkpt lat="45.32419" lon="5.46277">
        <ele>710.2793</ele>
        <time>2017-09-15T09:13:04Z</time>
      </trkpt>
      <trkpt lat="45.32415" lon="5.46288">
        <ele>711.3238</ele>
        <time>2017-09-15T09:13:10Z</time>
      </trkpt>
      <trkpt lat="45.32409" lon="5.46302">
        <ele>712.744</ele>
        <time>2017-09-15T09:13:16Z</time>
      </trkpt>
      <trkpt lat="45.32406" lon="5.46312">
        <ele>713.9424</ele>
        <time>2017-09-15T09:13:21Z</time>
      </trkpt>
      <trkpt lat="45.32403" lon="5.46327">
        <ele>715.3614</ele>
        <time>2017-09-15T09:13:27Z</time>
      </trkpt>
      <trkpt lat="45.324" lon="5.46342">
        <ele>716.7491</ele>
        <time>2017-09-15T09:13:33Z</time>
      </trkpt>
      <trkpt lat="45.32396" lon="5.46357">
        <ele>717.96497</ele>
        <time>2017-09-15T09:13:39Z</time>
      </trkpt>
      <trkpt lat="45.32393" lon="5.46371">
        <ele>718.98865</ele>
        <time>2017-09-15T09:13:44Z</time>
      </trkpt>
      <trkpt lat="45.3239" lon="5.46388">
        <ele>719.7548</ele>
        <time>2017-09-15T09:13:50Z</time>
      </trkpt>
      <trkpt lat="45.32387" lon="5.46406">
        <ele>720.16595</ele>
        <time>2017-09-15T09:13:56Z</time>
      </trkpt>
      <trkpt lat="45.32384" lon="5.46422">
        <ele>720.7537</ele>
        <time>2017-09-15T09:14:01Z</time>
      </trkpt>
      <trkpt lat="45.32379" lon="5.46443">
        <ele>721.7077</ele>
        <time>2017-09-15T09:14:07Z</time>
      </trkpt>
      <trkpt lat="45.32374" lon="5.46463">
        <ele>722.69293</ele>
        <time>2017-09-15T09:14:13Z</time>
      </trkpt>
      <trkpt lat="45.32369" lon="5.46483">
        <ele>723.8285</ele>
        <time>2017-09-15T09:14:19Z</time>
      </trkpt>
      <trkpt lat="45.32364" lon="5.46504">
        <ele>724.8665</ele>
        <time>2017-09-15T09:14:25Z</time>
      </trkpt>
      <trkpt lat="45.32359" lon="5.46524">
        <ele>725.73303</ele>
        <time>2017-09-15T09:14:31Z</time>
      </trkpt>
      <trkpt lat="45.32357" lon="5.46544">
        <ele>726.58154</ele>
        <time>2017-09-15T09:14:37Z</time>
      </trkpt>
      <trkpt lat="45.32357" lon="5.46566">
        <ele>727.1325</ele>
        <time>2017-09-15T09:14:43Z</time>
      </trkpt>
      <trkpt lat="45.32358" lon="5.46588">
        <ele>727.5069</ele>
        <time>2017-09-15T09:14:49Z</time>
      </trkpt>
      <trkpt lat="45.32356" lon="5.46604">
        <ele>727.7453</ele>
        <time>2017-09-15T09:14:55Z</time>
      </trkpt>
      <trkpt lat="45.32357" lon="5.46615">
        <ele>727.9131</ele>
        <time>2017-09-15T09:15:01Z</time>
      </trkpt>
      <trkpt lat="45.32359" lon="5.46626">
        <ele>728.13226</ele>
        <time>2017-09-15T09:16:08Z</time>
      </trkpt>
      <trkpt lat="45.32362" lon="5.46638">
        <ele>728.42303</ele>
        <time>2017-09-15T09:16:14Z</time>
      </trkpt>
      <trkpt lat="45.32365" lon="5.46661">
        <ele>731.9697</ele>
        <time>2017-09-15T09:17:51Z</time>
      </trkpt>
      <trkpt lat="45.32363" lon="5.4667">
        <ele>732.80115</ele>
        <time>2017-09-15T09:17:56Z</time>
      </trkpt>
      <trkpt lat="45.32364" lon="5.46679">
        <ele>733.7939</ele>
        <time>2017-09-15T09:18:01Z</time>
      </trkpt>
      <trkpt lat="45.32364" lon="5.46685">
        <ele>734.6963</ele>
        <time>2017-09-15T09:18:06Z</time>
      </trkpt>
      <trkpt lat="45.32365" lon="5.46692">
        <ele>735.57904</ele>
        <time>2017-09-15T09:18:13Z</time>
      </trkpt>
      <trkpt lat="45.32372" lon="5.46748">
        <ele>738.878</ele>
        <time>2017-09-15T09:36:33Z</time>
      </trkpt>
      <trkpt lat="45.32376" lon="5.46755">
        <ele>738.7528</ele>
        <time>2017-09-15T09:36:39Z</time>
      </trkpt>
      <trkpt lat="45.32363" lon="5.46763">
        <ele>738.5064</ele>
        <time>2017-09-15T09:38:11Z</time>
      </trkpt>
      <trkpt lat="45.32367" lon="5.46761">
        <ele>738.3908</ele>
        <time>2017-09-15T09:38:17Z</time>
      </trkpt>
      <trkpt lat="45.32372" lon="5.46758">
        <ele>738.32745</ele>
        <time>2017-09-15T09:38:22Z</time>
      </trkpt>
      <trkpt lat="45.32375" lon="5.4675">
        <ele>738.30194</ele>
        <time>2017-09-15T09:38:28Z</time>
      </trkpt>
      <trkpt lat="45.32371" lon="5.4674">
        <ele>744.84576</ele>
        <time>2017-09-15T09:42:53Z</time>
      </trkpt>
      <trkpt lat="45.32372" lon="5.46724">
        <ele>744.30945</ele>
        <time>2017-09-15T09:42:58Z</time>
      </trkpt>
      <trkpt lat="45.32367" lon="5.46698">
        <ele>743.3823</ele>
        <time>2017-09-15T09:43:04Z</time>
      </trkpt>
      <trkpt lat="45.32362" lon="5.46647">
        <ele>734.5885</ele>
        <time>2017-09-15T09:43:10Z</time>
      </trkpt>
      <trkpt lat="45.32358" lon="5.46576">
        <ele>729.7107</ele>
        <time>2017-09-15T09:43:16Z</time>
      </trkpt>
      <trkpt lat="45.32366" lon="5.46502">
        <ele>727.9766</ele>
        <time>2017-09-15T09:43:22Z</time>
      </trkpt>
      <trkpt lat="45.32384" lon="5.46429">
        <ele>727.7778</ele>
        <time>2017-09-15T09:43:28Z</time>
      </trkpt>
      <trkpt lat="45.32396" lon="5.46368">
        <ele>727.3143</ele>
        <time>2017-09-15T09:43:33Z</time>
      </trkpt>
      <trkpt lat="45.32413" lon="5.46299">
        <ele>725.56323</ele>
        <time>2017-09-15T09:43:39Z</time>
      </trkpt>
      <trkpt lat="45.3244" lon="5.46236">
        <ele>722.71576</ele>
        <time>2017-09-15T09:43:45Z</time>
      </trkpt>
      <trkpt lat="45.32476" lon="5.46169">
        <ele>719.6009</ele>
        <time>2017-09-15T09:43:51Z</time>
      </trkpt>
      <trkpt lat="45.32466" lon="5.4612">
        <ele>717.4924</ele>
        <time>2017-09-15T09:43:56Z</time>
      </trkpt>
      <trkpt lat="45.32455" lon="5.461">
        <ele>714.945</ele>
        <time>2017-09-15T09:44:30Z</time>
      </trkpt>
      <trkpt lat="45.32432" lon="5.46137">
        <ele>702.0415</ele>
        <time>2017-09-15T09:44:36Z</time>
      </trkpt>
      <trkpt lat="45.32391" lon="5.46167">
        <ele>693.9475</ele>
        <time>2017-09-15T09:44:41Z</time>
      </trkpt>
      <trkpt lat="45.3235" lon="5.46242">
        <ele>686.9747</ele>
        <time>2017-09-15T09:44:47Z</time>
      </trkpt>
      <trkpt lat="45.32306" lon="5.46319">
        <ele>681.8585</ele>
        <time>2017-09-15T09:44:53Z</time>
      </trkpt>
      <trkpt lat="45.32253" lon="5.46398">
        <ele>676.23016</ele>
        <time>2017-09-15T09:44:59Z</time>
      </trkpt>
      <trkpt lat="45.32205" lon="5.46481">
        <ele>669.6224</ele>
        <time>2017-09-15T09:45:04Z</time>
      </trkpt>
      <trkpt lat="45.32127" lon="5.46599">
        <ele>660.81104</ele>
        <time>2017-09-15T09:45:10Z</time>
      </trkpt>
      <trkpt lat="45.32076" lon="5.46686">
        <ele>652.10016</ele>
        <time>2017-09-15T09:45:15Z</time>
      </trkpt>
      <trkpt lat="45.32011" lon="5.46772">
        <ele>635.17114</ele>
        <time>2017-09-15T09:45:21Z</time>
      </trkpt>
      <trkpt lat="45.31944" lon="5.46817">
        <ele>620.68945</ele>
        <time>2017-09-15T09:45:26Z</time>
      </trkpt>
      <trkpt lat="45.31904" lon="5.46844">
        <ele>605.5669</ele>
        <time>2017-09-15T09:45:32Z</time>
      </trkpt>
      <trkpt lat="45.31913" lon="5.46814">
        <ele>593.69434</ele>
        <time>2017-09-15T09:45:38Z</time>
      </trkpt>
      <trkpt lat="45.31934" lon="5.46777">
        <ele>587.6716</ele>
        <time>2017-09-15T09:45:44Z</time>
      </trkpt>
      <trkpt lat="45.3196" lon="5.46741">
        <ele>585.4766</ele>
        <time>2017-09-15T09:45:50Z</time>
      </trkpt>
      <trkpt lat="45.31986" lon="5.46708">
        <ele>585.25195</ele>
        <time>2017-09-15T09:45:56Z</time>
      </trkpt>
      <trkpt lat="45.32009" lon="5.46675">
        <ele>585.6233</ele>
        <time>2017-09-15T09:46:02Z</time>
      </trkpt>
      <trkpt lat="45.32018" lon="5.46638">
        <ele>586.3608</ele>
        <time>2017-09-15T09:46:08Z</time>
      </trkpt>
      <trkpt lat="45.32019" lon="5.46591">
        <ele>587.5099</ele>
        <time>2017-09-15T09:46:14Z</time>
      </trkpt>
      <trkpt lat="45.32023" lon="5.46545">
        <ele>589.5924</ele>
        <time>2017-09-15T09:46:20Z</time>
      </trkpt>
      <trkpt lat="45.32022" lon="5.46504">
        <ele>591.9692</ele>
        <time>2017-09-15T09:46:26Z</time>
      </trkpt>
      <trkpt lat="45.32026" lon="5.46469">
        <ele>591.9045</ele>
        <time>2017-09-15T09:46:32Z</time>
      </trkpt>
      <trkpt lat="45.32037" lon="5.4644">
        <ele>587.9782</ele>
        <time>2017-09-15T09:47:00Z</time>
      </trkpt>
      <trkpt lat="45.32049" lon="5.46414">
        <ele>581.5618</ele>
        <time>2017-09-15T09:47:06Z</time>
      </trkpt>
      <trkpt lat="45.32065" lon="5.4638">
        <ele>577.6941</ele>
        <time>2017-09-15T09:47:11Z</time>
      </trkpt>
      <trkpt lat="45.32088" lon="5.46335">
        <ele>577.1065</ele>
        <time>2017-09-15T09:47:17Z</time>
      </trkpt>
      <trkpt lat="45.32108" lon="5.46283">
        <ele>577.575</ele>
        <time>2017-09-15T09:47:22Z</time>
      </trkpt>
      <trkpt lat="45.3213" lon="5.46239">
        <ele>576.7455</ele>
        <time>2017-09-15T09:47:27Z</time>
      </trkpt>
      <trkpt lat="45.32151" lon="5.46179">
        <ele>575.2755</ele>
        <time>2017-09-15T09:47:33Z</time>
      </trkpt>
      <trkpt lat="45.3216" lon="5.46112">
        <ele>573.1496</ele>
        <time>2017-09-15T09:47:38Z</time>
      </trkpt>
      <trkpt lat="45.32172" lon="5.46029">
        <ele>569.70465</ele>
        <time>2017-09-15T09:47:44Z</time>
      </trkpt>
      <trkpt lat="45.3219" lon="5.45941">
        <ele>566.4742</ele>
        <time>2017-09-15T09:47:50Z</time>
      </trkpt>
      <trkpt lat="45.32215" lon="5.45862">
        <ele>561.3831</ele>
        <time>2017-09-15T09:47:56Z</time>
      </trkpt>
      <trkpt lat="45.3223" lon="5.45787">
        <ele>557.85425</ele>
        <time>2017-09-15T09:48:01Z</time>
      </trkpt>
      <trkpt lat="45.32241" lon="5.45699">
        <ele>554.3903</ele>
        <time>2017-09-15T09:48:07Z</time>
      </trkpt>
      <trkpt lat="45.32249" lon="5.45614">
        <ele>551.11115</ele>
        <time>2017-09-15T09:48:13Z</time>
      </trkpt>
      <trkpt lat="45.32254" lon="5.45539">
        <ele>549.2211</ele>
        <time>2017-09-15T09:48:18Z</time>
      </trkpt>
      <trkpt lat="45.32259" lon="5.45467">
        <ele>547.11066</ele>
        <time>2017-09-15T09:48:23Z</time>
      </trkpt>
      <trkpt lat="45.32269" lon="5.45377">
        <ele>543.283</ele>
        <time>2017-09-15T09:48:29Z</time>
      </trkpt>
      <trkpt lat="45.32281" lon="5.45301">
        <ele>539.8293</ele>
        <time>2017-09-15T09:48:34Z</time>
      </trkpt>
      <trkpt lat="45.32294" lon="5.4521">
        <ele>535.88635</ele>
        <time>2017-09-15T09:48:40Z</time>
      </trkpt>
      <trkpt lat="45.32309" lon="5.45119">
        <ele>532.3442</ele>
        <time>2017-09-15T09:48:46Z</time>
      </trkpt>
      <trkpt lat="45.32308" lon="5.45029">
        <ele>529.3588</ele>
        <time>2017-09-15T09:48:52Z</time>
      </trkpt>
      <trkpt lat="45.32304" lon="5.44959">
        <ele>527.5594</ele>
        <time>2017-09-15T09:48:57Z</time>
      </trkpt>
      <trkpt lat="45.32314" lon="5.44892">
        <ele>526.2625</ele>
        <time>2017-09-15T09:49:02Z</time>
      </trkpt>
      <trkpt lat="45.32322" lon="5.44826">
        <ele>524.287</ele>
        <time>2017-09-15T09:49:07Z</time>
      </trkpt>
      <trkpt lat="45.3232" lon="5.44741">
        <ele>521.46014</ele>
        <time>2017-09-15T09:49:13Z</time>
      </trkpt>
      <trkpt lat="45.32326" lon="5.44674">
        <ele>519.6366</ele>
        <time>2017-09-15T09:49:18Z</time>
      </trkpt>
      <trkpt lat="45.32325" lon="5.44589">
        <ele>517.0229</ele>
        <time>2017-09-15T09:49:24Z</time>
      </trkpt>
      <trkpt lat="45.32331" lon="5.44506">
        <ele>513.65216</ele>
        <time>2017-09-15T09:49:30Z</time>
      </trkpt>
      <trkpt lat="45.32348" lon="5.44446">
        <ele>511.61398</ele>
        <time>2017-09-15T09:49:35Z</time>
      </trkpt>
      <trkpt lat="45.3237" lon="5.44374">
        <ele>509.69064</ele>
        <time>2017-09-15T09:49:41Z</time>
      </trkpt>
      <trkpt lat="45.32389" lon="5.44315">
        <ele>508.39966</ele>
        <time>2017-09-15T09:49:46Z</time>
      </trkpt>
      <trkpt lat="45.32413" lon="5.44246">
        <ele>506.92062</ele>
        <time>2017-09-15T09:49:52Z</time>
      </trkpt>
      <trkpt lat="45.32436" lon="5.44178">
        <ele>505.8238</ele>
        <time>2017-09-15T09:49:58Z</time>
      </trkpt>
      <trkpt lat="45.32466" lon="5.44119">
        <ele>504.89484</ele>
        <time>2017-09-15T09:50:04Z</time>
      </trkpt>
      <trkpt lat="45.32494" lon="5.44075">
        <ele>504.0674</ele>
        <time>2017-09-15T09:50:09Z</time>
      </trkpt>
      <trkpt lat="45.32529" lon="5.44022">
        <ele>502.7371</ele>
        <time>2017-09-15T09:50:15Z</time>
      </trkpt>
      <trkpt lat="45.32552" lon="5.43984">
        <ele>501.6255</ele>
        <time>2017-09-15T09:50:21Z</time>
      </trkpt>
      <trkpt lat="45.32552" lon="5.43973">
        <ele>498.53186</ele>
        <time>2017-09-15T09:52:59Z</time>
      </trkpt>
      <trkpt lat="45.32562" lon="5.43954">
        <ele>496.73212</ele>
        <time>2017-09-15T09:53:05Z</time>
      </trkpt>
      <trkpt lat="45.32574" lon="5.43928">
        <ele>493.20282</ele>
        <time>2017-09-15T09:53:10Z</time>
      </trkpt>
      <trkpt lat="45.32595" lon="5.43891">
        <ele>490.8669</ele>
        <time>2017-09-15T09:53:16Z</time>
      </trkpt>
      <trkpt lat="45.32614" lon="5.43856">
        <ele>489.3586</ele>
        <time>2017-09-15T09:53:21Z</time>
      </trkpt>
      <trkpt lat="45.32635" lon="5.43813">
        <ele>488.34564</ele>
        <time>2017-09-15T09:53:26Z</time>
      </trkpt>
      <trkpt lat="45.32662" lon="5.43759">
        <ele>487.65378</ele>
        <time>2017-09-15T09:53:32Z</time>
      </trkpt>
      <trkpt lat="45.32685" lon="5.43718">
        <ele>487.09634</ele>
        <time>2017-09-15T09:53:37Z</time>
      </trkpt>
      <trkpt lat="45.32712" lon="5.43671">
        <ele>486.18152</ele>
        <time>2017-09-15T09:53:43Z</time>
      </trkpt>
      <trkpt lat="45.32731" lon="5.43632">
        <ele>485.35132</ele>
        <time>2017-09-15T09:53:48Z</time>
      </trkpt>
      <trkpt lat="45.32746" lon="5.43602">
        <ele>483.30096</ele>
        <time>2017-09-15T09:53:53Z</time>
      </trkpt>
      <trkpt lat="45.32764" lon="5.4357">
        <ele>479.98367</ele>
        <time>2017-09-15T09:53:59Z</time>
      </trkpt>
      <trkpt lat="45.32784" lon="5.43536">
        <ele>477.5028</ele>
        <time>2017-09-15T09:54:04Z</time>
      </trkpt>
      <trkpt lat="45.32811" lon="5.43489">
        <ele>475.43323</ele>
        <time>2017-09-15T09:54:10Z</time>
      </trkpt>
      <trkpt lat="45.32842" lon="5.43441">
        <ele>473.96127</ele>
        <time>2017-09-15T09:54:16Z</time>
      </trkpt>
      <trkpt lat="45.32863" lon="5.43397">
        <ele>472.78482</ele>
        <time>2017-09-15T09:54:21Z</time>
      </trkpt>
      <trkpt lat="45.32884" lon="5.43344">
        <ele>471.628</ele>
        <time>2017-09-15T09:54:27Z</time>
      </trkpt>
      <trkpt lat="45.32889" lon="5.4332">
        <ele>471.33096</ele>
        <time>2017-09-15T09:54:32Z</time>
      </trkpt>
      <trkpt lat="45.32892" lon="5.43307">
        <ele>472.21774</ele>
        <time>2017-09-15T09:56:06Z</time>
      </trkpt>
      <trkpt lat="45.32905" lon="5.43292">
        <ele>472.17126</ele>
        <time>2017-09-15T09:56:12Z</time>
      </trkpt>
      <trkpt lat="45.32923" lon="5.4326">
        <ele>468.17053</ele>
        <time>2017-09-15T09:56:18Z</time>
      </trkpt>
      <trkpt lat="45.32947" lon="5.43223">
        <ele>466.0134</ele>
        <time>2017-09-15T09:56:24Z</time>
      </trkpt>
      <trkpt lat="45.32969" lon="5.43182">
        <ele>464.28714</ele>
        <time>2017-09-15T09:56:30Z</time>
      </trkpt>
      <trkpt lat="45.32991" lon="5.43146">
        <ele>462.89523</ele>
        <time>2017-09-15T09:56:35Z</time>
      </trkpt>
      <trkpt lat="45.33017" lon="5.43102">
        <ele>462.12073</ele>
        <time>2017-09-15T09:56:41Z</time>
      </trkpt>
      <trkpt lat="45.33041" lon="5.43066">
        <ele>461.989</ele>
        <time>2017-09-15T09:56:46Z</time>
      </trkpt>
      <trkpt lat="45.3307" lon="5.43023">
        <ele>461.75793</ele>
        <time>2017-09-15T09:56:52Z</time>
      </trkpt>
      <trkpt lat="45.33095" lon="5.42989">
        <ele>461.48532</ele>
        <time>2017-09-15T09:56:57Z</time>
      </trkpt>
      <trkpt lat="45.33126" lon="5.42947">
        <ele>461.00906</ele>
        <time>2017-09-15T09:57:03Z</time>
      </trkpt>
      <trkpt lat="45.33155" lon="5.42906">
        <ele>460.7667</ele>
        <time>2017-09-15T09:57:09Z</time>
      </trkpt>
      <trkpt lat="45.3318" lon="5.42879">
        <ele>458.94855</ele>
        <time>2017-09-15T09:57:15Z</time>
      </trkpt>
      <trkpt lat="45.33205" lon="5.42847">
        <ele>456.48444</ele>
        <time>2017-09-15T09:57:21Z</time>
      </trkpt>
      <trkpt lat="45.33217" lon="5.42829">
        <ele>456.82516</ele>
        <time>2017-09-15T09:58:04Z</time>
      </trkpt>
      <trkpt lat="45.33206" lon="5.42829">
        <ele>457.24622</ele>
        <time>2017-09-15T09:58:09Z</time>
      </trkpt>
      <trkpt lat="45.33199" lon="5.42804">
        <ele>459.05484</ele>
        <time>2017-09-15T09:58:15Z</time>
      </trkpt>
      <trkpt lat="45.33191" lon="5.42774">
        <ele>461.63504</ele>
        <time>2017-09-15T09:58:20Z</time>
      </trkpt>
      <trkpt lat="45.33182" lon="5.42733">
        <ele>463.35266</ele>
        <time>2017-09-15T09:58:26Z</time>
      </trkpt>
      <trkpt lat="45.33167" lon="5.42702">
        <ele>462.75198</ele>
        <time>2017-09-15T09:58:31Z</time>
      </trkpt>
      <trkpt lat="45.33136" lon="5.42687">
        <ele>460.15454</ele>
        <time>2017-09-15T09:58:37Z</time>
      </trkpt>
      <trkpt lat="45.33102" lon="5.42683">
        <ele>455.30197</ele>
        <time>2017-09-15T09:58:42Z</time>
      </trkpt>
      <trkpt lat="45.33062" lon="5.42676">
        <ele>450.9402</ele>
        <time>2017-09-15T09:58:48Z</time>
      </trkpt>
      <trkpt lat="45.3304" lon="5.42677">
        <ele>448.84387</ele>
        <time>2017-09-15T09:58:53Z</time>
      </trkpt>
      <trkpt lat="45.33012" lon="5.42684">
        <ele>448.8987</ele>
        <time>2017-09-15T09:58:59Z</time>
      </trkpt>
      <trkpt lat="45.32982" lon="5.42695">
        <ele>449.60202</ele>
        <time>2017-09-15T09:59:05Z</time>
      </trkpt>
      <trkpt lat="45.3295" lon="5.42704">
        <ele>449.86</ele>
        <time>2017-09-15T09:59:11Z</time>
      </trkpt>
      <trkpt lat="45.32921" lon="5.42702">
        <ele>450.3478</ele>
        <time>2017-09-15T09:59:16Z</time>
      </trkpt>
      <trkpt lat="45.32881" lon="5.42692">
        <ele>449.7263</ele>
        <time>2017-09-15T09:59:22Z</time>
      </trkpt>
      <trkpt lat="45.32853" lon="5.42671">
        <ele>449.01627</ele>
        <time>2017-09-15T09:59:27Z</time>
      </trkpt>
      <trkpt lat="45.32831" lon="5.42648">
        <ele>448.72186</ele>
        <time>2017-09-15T09:59:32Z</time>
      </trkpt>
      <trkpt lat="45.32809" lon="5.42623">
        <ele>449.2242</ele>
        <time>2017-09-15T09:59:38Z</time>
      </trkpt>
      <trkpt lat="45.32792" lon="5.42597">
        <ele>450.49448</ele>
        <time>2017-09-15T09:59:44Z</time>
      </trkpt>
      <trkpt lat="45.32765" lon="5.42586">
        <ele>452.1181</ele>
        <time>2017-09-15T09:59:50Z</time>
      </trkpt>
      <trkpt lat="45.3274" lon="5.42582">
        <ele>452.6418</ele>
        <time>2017-09-15T09:59:56Z</time>
      </trkpt>
      <trkpt lat="45.32723" lon="5.42578">
        <ele>452.5169</ele>
        <time>2017-09-15T10:00:01Z</time>
      </trkpt>
      <trkpt lat="45.32706" lon="5.4257">
        <ele>452.64792</ele>
        <time>2017-09-15T10:00:07Z</time>
      </trkpt>
      <trkpt lat="45.32689" lon="5.42563">
        <ele>452.9219</ele>
        <time>2017-09-15T10:00:12Z</time>
      </trkpt>
      <trkpt lat="45.32668" lon="5.42557">
        <ele>453.16824</ele>
        <time>2017-09-15T10:00:18Z</time>
      </trkpt>
      <trkpt lat="45.32652" lon="5.42555">
        <ele>453.3653</ele>
        <time>2017-09-15T10:00:24Z</time>
      </trkpt>
      <trkpt lat="45.32636" lon="5.42551">
        <ele>453.51855</ele>
        <time>2017-09-15T10:00:30Z</time>
      </trkpt>
      <trkpt lat="45.32622" lon="5.42547">
        <ele>453.8009</ele>
        <time>2017-09-15T10:00:36Z</time>
      </trkpt>
      <trkpt lat="45.32613" lon="5.42538">
        <ele>454.25412</ele>
        <time>2017-09-15T10:00:42Z</time>
      </trkpt>
      <trkpt lat="45.32606" lon="5.42529">
        <ele>454.7647</ele>
        <time>2017-09-15T10:00:47Z</time>
      </trkpt>
      <trkpt lat="45.32599" lon="5.42517">
        <ele>455.44272</ele>
        <time>2017-09-15T10:00:53Z</time>
      </trkpt>
      <trkpt lat="45.32591" lon="5.42504">
        <ele>456.31604</ele>
        <time>2017-09-15T10:00:59Z</time>
      </trkpt>
      <trkpt lat="45.32584" lon="5.42494">
        <ele>457.282</ele>
        <time>2017-09-15T10:01:05Z</time>
      </trkpt>
      <trkpt lat="45.32576" lon="5.42488">
        <ele>458.12198</ele>
        <time>2017-09-15T10:01:10Z</time>
      </trkpt>
      <trkpt lat="45.32567" lon="5.42482">
        <ele>459.11963</ele>
        <time>2017-09-15T10:01:16Z</time>
      </trkpt>
      <trkpt lat="45.32557" lon="5.42477">
        <ele>460.09363</ele>
        <time>2017-09-15T10:01:22Z</time>
      </trkpt>
      <trkpt lat="45.3255" lon="5.42472">
        <ele>460.89383</ele>
        <time>2017-09-15T10:01:27Z</time>
      </trkpt>
      <trkpt lat="45.32542" lon="5.42468">
        <ele>461.6635</ele>
        <time>2017-09-15T10:01:32Z</time>
      </trkpt>
      <trkpt lat="45.32532" lon="5.42461">
        <ele>462.51166</ele>
        <time>2017-09-15T10:01:38Z</time>
      </trkpt>
      <trkpt lat="45.32523" lon="5.42454">
        <ele>463.33337</ele>
        <time>2017-09-15T10:01:44Z</time>
      </trkpt>
      <trkpt lat="45.32513" lon="5.42445">
        <ele>464.01587</ele>
        <time>2017-09-15T10:01:50Z</time>
      </trkpt>
      <trkpt lat="45.32507" lon="5.42439">
        <ele>464.585</ele>
        <time>2017-09-15T10:01:55Z</time>
      </trkpt>
      <trkpt lat="45.32499" lon="5.42429">
        <ele>465.46085</ele>
        <time>2017-09-15T10:02:01Z</time>
      </trkpt>
      <trkpt lat="45.32493" lon="5.42422">
        <ele>466.30975</ele>
        <time>2017-09-15T10:02:06Z</time>
      </trkpt>
      <trkpt lat="45.32485" lon="5.42411">
        <ele>467.40274</ele>
        <time>2017-09-15T10:02:12Z</time>
      </trkpt>
      <trkpt lat="45.32478" lon="5.42401">
        <ele>468.31247</ele>
        <time>2017-09-15T10:02:17Z</time>
      </trkpt>
      <trkpt lat="45.32472" lon="5.42391">
        <ele>469.23798</ele>
        <time>2017-09-15T10:02:22Z</time>
      </trkpt>
      <trkpt lat="45.32463" lon="5.42379">
        <ele>470.45255</ele>
        <time>2017-09-15T10:02:28Z</time>
      </trkpt>
      <trkpt lat="45.32456" lon="5.42371">
        <ele>471.51108</ele>
        <time>2017-09-15T10:02:33Z</time>
      </trkpt>
      <trkpt lat="45.3245" lon="5.42363">
        <ele>472.54</ele>
        <time>2017-09-15T10:02:38Z</time>
      </trkpt>
      <trkpt lat="45.32441" lon="5.42353">
        <ele>473.68317</ele>
        <time>2017-09-15T10:02:44Z</time>
      </trkpt>
      <trkpt lat="45.32433" lon="5.42343">
        <ele>474.6602</ele>
        <time>2017-09-15T10:02:50Z</time>
      </trkpt>
      <trkpt lat="45.32426" lon="5.42329">
        <ele>475.53357</ele>
        <time>2017-09-15T10:02:56Z</time>
      </trkpt>
      <trkpt lat="45.3242" lon="5.42317">
        <ele>476.28674</ele>
        <time>2017-09-15T10:03:01Z</time>
      </trkpt>
      <trkpt lat="45.32416" lon="5.42305">
        <ele>477.3725</ele>
        <time>2017-09-15T10:03:07Z</time>
      </trkpt>
      <trkpt lat="45.32411" lon="5.42292">
        <ele>478.66248</ele>
        <time>2017-09-15T10:03:13Z</time>
      </trkpt>
      <trkpt lat="45.32405" lon="5.42278">
        <ele>479.85904</ele>
        <time>2017-09-15T10:03:19Z</time>
      </trkpt>
      <trkpt lat="45.32397" lon="5.42267">
        <ele>480.91165</ele>
        <time>2017-09-15T10:03:25Z</time>
      </trkpt>
      <trkpt lat="45.32389" lon="5.42257">
        <ele>481.74243</ele>
        <time>2017-09-15T10:03:30Z</time>
      </trkpt>
      <trkpt lat="45.32378" lon="5.4225">
        <ele>482.85925</ele>
        <time>2017-09-15T10:03:36Z</time>
      </trkpt>
      <trkpt lat="45.3237" lon="5.42243">
        <ele>483.9508</ele>
        <time>2017-09-15T10:03:41Z</time>
      </trkpt>
      <trkpt lat="45.32362" lon="5.42232">
        <ele>485.35257</ele>
        <time>2017-09-15T10:03:47Z</time>
      </trkpt>
      <trkpt lat="45.32355" lon="5.42218">
        <ele>486.70984</ele>
        <time>2017-09-15T10:03:53Z</time>
      </trkpt>
      <trkpt lat="45.32348" lon="5.42204">
        <ele>487.931</ele>
        <time>2017-09-15T10:03:59Z</time>
      </trkpt>
      <trkpt lat="45.32341" lon="5.4219">
        <ele>489.075</ele>
        <time>2017-09-15T10:04:05Z</time>
      </trkpt>
      <trkpt lat="45.32334" lon="5.4218">
        <ele>489.97998</ele>
        <time>2017-09-15T10:04:10Z</time>
      </trkpt>
      <trkpt lat="45.32327" lon="5.4217">
        <ele>490.87363</ele>
        <time>2017-09-15T10:04:15Z</time>
      </trkpt>
      <trkpt lat="45.32318" lon="5.42157">
        <ele>491.98685</ele>
        <time>2017-09-15T10:04:21Z</time>
      </trkpt>
      <trkpt lat="45.32311" lon="5.42144">
        <ele>493.08014</ele>
        <time>2017-09-15T10:04:27Z</time>
      </trkpt>
      <trkpt lat="45.32305" lon="5.42131">
        <ele>493.88287</ele>
        <time>2017-09-15T10:04:32Z</time>
      </trkpt>
      <trkpt lat="45.32299" lon="5.42117">
        <ele>494.62228</ele>
        <time>2017-09-15T10:04:37Z</time>
      </trkpt>
      <trkpt lat="45.32292" lon="5.42104">
        <ele>495.32715</ele>
        <time>2017-09-15T10:04:43Z</time>
      </trkpt>
      <trkpt lat="45.32285" lon="5.42089">
        <ele>495.96442</ele>
        <time>2017-09-15T10:04:49Z</time>
      </trkpt>
      <trkpt lat="45.32278" lon="5.42077">
        <ele>496.61847</ele>
        <time>2017-09-15T10:04:55Z</time>
      </trkpt>
      <trkpt lat="45.32269" lon="5.42066">
        <ele>497.2739</ele>
        <time>2017-09-15T10:05:01Z</time>
      </trkpt>
      <trkpt lat="45.32258" lon="5.42058">
        <ele>497.9036</ele>
        <time>2017-09-15T10:05:07Z</time>
      </trkpt>
      <trkpt lat="45.3225" lon="5.42054">
        <ele>498.30502</ele>
        <time>2017-09-15T10:05:12Z</time>
      </trkpt>
      <trkpt lat="45.3224" lon="5.42049">
        <ele>498.9765</ele>
        <time>2017-09-15T10:05:27Z</time>
      </trkpt>
      <trkpt lat="45.32236" lon="5.42044">
        <ele>499.60568</ele>
        <time>2017-09-15T10:05:52Z</time>
      </trkpt>
      <trkpt lat="45.3224" lon="5.42023">
        <ele>499.95175</ele>
        <time>2017-09-15T10:05:57Z</time>
      </trkpt>
      <trkpt lat="45.32249" lon="5.41989">
        <ele>500.9507</ele>
        <time>2017-09-15T10:06:03Z</time>
      </trkpt>
      <trkpt lat="45.3226" lon="5.41948">
        <ele>501.1065</ele>
        <time>2017-09-15T10:06:09Z</time>
      </trkpt>
      <trkpt lat="45.32265" lon="5.41911">
        <ele>501.439</ele>
        <time>2017-09-15T10:06:14Z</time>
      </trkpt>
      <trkpt lat="45.32273" lon="5.41869">
        <ele>501.24796</ele>
        <time>2017-09-15T10:06:20Z</time>
      </trkpt>
      <trkpt lat="45.32293" lon="5.41848">
        <ele>500.67453</ele>
        <time>2017-09-15T10:06:25Z</time>
      </trkpt>
      <trkpt lat="45.32312" lon="5.41819">
        <ele>501.14978</ele>
        <time>2017-09-15T10:06:31Z</time>
      </trkpt>
      <trkpt lat="45.32325" lon="5.41795">
        <ele>501.74023</ele>
        <time>2017-09-15T10:06:36Z</time>
      </trkpt>
      <trkpt lat="45.32337" lon="5.41771">
        <ele>501.98682</ele>
        <time>2017-09-15T10:06:41Z</time>
      </trkpt>
      <trkpt lat="45.32346" lon="5.41747">
        <ele>500.8894</ele>
        <time>2017-09-15T10:06:46Z</time>
      </trkpt>
      <trkpt lat="45.32358" lon="5.41714">
        <ele>497.60043</ele>
        <time>2017-09-15T10:06:52Z</time>
      </trkpt>
      <trkpt lat="45.32368" lon="5.41687">
        <ele>498.78452</ele>
        <time>2017-09-15T10:06:57Z</time>
      </trkpt>
      <trkpt lat="45.32384" lon="5.41646">
        <ele>501.301</ele>
        <time>2017-09-15T10:07:03Z</time>
      </trkpt>
      <trkpt lat="45.32397" lon="5.41622">
        <ele>501.77063</ele>
        <time>2017-09-15T10:07:08Z</time>
      </trkpt>
      <trkpt lat="45.32399" lon="5.4159">
        <ele>501.9633</ele>
        <time>2017-09-15T10:07:14Z</time>
      </trkpt>
      <trkpt lat="45.32395" lon="5.41574">
        <ele>502.243</ele>
        <time>2017-09-15T10:07:19Z</time>
      </trkpt>
      <trkpt lat="45.32387" lon="5.41552">
        <ele>502.84238</ele>
        <time>2017-09-15T10:07:25Z</time>
      </trkpt>
      <trkpt lat="45.32381" lon="5.41536">
        <ele>503.4928</ele>
        <time>2017-09-15T10:07:30Z</time>
      </trkpt>
      <trkpt lat="45.32374" lon="5.41517">
        <ele>504.33978</ele>
        <time>2017-09-15T10:07:36Z</time>
      </trkpt>
      <trkpt lat="45.32366" lon="5.41497">
        <ele>505.27023</ele>
        <time>2017-09-15T10:07:42Z</time>
      </trkpt>
      <trkpt lat="45.32359" lon="5.41479">
        <ele>506.11646</ele>
        <time>2017-09-15T10:07:47Z</time>
      </trkpt>
      <trkpt lat="45.32356" lon="5.41458">
        <ele>507.13495</ele>
        <time>2017-09-15T10:07:53Z</time>
      </trkpt>
      <trkpt lat="45.32355" lon="5.41437">
        <ele>507.78638</ele>
        <time>2017-09-15T10:07:58Z</time>
      </trkpt>
      <trkpt lat="45.32356" lon="5.41417">
        <ele>508.54932</ele>
        <time>2017-09-15T10:08:04Z</time>
      </trkpt>
      <trkpt lat="45.32357" lon="5.41401">
        <ele>509.26913</ele>
        <time>2017-09-15T10:08:09Z</time>
      </trkpt>
      <trkpt lat="45.32354" lon="5.41378">
        <ele>510.0551</ele>
        <time>2017-09-15T10:08:15Z</time>
      </trkpt>
      <trkpt lat="45.32346" lon="5.41359">
        <ele>510.81723</ele>
        <time>2017-09-15T10:08:21Z</time>
      </trkpt>
      <trkpt lat="45.32336" lon="5.4134">
        <ele>511.59167</ele>
        <time>2017-09-15T10:08:27Z</time>
      </trkpt>
      <trkpt lat="45.32329" lon="5.41325">
        <ele>512.66235</ele>
        <time>2017-09-15T10:08:33Z</time>
      </trkpt>
      <trkpt lat="45.32322" lon="5.41306">
        <ele>513.8183</ele>
        <time>2017-09-15T10:08:38Z</time>
      </trkpt>
      <trkpt lat="45.32313" lon="5.41287">
        <ele>514.99896</ele>
        <time>2017-09-15T10:08:44Z</time>
      </trkpt>
      <trkpt lat="45.32306" lon="5.41271">
        <ele>516.0147</ele>
        <time>2017-09-15T10:08:49Z</time>
      </trkpt>
      <trkpt lat="45.32296" lon="5.41256">
        <ele>517.2096</ele>
        <time>2017-09-15T10:08:55Z</time>
      </trkpt>
      <trkpt lat="45.32286" lon="5.41242">
        <ele>517.8996</ele>
        <time>2017-09-15T10:09:01Z</time>
      </trkpt>
      <trkpt lat="45.32273" lon="5.4123">
        <ele>518.11127</ele>
        <time>2017-09-15T10:09:07Z</time>
      </trkpt>
      <trkpt lat="45.32262" lon="5.41226">
        <ele>518.3208</ele>
        <time>2017-09-15T10:09:12Z</time>
      </trkpt>
      <trkpt lat="45.32251" lon="5.41227">
        <ele>518.942</ele>
        <time>2017-09-15T10:09:17Z</time>
      </trkpt>
      <trkpt lat="45.32237" lon="5.4123">
        <ele>519.7489</ele>
        <time>2017-09-15T10:09:23Z</time>
      </trkpt>
      <trkpt lat="45.32226" lon="5.41234">
        <ele>520.2653</ele>
        <time>2017-09-15T10:09:28Z</time>
      </trkpt>
      <trkpt lat="45.32212" lon="5.41237">
        <ele>520.8078</ele>
        <time>2017-09-15T10:09:34Z</time>
      </trkpt>
      <trkpt lat="45.32201" lon="5.41234">
        <ele>521.261</ele>
        <time>2017-09-15T10:09:39Z</time>
      </trkpt>
      <trkpt lat="45.32192" lon="5.41222">
        <ele>521.84265</ele>
        <time>2017-09-15T10:09:45Z</time>
      </trkpt>
      <trkpt lat="45.32189" lon="5.4121">
        <ele>522.498</ele>
        <time>2017-09-15T10:09:50Z</time>
      </trkpt>
      <trkpt lat="45.3219" lon="5.41194">
        <ele>523.2172</ele>
        <time>2017-09-15T10:09:55Z</time>
      </trkpt>
      <trkpt lat="45.32192" lon="5.41178">
        <ele>524.15424</ele>
        <time>2017-09-15T10:10:01Z</time>
      </trkpt>
      <trkpt lat="45.32191" lon="5.41165">
        <ele>524.88934</ele>
        <time>2017-09-15T10:10:06Z</time>
      </trkpt>
      <trkpt lat="45.32188" lon="5.4115">
        <ele>525.6391</ele>
        <time>2017-09-15T10:10:11Z</time>
      </trkpt>
      <trkpt lat="45.32183" lon="5.41133">
        <ele>526.7693</ele>
        <time>2017-09-15T10:10:17Z</time>
      </trkpt>
      <trkpt lat="45.32175" lon="5.41118">
        <ele>528.1796</ele>
        <time>2017-09-15T10:10:23Z</time>
      </trkpt>
      <trkpt lat="45.32168" lon="5.4111">
        <ele>529.5828</ele>
        <time>2017-09-15T10:10:29Z</time>
      </trkpt>
      <trkpt lat="45.3216" lon="5.41101">
        <ele>530.86694</ele>
        <time>2017-09-15T10:10:35Z</time>
      </trkpt>
      <trkpt lat="45.32152" lon="5.41092">
        <ele>531.92194</ele>
        <time>2017-09-15T10:10:40Z</time>
      </trkpt>
      <trkpt lat="45.32141" lon="5.41084">
        <ele>533.26764</ele>
        <time>2017-09-15T10:10:46Z</time>
      </trkpt>
      <trkpt lat="45.32134" lon="5.41075">
        <ele>534.4027</ele>
        <time>2017-09-15T10:10:51Z</time>
      </trkpt>
      <trkpt lat="45.32125" lon="5.41062">
        <ele>535.5901</ele>
        <time>2017-09-15T10:10:57Z</time>
      </trkpt>
      <trkpt lat="45.32117" lon="5.41044">
        <ele>536.7122</ele>
        <time>2017-09-15T10:11:03Z</time>
      </trkpt>
      <trkpt lat="45.3211" lon="5.41032">
        <ele>541.4258</ele>
        <time>2017-09-15T10:14:48Z</time>
      </trkpt>
      <trkpt lat="45.32103" lon="5.4102">
        <ele>541.532</ele>
        <time>2017-09-15T10:14:53Z</time>
      </trkpt>
      <trkpt lat="45.32095" lon="5.40999">
        <ele>541.7072</ele>
        <time>2017-09-15T10:14:59Z</time>
      </trkpt>
      <trkpt lat="45.32085" lon="5.40976">
        <ele>541.8612</ele>
        <time>2017-09-15T10:15:05Z</time>
      </trkpt>
      <trkpt lat="45.32072" lon="5.40951">
        <ele>542.12866</ele>
        <time>2017-09-15T10:15:11Z</time>
      </trkpt>
      <trkpt lat="45.32059" lon="5.40928">
        <ele>543.81024</ele>
        <time>2017-09-15T10:15:17Z</time>
      </trkpt>
      <trkpt lat="45.32054" lon="5.40899">
        <ele>546.09534</ele>
        <time>2017-09-15T10:15:23Z</time>
      </trkpt>
      <trkpt lat="45.32056" lon="5.40874">
        <ele>546.1778</ele>
        <time>2017-09-15T10:15:28Z</time>
      </trkpt>
      <trkpt lat="45.32061" lon="5.40842">
        <ele>546.1925</ele>
        <time>2017-09-15T10:15:34Z</time>
      </trkpt>
      <trkpt lat="45.32068" lon="5.40806">
        <ele>545.83527</ele>
        <time>2017-09-15T10:15:40Z</time>
      </trkpt>
      <trkpt lat="45.32074" lon="5.40764">
        <ele>544.6819</ele>
        <time>2017-09-15T10:15:46Z</time>
      </trkpt>
      <trkpt lat="45.32074" lon="5.40719">
        <ele>544.8686</ele>
        <time>2017-09-15T10:15:52Z</time>
      </trkpt>
      <trkpt lat="45.32071" lon="5.40674">
        <ele>545.85333</ele>
        <time>2017-09-15T10:15:58Z</time>
      </trkpt>
      <trkpt lat="45.32073" lon="5.40626">
        <ele>546.2649</ele>
        <time>2017-09-15T10:16:04Z</time>
      </trkpt>
      <trkpt lat="45.32078" lon="5.40589">
        <ele>545.61285</ele>
        <time>2017-09-15T10:16:09Z</time>
      </trkpt>
      <trkpt lat="45.32085" lon="5.40558">
        <ele>544.8589</ele>
        <time>2017-09-15T10:16:14Z</time>
      </trkpt>
      <trkpt lat="45.32092" lon="5.40516">
        <ele>544.2094</ele>
        <time>2017-09-15T10:16:20Z</time>
      </trkpt>
      <trkpt lat="45.32098" lon="5.40475">
        <ele>543.31415</ele>
        <time>2017-09-15T10:16:25Z</time>
      </trkpt>
      <trkpt lat="45.32111" lon="5.40418">
        <ele>544.1807</ele>
        <time>2017-09-15T10:16:31Z</time>
      </trkpt>
      <trkpt lat="45.32114" lon="5.40378">
        <ele>546.0786</ele>
        <time>2017-09-15T10:16:36Z</time>
      </trkpt>
      <trkpt lat="45.32106" lon="5.40325">
        <ele>549.4491</ele>
        <time>2017-09-15T10:16:42Z</time>
      </trkpt>
      <trkpt lat="45.32089" lon="5.40274">
        <ele>550.86285</ele>
        <time>2017-09-15T10:16:48Z</time>
      </trkpt>
      <trkpt lat="45.32075" lon="5.40221">
        <ele>553.94666</ele>
        <time>2017-09-15T10:16:54Z</time>
      </trkpt>
      <trkpt lat="45.32066" lon="5.40181">
        <ele>551.91626</ele>
        <time>2017-09-15T10:16:59Z</time>
      </trkpt>
      <trkpt lat="45.3205" lon="5.40125">
        <ele>550.40076</ele>
        <time>2017-09-15T10:17:05Z</time>
      </trkpt>
      <trkpt lat="45.32029" lon="5.40082">
        <ele>553.49786</ele>
        <time>2017-09-15T10:17:10Z</time>
      </trkpt>
      <trkpt lat="45.32009" lon="5.40042">
        <ele>556.0598</ele>
        <time>2017-09-15T10:17:15Z</time>
      </trkpt>
      <trkpt lat="45.31985" lon="5.4">
        <ele>556.13666</ele>
        <time>2017-09-15T10:17:21Z</time>
      </trkpt>
      <trkpt lat="45.31965" lon="5.39958">
        <ele>555.95746</ele>
        <time>2017-09-15T10:17:27Z</time>
      </trkpt>
      <trkpt lat="45.31949" lon="5.39919">
        <ele>555.18427</ele>
        <time>2017-09-15T10:17:33Z</time>
      </trkpt>
      <trkpt lat="45.31938" lon="5.39898">
        <ele>555.0682</ele>
        <time>2017-09-15T10:17:38Z</time>
      </trkpt>
      <trkpt lat="45.31929" lon="5.3988">
        <ele>554.89636</ele>
        <time>2017-09-15T10:17:43Z</time>
      </trkpt>
      <trkpt lat="45.31914" lon="5.39865">
        <ele>554.6519</ele>
        <time>2017-09-15T10:17:49Z</time>
      </trkpt>
      <trkpt lat="45.31898" lon="5.39859">
        <ele>554.64124</ele>
        <time>2017-09-15T10:17:55Z</time>
      </trkpt>
      <trkpt lat="45.31885" lon="5.39858">
        <ele>554.76416</ele>
        <time>2017-09-15T10:18:00Z</time>
      </trkpt>
      <trkpt lat="45.31871" lon="5.39861">
        <ele>554.83875</ele>
        <time>2017-09-15T10:18:06Z</time>
      </trkpt>
      <trkpt lat="45.31858" lon="5.39871">
        <ele>554.7213</ele>
        <time>2017-09-15T10:18:12Z</time>
      </trkpt>
      <trkpt lat="45.31845" lon="5.39881">
        <ele>554.6824</ele>
        <time>2017-09-15T10:18:17Z</time>
      </trkpt>
      <trkpt lat="45.31833" lon="5.3989">
        <ele>554.75824</ele>
        <time>2017-09-15T10:18:22Z</time>
      </trkpt>
      <trkpt lat="45.31822" lon="5.39894">
        <ele>554.92316</ele>
        <time>2017-09-15T10:18:28Z</time>
      </trkpt>
      <trkpt lat="45.3181" lon="5.39894">
        <ele>555.12933</ele>
        <time>2017-09-15T10:18:33Z</time>
      </trkpt>
      <trkpt lat="45.31797" lon="5.39892">
        <ele>555.4414</ele>
        <time>2017-09-15T10:18:39Z</time>
      </trkpt>
      <trkpt lat="45.31786" lon="5.3989">
        <ele>555.8059</ele>
        <time>2017-09-15T10:18:44Z</time>
      </trkpt>
      <trkpt lat="45.31772" lon="5.39889">
        <ele>556.2909</ele>
        <time>2017-09-15T10:18:50Z</time>
      </trkpt>
      <trkpt lat="45.3176" lon="5.3989">
        <ele>556.8756</ele>
        <time>2017-09-15T10:18:56Z</time>
      </trkpt>
      <trkpt lat="45.3175" lon="5.39889">
        <ele>557.3728</ele>
        <time>2017-09-15T10:19:01Z</time>
      </trkpt>
      <trkpt lat="45.31737" lon="5.39889">
        <ele>557.96277</ele>
        <time>2017-09-15T10:19:07Z</time>
      </trkpt>
      <trkpt lat="45.31728" lon="5.39889">
        <ele>558.26</ele>
        <time>2017-09-15T10:19:12Z</time>
      </trkpt>
      <trkpt lat="45.31714" lon="5.39889">
        <ele>558.4729</ele>
        <time>2017-09-15T10:19:18Z</time>
      </trkpt>
      <trkpt lat="45.31703" lon="5.39887">
        <ele>558.6731</ele>
        <time>2017-09-15T10:19:23Z</time>
      </trkpt>
      <trkpt lat="45.31693" lon="5.39883">
        <ele>558.9746</ele>
        <time>2017-09-15T10:19:28Z</time>
      </trkpt>
      <trkpt lat="45.31686" lon="5.39871">
        <ele>559.67694</ele>
        <time>2017-09-15T10:19:34Z</time>
      </trkpt>
      <trkpt lat="45.31689" lon="5.39855">
        <ele>560.734</ele>
        <time>2017-09-15T10:19:40Z</time>
      </trkpt>
      <trkpt lat="45.31696" lon="5.39837">
        <ele>562.0155</ele>
        <time>2017-09-15T10:19:46Z</time>
      </trkpt>
      <trkpt lat="45.31699" lon="5.39815">
        <ele>563.4281</ele>
        <time>2017-09-15T10:19:52Z</time>
      </trkpt>
      <trkpt lat="45.31692" lon="5.39795">
        <ele>564.7391</ele>
        <time>2017-09-15T10:19:58Z</time>
      </trkpt>
      <trkpt lat="45.31681" lon="5.39782">
        <ele>566.0586</ele>
        <time>2017-09-15T10:20:04Z</time>
      </trkpt>
      <trkpt lat="45.31673" lon="5.39773">
        <ele>567.1227</ele>
        <time>2017-09-15T10:20:09Z</time>
      </trkpt>
      <trkpt lat="45.31662" lon="5.39761">
        <ele>568.3716</ele>
        <time>2017-09-15T10:20:15Z</time>
      </trkpt>
      <trkpt lat="45.31652" lon="5.39755">
        <ele>569.3309</ele>
        <time>2017-09-15T10:20:20Z</time>
      </trkpt>
      <trkpt lat="45.31639" lon="5.39755">
        <ele>570.3829</ele>
        <time>2017-09-15T10:20:26Z</time>
      </trkpt>
      <trkpt lat="45.31629" lon="5.39755">
        <ele>571.14905</ele>
        <time>2017-09-15T10:20:31Z</time>
      </trkpt>
      <trkpt lat="45.31617" lon="5.39754">
        <ele>571.9732</ele>
        <time>2017-09-15T10:20:37Z</time>
      </trkpt>
      <trkpt lat="45.3161" lon="5.39743">
        <ele>572.7025</ele>
        <time>2017-09-15T10:20:42Z</time>
      </trkpt>
      <trkpt lat="45.31607" lon="5.39723">
        <ele>573.49585</ele>
        <time>2017-09-15T10:20:48Z</time>
      </trkpt>
      <trkpt lat="45.31605" lon="5.39707">
        <ele>574.02277</ele>
        <time>2017-09-15T10:20:53Z</time>
      </trkpt>
      <trkpt lat="45.31601" lon="5.39693">
        <ele>574.6176</ele>
        <time>2017-09-15T10:20:59Z</time>
      </trkpt>
      <trkpt lat="45.31591" lon="5.39681">
        <ele>575.18427</ele>
        <time>2017-09-15T10:21:05Z</time>
      </trkpt>
      <trkpt lat="45.31581" lon="5.39667">
        <ele>575.6943</ele>
        <time>2017-09-15T10:21:11Z</time>
      </trkpt>
      <trkpt lat="45.31571" lon="5.39648">
        <ele>576.2848</ele>
        <time>2017-09-15T10:21:17Z</time>
      </trkpt>
      <trkpt lat="45.31561" lon="5.39629">
        <ele>577.0494</ele>
        <time>2017-09-15T10:21:23Z</time>
      </trkpt>
      <trkpt lat="45.31558" lon="5.39615">
        <ele>577.8238</ele>
        <time>2017-09-15T10:21:28Z</time>
      </trkpt>
      <trkpt lat="45.31555" lon="5.396">
        <ele>578.762</ele>
        <time>2017-09-15T10:21:34Z</time>
      </trkpt>
      <trkpt lat="45.31555" lon="5.39587">
        <ele>579.4884</ele>
        <time>2017-09-15T10:21:39Z</time>
      </trkpt>
      <trkpt lat="45.31554" lon="5.39565">
        <ele>580.1863</ele>
        <time>2017-09-15T10:21:45Z</time>
      </trkpt>
      <trkpt lat="45.31553" lon="5.39543">
        <ele>580.87115</ele>
        <time>2017-09-15T10:21:51Z</time>
      </trkpt>
      <trkpt lat="45.31547" lon="5.39521">
        <ele>581.76245</ele>
        <time>2017-09-15T10:21:57Z</time>
      </trkpt>
      <trkpt lat="45.3154" lon="5.39509">
        <ele>582.66235</ele>
        <time>2017-09-15T10:22:02Z</time>
      </trkpt>
      <trkpt lat="45.31535" lon="5.39488">
        <ele>583.8008</ele>
        <time>2017-09-15T10:22:08Z</time>
      </trkpt>
      <trkpt lat="45.31529" lon="5.39469">
        <ele>584.9694</ele>
        <time>2017-09-15T10:22:14Z</time>
      </trkpt>
      <trkpt lat="45.31524" lon="5.39452">
        <ele>586.12665</ele>
        <time>2017-09-15T10:22:20Z</time>
      </trkpt>
      <trkpt lat="45.31519" lon="5.39437">
        <ele>586.9887</ele>
        <time>2017-09-15T10:22:25Z</time>
      </trkpt>
      <trkpt lat="45.31515" lon="5.39418">
        <ele>587.864</ele>
        <time>2017-09-15T10:22:31Z</time>
      </trkpt>
      <trkpt lat="45.31504" lon="5.39402">
        <ele>588.6821</ele>
        <time>2017-09-15T10:22:37Z</time>
      </trkpt>
      <trkpt lat="45.31492" lon="5.39396">
        <ele>589.3598</ele>
        <time>2017-09-15T10:22:42Z</time>
      </trkpt>
      <trkpt lat="45.31479" lon="5.39394">
        <ele>589.9766</ele>
        <time>2017-09-15T10:22:47Z</time>
      </trkpt>
      <trkpt lat="45.31465" lon="5.39388">
        <ele>590.74475</ele>
        <time>2017-09-15T10:22:53Z</time>
      </trkpt>
      <trkpt lat="45.31455" lon="5.39383">
        <ele>591.40814</ele>
        <time>2017-09-15T10:22:58Z</time>
      </trkpt>
      <trkpt lat="45.31443" lon="5.3937">
        <ele>592.3334</ele>
        <time>2017-09-15T10:23:04Z</time>
      </trkpt>
      <trkpt lat="45.31434" lon="5.39359">
        <ele>593.25037</ele>
        <time>2017-09-15T10:23:09Z</time>
      </trkpt>
      <trkpt lat="45.31422" lon="5.39349">
        <ele>594.05774</ele>
        <time>2017-09-15T10:23:15Z</time>
      </trkpt>
      <trkpt lat="45.31409" lon="5.39337">
        <ele>594.7221</ele>
        <time>2017-09-15T10:23:21Z</time>
      </trkpt>
      <trkpt lat="45.31406" lon="5.39331">
        <ele>599.253</ele>
        <time>2017-09-15T10:25:58Z</time>
      </trkpt>
      <trkpt lat="45.31416" lon="5.39328">
        <ele>602.04254</ele>
        <time>2017-09-15T10:40:11Z</time>
      </trkpt>
      <trkpt lat="45.31403" lon="5.39326">
        <ele>601.9867</ele>
        <time>2017-09-15T10:40:17Z</time>
      </trkpt>
      <trkpt lat="45.31375" lon="5.39324">
        <ele>599.37024</ele>
        <time>2017-09-15T10:40:23Z</time>
      </trkpt>
      <trkpt lat="45.3135" lon="5.39306">
        <ele>597.77966</ele>
        <time>2017-09-15T10:40:29Z</time>
      </trkpt>
      <trkpt lat="45.31333" lon="5.39286">
        <ele>597.48065</ele>
        <time>2017-09-15T10:40:35Z</time>
      </trkpt>
      <trkpt lat="45.3132" lon="5.3927">
        <ele>597.28156</ele>
        <time>2017-09-15T10:40:40Z</time>
      </trkpt>
      <trkpt lat="45.31308" lon="5.39248">
        <ele>596.61664</ele>
        <time>2017-09-15T10:40:46Z</time>
      </trkpt>
      <trkpt lat="45.31295" lon="5.39223">
        <ele>595.97833</ele>
        <time>2017-09-15T10:40:51Z</time>
      </trkpt>
      <trkpt lat="45.31279" lon="5.39191">
        <ele>595.7244</ele>
        <time>2017-09-15T10:40:57Z</time>
      </trkpt>
      <trkpt lat="45.31264" lon="5.39163">
        <ele>596.049</ele>
        <time>2017-09-15T10:41:02Z</time>
      </trkpt>
      <trkpt lat="45.31243" lon="5.39124">
        <ele>596.237</ele>
        <time>2017-09-15T10:41:08Z</time>
      </trkpt>
      <trkpt lat="45.31224" lon="5.3909">
        <ele>595.55786</ele>
        <time>2017-09-15T10:41:13Z</time>
      </trkpt>
      <trkpt lat="45.31201" lon="5.3905">
        <ele>595.5642</ele>
        <time>2017-09-15T10:41:19Z</time>
      </trkpt>
      <trkpt lat="45.31181" lon="5.39011">
        <ele>595.4398</ele>
        <time>2017-09-15T10:41:25Z</time>
      </trkpt>
      <trkpt lat="45.31172" lon="5.38962">
        <ele>595.00366</ele>
        <time>2017-09-15T10:41:31Z</time>
      </trkpt>
      <trkpt lat="45.31164" lon="5.38916">
        <ele>593.41376</ele>
        <time>2017-09-15T10:41:36Z</time>
      </trkpt>
      <trkpt lat="45.3116" lon="5.38885">
        <ele>592.21826</ele>
        <time>2017-09-15T10:41:41Z</time>
      </trkpt>
      <trkpt lat="45.31157" lon="5.38876">
        <ele>593.0037</ele>
        <time>2017-09-15T10:43:00Z</time>
      </trkpt>
      <trkpt lat="45.31154" lon="5.38851">
        <ele>592.97314</ele>
        <time>2017-09-15T10:43:06Z</time>
      </trkpt>
      <trkpt lat="45.31152" lon="5.38806">
        <ele>591.77655</ele>
        <time>2017-09-15T10:43:12Z</time>
      </trkpt>
      <trkpt lat="45.31146" lon="5.38752">
        <ele>591.12146</ele>
        <time>2017-09-15T10:43:18Z</time>
      </trkpt>
      <trkpt lat="45.31134" lon="5.38687">
        <ele>590.42145</ele>
        <time>2017-09-15T10:43:24Z</time>
      </trkpt>
      <trkpt lat="45.3112" lon="5.38623">
        <ele>589.4435</ele>
        <time>2017-09-15T10:43:29Z</time>
      </trkpt>
      <trkpt lat="45.3111" lon="5.38532">
        <ele>588.0459</ele>
        <time>2017-09-15T10:43:35Z</time>
      </trkpt>
      <trkpt lat="45.31121" lon="5.38455">
        <ele>586.967</ele>
        <time>2017-09-15T10:43:40Z</time>
      </trkpt>
      <trkpt lat="45.31148" lon="5.38363">
        <ele>585.7886</ele>
        <time>2017-09-15T10:43:46Z</time>
      </trkpt>
      <trkpt lat="45.31196" lon="5.38319">
        <ele>583.2145</ele>
        <time>2017-09-15T10:43:51Z</time>
      </trkpt>
      <trkpt lat="45.31261" lon="5.38288">
        <ele>579.4434</ele>
        <time>2017-09-15T10:43:57Z</time>
      </trkpt>
      <trkpt lat="45.31322" lon="5.38276">
        <ele>578.25793</ele>
        <time>2017-09-15T10:44:03Z</time>
      </trkpt>
      <trkpt lat="45.31377" lon="5.38247">
        <ele>575.8691</ele>
        <time>2017-09-15T10:44:09Z</time>
      </trkpt>
      <trkpt lat="45.31421" lon="5.382">
        <ele>573.34247</ele>
        <time>2017-09-15T10:44:15Z</time>
      </trkpt>
      <trkpt lat="45.31448" lon="5.38132">
        <ele>571.16473</ele>
        <time>2017-09-15T10:44:21Z</time>
      </trkpt>
      <trkpt lat="45.3146" lon="5.38067">
        <ele>568.5693</ele>
        <time>2017-09-15T10:44:26Z</time>
      </trkpt>
      <trkpt lat="45.31468" lon="5.37989">
        <ele>564.60706</ele>
        <time>2017-09-15T10:44:32Z</time>
      </trkpt>
      <trkpt lat="45.31469" lon="5.37919">
        <ele>562.7056</ele>
        <time>2017-09-15T10:44:37Z</time>
      </trkpt>
      <trkpt lat="45.31442" lon="5.37847">
        <ele>558.8858</ele>
        <time>2017-09-15T10:44:43Z</time>
      </trkpt>
      <trkpt lat="45.31444" lon="5.37774">
        <ele>554.05273</ele>
        <time>2017-09-15T10:44:49Z</time>
      </trkpt>
      <trkpt lat="45.31493" lon="5.37724">
        <ele>551.82263</ele>
        <time>2017-09-15T10:44:55Z</time>
      </trkpt>
      <trkpt lat="45.31543" lon="5.37672">
        <ele>550.77026</ele>
        <time>2017-09-15T10:45:01Z</time>
      </trkpt>
      <trkpt lat="45.31587" lon="5.37617">
        <ele>548.56146</ele>
        <time>2017-09-15T10:45:07Z</time>
      </trkpt>
      <trkpt lat="45.3165" lon="5.37558">
        <ele>548.57495</ele>
        <time>2017-09-15T10:45:13Z</time>
      </trkpt>
      <trkpt lat="45.31713" lon="5.37521">
        <ele>548.60846</ele>
        <time>2017-09-15T10:45:19Z</time>
      </trkpt>
      <trkpt lat="45.3176" lon="5.3748">
        <ele>545.28577</ele>
        <time>2017-09-15T10:45:24Z</time>
      </trkpt>
      <trkpt lat="45.31789" lon="5.37395">
        <ele>538.22815</ele>
        <time>2017-09-15T10:45:30Z</time>
      </trkpt>
      <trkpt lat="45.3181" lon="5.37305">
        <ele>531.89325</ele>
        <time>2017-09-15T10:45:36Z</time>
      </trkpt>
      <trkpt lat="45.31815" lon="5.37211">
        <ele>524.59393</ele>
        <time>2017-09-15T10:45:42Z</time>
      </trkpt>
      <trkpt lat="45.31845" lon="5.37147">
        <ele>518.978</ele>
        <time>2017-09-15T10:45:47Z</time>
      </trkpt>
      <trkpt lat="45.31902" lon="5.37091">
        <ele>514.3745</ele>
        <time>2017-09-15T10:45:53Z</time>
      </trkpt>
      <trkpt lat="45.31953" lon="5.3703">
        <ele>510.49615</ele>
        <time>2017-09-15T10:45:59Z</time>
      </trkpt>
      <trkpt lat="45.32003" lon="5.36972">
        <ele>508.36182</ele>
        <time>2017-09-15T10:46:05Z</time>
      </trkpt>
      <trkpt lat="45.32052" lon="5.36914">
        <ele>506.81174</ele>
        <time>2017-09-15T10:46:11Z</time>
      </trkpt>
      <trkpt lat="45.32093" lon="5.36866">
        <ele>504.40915</ele>
        <time>2017-09-15T10:46:16Z</time>
      </trkpt>
      <trkpt lat="45.32145" lon="5.36806">
        <ele>500.3897</ele>
        <time>2017-09-15T10:46:22Z</time>
      </trkpt>
      <trkpt lat="45.32189" lon="5.36759">
        <ele>495.93283</ele>
        <time>2017-09-15T10:46:27Z</time>
      </trkpt>
      <trkpt lat="45.32218" lon="5.36677">
        <ele>490.25317</ele>
        <time>2017-09-15T10:46:33Z</time>
      </trkpt>
      <trkpt lat="45.32216" lon="5.36605">
        <ele>484.2192</ele>
        <time>2017-09-15T10:46:38Z</time>
      </trkpt>
      <trkpt lat="45.32195" lon="5.36539">
        <ele>475.55127</ele>
        <time>2017-09-15T10:46:44Z</time>
      </trkpt>
      <trkpt lat="45.32183" lon="5.36492">
        <ele>470.14587</ele>
        <time>2017-09-15T10:46:49Z</time>
      </trkpt>
      <trkpt lat="45.32184" lon="5.36451">
        <ele>466.773</ele>
        <time>2017-09-15T10:46:54Z</time>
      </trkpt>
      <trkpt lat="45.32186" lon="5.3641">
        <ele>464.24457</ele>
        <time>2017-09-15T10:47:00Z</time>
      </trkpt>
      <trkpt lat="45.32187" lon="5.36379">
        <ele>463.21426</ele>
        <time>2017-09-15T10:47:05Z</time>
      </trkpt>
      <trkpt lat="45.32188" lon="5.36341">
        <ele>462.66443</ele>
        <time>2017-09-15T10:47:11Z</time>
      </trkpt>
      <trkpt lat="45.32189" lon="5.36305">
        <ele>462.62518</ele>
        <time>2017-09-15T10:47:17Z</time>
      </trkpt>
      <trkpt lat="45.32196" lon="5.36268">
        <ele>462.67062</ele>
        <time>2017-09-15T10:47:23Z</time>
      </trkpt>
      <trkpt lat="45.32208" lon="5.36228">
        <ele>462.57187</ele>
        <time>2017-09-15T10:47:29Z</time>
      </trkpt>
      <trkpt lat="45.3222" lon="5.36186">
        <ele>461.87958</ele>
        <time>2017-09-15T10:47:35Z</time>
      </trkpt>
      <trkpt lat="45.32229" lon="5.36142">
        <ele>460.83505</ele>
        <time>2017-09-15T10:47:41Z</time>
      </trkpt>
      <trkpt lat="45.32235" lon="5.36094">
        <ele>460.34326</ele>
        <time>2017-09-15T10:47:47Z</time>
      </trkpt>
      <trkpt lat="45.32238" lon="5.36045">
        <ele>460.1234</ele>
        <time>2017-09-15T10:47:53Z</time>
      </trkpt>
      <trkpt lat="45.32237" lon="5.35998">
        <ele>459.42767</ele>
        <time>2017-09-15T10:47:58Z</time>
      </trkpt>
      <trkpt lat="45.32235" lon="5.3595">
        <ele>458.69873</ele>
        <time>2017-09-15T10:48:03Z</time>
      </trkpt>
      <trkpt lat="45.32237" lon="5.35891">
        <ele>457.74817</ele>
        <time>2017-09-15T10:48:09Z</time>
      </trkpt>
      <trkpt lat="45.32245" lon="5.35842">
        <ele>456.87018</ele>
        <time>2017-09-15T10:48:14Z</time>
      </trkpt>
      <trkpt lat="45.32251" lon="5.35793">
        <ele>456.1762</ele>
        <time>2017-09-15T10:48:19Z</time>
      </trkpt>
      <trkpt lat="45.32248" lon="5.35734">
        <ele>455.26697</ele>
        <time>2017-09-15T10:48:25Z</time>
      </trkpt>
      <trkpt lat="45.32245" lon="5.35684">
        <ele>454.48914</ele>
        <time>2017-09-15T10:48:30Z</time>
      </trkpt>
      <trkpt lat="45.3224" lon="5.35626">
        <ele>454.3</ele>
        <time>2017-09-15T10:48:36Z</time>
      </trkpt>
      <trkpt lat="45.32239" lon="5.35568">
        <ele>454.45786</ele>
        <time>2017-09-15T10:48:42Z</time>
      </trkpt>
      <trkpt lat="45.32228" lon="5.35512">
        <ele>454.66006</ele>
        <time>2017-09-15T10:48:48Z</time>
      </trkpt>
      <trkpt lat="45.32205" lon="5.35472">
        <ele>453.1557</ele>
        <time>2017-09-15T10:48:54Z</time>
      </trkpt>
      <trkpt lat="45.32196" lon="5.35429">
        <ele>449.76624</ele>
        <time>2017-09-15T10:48:59Z</time>
      </trkpt>
      <trkpt lat="45.32219" lon="5.35377">
        <ele>447.95526</ele>
        <time>2017-09-15T10:49:05Z</time>
      </trkpt>
      <trkpt lat="45.32246" lon="5.35334">
        <ele>447.60168</ele>
        <time>2017-09-15T10:49:11Z</time>
      </trkpt>
      <trkpt lat="45.32256" lon="5.35287">
        <ele>446.5894</ele>
        <time>2017-09-15T10:49:17Z</time>
      </trkpt>
      <trkpt lat="45.32254" lon="5.35272">
        <ele>446.26804</ele>
        <time>2017-09-15T10:50:25Z</time>
      </trkpt>
      <trkpt lat="45.32249" lon="5.3524">
        <ele>443.9619</ele>
        <time>2017-09-15T10:50:31Z</time>
      </trkpt>
      <trkpt lat="45.32238" lon="5.35183">
        <ele>441.50995</ele>
        <time>2017-09-15T10:50:37Z</time>
      </trkpt>
      <trkpt lat="45.32227" lon="5.35114">
        <ele>439.6667</ele>
        <time>2017-09-15T10:50:43Z</time>
      </trkpt>
      <trkpt lat="45.32227" lon="5.35043">
        <ele>437.69562</ele>
        <time>2017-09-15T10:50:49Z</time>
      </trkpt>
      <trkpt lat="45.32275" lon="5.35012">
        <ele>434.6573</ele>
        <time>2017-09-15T10:50:55Z</time>
      </trkpt>
      <trkpt lat="45.32324" lon="5.34996">
        <ele>431.09668</ele>
        <time>2017-09-15T10:51:01Z</time>
      </trkpt>
      <trkpt lat="45.32368" lon="5.34981">
        <ele>428.8483</ele>
        <time>2017-09-15T10:51:07Z</time>
      </trkpt>
      <trkpt lat="45.32397" lon="5.34935">
        <ele>426.57034</ele>
        <time>2017-09-15T10:51:13Z</time>
      </trkpt>
      <trkpt lat="45.32412" lon="5.34879">
        <ele>421.53638</ele>
        <time>2017-09-15T10:51:19Z</time>
      </trkpt>
      <trkpt lat="45.32427" lon="5.34821">
        <ele>416.79663</ele>
        <time>2017-09-15T10:51:25Z</time>
      </trkpt>
      <trkpt lat="45.32435" lon="5.34749">
        <ele>417.22305</ele>
        <time>2017-09-15T10:51:31Z</time>
      </trkpt>
      <trkpt lat="45.32449" lon="5.34685">
        <ele>420.3248</ele>
        <time>2017-09-15T10:51:37Z</time>
      </trkpt>
      <trkpt lat="45.32481" lon="5.34638">
        <ele>421.66232</ele>
        <time>2017-09-15T10:51:43Z</time>
      </trkpt>
      <trkpt lat="45.32519" lon="5.34604">
        <ele>421.5278</ele>
        <time>2017-09-15T10:51:49Z</time>
      </trkpt>
      <trkpt lat="45.3256" lon="5.34579">
        <ele>420.9517</ele>
        <time>2017-09-15T10:51:55Z</time>
      </trkpt>
      <trkpt lat="45.32599" lon="5.3456">
        <ele>420.09177</ele>
        <time>2017-09-15T10:52:01Z</time>
      </trkpt>
      <trkpt lat="45.32636" lon="5.34543">
        <ele>418.5248</ele>
        <time>2017-09-15T10:52:07Z</time>
      </trkpt>
      <trkpt lat="45.32676" lon="5.34526">
        <ele>417.00812</ele>
        <time>2017-09-15T10:52:13Z</time>
      </trkpt>
      <trkpt lat="45.32717" lon="5.34513">
        <ele>414.55286</ele>
        <time>2017-09-15T10:52:19Z</time>
      </trkpt>
      <trkpt lat="45.32752" lon="5.34507">
        <ele>412.8791</ele>
        <time>2017-09-15T10:52:24Z</time>
      </trkpt>
      <trkpt lat="45.32797" lon="5.34512">
        <ele>411.01077</ele>
        <time>2017-09-15T10:52:30Z</time>
      </trkpt>
      <trkpt lat="45.32832" lon="5.34524">
        <ele>409.8498</ele>
        <time>2017-09-15T10:52:35Z</time>
      </trkpt>
      <trkpt lat="45.32864" lon="5.34542">
        <ele>409.24728</ele>
        <time>2017-09-15T10:52:40Z</time>
      </trkpt>
      <trkpt lat="45.32894" lon="5.34584">
        <ele>408.58832</ele>
        <time>2017-09-15T10:52:46Z</time>
      </trkpt>
      <trkpt lat="45.32918" lon="5.34621">
        <ele>408.48672</ele>
        <time>2017-09-15T10:52:51Z</time>
      </trkpt>
      <trkpt lat="45.32962" lon="5.34623">
        <ele>407.9256</ele>
        <time>2017-09-15T10:52:57Z</time>
      </trkpt>
      <trkpt lat="45.33001" lon="5.34603">
        <ele>407.38254</ele>
        <time>2017-09-15T10:53:03Z</time>
      </trkpt>
      <trkpt lat="45.3303" lon="5.34592">
        <ele>407.34583</ele>
        <time>2017-09-15T10:53:08Z</time>
      </trkpt>
      <trkpt lat="45.3307" lon="5.34575">
        <ele>407.76236</ele>
        <time>2017-09-15T10:53:14Z</time>
      </trkpt>
      <trkpt lat="45.33103" lon="5.34562">
        <ele>408.94788</ele>
        <time>2017-09-15T10:53:19Z</time>
      </trkpt>
      <trkpt lat="45.33137" lon="5.34554">
        <ele>409.58725</ele>
        <time>2017-09-15T10:53:24Z</time>
      </trkpt>
      <trkpt lat="45.33172" lon="5.34549">
        <ele>409.58212</ele>
        <time>2017-09-15T10:53:29Z</time>
      </trkpt>
      <trkpt lat="45.33211" lon="5.34535">
        <ele>409.79605</ele>
        <time>2017-09-15T10:53:35Z</time>
      </trkpt>
      <trkpt lat="45.33244" lon="5.34525">
        <ele>409.99823</ele>
        <time>2017-09-15T10:53:40Z</time>
      </trkpt>
      <trkpt lat="45.33283" lon="5.34511">
        <ele>410.3285</ele>
        <time>2017-09-15T10:53:46Z</time>
      </trkpt>
      <trkpt lat="45.33315" lon="5.34501">
        <ele>411.27603</ele>
        <time>2017-09-15T10:53:51Z</time>
      </trkpt>
      <trkpt lat="45.33353" lon="5.34499">
        <ele>412.16418</ele>
        <time>2017-09-15T10:53:57Z</time>
      </trkpt>
      <trkpt lat="45.33397" lon="5.34494">
        <ele>412.2636</ele>
        <time>2017-09-15T10:54:03Z</time>
      </trkpt>
      <trkpt lat="45.3344" lon="5.34486">
        <ele>413.26782</ele>
        <time>2017-09-15T10:54:09Z</time>
      </trkpt>
      <trkpt lat="45.3348" lon="5.34476">
        <ele>414.30624</ele>
        <time>2017-09-15T10:54:15Z</time>
      </trkpt>
      <trkpt lat="45.33522" lon="5.34472">
        <ele>414.1905</ele>
        <time>2017-09-15T10:54:21Z</time>
      </trkpt>
      <trkpt lat="45.33564" lon="5.3446">
        <ele>412.39404</ele>
        <time>2017-09-15T10:54:27Z</time>
      </trkpt>
      <trkpt lat="45.33605" lon="5.34454">
        <ele>410.91638</ele>
        <time>2017-09-15T10:54:33Z</time>
      </trkpt>
      <trkpt lat="45.33644" lon="5.3445">
        <ele>408.96927</ele>
        <time>2017-09-15T10:54:39Z</time>
      </trkpt>
      <trkpt lat="45.33684" lon="5.34449">
        <ele>407.17276</ele>
        <time>2017-09-15T10:54:45Z</time>
      </trkpt>
      <trkpt lat="45.33711" lon="5.34449">
        <ele>406.81146</ele>
        <time>2017-09-15T10:54:50Z</time>
      </trkpt>
      <trkpt lat="45.33721" lon="5.34429">
        <ele>405.76215</ele>
        <time>2017-09-15T10:54:56Z</time>
      </trkpt>
      <trkpt lat="45.33722" lon="5.34374">
        <ele>402.75308</ele>
        <time>2017-09-15T10:55:02Z</time>
      </trkpt>
      <trkpt lat="45.33722" lon="5.3433">
        <ele>402.0565</ele>
        <time>2017-09-15T10:55:07Z</time>
      </trkpt>
      <trkpt lat="45.33732" lon="5.34299">
        <ele>401.35468</ele>
        <time>2017-09-15T10:55:12Z</time>
      </trkpt>
      <trkpt lat="45.33756" lon="5.34289">
        <ele>401.0143</ele>
        <time>2017-09-15T10:55:17Z</time>
      </trkpt>
      <trkpt lat="45.33782" lon="5.34275">
        <ele>400.66727</ele>
        <time>2017-09-15T10:55:23Z</time>
      </trkpt>
      <trkpt lat="45.33808" lon="5.34261">
        <ele>399.25925</ele>
        <time>2017-09-15T10:55:29Z</time>
      </trkpt>
      <trkpt lat="45.33833" lon="5.34248">
        <ele>399.30356</ele>
        <time>2017-09-15T10:55:35Z</time>
      </trkpt>
      <trkpt lat="45.33853" lon="5.34237">
        <ele>400.00897</ele>
        <time>2017-09-15T10:55:41Z</time>
      </trkpt>
      <trkpt lat="45.33861" lon="5.34251">
        <ele>400.15033</ele>
        <time>2017-09-15T10:55:46Z</time>
      </trkpt>
      <trkpt lat="45.33863" lon="5.34277">
        <ele>400.32397</ele>
        <time>2017-09-15T10:55:52Z</time>
      </trkpt>
      <trkpt lat="45.33864" lon="5.34302">
        <ele>400.24374</ele>
        <time>2017-09-15T10:55:57Z</time>
      </trkpt>
      <trkpt lat="45.33868" lon="5.34333">
        <ele>400.1409</ele>
        <time>2017-09-15T10:56:03Z</time>
      </trkpt>
      <trkpt lat="45.33873" lon="5.34363">
        <ele>400.12744</ele>
        <time>2017-09-15T10:56:09Z</time>
      </trkpt>
      <trkpt lat="45.33877" lon="5.34388">
        <ele>400.31006</ele>
        <time>2017-09-15T10:56:14Z</time>
      </trkpt>
      <trkpt lat="45.3388" lon="5.34412">
        <ele>400.6599</ele>
        <time>2017-09-15T10:56:20Z</time>
      </trkpt>
      <trkpt lat="45.33881" lon="5.34433">
        <ele>401.0531</ele>
        <time>2017-09-15T10:56:25Z</time>
      </trkpt>
      <trkpt lat="45.33889" lon="5.34437">
        <ele>398.15158</ele>
        <time>2017-09-15T10:58:08Z</time>
      </trkpt>
      <trkpt lat="45.3389" lon="5.34448">
        <ele>397.62073</ele>
        <time>2017-09-15T10:58:17Z</time>
      </trkpt>
      <trkpt lat="45.33886" lon="5.34411">
        <ele>400.98013</ele>
        <time>2017-09-15T10:59:44Z</time>
      </trkpt>
      <trkpt lat="45.33885" lon="5.34376">
        <ele>402.03445</ele>
        <time>2017-09-15T10:59:50Z</time>
      </trkpt>
      <trkpt lat="45.3388" lon="5.34354">
        <ele>402.24796</ele>
        <time>2017-09-15T10:59:55Z</time>
      </trkpt>
      <trkpt lat="45.33879" lon="5.34334">
        <ele>401.8654</ele>
        <time>2017-09-15T11:00:01Z</time>
      </trkpt>
      <trkpt lat="45.33874" lon="5.34307">
        <ele>401.51517</ele>
        <time>2017-09-15T11:00:07Z</time>
      </trkpt>
      <trkpt lat="45.33874" lon="5.34288">
        <ele>401.30615</ele>
        <time>2017-09-15T11:00:13Z</time>
      </trkpt>
      <trkpt lat="45.33874" lon="5.34266">
        <ele>401.0541</ele>
        <time>2017-09-15T11:00:18Z</time>
      </trkpt>
      <trkpt lat="45.33873" lon="5.34251">
        <ele>400.74875</ele>
        <time>2017-09-15T11:00:23Z</time>
      </trkpt>
      <trkpt lat="45.33871" lon="5.3424">
        <ele>400.17038</ele>
        <time>2017-09-15T11:00:28Z</time>
      </trkpt>
      <trkpt lat="45.33866" lon="5.34226">
        <ele>399.52237</ele>
        <time>2017-09-15T11:00:33Z</time>
      </trkpt>
      <trkpt lat="45.33859" lon="5.34224">
        <ele>401.90582</ele>
        <time>2017-09-15T11:04:09Z</time>
      </trkpt>
      <trkpt lat="45.33865" lon="5.34233">
        <ele>402.55487</ele>
        <time>2017-09-15T11:04:16Z</time>
      </trkpt>
      <trkpt lat="45.33881" lon="5.34226">
        <ele>403.94724</ele>
        <time>2017-09-15T11:04:21Z</time>
      </trkpt>
      <trkpt lat="45.33904" lon="5.34213">
        <ele>404.52774</ele>
        <time>2017-09-15T11:04:27Z</time>
      </trkpt>
      <trkpt lat="45.33923" lon="5.34206">
        <ele>404.81866</ele>
        <time>2017-09-15T11:04:32Z</time>
      </trkpt>
      <trkpt lat="45.3394" lon="5.34202">
        <ele>404.67883</ele>
        <time>2017-09-15T11:04:37Z</time>
      </trkpt>
      <trkpt lat="45.33955" lon="5.34217">
        <ele>403.9023</ele>
        <time>2017-09-15T11:04:42Z</time>
      </trkpt>
      <trkpt lat="45.33962" lon="5.34257">
        <ele>394.74988</ele>
        <time>2017-09-15T11:04:48Z</time>
      </trkpt>
      <trkpt lat="45.33967" lon="5.34293">
        <ele>391.44214</ele>
        <time>2017-09-15T11:04:53Z</time>
      </trkpt>
      <trkpt lat="45.33972" lon="5.34338">
        <ele>391.43295</ele>
        <time>2017-09-15T11:04:59Z</time>
      </trkpt>
      <trkpt lat="45.33972" lon="5.34376">
        <ele>392.66547</ele>
        <time>2017-09-15T11:05:05Z</time>
      </trkpt>
      <trkpt lat="45.33964" lon="5.34387">
        <ele>392.82925</ele>
        <time>2017-09-15T11:05:10Z</time>
      </trkpt>
      <trkpt lat="45.33947" lon="5.34396">
        <ele>393.03662</ele>
        <time>2017-09-15T11:05:16Z</time>
      </trkpt>
      <trkpt lat="45.33925" lon="5.344">
        <ele>393.61984</ele>
        <time>2017-09-15T11:05:22Z</time>
      </trkpt>
      <trkpt lat="45.33915" lon="5.34406">
        <ele>394.29428</ele>
        <time>2017-09-15T11:05:26Z</time>
      </trkpt>
    </trkseg>
    </trkseg>
      <trkpt lat="45.33914" lon="5.34421">
        <ele>395.0103</ele>
        <time>2017-09-15T11:05:30Z</time>
      </trkpt>
      <trkpt lat="45.33904" lon="5.34436">
        <ele>396.1844</ele>
        <time>2017-09-15T11:05:36Z</time>
      </trkpt>
      <trkpt lat="45.33888" lon="5.34437">
        <ele>397.5572</ele>
        <time>2017-09-15T11:05:42Z</time>
      </trkpt>
      <trkpt lat="45.33879" lon="5.34429">
        <ele>413.57642</ele>
        <time>2017-09-15T11:29:30Z</time>
      </trkpt>
      <trkpt lat="45.33879" lon="5.34416">
        <ele>413.72546</ele>
        <time>2017-09-15T11:29:35Z</time>
      </trkpt>
      <trkpt lat="45.3388" lon="5.34398">
        <ele>413.5434</ele>
        <time>2017-09-15T11:29:41Z</time>
      </trkpt>
      <trkpt lat="45.33881" lon="5.34381">
        <ele>413.20544</ele>
        <time>2017-09-15T11:29:47Z</time>
      </trkpt>
      <trkpt lat="45.33882" lon="5.34362">
        <ele>412.75867</ele>
        <time>2017-09-15T11:29:53Z</time>
      </trkpt>
      <trkpt lat="45.33883" lon="5.34348">
        <ele>412.07275</ele>
        <time>2017-09-15T11:29:59Z</time>
      </trkpt>
      <trkpt lat="45.33884" lon="5.34333">
        <ele>410.8721</ele>
        <time>2017-09-15T11:30:04Z</time>
      </trkpt>
      <trkpt lat="45.33888" lon="5.34316">
        <ele>409.8045</ele>
        <time>2017-09-15T11:30:09Z</time>
      </trkpt>
      <trkpt lat="45.3389" lon="5.343">
        <ele>409.1335</ele>
        <time>2017-09-15T11:30:14Z</time>
      </trkpt>
      <trkpt lat="45.33892" lon="5.34279">
        <ele>408.4342</ele>
        <time>2017-09-15T11:30:20Z</time>
      </trkpt>
      <trkpt lat="45.33891" lon="5.34264">
        <ele>407.1332</ele>
        <time>2017-09-15T11:30:25Z</time>
      </trkpt>
      <trkpt lat="45.33887" lon="5.34251">
        <ele>403.99774</ele>
        <time>2017-09-15T11:30:31Z</time>
      </trkpt>
      <trkpt lat="45.33872" lon="5.34215">
        <ele>397.50797</ele>
        <time>2017-09-15T11:31:39Z</time>
      </trkpt>
      <trkpt lat="45.33864" lon="5.34201">
        <ele>397.34268</ele>
        <time>2017-09-15T11:31:45Z</time>
      </trkpt>
      <trkpt lat="45.3385" lon="5.34183">
        <ele>397.75198</ele>
        <time>2017-09-15T11:31:50Z</time>
      </trkpt>
      <trkpt lat="45.33833" lon="5.34162">
        <ele>398.74722</ele>
        <time>2017-09-15T11:31:55Z</time>
      </trkpt>
      <trkpt lat="45.33811" lon="5.34141">
        <ele>399.47998</ele>
        <time>2017-09-15T11:32:01Z</time>
      </trkpt>
      <trkpt lat="45.33801" lon="5.34125">
        <ele>399.6356</ele>
        <time>2017-09-15T11:32:06Z</time>
      </trkpt>
      <trkpt lat="45.33793" lon="5.34112">
        <ele>399.92126</ele>
        <time>2017-09-15T11:32:12Z</time>
      </trkpt>
      <trkpt lat="45.33786" lon="5.341">
        <ele>399.99377</ele>
        <time>2017-09-15T11:32:17Z</time>
      </trkpt>
      <trkpt lat="45.33773" lon="5.34083">
        <ele>399.94916</ele>
        <time>2017-09-15T11:32:23Z</time>
      </trkpt>
      <trkpt lat="45.3376" lon="5.34061">
        <ele>399.9032</ele>
        <time>2017-09-15T11:32:29Z</time>
      </trkpt>
      <trkpt lat="45.33754" lon="5.34042">
        <ele>399.84235</ele>
        <time>2017-09-15T11:32:35Z</time>
      </trkpt>
      <trkpt lat="45.33752" lon="5.34024">
        <ele>399.6838</ele>
        <time>2017-09-15T11:32:41Z</time>
      </trkpt>
      <trkpt lat="45.33735" lon="5.3402">
        <ele>399.48096</ele>
        <time>2017-09-15T11:32:46Z</time>
      </trkpt>
      <trkpt lat="45.33718" lon="5.34016">
        <ele>399.21255</ele>
        <time>2017-09-15T11:32:52Z</time>
      </trkpt>
      <trkpt lat="45.33705" lon="5.34012">
        <ele>398.96838</ele>
        <time>2017-09-15T11:32:58Z</time>
      </trkpt>
      <trkpt lat="45.33694" lon="5.3401">
        <ele>398.84067</ele>
        <time>2017-09-15T11:33:03Z</time>
      </trkpt>
      <trkpt lat="45.33681" lon="5.34009">
        <ele>398.67902</ele>
        <time>2017-09-15T11:33:09Z</time>
      </trkpt>
      <trkpt lat="45.3367" lon="5.34008">
        <ele>398.58878</ele>
        <time>2017-09-15T11:33:15Z</time>
      </trkpt>
      <trkpt lat="45.33662" lon="5.34006">
        <ele>398.57755</ele>
        <time>2017-09-15T11:33:20Z</time>
      </trkpt>
      <trkpt lat="45.33652" lon="5.34003">
        <ele>398.6917</ele>
        <time>2017-09-15T11:33:26Z</time>
      </trkpt>
      <trkpt lat="45.33645" lon="5.33998">
        <ele>398.90097</ele>
        <time>2017-09-15T11:33:32Z</time>
      </trkpt>
      <trkpt lat="45.33636" lon="5.3399">
        <ele>399.24805</ele>
        <time>2017-09-15T11:33:38Z</time>
      </trkpt>
      <trkpt lat="45.33629" lon="5.33978">
        <ele>399.75476</ele>
        <time>2017-09-15T11:33:44Z</time>
      </trkpt>
      <trkpt lat="45.33625" lon="5.33968">
        <ele>400.2859</ele>
        <time>2017-09-15T11:33:49Z</time>
      </trkpt>
      <trkpt lat="45.33621" lon="5.33954">
        <ele>401.03537</ele>
        <time>2017-09-15T11:33:55Z</time>
      </trkpt>
      <trkpt lat="45.33615" lon="5.33938">
        <ele>401.90924</ele>
        <time>2017-09-15T11:34:01Z</time>
      </trkpt>
      <trkpt lat="45.33609" lon="5.33923">
        <ele>402.72662</ele>
        <time>2017-09-15T11:34:06Z</time>
      </trkpt>
      <trkpt lat="45.33604" lon="5.33907">
        <ele>403.50385</ele>
        <time>2017-09-15T11:34:11Z</time>
      </trkpt>
      <trkpt lat="45.33598" lon="5.33886">
        <ele>404.36002</ele>
        <time>2017-09-15T11:34:17Z</time>
      </trkpt>
      <trkpt lat="45.33592" lon="5.33864">
        <ele>405.2366</ele>
        <time>2017-09-15T11:34:23Z</time>
      </trkpt>
      <trkpt lat="45.33586" lon="5.33844">
        <ele>406.05542</ele>
        <time>2017-09-15T11:34:28Z</time>
      </trkpt>
      <trkpt lat="45.33579" lon="5.33818">
        <ele>409.46643</ele>
        <time>2017-09-15T11:34:33Z</time>
      </trkpt>
      <trkpt lat="45.33567" lon="5.33786">
        <ele>413.03354</ele>
        <time>2017-09-15T11:34:39Z</time>
      </trkpt>
      <trkpt lat="45.33557" lon="5.33758">
        <ele>413.79614</ele>
        <time>2017-09-15T11:34:44Z</time>
      </trkpt>
      <trkpt lat="45.33548" lon="5.33733">
        <ele>412.1978</ele>
        <time>2017-09-15T11:34:49Z</time>
      </trkpt>
      <trkpt lat="45.33535" lon="5.33699">
        <ele>408.67807</ele>
        <time>2017-09-15T11:34:55Z</time>
      </trkpt>
      <trkpt lat="45.33524" lon="5.33672">
        <ele>407.7811</ele>
        <time>2017-09-15T11:35:00Z</time>
      </trkpt>
      <trkpt lat="45.33511" lon="5.33644">
        <ele>407.30975</ele>
        <time>2017-09-15T11:35:06Z</time>
      </trkpt>
      <trkpt lat="45.33501" lon="5.33614">
        <ele>407.87643</ele>
        <time>2017-09-15T11:35:11Z</time>
      </trkpt>
      <trkpt lat="45.33486" lon="5.33579">
        <ele>410.18518</ele>
        <time>2017-09-15T11:35:17Z</time>
      </trkpt>
      <trkpt lat="45.33476" lon="5.33553">
        <ele>412.007</ele>
        <time>2017-09-15T11:35:22Z</time>
      </trkpt>
      <trkpt lat="45.33465" lon="5.33518">
        <ele>412.05783</ele>
        <time>2017-09-15T11:35:28Z</time>
      </trkpt>
      <trkpt lat="45.33454" lon="5.33481">
        <ele>411.26544</ele>
        <time>2017-09-15T11:35:34Z</time>
      </trkpt>
      <trkpt lat="45.33445" lon="5.33453">
        <ele>410.24677</ele>
        <time>2017-09-15T11:35:40Z</time>
      </trkpt>
      <trkpt lat="45.33443" lon="5.33448">
        <ele>409.77463</ele>
        <time>2017-09-15T11:36:01Z</time>
      </trkpt>
      <trkpt lat="45.33438" lon="5.33435">
        <ele>409.3523</ele>
        <time>2017-09-15T11:36:07Z</time>
      </trkpt>
      <trkpt lat="45.33432" lon="5.33407">
        <ele>409.2097</ele>
        <time>2017-09-15T11:36:13Z</time>
      </trkpt>
      <trkpt lat="45.33428" lon="5.33376">
        <ele>409.5025</ele>
        <time>2017-09-15T11:36:18Z</time>
      </trkpt>
      <trkpt lat="45.33422" lon="5.33339">
        <ele>409.7323</ele>
        <time>2017-09-15T11:36:24Z</time>
      </trkpt>
      <trkpt lat="45.33412" lon="5.33292">
        <ele>410.58505</ele>
        <time>2017-09-15T11:36:30Z</time>
      </trkpt>
      <trkpt lat="45.33401" lon="5.33255">
        <ele>411.47775</ele>
        <time>2017-09-15T11:36:35Z</time>
      </trkpt>
      <trkpt lat="45.33388" lon="5.3321">
        <ele>410.7755</ele>
        <time>2017-09-15T11:36:41Z</time>
      </trkpt>
      <trkpt lat="45.33373" lon="5.33177">
        <ele>408.8777</ele>
        <time>2017-09-15T11:36:46Z</time>
      </trkpt>
      <trkpt lat="45.3335" lon="5.33149">
        <ele>407.72577</ele>
        <time>2017-09-15T11:36:51Z</time>
      </trkpt>
      <trkpt lat="45.33323" lon="5.33117">
        <ele>408.48807</ele>
        <time>2017-09-15T11:36:57Z</time>
      </trkpt>
      <trkpt lat="45.33303" lon="5.33093">
        <ele>409.02426</ele>
        <time>2017-09-15T11:37:02Z</time>
      </trkpt>
      <trkpt lat="45.3328" lon="5.33065">
        <ele>410.03897</ele>
        <time>2017-09-15T11:37:08Z</time>
      </trkpt>
      <trkpt lat="45.33258" lon="5.33038">
        <ele>410.7473</ele>
        <time>2017-09-15T11:37:13Z</time>
      </trkpt>
      <trkpt lat="45.33231" lon="5.33007">
        <ele>410.9934</ele>
        <time>2017-09-15T11:37:19Z</time>
      </trkpt>
      <trkpt lat="45.33208" lon="5.32979">
        <ele>410.8532</ele>
        <time>2017-09-15T11:37:24Z</time>
      </trkpt>
      <trkpt lat="45.3318" lon="5.32945">
        <ele>410.36966</ele>
        <time>2017-09-15T11:37:30Z</time>
      </trkpt>
      <trkpt lat="45.33151" lon="5.32913">
        <ele>409.89102</ele>
        <time>2017-09-15T11:37:36Z</time>
      </trkpt>
      <trkpt lat="45.33127" lon="5.32884">
        <ele>409.53568</ele>
        <time>2017-09-15T11:37:41Z</time>
      </trkpt>
      <trkpt lat="45.33099" lon="5.32851">
        <ele>409.53503</ele>
        <time>2017-09-15T11:37:47Z</time>
      </trkpt>
      <trkpt lat="45.33076" lon="5.32822">
        <ele>409.58975</ele>
        <time>2017-09-15T11:37:52Z</time>
      </trkpt>
      <trkpt lat="45.33048" lon="5.32789">
        <ele>409.44296</ele>
        <time>2017-09-15T11:37:58Z</time>
      </trkpt>
      <trkpt lat="45.3302" lon="5.32755">
        <ele>408.53247</ele>
        <time>2017-09-15T11:38:04Z</time>
      </trkpt>
      <trkpt lat="45.32996" lon="5.32728">
        <ele>407.81595</ele>
        <time>2017-09-15T11:38:09Z</time>
      </trkpt>
      <trkpt lat="45.32974" lon="5.32701">
        <ele>407.1757</ele>
        <time>2017-09-15T11:38:14Z</time>
      </trkpt>
      <trkpt lat="45.32947" lon="5.32668">
        <ele>406.6296</ele>
        <time>2017-09-15T11:38:20Z</time>
      </trkpt>
      <trkpt lat="45.3292" lon="5.32634">
        <ele>406.2835</ele>
        <time>2017-09-15T11:38:26Z</time>
      </trkpt>
      <trkpt lat="45.32897" lon="5.32606">
        <ele>405.89056</ele>
        <time>2017-09-15T11:38:31Z</time>
      </trkpt>
      <trkpt lat="45.3287" lon="5.32575">
        <ele>405.3777</ele>
        <time>2017-09-15T11:38:37Z</time>
      </trkpt>
      <trkpt lat="45.32848" lon="5.32548">
        <ele>405.26376</ele>
        <time>2017-09-15T11:38:42Z</time>
      </trkpt>
      <trkpt lat="45.32821" lon="5.32516">
        <ele>405.4624</ele>
        <time>2017-09-15T11:38:48Z</time>
      </trkpt>
      <trkpt lat="45.32797" lon="5.32485">
        <ele>405.65857</ele>
        <time>2017-09-15T11:38:54Z</time>
      </trkpt>
      <trkpt lat="45.32773" lon="5.32458">
        <ele>406.03412</ele>
        <time>2017-09-15T11:39:00Z</time>
      </trkpt>
      <trkpt lat="45.32755" lon="5.32435">
        <ele>406.5024</ele>
        <time>2017-09-15T11:39:05Z</time>
      </trkpt>
      <trkpt lat="45.32731" lon="5.32407">
        <ele>406.86475</ele>
        <time>2017-09-15T11:39:11Z</time>
      </trkpt>
      <trkpt lat="45.32706" lon="5.32378">
        <ele>407.05966</ele>
        <time>2017-09-15T11:39:17Z</time>
      </trkpt>
      <trkpt lat="45.32683" lon="5.32348">
        <ele>407.06406</ele>
        <time>2017-09-15T11:39:23Z</time>
      </trkpt>
      <trkpt lat="45.32664" lon="5.32327">
        <ele>406.23648</ele>
        <time>2017-09-15T11:39:28Z</time>
      </trkpt>
      <trkpt lat="45.32643" lon="5.32301">
        <ele>405.56714</ele>
        <time>2017-09-15T11:39:34Z</time>
      </trkpt>
      <trkpt lat="45.3262" lon="5.32273">
        <ele>405.3328</ele>
        <time>2017-09-15T11:39:40Z</time>
      </trkpt>
      <trkpt lat="45.32601" lon="5.32252">
        <ele>406.06067</ele>
        <time>2017-09-15T11:39:45Z</time>
      </trkpt>
      <trkpt lat="45.32585" lon="5.32234">
        <ele>406.6985</ele>
        <time>2017-09-15T11:39:50Z</time>
      </trkpt>
      <trkpt lat="45.32572" lon="5.32217">
        <ele>407.00827</ele>
        <time>2017-09-15T11:39:55Z</time>
      </trkpt>
      <trkpt lat="45.32554" lon="5.32196">
        <ele>408.8261</ele>
        <time>2017-09-15T11:40:01Z</time>
      </trkpt>
      <trkpt lat="45.32538" lon="5.32176">
        <ele>411.5738</ele>
        <time>2017-09-15T11:40:06Z</time>
      </trkpt>
      <trkpt lat="45.32519" lon="5.32153">
        <ele>413.88916</ele>
        <time>2017-09-15T11:40:12Z</time>
      </trkpt>
      <trkpt lat="45.32499" lon="5.32128">
        <ele>415.2963</ele>
        <time>2017-09-15T11:40:18Z</time>
      </trkpt>
      <trkpt lat="45.32482" lon="5.32107">
        <ele>415.85504</ele>
        <time>2017-09-15T11:40:23Z</time>
      </trkpt>
      <trkpt lat="45.32459" lon="5.32079">
        <ele>415.92706</ele>
        <time>2017-09-15T11:40:29Z</time>
      </trkpt>
      <trkpt lat="45.32428" lon="5.3205">
        <ele>415.32547</ele>
        <time>2017-09-15T11:40:35Z</time>
      </trkpt>
      <trkpt lat="45.32402" lon="5.32013">
        <ele>415.08032</ele>
        <time>2017-09-15T11:40:41Z</time>
      </trkpt>
      <trkpt lat="45.32387" lon="5.31982">
        <ele>414.60254</ele>
        <time>2017-09-15T11:40:46Z</time>
      </trkpt>
      <trkpt lat="45.32378" lon="5.31938">
        <ele>413.7583</ele>
        <time>2017-09-15T11:40:52Z</time>
      </trkpt>
      <trkpt lat="45.32368" lon="5.31901">
        <ele>412.7308</ele>
        <time>2017-09-15T11:40:57Z</time>
      </trkpt>
      <trkpt lat="45.32355" lon="5.31869">
        <ele>412.32764</ele>
        <time>2017-09-15T11:41:02Z</time>
      </trkpt>
      <trkpt lat="45.32343" lon="5.31836">
        <ele>412.62625</ele>
        <time>2017-09-15T11:41:08Z</time>
      </trkpt>
      <trkpt lat="45.32334" lon="5.31811">
        <ele>412.9353</ele>
        <time>2017-09-15T11:41:14Z</time>
      </trkpt>
      <trkpt lat="45.32324" lon="5.31793">
        <ele>413.1323</ele>
        <time>2017-09-15T11:41:19Z</time>
      </trkpt>
      <trkpt lat="45.32309" lon="5.31776">
        <ele>413.40866</ele>
        <time>2017-09-15T11:41:25Z</time>
      </trkpt>
      <trkpt lat="45.32294" lon="5.31761">
        <ele>413.81348</ele>
        <time>2017-09-15T11:41:31Z</time>
      </trkpt>
      <trkpt lat="45.32278" lon="5.31748">
        <ele>414.34686</ele>
        <time>2017-09-15T11:41:37Z</time>
      </trkpt>
      <trkpt lat="45.32265" lon="5.31736">
        <ele>414.85797</ele>
        <time>2017-09-15T11:41:42Z</time>
      </trkpt>
      <trkpt lat="45.32249" lon="5.31723">
        <ele>415.58264</ele>
        <time>2017-09-15T11:41:48Z</time>
      </trkpt>
      <trkpt lat="45.32234" lon="5.31708">
        <ele>416.39066</ele>
        <time>2017-09-15T11:41:54Z</time>
      </trkpt>
      <trkpt lat="45.32218" lon="5.31695">
        <ele>417.28232</ele>
        <time>2017-09-15T11:42:00Z</time>
      </trkpt>
      <trkpt lat="45.32207" lon="5.31684">
        <ele>418.04437</ele>
        <time>2017-09-15T11:42:05Z</time>
      </trkpt>
      <trkpt lat="45.32193" lon="5.3167">
        <ele>418.8686</ele>
        <time>2017-09-15T11:42:11Z</time>
      </trkpt>
      <trkpt lat="45.32177" lon="5.31655">
        <ele>419.64236</ele>
        <time>2017-09-15T11:42:17Z</time>
      </trkpt>
      <trkpt lat="45.32161" lon="5.3164">
        <ele>420.31458</ele>
        <time>2017-09-15T11:42:23Z</time>
      </trkpt>
      <trkpt lat="45.32146" lon="5.31624">
        <ele>420.9943</ele>
        <time>2017-09-15T11:42:29Z</time>
      </trkpt>
      <trkpt lat="45.32128" lon="5.31605">
        <ele>422.58664</ele>
        <time>2017-09-15T11:42:35Z</time>
      </trkpt>
      <trkpt lat="45.32109" lon="5.31587">
        <ele>423.09067</ele>
        <time>2017-09-15T11:42:41Z</time>
      </trkpt>
      <trkpt lat="45.32095" lon="5.31571">
        <ele>423.52896</ele>
        <time>2017-09-15T11:42:46Z</time>
      </trkpt>
      <trkpt lat="45.3208" lon="5.31553">
        <ele>424.0331</ele>
        <time>2017-09-15T11:42:51Z</time>
      </trkpt>
      <trkpt lat="45.32069" lon="5.31531">
        <ele>424.73178</ele>
        <time>2017-09-15T11:42:57Z</time>
      </trkpt>
      <trkpt lat="45.32066" lon="5.31512">
        <ele>425.5224</ele>
        <time>2017-09-15T11:43:03Z</time>
      </trkpt>
      <trkpt lat="45.32066" lon="5.31497">
        <ele>426.482</ele>
        <time>2017-09-15T11:43:08Z</time>
      </trkpt>
      <trkpt lat="45.32067" lon="5.31479">
        <ele>428.24075</ele>
        <time>2017-09-15T11:43:14Z</time>
      </trkpt>
      <trkpt lat="45.3206" lon="5.31454">
        <ele>429.71326</ele>
        <time>2017-09-15T11:43:19Z</time>
      </trkpt>
      <trkpt lat="45.32055" lon="5.31433">
        <ele>430.9774</ele>
        <time>2017-09-15T11:43:24Z</time>
      </trkpt>
      <trkpt lat="45.32049" lon="5.31416">
        <ele>432.0637</ele>
        <time>2017-09-15T11:43:29Z</time>
      </trkpt>
      <trkpt lat="45.3204" lon="5.31397">
        <ele>433.19052</ele>
        <time>2017-09-15T11:43:35Z</time>
      </trkpt>
      <trkpt lat="45.32032" lon="5.3138">
        <ele>434.30878</ele>
        <time>2017-09-15T11:43:41Z</time>
      </trkpt>
      <trkpt lat="45.32026" lon="5.31365">
        <ele>435.5037</ele>
        <time>2017-09-15T11:43:47Z</time>
      </trkpt>
      <trkpt lat="45.32022" lon="5.31352">
        <ele>436.54843</ele>
        <time>2017-09-15T11:43:52Z</time>
      </trkpt>
      <trkpt lat="45.32016" lon="5.31339">
        <ele>437.6913</ele>
        <time>2017-09-15T11:43:58Z</time>
      </trkpt>
      <trkpt lat="45.32012" lon="5.3133">
        <ele>438.34476</ele>
        <time>2017-09-15T11:44:03Z</time>
      </trkpt>
      <trkpt lat="45.32007" lon="5.31314">
        <ele>438.95233</ele>
        <time>2017-09-15T11:44:09Z</time>
      </trkpt>
      <trkpt lat="45.31999" lon="5.31299">
        <ele>439.5224</ele>
        <time>2017-09-15T11:44:14Z</time>
      </trkpt>
      <trkpt lat="45.3199" lon="5.31282">
        <ele>440.19925</ele>
        <time>2017-09-15T11:44:20Z</time>
      </trkpt>
      <trkpt lat="45.31982" lon="5.31268">
        <ele>440.9476</ele>
        <time>2017-09-15T11:44:26Z</time>
      </trkpt>
      <trkpt lat="45.31974" lon="5.31255">
        <ele>441.58362</ele>
        <time>2017-09-15T11:44:32Z</time>
      </trkpt>
      <trkpt lat="45.31964" lon="5.31239">
        <ele>442.17767</ele>
        <time>2017-09-15T11:44:38Z</time>
      </trkpt>
      <trkpt lat="45.31956" lon="5.31229">
        <ele>442.6384</ele>
        <time>2017-09-15T11:44:43Z</time>
      </trkpt>
      <trkpt lat="45.3195" lon="5.31217">
        <ele>443.19916</ele>
        <time>2017-09-15T11:44:48Z</time>
      </trkpt>
      <trkpt lat="45.31941" lon="5.31199">
        <ele>443.9784</ele>
        <time>2017-09-15T11:44:54Z</time>
      </trkpt>
      <trkpt lat="45.31934" lon="5.31186">
        <ele>444.72888</ele>
        <time>2017-09-15T11:44:59Z</time>
      </trkpt>
      <trkpt lat="45.31927" lon="5.31169">
        <ele>445.6418</ele>
        <time>2017-09-15T11:45:05Z</time>
      </trkpt>
      <trkpt lat="45.31916" lon="5.3115">
        <ele>446.65787</ele>
        <time>2017-09-15T11:45:11Z</time>
      </trkpt>
      <trkpt lat="45.31906" lon="5.31133">
        <ele>447.7473</ele>
        <time>2017-09-15T11:45:17Z</time>
      </trkpt>
      <trkpt lat="45.31899" lon="5.31115">
        <ele>448.8548</ele>
        <time>2017-09-15T11:45:23Z</time>
      </trkpt>
      <trkpt lat="45.31891" lon="5.31097">
        <ele>449.8613</ele>
        <time>2017-09-15T11:45:29Z</time>
      </trkpt>
      <trkpt lat="45.31883" lon="5.3108">
        <ele>450.77332</ele>
        <time>2017-09-15T11:45:35Z</time>
      </trkpt>
      <trkpt lat="45.31876" lon="5.31054">
        <ele>451.4408</ele>
        <time>2017-09-15T11:45:41Z</time>
      </trkpt>
      <trkpt lat="45.31867" lon="5.31023">
        <ele>451.9033</ele>
        <time>2017-09-15T11:45:47Z</time>
      </trkpt>
      <trkpt lat="45.3185" lon="5.30983">
        <ele>455.20822</ele>
        <time>2017-09-15T11:45:53Z</time>
      </trkpt>
      <trkpt lat="45.31832" lon="5.30941">
        <ele>458.27005</ele>
        <time>2017-09-15T11:45:59Z</time>
      </trkpt>
      <trkpt lat="45.31818" lon="5.30905">
        <ele>459.02542</ele>
        <time>2017-09-15T11:46:05Z</time>
      </trkpt>
      <trkpt lat="45.31806" lon="5.3087">
        <ele>457.5873</ele>
        <time>2017-09-15T11:46:11Z</time>
      </trkpt>
      <trkpt lat="45.31798" lon="5.30845">
        <ele>456.64767</ele>
        <time>2017-09-15T11:46:16Z</time>
      </trkpt>
      <trkpt lat="45.31797" lon="5.30838">
        <ele>456.86575</ele>
        <time>2017-09-15T11:46:41Z</time>
      </trkpt>
      <trkpt lat="45.31791" lon="5.3082">
        <ele>457.41745</ele>
        <time>2017-09-15T11:46:47Z</time>
      </trkpt>
      <trkpt lat="45.3178" lon="5.3078">
        <ele>457.67612</ele>
        <time>2017-09-15T11:46:53Z</time>
      </trkpt>
      <trkpt lat="45.31759" lon="5.30744">
        <ele>455.7446</ele>
        <time>2017-09-15T11:46:59Z</time>
      </trkpt>
      <trkpt lat="45.31739" lon="5.30716">
        <ele>454.168</ele>
        <time>2017-09-15T11:47:04Z</time>
      </trkpt>
      <trkpt lat="45.31709" lon="5.3068">
        <ele>453.98953</ele>
        <time>2017-09-15T11:47:10Z</time>
      </trkpt>
      <trkpt lat="45.31684" lon="5.30652">
        <ele>455.23138</ele>
        <time>2017-09-15T11:47:16Z</time>
      </trkpt>
      <trkpt lat="45.31666" lon="5.30622">
        <ele>456.2351</ele>
        <time>2017-09-15T11:47:21Z</time>
      </trkpt>
      <trkpt lat="45.31647" lon="5.30585">
        <ele>455.95142</ele>
        <time>2017-09-15T11:47:27Z</time>
      </trkpt>
      <trkpt lat="45.31637" lon="5.30551">
        <ele>455.32553</ele>
        <time>2017-09-15T11:47:32Z</time>
      </trkpt>
      <trkpt lat="45.31625" lon="5.30517">
        <ele>456.02072</ele>
        <time>2017-09-15T11:47:38Z</time>
      </trkpt>
      <trkpt lat="45.31611" lon="5.30489">
        <ele>456.8398</ele>
        <time>2017-09-15T11:47:44Z</time>
      </trkpt>
      <trkpt lat="45.31597" lon="5.30464">
        <ele>459.2114</ele>
        <time>2017-09-15T11:47:50Z</time>
      </trkpt>
      <trkpt lat="45.31583" lon="5.30439">
        <ele>459.83932</ele>
        <time>2017-09-15T11:47:55Z</time>
      </trkpt>
      <trkpt lat="45.31571" lon="5.30419">
        <ele>459.38126</ele>
        <time>2017-09-15T11:48:00Z</time>
      </trkpt>
      <trkpt lat="45.31556" lon="5.30394">
        <ele>459.19952</ele>
        <time>2017-09-15T11:48:06Z</time>
      </trkpt>
      <trkpt lat="45.31541" lon="5.3037">
        <ele>458.54633</ele>
        <time>2017-09-15T11:48:12Z</time>
      </trkpt>
      <trkpt lat="45.31529" lon="5.3035">
        <ele>458.36136</ele>
        <time>2017-09-15T11:48:17Z</time>
      </trkpt>
      <trkpt lat="45.31514" lon="5.30323">
        <ele>457.83777</ele>
        <time>2017-09-15T11:48:23Z</time>
      </trkpt>
      <trkpt lat="45.315" lon="5.30302">
        <ele>458.07187</ele>
        <time>2017-09-15T11:48:28Z</time>
      </trkpt>
      <trkpt lat="45.31484" lon="5.30279">
        <ele>458.60748</ele>
        <time>2017-09-15T11:48:34Z</time>
      </trkpt>
      <trkpt lat="45.31465" lon="5.30263">
        <ele>458.9782</ele>
        <time>2017-09-15T11:48:40Z</time>
      </trkpt>
      <trkpt lat="45.3145" lon="5.30252">
        <ele>459.06403</ele>
        <time>2017-09-15T11:48:45Z</time>
      </trkpt>
      <trkpt lat="45.31432" lon="5.30238">
        <ele>459.22223</ele>
        <time>2017-09-15T11:48:51Z</time>
      </trkpt>
      <trkpt lat="45.31418" lon="5.30227">
        <ele>459.3914</ele>
        <time>2017-09-15T11:48:56Z</time>
      </trkpt>
      <trkpt lat="45.31411" lon="5.30204">
        <ele>459.68683</ele>
        <time>2017-09-15T11:49:02Z</time>
      </trkpt>
      <trkpt lat="45.31417" lon="5.30181">
        <ele>460.0479</ele>
        <time>2017-09-15T11:49:08Z</time>
      </trkpt>
      <trkpt lat="45.31422" lon="5.30159">
        <ele>460.5126</ele>
        <time>2017-09-15T11:49:14Z</time>
      </trkpt>
      <trkpt lat="45.31426" lon="5.30144">
        <ele>460.94528</ele>
        <time>2017-09-15T11:49:19Z</time>
      </trkpt>
      <trkpt lat="45.31433" lon="5.30123">
        <ele>461.38004</ele>
        <time>2017-09-15T11:49:25Z</time>
      </trkpt>
      <trkpt lat="45.31437" lon="5.30106">
        <ele>461.8318</ele>
        <time>2017-09-15T11:49:30Z</time>
      </trkpt>
      <trkpt lat="45.31442" lon="5.30089">
        <ele>462.30344</ele>
        <time>2017-09-15T11:49:35Z</time>
      </trkpt>
      <trkpt lat="45.31445" lon="5.30069">
        <ele>463.0445</ele>
        <time>2017-09-15T11:49:41Z</time>
      </trkpt>
      <trkpt lat="45.3145" lon="5.30048">
        <ele>463.8528</ele>
        <time>2017-09-15T11:49:47Z</time>
      </trkpt>
      <trkpt lat="45.31454" lon="5.30027">
        <ele>464.66113</ele>
        <time>2017-09-15T11:49:53Z</time>
      </trkpt>
      <trkpt lat="45.31458" lon="5.3001">
        <ele>465.3522</ele>
        <time>2017-09-15T11:49:58Z</time>
      </trkpt>
      <trkpt lat="45.31461" lon="5.29989">
        <ele>466.11087</ele>
        <time>2017-09-15T11:50:04Z</time>
      </trkpt>
      <trkpt lat="45.31467" lon="5.29968">
        <ele>466.9843</ele>
        <time>2017-09-15T11:50:10Z</time>
      </trkpt>
      <trkpt lat="45.31473" lon="5.29945">
        <ele>467.7778</ele>
        <time>2017-09-15T11:50:16Z</time>
      </trkpt>
      <trkpt lat="45.3148" lon="5.2992">
        <ele>468.4002</ele>
        <time>2017-09-15T11:50:22Z</time>
      </trkpt>
      <trkpt lat="45.31487" lon="5.29894">
        <ele>470.46396</ele>
        <time>2017-09-15T11:50:27Z</time>
      </trkpt>
      <trkpt lat="45.31493" lon="5.29861">
        <ele>472.2193</ele>
        <time>2017-09-15T11:50:33Z</time>
      </trkpt>
      <trkpt lat="45.315" lon="5.29822">
        <ele>470.69702</ele>
        <time>2017-09-15T11:50:39Z</time>
      </trkpt>
      <trkpt lat="45.31507" lon="5.29788">
        <ele>471.12787</ele>
        <time>2017-09-15T11:50:45Z</time>
      </trkpt>
      <trkpt lat="45.31515" lon="5.2975">
        <ele>473.8095</ele>
        <time>2017-09-15T11:50:51Z</time>
      </trkpt>
      <trkpt lat="45.31523" lon="5.29704">
        <ele>476.20404</ele>
        <time>2017-09-15T11:50:57Z</time>
      </trkpt>
      <trkpt lat="45.31527" lon="5.29656">
        <ele>476.2245</ele>
        <time>2017-09-15T11:51:03Z</time>
      </trkpt>
      <trkpt lat="45.31531" lon="5.29605">
        <ele>475.90793</ele>
        <time>2017-09-15T11:51:09Z</time>
      </trkpt>
      <trkpt lat="45.31534" lon="5.29562">
        <ele>474.94</ele>
        <time>2017-09-15T11:51:14Z</time>
      </trkpt>
      <trkpt lat="45.31535" lon="5.29517">
        <ele>474.22784</ele>
        <time>2017-09-15T11:51:19Z</time>
      </trkpt>
      <trkpt lat="45.31538" lon="5.29459">
        <ele>472.75778</ele>
        <time>2017-09-15T11:51:25Z</time>
      </trkpt>
      <trkpt lat="45.31543" lon="5.29401">
        <ele>471.0657</ele>
        <time>2017-09-15T11:51:30Z</time>
      </trkpt>
      <trkpt lat="45.31549" lon="5.29326">
        <ele>468.865</ele>
        <time>2017-09-15T11:51:36Z</time>
      </trkpt>
      <trkpt lat="45.31551" lon="5.29265">
        <ele>467.55188</ele>
        <time>2017-09-15T11:51:41Z</time>
      </trkpt>
      <trkpt lat="45.31551" lon="5.2921">
        <ele>466.4811</ele>
        <time>2017-09-15T11:51:46Z</time>
      </trkpt>
      <trkpt lat="45.31555" lon="5.29161">
        <ele>465.27133</ele>
        <time>2017-09-15T11:51:51Z</time>
      </trkpt>
      <trkpt lat="45.31556" lon="5.29105">
        <ele>464.34467</ele>
        <time>2017-09-15T11:51:57Z</time>
      </trkpt>
      <trkpt lat="45.31557" lon="5.29052">
        <ele>463.55292</ele>
        <time>2017-09-15T11:52:03Z</time>
      </trkpt>
      <trkpt lat="45.31558" lon="5.29001">
        <ele>463.19513</ele>
        <time>2017-09-15T11:52:09Z</time>
      </trkpt>
      <trkpt lat="45.31562" lon="5.28963">
        <ele>463.62396</ele>
        <time>2017-09-15T11:52:14Z</time>
      </trkpt>
      <trkpt lat="45.31567" lon="5.28923">
        <ele>464.11438</ele>
        <time>2017-09-15T11:52:19Z</time>
      </trkpt>
      <trkpt lat="45.3158" lon="5.28879">
        <ele>464.17114</ele>
        <time>2017-09-15T11:52:24Z</time>
      </trkpt>
      <trkpt lat="45.31599" lon="5.28835">
        <ele>463.65384</ele>
        <time>2017-09-15T11:52:30Z</time>
      </trkpt>
      <trkpt lat="45.31597" lon="5.28792">
        <ele>462.94122</ele>
        <time>2017-09-15T11:52:36Z</time>
      </trkpt>
      <trkpt lat="45.31597" lon="5.28763">
        <ele>462.92096</ele>
        <time>2017-09-15T11:52:41Z</time>
      </trkpt>
      <trkpt lat="45.31612" lon="5.28736">
        <ele>464.95255</ele>
        <time>2017-09-15T11:52:47Z</time>
      </trkpt>
      <trkpt lat="45.31621" lon="5.28707">
        <ele>465.4127</ele>
        <time>2017-09-15T11:52:53Z</time>
      </trkpt>
      <trkpt lat="45.31626" lon="5.28677">
        <ele>465.7022</ele>
        <time>2017-09-15T11:52:59Z</time>
      </trkpt>
      <trkpt lat="45.31634" lon="5.2865">
        <ele>466.14423</ele>
        <time>2017-09-15T11:53:05Z</time>
      </trkpt>
      <trkpt lat="45.31641" lon="5.28623">
        <ele>467.50775</ele>
        <time>2017-09-15T11:53:11Z</time>
      </trkpt>
      <trkpt lat="45.31647" lon="5.28588">
        <ele>469.57822</ele>
        <time>2017-09-15T11:53:17Z</time>
      </trkpt>
      <trkpt lat="45.31653" lon="5.28562">
        <ele>469.8091</ele>
        <time>2017-09-15T11:53:22Z</time>
      </trkpt>
      <trkpt lat="45.31658" lon="5.28525">
        <ele>469.79733</ele>
        <time>2017-09-15T11:53:28Z</time>
      </trkpt>
      <trkpt lat="45.3166" lon="5.28483">
        <ele>469.35263</ele>
        <time>2017-09-15T11:53:34Z</time>
      </trkpt>
      <trkpt lat="45.31664" lon="5.28449">
        <ele>469.2642</ele>
        <time>2017-09-15T11:53:39Z</time>
      </trkpt>
      <trkpt lat="45.31671" lon="5.2841">
        <ele>468.944</ele>
        <time>2017-09-15T11:53:45Z</time>
      </trkpt>
      <trkpt lat="45.31677" lon="5.28375">
        <ele>468.0052</ele>
        <time>2017-09-15T11:53:51Z</time>
      </trkpt>
      <trkpt lat="45.31685" lon="5.28355">
        <ele>467.81534</ele>
        <time>2017-09-15T11:55:26Z</time>
      </trkpt>
      <trkpt lat="45.31691" lon="5.2834">
        <ele>467.75443</ele>
        <time>2017-09-15T11:55:31Z</time>
      </trkpt>
      <trkpt lat="45.31711" lon="5.28303">
        <ele>465.2333</ele>
        <time>2017-09-15T11:55:37Z</time>
      </trkpt>
      <trkpt lat="45.31736" lon="5.28261">
        <ele>462.08978</ele>
        <time>2017-09-15T11:55:43Z</time>
      </trkpt>
      <trkpt lat="45.31756" lon="5.28211">
        <ele>459.82812</ele>
        <time>2017-09-15T11:55:49Z</time>
      </trkpt>
      <trkpt lat="45.31767" lon="5.2817">
        <ele>458.60663</ele>
        <time>2017-09-15T11:55:54Z</time>
      </trkpt>
      <trkpt lat="45.31772" lon="5.2812">
        <ele>458.4598</ele>
        <time>2017-09-15T11:56:00Z</time>
      </trkpt>
      <trkpt lat="45.31776" lon="5.28085">
        <ele>459.39883</ele>
        <time>2017-09-15T11:56:05Z</time>
      </trkpt>
      <trkpt lat="45.31784" lon="5.28051">
        <ele>460.76846</ele>
        <time>2017-09-15T11:56:11Z</time>
      </trkpt>
      <trkpt lat="45.31794" lon="5.28025">
        <ele>460.97696</ele>
        <time>2017-09-15T11:56:17Z</time>
      </trkpt>
      <trkpt lat="45.31804" lon="5.28005">
        <ele>461.32156</ele>
        <time>2017-09-15T11:56:23Z</time>
      </trkpt>
      <trkpt lat="45.31816" lon="5.27992">
        <ele>461.64374</ele>
        <time>2017-09-15T11:56:28Z</time>
      </trkpt>
      <trkpt lat="45.31826" lon="5.2798">
        <ele>461.9516</ele>
        <time>2017-09-15T11:56:34Z</time>
      </trkpt>
      <trkpt lat="45.31833" lon="5.27969">
        <ele>462.30746</ele>
        <time>2017-09-15T11:56:39Z</time>
      </trkpt>
      <trkpt lat="45.31843" lon="5.27955">
        <ele>462.96625</ele>
        <time>2017-09-15T11:56:45Z</time>
      </trkpt>
      <trkpt lat="45.31849" lon="5.27938">
        <ele>463.81467</ele>
        <time>2017-09-15T11:56:51Z</time>
      </trkpt>
      <trkpt lat="45.31854" lon="5.2792">
        <ele>464.63776</ele>
        <time>2017-09-15T11:56:57Z</time>
      </trkpt>
      <trkpt lat="45.3186" lon="5.27895">
        <ele>465.4129</ele>
        <time>2017-09-15T11:57:03Z</time>
      </trkpt>
      <trkpt lat="45.31869" lon="5.27869">
        <ele>468.184</ele>
        <time>2017-09-15T11:57:08Z</time>
      </trkpt>
      <trkpt lat="45.31881" lon="5.27844">
        <ele>468.02048</ele>
        <time>2017-09-15T11:57:13Z</time>
      </trkpt>
      <trkpt lat="45.319" lon="5.27811">
        <ele>466.85626</ele>
        <time>2017-09-15T11:57:19Z</time>
      </trkpt>
      <trkpt lat="45.31921" lon="5.27778">
        <ele>466.71967</ele>
        <time>2017-09-15T11:57:25Z</time>
      </trkpt>
      <trkpt lat="45.31939" lon="5.27752">
        <ele>466.97336</ele>
        <time>2017-09-15T11:57:30Z</time>
      </trkpt>
      <trkpt lat="45.31963" lon="5.27722">
        <ele>466.67557</ele>
        <time>2017-09-15T11:57:36Z</time>
      </trkpt>
      <trkpt lat="45.31991" lon="5.27695">
        <ele>466.39145</ele>
        <time>2017-09-15T11:57:42Z</time>
      </trkpt>
      <trkpt lat="45.3203" lon="5.27672">
        <ele>466.30997</ele>
        <time>2017-09-15T11:57:48Z</time>
      </trkpt>
      <trkpt lat="45.3207" lon="5.27668">
        <ele>466.0318</ele>
        <time>2017-09-15T11:57:54Z</time>
      </trkpt>
      <trkpt lat="45.32093" lon="5.27669">
        <ele>465.59732</ele>
        <time>2017-09-15T11:57:59Z</time>
      </trkpt>
      <trkpt lat="45.32119" lon="5.27673">
        <ele>465.2641</ele>
        <time>2017-09-15T11:58:04Z</time>
      </trkpt>
      <trkpt lat="45.3215" lon="5.27673">
        <ele>468.49472</ele>
        <time>2017-09-15T11:58:10Z</time>
      </trkpt>
      <trkpt lat="45.32171" lon="5.27674">
        <ele>468.9519</ele>
        <time>2017-09-15T11:58:16Z</time>
      </trkpt>
      <trkpt lat="45.32193" lon="5.27673">
        <ele>470.3873</ele>
        <time>2017-09-15T11:58:22Z</time>
      </trkpt>
      <trkpt lat="45.32218" lon="5.27678">
        <ele>471.85226</ele>
        <time>2017-09-15T11:58:28Z</time>
      </trkpt>
      <trkpt lat="45.32234" lon="5.27685">
        <ele>472.02164</ele>
        <time>2017-09-15T11:58:33Z</time>
      </trkpt>
      <trkpt lat="45.32254" lon="5.27688">
        <ele>471.99902</ele>
        <time>2017-09-15T11:58:39Z</time>
      </trkpt>
      <trkpt lat="45.32275" lon="5.27691">
        <ele>471.14032</ele>
        <time>2017-09-15T11:58:44Z</time>
      </trkpt>
      <trkpt lat="45.32285" lon="5.2769">
        <ele>472.20035</ele>
        <time>2017-09-15T11:59:38Z</time>
      </trkpt>
      <trkpt lat="45.32297" lon="5.27691">
        <ele>472.4019</ele>
        <time>2017-09-15T11:59:44Z</time>
      </trkpt>
      <trkpt lat="45.32314" lon="5.27691">
        <ele>472.48538</ele>
        <time>2017-09-15T11:59:50Z</time>
      </trkpt>
      <trkpt lat="45.32324" lon="5.2769">
        <ele>472.44553</ele>
        <time>2017-09-15T11:59:55Z</time>
      </trkpt>
      <trkpt lat="45.32338" lon="5.27699">
        <ele>472.19525</ele>
        <time>2017-09-15T12:00:04Z</time>
      </trkpt>
      <trkpt lat="45.32353" lon="5.27704">
        <ele>471.84995</ele>
        <time>2017-09-15T12:00:10Z</time>
      </trkpt>
      <trkpt lat="45.32367" lon="5.27713">
        <ele>471.4137</ele>
        <time>2017-09-15T12:00:16Z</time>
      </trkpt>
      <trkpt lat="45.32378" lon="5.27723">
        <ele>471.29462</ele>
        <time>2017-09-15T12:00:21Z</time>
      </trkpt>
      <trkpt lat="45.32387" lon="5.27727">
        <ele>471.3166</ele>
        <time>2017-09-15T12:00:26Z</time>
      </trkpt>
      <trkpt lat="45.32383" lon="5.27723">
        <ele>471.58017</ele>
        <time>2017-09-15T12:02:31Z</time>
      </trkpt>
      <trkpt lat="45.32365" lon="5.27713">
        <ele>470.66537</ele>
        <time>2017-09-15T12:02:36Z</time>
      </trkpt>
      <trkpt lat="45.32347" lon="5.277">
        <ele>469.51602</ele>
        <time>2017-09-15T12:02:42Z</time>
      </trkpt>
      <trkpt lat="45.32341" lon="5.27703">
        <ele>468.8354</ele>
        <time>2017-09-15T12:02:48Z</time>
      </trkpt>
      <trkpt lat="45.32334" lon="5.27701">
        <ele>467.75027</ele>
        <time>2017-09-15T12:03:09Z</time>
      </trkpt>
      <trkpt lat="45.32324" lon="5.27683">
        <ele>466.5041</ele>
        <time>2017-09-15T12:03:23Z</time>
      </trkpt>
      <trkpt lat="45.3232" lon="5.27664">
        <ele>465.63895</ele>
        <time>2017-09-15T12:03:28Z</time>
      </trkpt>
      <trkpt lat="45.32305" lon="5.27645">
        <ele>459.49982</ele>
        <time>2017-09-15T12:03:34Z</time>
      </trkpt>
      <trkpt lat="45.32277" lon="5.27612">
        <ele>452.06094</ele>
        <time>2017-09-15T12:03:40Z</time>
      </trkpt>
      <trkpt lat="45.32247" lon="5.2758">
        <ele>447.39676</ele>
        <time>2017-09-15T12:03:45Z</time>
      </trkpt>
      <trkpt lat="45.32202" lon="5.27555">
        <ele>444.35864</ele>
        <time>2017-09-15T12:03:51Z</time>
      </trkpt>
      <trkpt lat="45.32168" lon="5.27535">
        <ele>443.6654</ele>
        <time>2017-09-15T12:03:57Z</time>
      </trkpt>
      <trkpt lat="45.32174" lon="5.27497">
        <ele>441.9941</ele>
        <time>2017-09-15T12:04:03Z</time>
      </trkpt>
      <trkpt lat="45.32208" lon="5.27443">
        <ele>436.9102</ele>
        <time>2017-09-15T12:04:09Z</time>
      </trkpt>
      <trkpt lat="45.32235" lon="5.27402">
        <ele>433.95343</ele>
        <time>2017-09-15T12:04:14Z</time>
      </trkpt>
      <trkpt lat="45.3226" lon="5.27365">
        <ele>431.12317</ele>
        <time>2017-09-15T12:04:19Z</time>
      </trkpt>
      <trkpt lat="45.32271" lon="5.27348">
        <ele>430.12033</ele>
        <time>2017-09-15T12:04:29Z</time>
      </trkpt>
      <trkpt lat="45.32295" lon="5.27318">
        <ele>423.10388</ele>
        <time>2017-09-15T12:04:34Z</time>
      </trkpt>
      <trkpt lat="45.32337" lon="5.27274">
        <ele>417.9282</ele>
        <time>2017-09-15T12:04:39Z</time>
      </trkpt>
      <trkpt lat="45.32384" lon="5.27221">
        <ele>414.0916</ele>
        <time>2017-09-15T12:04:44Z</time>
      </trkpt>
      <trkpt lat="45.32427" lon="5.27143">
        <ele>409.81946</ele>
        <time>2017-09-15T12:04:50Z</time>
      </trkpt>
      <trkpt lat="45.32474" lon="5.27122">
        <ele>406.89902</ele>
        <time>2017-09-15T12:04:55Z</time>
      </trkpt>
      <trkpt lat="45.32495" lon="5.27059">
        <ele>404.59485</ele>
        <time>2017-09-15T12:05:01Z</time>
      </trkpt>
      <trkpt lat="45.32504" lon="5.26994">
        <ele>402.73584</ele>
        <time>2017-09-15T12:05:07Z</time>
      </trkpt>
      <trkpt lat="45.32511" lon="5.26944">
        <ele>401.29437</ele>
        <time>2017-09-15T12:05:12Z</time>
      </trkpt>
      <trkpt lat="45.3252" lon="5.26892">
        <ele>399.8127</ele>
        <time>2017-09-15T12:05:18Z</time>
      </trkpt>
      <trkpt lat="45.32528" lon="5.26844">
        <ele>397.99966</ele>
        <time>2017-09-15T12:05:24Z</time>
      </trkpt>
      <trkpt lat="45.32535" lon="5.26804">
        <ele>397.25217</ele>
        <time>2017-09-15T12:05:29Z</time>
      </trkpt>
      <trkpt lat="45.32544" lon="5.26754">
        <ele>396.31857</ele>
        <time>2017-09-15T12:05:35Z</time>
      </trkpt>
      <trkpt lat="45.32549" lon="5.26708">
        <ele>395.6366</ele>
        <time>2017-09-15T12:05:40Z</time>
      </trkpt>
      <trkpt lat="45.32556" lon="5.26684">
        <ele>396.28445</ele>
        <time>2017-09-15T12:06:35Z</time>
      </trkpt>
      <trkpt lat="45.32558" lon="5.26671">
        <ele>396.6718</ele>
        <time>2017-09-15T12:06:40Z</time>
      </trkpt>
      <trkpt lat="45.32561" lon="5.26632">
        <ele>398.71646</ele>
        <time>2017-09-15T12:06:46Z</time>
      </trkpt>
      <trkpt lat="45.32571" lon="5.26585">
        <ele>397.85028</ele>
        <time>2017-09-15T12:06:52Z</time>
      </trkpt>
      <trkpt lat="45.32573" lon="5.26543">
        <ele>395.4091</ele>
        <time>2017-09-15T12:06:57Z</time>
      </trkpt>
      <trkpt lat="45.32563" lon="5.2651">
        <ele>392.9827</ele>
        <time>2017-09-15T12:07:02Z</time>
      </trkpt>
      <trkpt lat="45.32545" lon="5.26489">
        <ele>390.3137</ele>
        <time>2017-09-15T12:07:07Z</time>
      </trkpt>
      <trkpt lat="45.32532" lon="5.26454">
        <ele>388.47012</ele>
        <time>2017-09-15T12:07:13Z</time>
      </trkpt>
      <trkpt lat="45.3253" lon="5.26418">
        <ele>388.40942</ele>
        <time>2017-09-15T12:07:19Z</time>
      </trkpt>
      <trkpt lat="45.32525" lon="5.26392">
        <ele>389.43655</ele>
        <time>2017-09-15T12:07:24Z</time>
      </trkpt>
      <trkpt lat="45.32518" lon="5.26356">
        <ele>388.84515</ele>
        <time>2017-09-15T12:07:30Z</time>
      </trkpt>
      <trkpt lat="45.32518" lon="5.26346">
        <ele>390.32108</ele>
        <time>2017-09-15T12:08:56Z</time>
      </trkpt>
      <trkpt lat="45.32515" lon="5.26322">
        <ele>391.02597</ele>
        <time>2017-09-15T12:09:02Z</time>
      </trkpt>
      <trkpt lat="45.32512" lon="5.26294">
        <ele>393.06815</ele>
        <time>2017-09-15T12:09:07Z</time>
      </trkpt>
      <trkpt lat="45.32509" lon="5.26265">
        <ele>393.44608</ele>
        <time>2017-09-15T12:09:13Z</time>
      </trkpt>
      <trkpt lat="45.32504" lon="5.26265">
        <ele>393.39105</ele>
        <time>2017-09-15T12:09:31Z</time>
      </trkpt>
      <trkpt lat="45.3249" lon="5.26278">
        <ele>393.24496</ele>
        <time>2017-09-15T12:09:37Z</time>
      </trkpt>
      <trkpt lat="45.32475" lon="5.26293">
        <ele>393.03366</ele>
        <time>2017-09-15T12:09:42Z</time>
      </trkpt>
      <trkpt lat="45.32459" lon="5.26307">
        <ele>392.27994</ele>
        <time>2017-09-15T12:09:47Z</time>
      </trkpt>
      <trkpt lat="45.32439" lon="5.26326">
        <ele>391.21695</ele>
        <time>2017-09-15T12:09:53Z</time>
      </trkpt>
      <trkpt lat="45.3242" lon="5.26347">
        <ele>390.92737</ele>
        <time>2017-09-15T12:09:59Z</time>
      </trkpt>
      <trkpt lat="45.32404" lon="5.26365">
        <ele>390.94275</ele>
        <time>2017-09-15T12:10:05Z</time>
      </trkpt>
      <trkpt lat="45.3239" lon="5.26377">
        <ele>390.85422</ele>
        <time>2017-09-15T12:10:10Z</time>
      </trkpt>
      <trkpt lat="45.32375" lon="5.26393">
        <ele>390.76636</ele>
        <time>2017-09-15T12:10:15Z</time>
      </trkpt>
      <trkpt lat="45.3236" lon="5.26411">
        <ele>390.54852</ele>
        <time>2017-09-15T12:10:21Z</time>
      </trkpt>
      <trkpt lat="45.32345" lon="5.26426">
        <ele>390.02197</ele>
        <time>2017-09-15T12:10:27Z</time>
      </trkpt>
      <trkpt lat="45.32327" lon="5.26444">
        <ele>389.3074</ele>
        <time>2017-09-15T12:10:33Z</time>
      </trkpt>
      <trkpt lat="45.32311" lon="5.26459">
        <ele>388.7983</ele>
        <time>2017-09-15T12:10:38Z</time>
      </trkpt>
      <trkpt lat="45.32292" lon="5.26471">
        <ele>388.4858</ele>
        <time>2017-09-15T12:10:44Z</time>
      </trkpt>
      <trkpt lat="45.32279" lon="5.26469">
        <ele>388.4387</ele>
        <time>2017-09-15T12:10:49Z</time>
      </trkpt>
      <trkpt lat="45.32267" lon="5.26467">
        <ele>388.56226</ele>
        <time>2017-09-15T12:10:54Z</time>
      </trkpt>
      <trkpt lat="45.32253" lon="5.26465">
        <ele>388.9136</ele>
        <time>2017-09-15T12:11:00Z</time>
      </trkpt>
      <trkpt lat="45.32238" lon="5.26462">
        <ele>389.47934</ele>
        <time>2017-09-15T12:11:06Z</time>
      </trkpt>
      <trkpt lat="45.32226" lon="5.26461">
        <ele>390.1188</ele>
        <time>2017-09-15T12:11:11Z</time>
      </trkpt>
      <trkpt lat="45.32213" lon="5.26459">
        <ele>391.15585</ele>
        <time>2017-09-15T12:11:17Z</time>
      </trkpt>
      <trkpt lat="45.32201" lon="5.26457">
        <ele>392.3799</ele>
        <time>2017-09-15T12:11:23Z</time>
      </trkpt>
      <trkpt lat="45.32188" lon="5.26453">
        <ele>393.69974</ele>
        <time>2017-09-15T12:11:29Z</time>
      </trkpt>
      <trkpt lat="45.32179" lon="5.26453">
        <ele>394.79874</ele>
        <time>2017-09-15T12:11:34Z</time>
      </trkpt>
      <trkpt lat="45.32169" lon="5.26459">
        <ele>395.96185</ele>
        <time>2017-09-15T12:11:40Z</time>
      </trkpt>
      <trkpt lat="45.3216" lon="5.26468">
        <ele>396.6555</ele>
        <time>2017-09-15T12:11:45Z</time>
      </trkpt>
      <trkpt lat="45.32146" lon="5.26484">
        <ele>397.3681</ele>
        <time>2017-09-15T12:11:51Z</time>
      </trkpt>
      <trkpt lat="45.32129" lon="5.26501">
        <ele>399.7688</ele>
        <time>2017-09-15T12:11:57Z</time>
      </trkpt>
      <trkpt lat="45.32108" lon="5.26522">
        <ele>402.03534</ele>
        <time>2017-09-15T12:12:03Z</time>
      </trkpt>
      <trkpt lat="45.32087" lon="5.26537">
        <ele>402.46384</ele>
        <time>2017-09-15T12:12:08Z</time>
      </trkpt>
      <trkpt lat="45.3206" lon="5.2655">
        <ele>403.23264</ele>
        <time>2017-09-15T12:12:14Z</time>
      </trkpt>
      <trkpt lat="45.32042" lon="5.26553">
        <ele>403.62543</ele>
        <time>2017-09-15T12:12:19Z</time>
      </trkpt>
      <trkpt lat="45.32025" lon="5.26553">
        <ele>404.00717</ele>
        <time>2017-09-15T12:12:25Z</time>
      </trkpt>
      <trkpt lat="45.32012" lon="5.26554">
        <ele>404.46182</ele>
        <time>2017-09-15T12:12:30Z</time>
      </trkpt>
      <trkpt lat="45.32001" lon="5.26555">
        <ele>405.06503</ele>
        <time>2017-09-15T12:12:35Z</time>
      </trkpt>
      <trkpt lat="45.31988" lon="5.26555">
        <ele>405.7666</ele>
        <time>2017-09-15T12:12:41Z</time>
      </trkpt>
      <trkpt lat="45.31974" lon="5.26553">
        <ele>406.4058</ele>
        <time>2017-09-15T12:12:47Z</time>
      </trkpt>
      <trkpt lat="45.31958" lon="5.26548">
        <ele>406.97162</ele>
        <time>2017-09-15T12:12:53Z</time>
      </trkpt>
      <trkpt lat="45.31946" lon="5.26543">
        <ele>407.4245</ele>
        <time>2017-09-15T12:12:58Z</time>
      </trkpt>
      <trkpt lat="45.3193" lon="5.26538">
        <ele>408.16547</ele>
        <time>2017-09-15T12:13:04Z</time>
      </trkpt>
      <trkpt lat="45.31918" lon="5.26534">
        <ele>408.8898</ele>
        <time>2017-09-15T12:13:09Z</time>
      </trkpt>
      <trkpt lat="45.31904" lon="5.2653">
        <ele>409.7637</ele>
        <time>2017-09-15T12:13:15Z</time>
      </trkpt>
      <trkpt lat="45.31891" lon="5.26529">
        <ele>410.80667</ele>
        <time>2017-09-15T12:13:21Z</time>
      </trkpt>
      <trkpt lat="45.31881" lon="5.26526">
        <ele>411.827</ele>
        <time>2017-09-15T12:13:26Z</time>
      </trkpt>
      <trkpt lat="45.31871" lon="5.2652">
        <ele>412.82715</ele>
        <time>2017-09-15T12:13:31Z</time>
      </trkpt>
      <trkpt lat="45.31854" lon="5.26507">
        <ele>413.97266</ele>
        <time>2017-09-15T12:13:37Z</time>
      </trkpt>
      <trkpt lat="45.31845" lon="5.265">
        <ele>414.64685</ele>
        <time>2017-09-15T12:13:42Z</time>
      </trkpt>
      <trkpt lat="45.31834" lon="5.26494">
        <ele>415.62076</ele>
        <time>2017-09-15T12:13:48Z</time>
      </trkpt>
      <trkpt lat="45.31822" lon="5.26487">
        <ele>416.59418</ele>
        <time>2017-09-15T12:13:54Z</time>
      </trkpt>
      <trkpt lat="45.31813" lon="5.2648">
        <ele>417.49863</ele>
        <time>2017-09-15T12:13:59Z</time>
      </trkpt>
      <trkpt lat="45.31803" lon="5.26473">
        <ele>418.57553</ele>
        <time>2017-09-15T12:14:05Z</time>
      </trkpt>
      <trkpt lat="45.31791" lon="5.26465">
        <ele>419.64532</ele>
        <time>2017-09-15T12:14:11Z</time>
      </trkpt>
      <trkpt lat="45.31782" lon="5.26459">
        <ele>420.69257</ele>
        <time>2017-09-15T12:14:17Z</time>
      </trkpt>
      <trkpt lat="45.31773" lon="5.2645">
        <ele>422.1583</ele>
        <time>2017-09-15T12:14:23Z</time>
      </trkpt>
      <trkpt lat="45.3176" lon="5.2644">
        <ele>423.5955</ele>
        <time>2017-09-15T12:14:29Z</time>
      </trkpt>
      <trkpt lat="45.31748" lon="5.26431">
        <ele>424.44144</ele>
        <time>2017-09-15T12:14:34Z</time>
      </trkpt>
      <trkpt lat="45.31735" lon="5.26419">
        <ele>425.0563</ele>
        <time>2017-09-15T12:14:39Z</time>
      </trkpt>
      <trkpt lat="45.31725" lon="5.26409">
        <ele>425.54214</ele>
        <time>2017-09-15T12:14:44Z</time>
      </trkpt>
      <trkpt lat="45.31712" lon="5.26398">
        <ele>425.99048</ele>
        <time>2017-09-15T12:14:49Z</time>
      </trkpt>
      <trkpt lat="45.31699" lon="5.26384">
        <ele>426.54474</ele>
        <time>2017-09-15T12:14:55Z</time>
      </trkpt>
      <trkpt lat="45.3169" lon="5.26374">
        <ele>427.08023</ele>
        <time>2017-09-15T12:15:00Z</time>
      </trkpt>
      <trkpt lat="45.31678" lon="5.26357">
        <ele>428.12933</ele>
        <time>2017-09-15T12:15:06Z</time>
      </trkpt>
      <trkpt lat="45.3167" lon="5.26342">
        <ele>429.18326</ele>
        <time>2017-09-15T12:15:11Z</time>
      </trkpt>
      <trkpt lat="45.3166" lon="5.26323">
        <ele>430.5577</ele>
        <time>2017-09-15T12:15:17Z</time>
      </trkpt>
      <trkpt lat="45.31652" lon="5.26308">
        <ele>431.54993</ele>
        <time>2017-09-15T12:15:22Z</time>
      </trkpt>
      <trkpt lat="45.31642" lon="5.26283">
        <ele>432.7431</ele>
        <time>2017-09-15T12:15:28Z</time>
      </trkpt>
      <trkpt lat="45.31634" lon="5.26266">
        <ele>433.9109</ele>
        <time>2017-09-15T12:15:33Z</time>
      </trkpt>
      <trkpt lat="45.31625" lon="5.2625">
        <ele>434.84918</ele>
        <time>2017-09-15T12:15:38Z</time>
      </trkpt>
      <trkpt lat="45.31614" lon="5.26231">
        <ele>435.6982</ele>
        <time>2017-09-15T12:15:44Z</time>
      </trkpt>
      <trkpt lat="45.31603" lon="5.26209">
        <ele>436.24252</ele>
        <time>2017-09-15T12:15:50Z</time>
      </trkpt>
      <trkpt lat="45.31589" lon="5.26188">
        <ele>437.01056</ele>
        <time>2017-09-15T12:15:56Z</time>
      </trkpt>
      <trkpt lat="45.31578" lon="5.26171">
        <ele>437.68323</ele>
        <time>2017-09-15T12:16:01Z</time>
      </trkpt>
      <trkpt lat="45.31566" lon="5.26154">
        <ele>438.32043</ele>
        <time>2017-09-15T12:16:07Z</time>
      </trkpt>
      <trkpt lat="45.31555" lon="5.26135">
        <ele>438.77606</ele>
        <time>2017-09-15T12:16:12Z</time>
      </trkpt>
      <trkpt lat="45.31543" lon="5.26123">
        <ele>439.08716</ele>
        <time>2017-09-15T12:16:17Z</time>
      </trkpt>
      <trkpt lat="45.31523" lon="5.26109">
        <ele>439.16956</ele>
        <time>2017-09-15T12:16:23Z</time>
      </trkpt>
      <trkpt lat="45.31501" lon="5.26097">
        <ele>439.52484</ele>
        <time>2017-09-15T12:16:29Z</time>
      </trkpt>
      <trkpt lat="45.31479" lon="5.26086">
        <ele>439.94757</ele>
        <time>2017-09-15T12:16:35Z</time>
      </trkpt>
      <trkpt lat="45.31459" lon="5.26081">
        <ele>440.36777</ele>
        <time>2017-09-15T12:16:41Z</time>
      </trkpt>
      <trkpt lat="45.31439" lon="5.26077">
        <ele>440.8448</ele>
        <time>2017-09-15T12:16:47Z</time>
      </trkpt>
      <trkpt lat="45.31416" lon="5.26074">
        <ele>441.5463</ele>
        <time>2017-09-15T12:16:53Z</time>
      </trkpt>
      <trkpt lat="45.31395" lon="5.26069">
        <ele>444.73743</ele>
        <time>2017-09-15T12:16:59Z</time>
      </trkpt>
      <trkpt lat="45.31374" lon="5.26068">
        <ele>449.12164</ele>
        <time>2017-09-15T12:17:04Z</time>
      </trkpt>
      <trkpt lat="45.31351" lon="5.26067">
        <ele>453.0895</ele>
        <time>2017-09-15T12:17:10Z</time>
      </trkpt>
      <trkpt lat="45.3133" lon="5.26069">
        <ele>452.26175</ele>
        <time>2017-09-15T12:17:15Z</time>
      </trkpt>
      <trkpt lat="45.31319" lon="5.26054">
        <ele>451.31952</ele>
        <time>2017-09-15T12:17:21Z</time>
      </trkpt>
      <trkpt lat="45.31329" lon="5.26018">
        <ele>452.0013</ele>
        <time>2017-09-15T12:17:27Z</time>
      </trkpt>
      <trkpt lat="45.31339" lon="5.25989">
        <ele>452.34073</ele>
        <time>2017-09-15T12:17:32Z</time>
      </trkpt>
      <trkpt lat="45.31346" lon="5.25967">
        <ele>452.34518</ele>
        <time>2017-09-15T12:17:37Z</time>
      </trkpt>
      <trkpt lat="45.31351" lon="5.25948">
        <ele>452.5721</ele>
        <time>2017-09-15T12:17:42Z</time>
      </trkpt>
      <trkpt lat="45.31358" lon="5.25928">
        <ele>452.8514</ele>
        <time>2017-09-15T12:17:48Z</time>
      </trkpt>
      <trkpt lat="45.31365" lon="5.25909">
        <ele>453.23114</ele>
        <time>2017-09-15T12:17:54Z</time>
      </trkpt>
      <trkpt lat="45.31374" lon="5.25887">
        <ele>453.587</ele>
        <time>2017-09-15T12:18:00Z</time>
      </trkpt>
      <trkpt lat="45.31379" lon="5.2587">
        <ele>453.96597</ele>
        <time>2017-09-15T12:18:05Z</time>
      </trkpt>
      <trkpt lat="45.31387" lon="5.25847">
        <ele>454.53613</ele>
        <time>2017-09-15T12:18:11Z</time>
      </trkpt>
      <trkpt lat="45.31398" lon="5.25822">
        <ele>455.08752</ele>
        <time>2017-09-15T12:18:17Z</time>
      </trkpt>
      <trkpt lat="45.31406" lon="5.25802">
        <ele>455.63345</ele>
        <time>2017-09-15T12:18:22Z</time>
      </trkpt>
      <trkpt lat="45.3141" lon="5.25778">
        <ele>456.29233</ele>
        <time>2017-09-15T12:18:27Z</time>
      </trkpt>
      <trkpt lat="45.31406" lon="5.25747">
        <ele>458.20337</ele>
        <time>2017-09-15T12:18:33Z</time>
      </trkpt>
      <trkpt lat="45.31402" lon="5.25726">
        <ele>458.57718</ele>
        <time>2017-09-15T12:18:38Z</time>
      </trkpt>
      <trkpt lat="45.31397" lon="5.25703">
        <ele>458.8267</ele>
        <time>2017-09-15T12:18:44Z</time>
      </trkpt>
      <trkpt lat="45.31396" lon="5.25685">
        <ele>458.90662</ele>
        <time>2017-09-15T12:18:49Z</time>
      </trkpt>
      <trkpt lat="45.31397" lon="5.25665">
        <ele>459.00232</ele>
        <time>2017-09-15T12:18:55Z</time>
      </trkpt>
      <trkpt lat="45.314" lon="5.2565">
        <ele>459.13727</ele>
        <time>2017-09-15T12:19:00Z</time>
      </trkpt>
      <trkpt lat="45.314" lon="5.25627">
        <ele>459.5856</ele>
        <time>2017-09-15T12:19:06Z</time>
      </trkpt>
      <trkpt lat="45.31406" lon="5.25607">
        <ele>460.11002</ele>
        <time>2017-09-15T12:19:12Z</time>
      </trkpt>
      <trkpt lat="45.31413" lon="5.2559">
        <ele>460.81818</ele>
        <time>2017-09-15T12:19:18Z</time>
      </trkpt>
      <trkpt lat="45.31421" lon="5.25566">
        <ele>461.7128</ele>
        <time>2017-09-15T12:19:24Z</time>
      </trkpt>
      <trkpt lat="45.31432" lon="5.25545">
        <ele>462.28723</ele>
        <time>2017-09-15T12:19:30Z</time>
      </trkpt>
      <trkpt lat="45.31446" lon="5.25524">
        <ele>462.62784</ele>
        <time>2017-09-15T12:19:36Z</time>
      </trkpt>
      <trkpt lat="45.31458" lon="5.25503">
        <ele>463.12787</ele>
        <time>2017-09-15T12:19:41Z</time>
      </trkpt>
      <trkpt lat="45.31473" lon="5.25472">
        <ele>468.72733</ele>
        <time>2017-09-15T12:19:47Z</time>
      </trkpt>
      <trkpt lat="45.31487" lon="5.25446">
        <ele>470.66046</ele>
        <time>2017-09-15T12:19:52Z</time>
      </trkpt>
      <trkpt lat="45.315" lon="5.25418">
        <ele>470.7939</ele>
        <time>2017-09-15T12:19:58Z</time>
      </trkpt>
      <trkpt lat="45.31513" lon="5.25394">
        <ele>470.30374</ele>
        <time>2017-09-15T12:20:03Z</time>
      </trkpt>
      <trkpt lat="45.31527" lon="5.25369">
        <ele>470.56567</ele>
        <time>2017-09-15T12:20:09Z</time>
      </trkpt>
      <trkpt lat="45.31552" lon="5.25342">
        <ele>470.53116</ele>
        <time>2017-09-15T12:20:15Z</time>
      </trkpt>
      <trkpt lat="45.3158" lon="5.25308">
        <ele>469.72995</ele>
        <time>2017-09-15T12:20:20Z</time>
      </trkpt>
      <trkpt lat="45.31596" lon="5.25254">
        <ele>469.24622</ele>
        <time>2017-09-15T12:20:26Z</time>
      </trkpt>
      <trkpt lat="45.31614" lon="5.25211">
        <ele>469.4437</ele>
        <time>2017-09-15T12:20:32Z</time>
      </trkpt>
      <trkpt lat="45.31633" lon="5.25169">
        <ele>469.2577</ele>
        <time>2017-09-15T12:20:38Z</time>
      </trkpt>
      <trkpt lat="45.31647" lon="5.25125">
        <ele>469.56128</ele>
        <time>2017-09-15T12:20:44Z</time>
      </trkpt>
      <trkpt lat="45.31658" lon="5.25091">
        <ele>470.38748</ele>
        <time>2017-09-15T12:20:50Z</time>
      </trkpt>
      <trkpt lat="45.31675" lon="5.25062">
        <ele>470.94833</ele>
        <time>2017-09-15T12:20:56Z</time>
      </trkpt>
      <trkpt lat="45.31689" lon="5.25034">
        <ele>471.85672</ele>
        <time>2017-09-15T12:21:02Z</time>
      </trkpt>
      <trkpt lat="45.31698" lon="5.25007">
        <ele>472.50076</ele>
        <time>2017-09-15T12:21:07Z</time>
      </trkpt>
      <trkpt lat="45.31707" lon="5.24978">
        <ele>472.76984</ele>
        <time>2017-09-15T12:21:13Z</time>
      </trkpt>
      <trkpt lat="45.31715" lon="5.24945">
        <ele>474.00867</ele>
        <time>2017-09-15T12:21:19Z</time>
      </trkpt>
      <trkpt lat="45.31724" lon="5.24904">
        <ele>474.72522</ele>
        <time>2017-09-15T12:21:25Z</time>
      </trkpt>
      <trkpt lat="45.3174" lon="5.24864">
        <ele>474.5675</ele>
        <time>2017-09-15T12:21:31Z</time>
      </trkpt>
      <trkpt lat="45.31755" lon="5.24834">
        <ele>474.66168</ele>
        <time>2017-09-15T12:21:37Z</time>
      </trkpt>
      <trkpt lat="45.3177" lon="5.24811">
        <ele>474.65134</ele>
        <time>2017-09-15T12:21:43Z</time>
      </trkpt>
      <trkpt lat="45.31786" lon="5.24799">
        <ele>474.67624</ele>
        <time>2017-09-15T12:21:48Z</time>
      </trkpt>
      <trkpt lat="45.31799" lon="5.24822">
        <ele>474.665</ele>
        <time>2017-09-15T12:21:54Z</time>
      </trkpt>
      <trkpt lat="45.31804" lon="5.24844">
        <ele>474.5732</ele>
        <time>2017-09-15T12:21:59Z</time>
      </trkpt>
      <trkpt lat="45.31809" lon="5.24867">
        <ele>474.41873</ele>
        <time>2017-09-15T12:22:05Z</time>
      </trkpt>
      <trkpt lat="45.31814" lon="5.24886">
        <ele>474.35425</ele>
        <time>2017-09-15T12:22:10Z</time>
      </trkpt>
      <trkpt lat="45.3182" lon="5.24905">
        <ele>474.35474</ele>
        <time>2017-09-15T12:22:16Z</time>
      </trkpt>
      <trkpt lat="45.31828" lon="5.24921">
        <ele>474.45813</ele>
        <time>2017-09-15T12:22:22Z</time>
      </trkpt>
      <trkpt lat="45.31839" lon="5.2493">
        <ele>474.6359</ele>
        <time>2017-09-15T12:22:27Z</time>
      </trkpt>
      <trkpt lat="45.31849" lon="5.24937">
        <ele>474.9299</ele>
        <time>2017-09-15T12:22:32Z</time>
      </trkpt>
      <trkpt lat="45.3186" lon="5.24944">
        <ele>475.37708</ele>
        <time>2017-09-15T12:22:38Z</time>
      </trkpt>
      <trkpt lat="45.3187" lon="5.2495">
        <ele>475.7785</ele>
        <time>2017-09-15T12:22:43Z</time>
      </trkpt>
      <trkpt lat="45.31881" lon="5.24954">
        <ele>476.3383</ele>
        <time>2017-09-15T12:22:49Z</time>
      </trkpt>
      <trkpt lat="45.3189" lon="5.24959">
        <ele>476.79285</ele>
        <time>2017-09-15T12:22:54Z</time>
      </trkpt>
      <trkpt lat="45.319" lon="5.24967">
        <ele>477.23495</ele>
        <time>2017-09-15T12:22:59Z</time>
      </trkpt>
      <trkpt lat="45.31914" lon="5.24975">
        <ele>477.97562</ele>
        <time>2017-09-15T12:23:05Z</time>
      </trkpt>
      <trkpt lat="45.31924" lon="5.24983">
        <ele>478.72452</ele>
        <time>2017-09-15T12:23:10Z</time>
      </trkpt>
      <trkpt lat="45.31936" lon="5.24993">
        <ele>479.7398</ele>
        <time>2017-09-15T12:23:16Z</time>
      </trkpt>
      <trkpt lat="45.31946" lon="5.25002">
        <ele>481.25882</ele>
        <time>2017-09-15T12:23:22Z</time>
      </trkpt>
      <trkpt lat="45.31957" lon="5.25008">
        <ele>482.3431</ele>
        <time>2017-09-15T12:23:28Z</time>
      </trkpt>
      <trkpt lat="45.31966" lon="5.25016">
        <ele>483.45535</ele>
        <time>2017-09-15T12:23:34Z</time>
      </trkpt>
      <trkpt lat="45.31978" lon="5.25025">
        <ele>484.61237</ele>
        <time>2017-09-15T12:23:40Z</time>
      </trkpt>
      <trkpt lat="45.31987" lon="5.25029">
        <ele>485.59756</ele>
        <time>2017-09-15T12:23:45Z</time>
      </trkpt>
      <trkpt lat="45.31996" lon="5.25037">
        <ele>486.53912</ele>
        <time>2017-09-15T12:23:50Z</time>
      </trkpt>
      <trkpt lat="45.32005" lon="5.25049">
        <ele>487.64374</ele>
        <time>2017-09-15T12:23:56Z</time>
      </trkpt>
      <trkpt lat="45.32013" lon="5.25057">
        <ele>488.6181</ele>
        <time>2017-09-15T12:24:01Z</time>
      </trkpt>
      <trkpt lat="45.3202" lon="5.25066">
        <ele>489.5959</ele>
        <time>2017-09-15T12:24:06Z</time>
      </trkpt>
      <trkpt lat="45.32028" lon="5.25075">
        <ele>490.5507</ele>
        <time>2017-09-15T12:24:11Z</time>
      </trkpt>
      <trkpt lat="45.32038" lon="5.25083">
        <ele>491.76544</ele>
        <time>2017-09-15T12:24:17Z</time>
      </trkpt>
      <trkpt lat="45.32046" lon="5.25091">
        <ele>492.82263</ele>
        <time>2017-09-15T12:24:22Z</time>
      </trkpt>
      <trkpt lat="45.32055" lon="5.251">
        <ele>494.06647</ele>
        <time>2017-09-15T12:24:28Z</time>
      </trkpt>
      <trkpt lat="45.32062" lon="5.25109">
        <ele>495.09</ele>
        <time>2017-09-15T12:24:33Z</time>
      </trkpt>
      <trkpt lat="45.32071" lon="5.25118">
        <ele>496.33276</ele>
        <time>2017-09-15T12:24:39Z</time>
      </trkpt>
      <trkpt lat="45.32081" lon="5.25127">
        <ele>497.56216</ele>
        <time>2017-09-15T12:24:45Z</time>
      </trkpt>
      <trkpt lat="45.3209" lon="5.25139">
        <ele>498.81458</ele>
        <time>2017-09-15T12:24:51Z</time>
      </trkpt>
      <trkpt lat="45.32099" lon="5.25148">
        <ele>499.8711</ele>
        <time>2017-09-15T12:24:56Z</time>
      </trkpt>
      <trkpt lat="45.32107" lon="5.2516">
        <ele>501.10742</ele>
        <time>2017-09-15T12:25:02Z</time>
      </trkpt>
      <trkpt lat="45.32115" lon="5.25172">
        <ele>502.26715</ele>
        <time>2017-09-15T12:25:08Z</time>
      </trkpt>
      <trkpt lat="45.32125" lon="5.25182">
        <ele>503.3218</ele>
        <time>2017-09-15T12:25:14Z</time>
      </trkpt>
      <trkpt lat="45.32122" lon="5.25176">
        <ele>507.98526</ele>
        <time>2017-09-15T12:27:45Z</time>
      </trkpt>
      <trkpt lat="45.32108" lon="5.2516">
        <ele>508.61786</ele>
        <time>2017-09-15T12:27:51Z</time>
      </trkpt>
      <trkpt lat="45.32088" lon="5.25135">
        <ele>509.65222</ele>
        <time>2017-09-15T12:27:56Z</time>
      </trkpt>
      <trkpt lat="45.32049" lon="5.25093">
        <ele>507.76645</ele>
        <time>2017-09-15T12:28:02Z</time>
      </trkpt>
      <trkpt lat="45.31996" lon="5.25034">
        <ele>504.76358</ele>
        <time>2017-09-15T12:28:08Z</time>
      </trkpt>
      <trkpt lat="45.31938" lon="5.24991">
        <ele>500.97247</ele>
        <time>2017-09-15T12:28:14Z</time>
      </trkpt>
      <trkpt lat="45.31888" lon="5.2496">
        <ele>497.95297</ele>
        <time>2017-09-15T12:28:19Z</time>
      </trkpt>
      <trkpt lat="45.31836" lon="5.24927">
        <ele>494.95068</ele>
        <time>2017-09-15T12:28:25Z</time>
      </trkpt>
      <trkpt lat="45.31814" lon="5.24876">
        <ele>492.65604</ele>
        <time>2017-09-15T12:28:30Z</time>
      </trkpt>
      <trkpt lat="45.318" lon="5.24815">
        <ele>489.72488</ele>
        <time>2017-09-15T12:28:35Z</time>
      </trkpt>
      <trkpt lat="45.3177" lon="5.24812">
        <ele>485.40976</ele>
        <time>2017-09-15T12:28:41Z</time>
      </trkpt>
      <trkpt lat="45.31754" lon="5.24837">
        <ele>481.7249</ele>
        <time>2017-09-15T12:28:46Z</time>
      </trkpt>
      <trkpt lat="45.31748" lon="5.24839">
        <ele>480.07788</ele>
        <time>2017-09-15T12:29:37Z</time>
      </trkpt>
      <trkpt lat="45.31736" lon="5.24824">
        <ele>479.19687</ele>
        <time>2017-09-15T12:29:42Z</time>
      </trkpt>
      <trkpt lat="45.31723" lon="5.24796">
        <ele>474.9925</ele>
        <time>2017-09-15T12:29:48Z</time>
      </trkpt>
      <trkpt lat="45.31711" lon="5.24773">
        <ele>474.14682</ele>
        <time>2017-09-15T12:29:54Z</time>
      </trkpt>
      <trkpt lat="45.31698" lon="5.24751">
        <ele>473.32755</ele>
        <time>2017-09-15T12:30:00Z</time>
      </trkpt>
      <trkpt lat="45.31682" lon="5.24734">
        <ele>472.5987</ele>
        <time>2017-09-15T12:30:06Z</time>
      </trkpt>
      <trkpt lat="45.31666" lon="5.24718">
        <ele>469.41315</ele>
        <time>2017-09-15T12:30:11Z</time>
      </trkpt>
      <trkpt lat="45.31649" lon="5.247">
        <ele>467.05222</ele>
        <time>2017-09-15T12:30:16Z</time>
      </trkpt>
      <trkpt lat="45.31626" lon="5.24671">
        <ele>465.66016</ele>
        <time>2017-09-15T12:30:22Z</time>
      </trkpt>
      <trkpt lat="45.31607" lon="5.24642">
        <ele>464.55188</ele>
        <time>2017-09-15T12:30:27Z</time>
      </trkpt>
      <trkpt lat="45.31577" lon="5.24606">
        <ele>462.58505</ele>
        <time>2017-09-15T12:30:33Z</time>
      </trkpt>
      <trkpt lat="45.31546" lon="5.24573">
        <ele>461.09418</ele>
        <time>2017-09-15T12:30:38Z</time>
      </trkpt>
      <trkpt lat="45.31509" lon="5.24524">
        <ele>459.5098</ele>
        <time>2017-09-15T12:30:44Z</time>
      </trkpt>
      <trkpt lat="45.31475" lon="5.24478">
        <ele>458.17514</ele>
        <time>2017-09-15T12:30:50Z</time>
      </trkpt>
      <trkpt lat="45.31454" lon="5.24449">
        <ele>454.89456</ele>
        <time>2017-09-15T12:30:56Z</time>
      </trkpt>
      <trkpt lat="45.31443" lon="5.24389">
        <ele>450.4281</ele>
        <time>2017-09-15T12:31:02Z</time>
      </trkpt>
      <trkpt lat="45.31455" lon="5.24305">
        <ele>447.02655</ele>
        <time>2017-09-15T12:31:08Z</time>
      </trkpt>
      <trkpt lat="45.31473" lon="5.24228">
        <ele>445.69067</ele>
        <time>2017-09-15T12:31:13Z</time>
      </trkpt>
      <trkpt lat="45.31494" lon="5.24156">
        <ele>444.6985</ele>
        <time>2017-09-15T12:31:19Z</time>
      </trkpt>
      <trkpt lat="45.31507" lon="5.24095">
        <ele>443.08334</ele>
        <time>2017-09-15T12:31:25Z</time>
      </trkpt>
      <trkpt lat="45.31511" lon="5.24044">
        <ele>442.38828</ele>
        <time>2017-09-15T12:31:30Z</time>
      </trkpt>
      <trkpt lat="45.31519" lon="5.24">
        <ele>441.64566</ele>
        <time>2017-09-15T12:31:35Z</time>
      </trkpt>
      <trkpt lat="45.31536" lon="5.23946">
        <ele>440.61978</ele>
        <time>2017-09-15T12:31:41Z</time>
      </trkpt>
      <trkpt lat="45.31551" lon="5.23902">
        <ele>439.38638</ele>
        <time>2017-09-15T12:31:46Z</time>
      </trkpt>
      <trkpt lat="45.3158" lon="5.23864">
        <ele>437.14883</ele>
        <time>2017-09-15T12:31:52Z</time>
      </trkpt>
      <trkpt lat="45.31603" lon="5.23813">
        <ele>434.49982</ele>
        <time>2017-09-15T12:31:58Z</time>
      </trkpt>
      <trkpt lat="45.31607" lon="5.23756">
        <ele>433.02496</ele>
        <time>2017-09-15T12:32:03Z</time>
      </trkpt>
      <trkpt lat="45.31617" lon="5.23688">
        <ele>432.23453</ele>
        <time>2017-09-15T12:32:09Z</time>
      </trkpt>
      <trkpt lat="45.31634" lon="5.23626">
        <ele>431.01395</ele>
        <time>2017-09-15T12:32:15Z</time>
      </trkpt>
      <trkpt lat="45.3164" lon="5.23574">
        <ele>429.61627</ele>
        <time>2017-09-15T12:32:20Z</time>
      </trkpt>
      <trkpt lat="45.31644" lon="5.23509">
        <ele>427.4976</ele>
        <time>2017-09-15T12:32:26Z</time>
      </trkpt>
      <trkpt lat="45.31637" lon="5.23461">
        <ele>425.4197</ele>
        <time>2017-09-15T12:32:31Z</time>
      </trkpt>
      <trkpt lat="45.31618" lon="5.23415">
        <ele>422.9994</ele>
        <time>2017-09-15T12:32:37Z</time>
      </trkpt>
      <trkpt lat="45.31619" lon="5.23394">
        <ele>416.90244</ele>
        <time>2017-09-15T12:39:08Z</time>
      </trkpt>
      <trkpt lat="45.31618" lon="5.23379">
        <ele>416.7397</ele>
        <time>2017-09-15T12:39:13Z</time>
      </trkpt>
      <trkpt lat="45.3162" lon="5.2337">
        <ele>413.61295</ele>
        <time>2017-09-15T12:42:12Z</time>
      </trkpt>
      <trkpt lat="45.31621" lon="5.2335">
        <ele>412.73135</ele>
        <time>2017-09-15T12:42:18Z</time>
      </trkpt>
      <trkpt lat="45.31621" lon="5.23327">
        <ele>411.00394</ele>
        <time>2017-09-15T12:42:23Z</time>
      </trkpt>
      <trkpt lat="45.31622" lon="5.23291">
        <ele>407.4648</ele>
        <time>2017-09-15T12:42:29Z</time>
      </trkpt>
      <trkpt lat="45.31619" lon="5.23253">
        <ele>406.79575</ele>
        <time>2017-09-15T12:42:35Z</time>
      </trkpt>
      <trkpt lat="45.31615" lon="5.23219">
        <ele>406.87402</ele>
        <time>2017-09-15T12:42:40Z</time>
      </trkpt>
      <trkpt lat="45.31616" lon="5.23176">
        <ele>406.30118</ele>
        <time>2017-09-15T12:42:45Z</time>
      </trkpt>
      <trkpt lat="45.31616" lon="5.23117">
        <ele>405.71594</ele>
        <time>2017-09-15T12:42:51Z</time>
      </trkpt>
      <trkpt lat="45.3162" lon="5.23064">
        <ele>404.7889</ele>
        <time>2017-09-15T12:42:56Z</time>
      </trkpt>
      <trkpt lat="45.31624" lon="5.2301">
        <ele>403.39737</ele>
        <time>2017-09-15T12:43:02Z</time>
      </trkpt>
      <trkpt lat="45.31616" lon="5.22978">
        <ele>401.27426</ele>
        <time>2017-09-15T12:43:07Z</time>
      </trkpt>
      <trkpt lat="45.31597" lon="5.22935">
        <ele>399.21115</ele>
        <time>2017-09-15T12:43:13Z</time>
      </trkpt>
      <trkpt lat="45.31573" lon="5.22908">
        <ele>397.02643</ele>
        <time>2017-09-15T12:43:19Z</time>
      </trkpt>
      <trkpt lat="45.31532" lon="5.2292">
        <ele>393.74347</ele>
        <time>2017-09-15T12:43:24Z</time>
      </trkpt>
      <trkpt lat="45.31486" lon="5.22933">
        <ele>391.76578</ele>
        <time>2017-09-15T12:43:30Z</time>
      </trkpt>
      <trkpt lat="45.31459" lon="5.22923">
        <ele>391.74548</ele>
        <time>2017-09-15T12:43:35Z</time>
      </trkpt>
      <trkpt lat="45.31445" lon="5.22896">
        <ele>392.49774</ele>
        <time>2017-09-15T12:43:41Z</time>
      </trkpt>
      <trkpt lat="45.31439" lon="5.22868">
        <ele>393.54636</ele>
        <time>2017-09-15T12:43:46Z</time>
      </trkpt>
      <trkpt lat="45.3143" lon="5.22845">
        <ele>393.8201</ele>
        <time>2017-09-15T12:43:52Z</time>
      </trkpt>
      <trkpt lat="45.31422" lon="5.22829">
        <ele>394.32397</ele>
        <time>2017-09-15T12:43:58Z</time>
      </trkpt>
      <trkpt lat="45.31415" lon="5.22817">
        <ele>394.74088</ele>
        <time>2017-09-15T12:44:03Z</time>
      </trkpt>
      <trkpt lat="45.31411" lon="5.22799">
        <ele>395.18054</ele>
        <time>2017-09-15T12:44:09Z</time>
      </trkpt>
      <trkpt lat="45.31411" lon="5.22781">
        <ele>395.64044</ele>
        <time>2017-09-15T12:44:15Z</time>
      </trkpt>
      <trkpt lat="45.31411" lon="5.22766">
        <ele>396.1995</ele>
        <time>2017-09-15T12:44:21Z</time>
      </trkpt>
      <trkpt lat="45.31414" lon="5.22751">
        <ele>396.84412</ele>
        <time>2017-09-15T12:44:27Z</time>
      </trkpt>
      <trkpt lat="45.31417" lon="5.22732">
        <ele>397.5339</ele>
        <time>2017-09-15T12:44:33Z</time>
      </trkpt>
      <trkpt lat="45.3142" lon="5.22712">
        <ele>398.21985</ele>
        <time>2017-09-15T12:44:39Z</time>
      </trkpt>
      <trkpt lat="45.31423" lon="5.22695">
        <ele>398.74866</ele>
        <time>2017-09-15T12:44:44Z</time>
      </trkpt>
      <trkpt lat="45.31427" lon="5.22678">
        <ele>399.3081</ele>
        <time>2017-09-15T12:44:49Z</time>
      </trkpt>
      <trkpt lat="45.31433" lon="5.22655">
        <ele>399.98572</ele>
        <time>2017-09-15T12:44:55Z</time>
      </trkpt>
      <trkpt lat="45.31439" lon="5.22629">
        <ele>400.6313</ele>
        <time>2017-09-15T12:45:01Z</time>
      </trkpt>
      <trkpt lat="45.31448" lon="5.22605">
        <ele>402.6512</ele>
        <time>2017-09-15T12:45:06Z</time>
      </trkpt>
      <trkpt lat="45.31459" lon="5.22569">
        <ele>405.22574</ele>
        <time>2017-09-15T12:45:12Z</time>
      </trkpt>
      <trkpt lat="45.31465" lon="5.22538">
        <ele>406.2193</ele>
        <time>2017-09-15T12:45:17Z</time>
      </trkpt>
      <trkpt lat="45.31451" lon="5.22519">
        <ele>406.39383</ele>
        <time>2017-09-15T12:45:23Z</time>
      </trkpt>
      <trkpt lat="45.31424" lon="5.22512">
        <ele>405.80457</ele>
        <time>2017-09-15T12:45:29Z</time>
      </trkpt>
      <trkpt lat="45.31392" lon="5.22498">
        <ele>404.22177</ele>
        <time>2017-09-15T12:45:35Z</time>
      </trkpt>
      <trkpt lat="45.31358" lon="5.22478">
        <ele>402.29147</ele>
        <time>2017-09-15T12:45:40Z</time>
      </trkpt>
      <trkpt lat="45.31324" lon="5.22439">
        <ele>400.98236</ele>
        <time>2017-09-15T12:45:46Z</time>
      </trkpt>
      <trkpt lat="45.31296" lon="5.224">
        <ele>400.7154</ele>
        <time>2017-09-15T12:45:52Z</time>
      </trkpt>
      <trkpt lat="45.31264" lon="5.2238">
        <ele>401.11728</ele>
        <time>2017-09-15T12:45:58Z</time>
      </trkpt>
      <trkpt lat="45.31246" lon="5.22365">
        <ele>401.55084</ele>
        <time>2017-09-15T12:46:03Z</time>
      </trkpt>
      <trkpt lat="45.31238" lon="5.22334">
        <ele>400.8449</ele>
        <time>2017-09-15T12:46:09Z</time>
      </trkpt>
      <trkpt lat="45.31243" lon="5.22304">
        <ele>399.82056</ele>
        <time>2017-09-15T12:46:14Z</time>
      </trkpt>
      <trkpt lat="45.31248" lon="5.22275">
        <ele>400.16824</ele>
        <time>2017-09-15T12:46:20Z</time>
      </trkpt>
      <trkpt lat="45.31251" lon="5.22233">
        <ele>402.37097</ele>
        <time>2017-09-15T12:46:26Z</time>
      </trkpt>
      <trkpt lat="45.31251" lon="5.22199">
        <ele>403.60147</ele>
        <time>2017-09-15T12:46:31Z</time>
      </trkpt>
      <trkpt lat="45.31246" lon="5.22156">
        <ele>405.21573</ele>
        <time>2017-09-15T12:46:37Z</time>
      </trkpt>
      <trkpt lat="45.31239" lon="5.22123">
        <ele>406.90466</ele>
        <time>2017-09-15T12:46:43Z</time>
      </trkpt>
      <trkpt lat="45.31232" lon="5.2209">
        <ele>408.47778</ele>
        <time>2017-09-15T12:46:49Z</time>
      </trkpt>
      <trkpt lat="45.3122" lon="5.22055">
        <ele>409.55002</ele>
        <time>2017-09-15T12:46:55Z</time>
      </trkpt>
      <trkpt lat="45.31204" lon="5.22024">
        <ele>409.1974</ele>
        <time>2017-09-15T12:47:00Z</time>
      </trkpt>
      <trkpt lat="45.31185" lon="5.21984">
        <ele>408.32642</ele>
        <time>2017-09-15T12:47:06Z</time>
      </trkpt>
      <trkpt lat="45.31173" lon="5.21952">
        <ele>408.2685</ele>
        <time>2017-09-15T12:47:11Z</time>
      </trkpt>
      <trkpt lat="45.31159" lon="5.21906">
        <ele>407.74957</ele>
        <time>2017-09-15T12:47:17Z</time>
      </trkpt>
      <trkpt lat="45.31155" lon="5.21847">
        <ele>406.93686</ele>
        <time>2017-09-15T12:47:23Z</time>
      </trkpt>
      <trkpt lat="45.31154" lon="5.21786">
        <ele>406.31296</ele>
        <time>2017-09-15T12:47:29Z</time>
      </trkpt>
      <trkpt lat="45.31147" lon="5.21738">
        <ele>406.10077</ele>
        <time>2017-09-15T12:47:34Z</time>
      </trkpt>
      <trkpt lat="45.31134" lon="5.2169">
        <ele>406.15332</ele>
        <time>2017-09-15T12:47:40Z</time>
      </trkpt>
      <trkpt lat="45.31125" lon="5.21651">
        <ele>406.54013</ele>
        <time>2017-09-15T12:47:45Z</time>
      </trkpt>
      <trkpt lat="45.31114" lon="5.216">
        <ele>406.50513</ele>
        <time>2017-09-15T12:47:51Z</time>
      </trkpt>
      <trkpt lat="45.31101" lon="5.21545">
        <ele>406.13184</ele>
        <time>2017-09-15T12:47:57Z</time>
      </trkpt>
      <trkpt lat="45.31078" lon="5.215">
        <ele>405.6111</ele>
        <time>2017-09-15T12:48:03Z</time>
      </trkpt>
      <trkpt lat="45.31059" lon="5.2147">
        <ele>405.22473</ele>
        <time>2017-09-15T12:48:08Z</time>
      </trkpt>
      <trkpt lat="45.31051" lon="5.21452">
        <ele>403.60995</ele>
        <time>2017-09-15T12:50:08Z</time>
      </trkpt>
      <trkpt lat="45.31054" lon="5.21424">
        <ele>401.79166</ele>
        <time>2017-09-15T12:50:14Z</time>
      </trkpt>
      <trkpt lat="45.31061" lon="5.21379">
        <ele>398.142</ele>
        <time>2017-09-15T12:50:19Z</time>
      </trkpt>
      <trkpt lat="45.31079" lon="5.21308">
        <ele>393.4006</ele>
        <time>2017-09-15T12:50:25Z</time>
      </trkpt>
      <trkpt lat="45.31099" lon="5.21247">
        <ele>390.51385</ele>
        <time>2017-09-15T12:50:30Z</time>
      </trkpt>
      <trkpt lat="45.31127" lon="5.21182">
        <ele>387.03937</ele>
        <time>2017-09-15T12:50:36Z</time>
      </trkpt>
      <trkpt lat="45.31139" lon="5.2112">
        <ele>383.9494</ele>
        <time>2017-09-15T12:50:41Z</time>
      </trkpt>
      <trkpt lat="45.31132" lon="5.21062">
        <ele>381.32312</ele>
        <time>2017-09-15T12:50:46Z</time>
      </trkpt>
      <trkpt lat="45.31122" lon="5.21025">
        <ele>378.06262</ele>
        <time>2017-09-15T12:51:40Z</time>
      </trkpt>
      <trkpt lat="45.31115" lon="5.21033">
        <ele>376.81555</ele>
        <time>2017-09-15T12:51:45Z</time>
      </trkpt>
      <trkpt lat="45.31103" lon="5.21052">
        <ele>375.44144</ele>
        <time>2017-09-15T12:51:51Z</time>
      </trkpt>
      <trkpt lat="45.31088" lon="5.21076">
        <ele>371.94928</ele>
        <time>2017-09-15T12:51:57Z</time>
      </trkpt>
      <trkpt lat="45.31075" lon="5.21096">
        <ele>370.00662</ele>
        <time>2017-09-15T12:52:02Z</time>
      </trkpt>
      <trkpt lat="45.31058" lon="5.21121">
        <ele>369.54865</ele>
        <time>2017-09-15T12:52:08Z</time>
      </trkpt>
      <trkpt lat="45.31044" lon="5.21142">
        <ele>370.12585</ele>
        <time>2017-09-15T12:52:13Z</time>
      </trkpt>
      <trkpt lat="45.31026" lon="5.21169">
        <ele>371.97</ele>
        <time>2017-09-15T12:52:19Z</time>
      </trkpt>
      <trkpt lat="45.3101" lon="5.21193">
        <ele>372.8264</ele>
        <time>2017-09-15T12:52:25Z</time>
      </trkpt>
      <trkpt lat="45.30995" lon="5.21216">
        <ele>372.59247</ele>
        <time>2017-09-15T12:52:31Z</time>
      </trkpt>
      <trkpt lat="45.30981" lon="5.21233">
        <ele>372.56506</ele>
        <time>2017-09-15T12:52:36Z</time>
      </trkpt>
      <trkpt lat="45.3096" lon="5.21256">
        <ele>373.0946</ele>
        <time>2017-09-15T12:52:42Z</time>
      </trkpt>
      <trkpt lat="45.30942" lon="5.21274">
        <ele>373.3565</ele>
        <time>2017-09-15T12:52:47Z</time>
      </trkpt>
      <trkpt lat="45.30921" lon="5.21294">
        <ele>373.44998</ele>
        <time>2017-09-15T12:52:53Z</time>
      </trkpt>
      <trkpt lat="45.30901" lon="5.21313">
        <ele>373.7388</ele>
        <time>2017-09-15T12:52:59Z</time>
      </trkpt>
      <trkpt lat="45.30881" lon="5.21332">
        <ele>374.74417</ele>
        <time>2017-09-15T12:53:05Z</time>
      </trkpt>
      <trkpt lat="45.30862" lon="5.21353">
        <ele>376.33667</ele>
        <time>2017-09-15T12:53:11Z</time>
      </trkpt>
      <trkpt lat="45.30847" lon="5.2137">
        <ele>377.78036</ele>
        <time>2017-09-15T12:53:16Z</time>
      </trkpt>
      <trkpt lat="45.30829" lon="5.2139">
        <ele>378.95557</ele>
        <time>2017-09-15T12:53:22Z</time>
      </trkpt>
      <trkpt lat="45.30809" lon="5.21409">
        <ele>379.74994</ele>
        <time>2017-09-15T12:53:28Z</time>
      </trkpt>
      <trkpt lat="45.30793" lon="5.21424">
        <ele>380.376</ele>
        <time>2017-09-15T12:53:33Z</time>
      </trkpt>
      <trkpt lat="45.30773" lon="5.21443">
        <ele>381.19534</ele>
        <time>2017-09-15T12:53:39Z</time>
      </trkpt>
      <trkpt lat="45.30758" lon="5.2146">
        <ele>382.0294</ele>
        <time>2017-09-15T12:53:44Z</time>
      </trkpt>
      <trkpt lat="45.30743" lon="5.21475">
        <ele>382.23608</ele>
        <time>2017-09-15T12:53:49Z</time>
      </trkpt>
      <trkpt lat="45.30725" lon="5.21492">
        <ele>382.54715</ele>
        <time>2017-09-15T12:53:55Z</time>
      </trkpt>
      <trkpt lat="45.30706" lon="5.21507">
        <ele>382.84396</ele>
        <time>2017-09-15T12:54:01Z</time>
      </trkpt>
      <trkpt lat="45.30698" lon="5.21516">
        <ele>383.32547</ele>
        <time>2017-09-15T12:54:35Z</time>
      </trkpt>
      <trkpt lat="45.30688" lon="5.21527">
        <ele>383.55676</ele>
        <time>2017-09-15T12:54:40Z</time>
      </trkpt>
      <trkpt lat="45.30671" lon="5.21544">
        <ele>383.82437</ele>
        <time>2017-09-15T12:54:46Z</time>
      </trkpt>
      <trkpt lat="45.30654" lon="5.2156">
        <ele>384.1352</ele>
        <time>2017-09-15T12:54:52Z</time>
      </trkpt>
      <trkpt lat="45.30636" lon="5.21577">
        <ele>385.4949</ele>
        <time>2017-09-15T12:54:58Z</time>
      </trkpt>
      <trkpt lat="45.3062" lon="5.21593">
        <ele>386.17798</ele>
        <time>2017-09-15T12:55:03Z</time>
      </trkpt>
      <trkpt lat="45.30604" lon="5.21608">
        <ele>386.63675</ele>
        <time>2017-09-15T12:55:08Z</time>
      </trkpt>
      <trkpt lat="45.30586" lon="5.21626">
        <ele>386.98926</ele>
        <time>2017-09-15T12:55:14Z</time>
      </trkpt>
      <trkpt lat="45.30568" lon="5.21642">
        <ele>387.7607</ele>
        <time>2017-09-15T12:55:20Z</time>
      </trkpt>
      <trkpt lat="45.30548" lon="5.21661">
        <ele>388.27277</ele>
        <time>2017-09-15T12:55:26Z</time>
      </trkpt>
      <trkpt lat="45.30529" lon="5.21679">
        <ele>388.68118</ele>
        <time>2017-09-15T12:55:32Z</time>
      </trkpt>
      <trkpt lat="45.30512" lon="5.21697">
        <ele>389.21317</ele>
        <time>2017-09-15T12:55:38Z</time>
      </trkpt>
      <trkpt lat="45.30496" lon="5.21713">
        <ele>389.83246</ele>
        <time>2017-09-15T12:55:44Z</time>
      </trkpt>
      <trkpt lat="45.30479" lon="5.2173">
        <ele>390.4676</ele>
        <time>2017-09-15T12:55:50Z</time>
      </trkpt>
      <trkpt lat="45.30463" lon="5.21747">
        <ele>391.2654</ele>
        <time>2017-09-15T12:55:56Z</time>
      </trkpt>
      <trkpt lat="45.30446" lon="5.21764">
        <ele>392.2614</ele>
        <time>2017-09-15T12:56:02Z</time>
      </trkpt>
      <trkpt lat="45.30432" lon="5.21784">
        <ele>393.19492</ele>
        <time>2017-09-15T12:56:08Z</time>
      </trkpt>
      <trkpt lat="45.30422" lon="5.21805">
        <ele>393.93878</ele>
        <time>2017-09-15T12:56:14Z</time>
      </trkpt>
      <trkpt lat="45.30414" lon="5.21831">
        <ele>394.54428</ele>
        <time>2017-09-15T12:56:20Z</time>
      </trkpt>
      <trkpt lat="45.30411" lon="5.21859">
        <ele>395.2232</ele>
        <time>2017-09-15T12:56:26Z</time>
      </trkpt>
      <trkpt lat="45.30408" lon="5.21883">
        <ele>395.7599</ele>
        <time>2017-09-15T12:56:31Z</time>
      </trkpt>
      <trkpt lat="45.304" lon="5.21909">
        <ele>396.4063</ele>
        <time>2017-09-15T12:56:37Z</time>
      </trkpt>
      <trkpt lat="45.30382" lon="5.21922">
        <ele>397.07397</ele>
        <time>2017-09-15T12:56:43Z</time>
      </trkpt>
      <trkpt lat="45.30362" lon="5.21929">
        <ele>397.7963</ele>
        <time>2017-09-15T12:56:49Z</time>
      </trkpt>
      <trkpt lat="45.30345" lon="5.2193">
        <ele>398.31427</ele>
        <time>2017-09-15T12:56:54Z</time>
      </trkpt>
      <trkpt lat="45.30328" lon="5.21932">
        <ele>399.0322</ele>
        <time>2017-09-15T12:57:00Z</time>
      </trkpt>
      <trkpt lat="45.30311" lon="5.21937">
        <ele>399.9132</ele>
        <time>2017-09-15T12:57:06Z</time>
      </trkpt>
      <trkpt lat="45.30294" lon="5.21944">
        <ele>400.81592</ele>
        <time>2017-09-15T12:57:12Z</time>
      </trkpt>
      <trkpt lat="45.30277" lon="5.21954">
        <ele>401.70105</ele>
        <time>2017-09-15T12:57:18Z</time>
      </trkpt>
      <trkpt lat="45.30262" lon="5.21968">
        <ele>402.6027</ele>
        <time>2017-09-15T12:57:24Z</time>
      </trkpt>
      <trkpt lat="45.30248" lon="5.21985">
        <ele>403.4066</ele>
        <time>2017-09-15T12:57:30Z</time>
      </trkpt>
      <trkpt lat="45.30234" lon="5.22001">
        <ele>404.2022</ele>
        <time>2017-09-15T12:57:36Z</time>
      </trkpt>
      <trkpt lat="45.30223" lon="5.22015">
        <ele>404.90524</ele>
        <time>2017-09-15T12:57:41Z</time>
      </trkpt>
      <trkpt lat="45.30209" lon="5.22032">
        <ele>405.8119</ele>
        <time>2017-09-15T12:57:47Z</time>
      </trkpt>
      <trkpt lat="45.30195" lon="5.22042">
        <ele>406.5762</ele>
        <time>2017-09-15T12:57:52Z</time>
      </trkpt>
      <trkpt lat="45.3018" lon="5.22057">
        <ele>407.57874</ele>
        <time>2017-09-15T12:57:58Z</time>
      </trkpt>
      <trkpt lat="45.30168" lon="5.22066">
        <ele>408.40466</ele>
        <time>2017-09-15T12:58:03Z</time>
      </trkpt>
      <trkpt lat="45.30157" lon="5.22078">
        <ele>409.18958</ele>
        <time>2017-09-15T12:58:08Z</time>
      </trkpt>
      <trkpt lat="45.30143" lon="5.2209">
        <ele>410.0594</ele>
        <time>2017-09-15T12:58:14Z</time>
      </trkpt>
      <trkpt lat="45.3013" lon="5.22094">
        <ele>411.18842</ele>
        <time>2017-09-15T12:58:20Z</time>
      </trkpt>
      <trkpt lat="45.30118" lon="5.22102">
        <ele>412.3045</ele>
        <time>2017-09-15T12:58:26Z</time>
      </trkpt>
      <trkpt lat="45.30104" lon="5.22108">
        <ele>413.23358</ele>
        <time>2017-09-15T12:58:32Z</time>
      </trkpt>
      <trkpt lat="45.30094" lon="5.22116">
        <ele>413.8862</ele>
        <time>2017-09-15T12:58:37Z</time>
      </trkpt>
      <trkpt lat="45.30081" lon="5.22121">
        <ele>414.5801</ele>
        <time>2017-09-15T12:58:43Z</time>
      </trkpt>
      <trkpt lat="45.30068" lon="5.2213">
        <ele>415.18033</ele>
        <time>2017-09-15T12:58:49Z</time>
      </trkpt>
      <trkpt lat="45.3005" lon="5.2214">
        <ele>415.7768</ele>
        <time>2017-09-15T12:58:55Z</time>
      </trkpt>
      <trkpt lat="45.30035" lon="5.22147">
        <ele>416.88177</ele>
        <time>2017-09-15T12:59:01Z</time>
      </trkpt>
      <trkpt lat="45.30023" lon="5.22153">
        <ele>417.7955</ele>
        <time>2017-09-15T12:59:06Z</time>
      </trkpt>
      <trkpt lat="45.30011" lon="5.22162">
        <ele>418.65607</ele>
        <time>2017-09-15T12:59:11Z</time>
      </trkpt>
      <trkpt lat="45.29998" lon="5.22173">
        <ele>419.69568</ele>
        <time>2017-09-15T12:59:17Z</time>
      </trkpt>
      <trkpt lat="45.29985" lon="5.22188">
        <ele>420.77264</ele>
        <time>2017-09-15T12:59:23Z</time>
      </trkpt>
      <trkpt lat="45.29975" lon="5.222">
        <ele>421.56897</ele>
        <time>2017-09-15T12:59:28Z</time>
      </trkpt>
      <trkpt lat="45.2996" lon="5.22216">
        <ele>422.5951</ele>
        <time>2017-09-15T12:59:34Z</time>
      </trkpt>
      <trkpt lat="45.29946" lon="5.22232">
        <ele>423.79852</ele>
        <time>2017-09-15T12:59:40Z</time>
      </trkpt>
      <trkpt lat="45.29933" lon="5.22243">
        <ele>424.8522</ele>
        <time>2017-09-15T12:59:45Z</time>
      </trkpt>
      <trkpt lat="45.29922" lon="5.22255">
        <ele>425.96448</ele>
        <time>2017-09-15T12:59:50Z</time>
      </trkpt>
      <trkpt lat="45.29909" lon="5.2227">
        <ele>427.09048</ele>
        <time>2017-09-15T12:59:56Z</time>
      </trkpt>
      <trkpt lat="45.29895" lon="5.22283">
        <ele>428.1507</ele>
        <time>2017-09-15T13:00:02Z</time>
      </trkpt>
      <trkpt lat="45.29882" lon="5.22298">
        <ele>429.13416</ele>
        <time>2017-09-15T13:00:08Z</time>
      </trkpt>
      <trkpt lat="45.29871" lon="5.22311">
        <ele>429.84442</ele>
        <time>2017-09-15T13:00:13Z</time>
      </trkpt>
      <trkpt lat="45.29857" lon="5.22326">
        <ele>430.7083</ele>
        <time>2017-09-15T13:00:19Z</time>
      </trkpt>
      <trkpt lat="45.29846" lon="5.22338">
        <ele>431.48685</ele>
        <time>2017-09-15T13:00:24Z</time>
      </trkpt>
      <trkpt lat="45.29835" lon="5.22356">
        <ele>432.27145</ele>
        <time>2017-09-15T13:00:30Z</time>
      </trkpt>
      <trkpt lat="45.29824" lon="5.22373">
        <ele>432.89462</ele>
        <time>2017-09-15T13:00:36Z</time>
      </trkpt>
      <trkpt lat="45.29814" lon="5.22389">
        <ele>433.3008</ele>
        <time>2017-09-15T13:00:41Z</time>
      </trkpt>
      <trkpt lat="45.29802" lon="5.22408">
        <ele>433.80524</ele>
        <time>2017-09-15T13:00:47Z</time>
      </trkpt>
      <trkpt lat="45.29791" lon="5.22426">
        <ele>434.66956</ele>
        <time>2017-09-15T13:00:53Z</time>
      </trkpt>
      <trkpt lat="45.29781" lon="5.22439">
        <ele>435.58194</ele>
        <time>2017-09-15T13:00:58Z</time>
      </trkpt>
      <trkpt lat="45.29771" lon="5.22453">
        <ele>436.60562</ele>
        <time>2017-09-15T13:01:03Z</time>
      </trkpt>
      <trkpt lat="45.2976" lon="5.2247">
        <ele>437.81683</ele>
        <time>2017-09-15T13:01:09Z</time>
      </trkpt>
      <trkpt lat="45.2975" lon="5.22488">
        <ele>438.95923</ele>
        <time>2017-09-15T13:01:15Z</time>
      </trkpt>
      <trkpt lat="45.2974" lon="5.22509">
        <ele>440.01465</ele>
        <time>2017-09-15T13:01:21Z</time>
      </trkpt>
      <trkpt lat="45.29731" lon="5.22531">
        <ele>440.86365</ele>
        <time>2017-09-15T13:01:27Z</time>
      </trkpt>
      <trkpt lat="45.29723" lon="5.22554">
        <ele>441.4885</ele>
        <time>2017-09-15T13:01:33Z</time>
      </trkpt>
      <trkpt lat="45.29716" lon="5.22579">
        <ele>441.875</ele>
        <time>2017-09-15T13:01:39Z</time>
      </trkpt>
      <trkpt lat="45.29706" lon="5.22603">
        <ele>442.2496</ele>
        <time>2017-09-15T13:01:45Z</time>
      </trkpt>
      <trkpt lat="45.29693" lon="5.22627">
        <ele>442.7973</ele>
        <time>2017-09-15T13:01:51Z</time>
      </trkpt>
      <trkpt lat="45.29678" lon="5.22658">
        <ele>445.6066</ele>
        <time>2017-09-15T13:01:57Z</time>
      </trkpt>
      <trkpt lat="45.29664" lon="5.2269">
        <ele>449.77036</ele>
        <time>2017-09-15T13:02:03Z</time>
      </trkpt>
      <trkpt lat="45.29652" lon="5.22714">
        <ele>452.77335</ele>
        <time>2017-09-15T13:02:08Z</time>
      </trkpt>
      <trkpt lat="45.2964" lon="5.2274">
        <ele>454.28235</ele>
        <time>2017-09-15T13:02:13Z</time>
      </trkpt>
      <trkpt lat="45.29626" lon="5.22771">
        <ele>455.48416</ele>
        <time>2017-09-15T13:02:19Z</time>
      </trkpt>
      <trkpt lat="45.29616" lon="5.22796">
        <ele>455.8319</ele>
        <time>2017-09-15T13:02:24Z</time>
      </trkpt>
      <trkpt lat="45.29605" lon="5.22834">
        <ele>454.31424</ele>
        <time>2017-09-15T13:02:30Z</time>
      </trkpt>
      <trkpt lat="45.29596" lon="5.2288">
        <ele>452.2519</ele>
        <time>2017-09-15T13:02:36Z</time>
      </trkpt>
      <trkpt lat="45.2958" lon="5.22922">
        <ele>451.34143</ele>
        <time>2017-09-15T13:02:42Z</time>
      </trkpt>
      <trkpt lat="45.29566" lon="5.22962">
        <ele>451.48645</ele>
        <time>2017-09-15T13:02:48Z</time>
      </trkpt>
      <trkpt lat="45.29559" lon="5.23001">
        <ele>451.96783</ele>
        <time>2017-09-15T13:02:54Z</time>
      </trkpt>
      <trkpt lat="45.29556" lon="5.23031">
        <ele>451.9457</ele>
        <time>2017-09-15T13:02:59Z</time>
      </trkpt>
      <trkpt lat="45.29555" lon="5.23066">
        <ele>452.3182</ele>
        <time>2017-09-15T13:03:04Z</time>
      </trkpt>
      <trkpt lat="45.29554" lon="5.23109">
        <ele>455.15085</ele>
        <time>2017-09-15T13:03:10Z</time>
      </trkpt>
      <trkpt lat="45.29553" lon="5.23151">
        <ele>455.28125</ele>
        <time>2017-09-15T13:03:16Z</time>
      </trkpt>
      <trkpt lat="45.29553" lon="5.23191">
        <ele>453.7645</ele>
        <time>2017-09-15T13:03:22Z</time>
      </trkpt>
      <trkpt lat="45.29553" lon="5.23235">
        <ele>455.42523</ele>
        <time>2017-09-15T13:03:28Z</time>
      </trkpt>
      <trkpt lat="45.29551" lon="5.23269">
        <ele>456.89365</ele>
        <time>2017-09-15T13:03:33Z</time>
      </trkpt>
      <trkpt lat="45.29553" lon="5.23305">
        <ele>458.93564</ele>
        <time>2017-09-15T13:03:39Z</time>
      </trkpt>
      <trkpt lat="45.29557" lon="5.23342">
        <ele>460.054</ele>
        <time>2017-09-15T13:03:45Z</time>
      </trkpt>
      <trkpt lat="45.29555" lon="5.23372">
        <ele>459.79608</ele>
        <time>2017-09-15T13:03:50Z</time>
      </trkpt>
      <trkpt lat="45.29545" lon="5.23405">
        <ele>458.35065</ele>
        <time>2017-09-15T13:03:56Z</time>
      </trkpt>
      <trkpt lat="45.29535" lon="5.23442">
        <ele>456.90338</ele>
        <time>2017-09-15T13:04:02Z</time>
      </trkpt>
      <trkpt lat="45.29525" lon="5.23481">
        <ele>457.20734</ele>
        <time>2017-09-15T13:04:08Z</time>
      </trkpt>
      <trkpt lat="45.29518" lon="5.23521">
        <ele>456.21814</ele>
        <time>2017-09-15T13:04:14Z</time>
      </trkpt>
      <trkpt lat="45.29514" lon="5.23563">
        <ele>456.44785</ele>
        <time>2017-09-15T13:04:20Z</time>
      </trkpt>
      <trkpt lat="45.29507" lon="5.23605">
        <ele>457.45294</ele>
        <time>2017-09-15T13:04:26Z</time>
      </trkpt>
      <trkpt lat="45.29502" lon="5.23638">
        <ele>457.80728</ele>
        <time>2017-09-15T13:04:31Z</time>
      </trkpt>
      <trkpt lat="45.29501" lon="5.23664">
        <ele>457.94162</ele>
        <time>2017-09-15T13:04:37Z</time>
      </trkpt>
      <trkpt lat="45.29487" lon="5.23667">
        <ele>461.82825</ele>
        <time>2017-09-15T13:07:24Z</time>
      </trkpt>
      <trkpt lat="45.29472" lon="5.23666">
        <ele>462.6999</ele>
        <time>2017-09-15T13:07:30Z</time>
      </trkpt>
      <trkpt lat="45.29458" lon="5.23668">
        <ele>463.2151</ele>
        <time>2017-09-15T13:07:36Z</time>
      </trkpt>
      <trkpt lat="45.29442" lon="5.23669">
        <ele>463.38074</ele>
        <time>2017-09-15T13:07:42Z</time>
      </trkpt>
      <trkpt lat="45.29428" lon="5.23676">
        <ele>463.27637</ele>
        <time>2017-09-15T13:07:48Z</time>
      </trkpt>
      <trkpt lat="45.29431" lon="5.2366">
        <ele>463.5267</ele>
        <time>2017-09-15T13:08:33Z</time>
      </trkpt>
      <trkpt lat="45.29425" lon="5.23645">
        <ele>463.48956</ele>
        <time>2017-09-15T13:08:38Z</time>
      </trkpt>
      <trkpt lat="45.29419" lon="5.23624">
        <ele>463.14835</ele>
        <time>2017-09-15T13:08:43Z</time>
      </trkpt>
      <trkpt lat="45.29412" lon="5.236">
        <ele>462.64282</ele>
        <time>2017-09-15T13:08:49Z</time>
      </trkpt>
      <trkpt lat="45.29405" lon="5.23582">
        <ele>462.2708</ele>
        <time>2017-09-15T13:08:55Z</time>
      </trkpt>
      <trkpt lat="45.29402" lon="5.23578">
        <ele>461.5698</ele>
        <time>2017-09-15T13:09:28Z</time>
      </trkpt>
      <trkpt lat="45.29396" lon="5.23569">
        <ele>461.25836</ele>
        <time>2017-09-15T13:09:33Z</time>
      </trkpt>
      <trkpt lat="45.29391" lon="5.23556">
        <ele>461.11575</ele>
        <time>2017-09-15T13:09:38Z</time>
      </trkpt>
      <trkpt lat="45.2938" lon="5.2354">
        <ele>461.09528</ele>
        <time>2017-09-15T13:09:44Z</time>
      </trkpt>
      <trkpt lat="45.29373" lon="5.23527">
        <ele>461.16156</ele>
        <time>2017-09-15T13:09:49Z</time>
      </trkpt>
      <trkpt lat="45.29359" lon="5.23516">
        <ele>461.14587</ele>
        <time>2017-09-15T13:09:55Z</time>
      </trkpt>
      <trkpt lat="45.29341" lon="5.23514">
        <ele>461.38263</ele>
        <time>2017-09-15T13:10:01Z</time>
      </trkpt>
      <trkpt lat="45.29321" lon="5.23511">
        <ele>462.1689</ele>
        <time>2017-09-15T13:10:07Z</time>
      </trkpt>
      <trkpt lat="45.29303" lon="5.2351">
        <ele>463.17996</ele>
        <time>2017-09-15T13:10:13Z</time>
      </trkpt>
      <trkpt lat="45.29289" lon="5.23512">
        <ele>464.37506</ele>
        <time>2017-09-15T13:10:19Z</time>
      </trkpt>
      <trkpt lat="45.29274" lon="5.23515">
        <ele>465.2904</ele>
        <time>2017-09-15T13:10:24Z</time>
      </trkpt>
      <trkpt lat="45.29255" lon="5.2352">
        <ele>466.35968</ele>
        <time>2017-09-15T13:10:30Z</time>
      </trkpt>
      <trkpt lat="45.29234" lon="5.23533">
        <ele>467.02747</ele>
        <time>2017-09-15T13:10:36Z</time>
      </trkpt>
      <trkpt lat="45.29218" lon="5.23544">
        <ele>467.38297</ele>
        <time>2017-09-15T13:10:42Z</time>
      </trkpt>
      <trkpt lat="45.29201" lon="5.23553">
        <ele>467.71964</ele>
        <time>2017-09-15T13:10:48Z</time>
      </trkpt>
      <trkpt lat="45.29185" lon="5.23559">
        <ele>468.46756</ele>
        <time>2017-09-15T13:10:54Z</time>
      </trkpt>
      <trkpt lat="45.29167" lon="5.23568">
        <ele>470.31418</ele>
        <time>2017-09-15T13:11:00Z</time>
      </trkpt>
      <trkpt lat="45.29153" lon="5.23578">
        <ele>472.33823</ele>
        <time>2017-09-15T13:11:06Z</time>
      </trkpt>
      <trkpt lat="45.29137" lon="5.23588">
        <ele>473.8789</ele>
        <time>2017-09-15T13:11:12Z</time>
      </trkpt>
      <trkpt lat="45.29124" lon="5.23595">
        <ele>475.33264</ele>
        <time>2017-09-15T13:11:18Z</time>
      </trkpt>
      <trkpt lat="45.29112" lon="5.23602">
        <ele>476.83133</ele>
        <time>2017-09-15T13:11:24Z</time>
      </trkpt>
      <trkpt lat="45.29101" lon="5.23609">
        <ele>478.16107</ele>
        <time>2017-09-15T13:11:29Z</time>
      </trkpt>
      <trkpt lat="45.29086" lon="5.23615">
        <ele>479.75238</ele>
        <time>2017-09-15T13:11:35Z</time>
      </trkpt>
      <trkpt lat="45.29071" lon="5.23623">
        <ele>480.9263</ele>
        <time>2017-09-15T13:11:41Z</time>
      </trkpt>
      <trkpt lat="45.29059" lon="5.23628">
        <ele>481.74234</ele>
        <time>2017-09-15T13:11:46Z</time>
      </trkpt>
      <trkpt lat="45.29044" lon="5.23632">
        <ele>482.44238</ele>
        <time>2017-09-15T13:11:52Z</time>
      </trkpt>
      <trkpt lat="45.29033" lon="5.23637">
        <ele>482.8724</ele>
        <time>2017-09-15T13:11:57Z</time>
      </trkpt>
      <trkpt lat="45.29021" lon="5.23643">
        <ele>483.16132</ele>
        <time>2017-09-15T13:12:02Z</time>
      </trkpt>
      <trkpt lat="45.29011" lon="5.23651">
        <ele>483.57306</ele>
        <time>2017-09-15T13:12:08Z</time>
      </trkpt>
      <trkpt lat="45.28998" lon="5.23653">
        <ele>484.08838</ele>
        <time>2017-09-15T13:12:13Z</time>
      </trkpt>
      <trkpt lat="45.28987" lon="5.2366">
        <ele>484.76813</ele>
        <time>2017-09-15T13:12:18Z</time>
      </trkpt>
      <trkpt lat="45.28974" lon="5.23666">
        <ele>485.63086</ele>
        <time>2017-09-15T13:12:24Z</time>
      </trkpt>
      <trkpt lat="45.28959" lon="5.23674">
        <ele>486.4304</ele>
        <time>2017-09-15T13:12:30Z</time>
      </trkpt>
      <trkpt lat="45.28947" lon="5.23679">
        <ele>487.2781</ele>
        <time>2017-09-15T13:12:35Z</time>
      </trkpt>
      <trkpt lat="45.28937" lon="5.23685">
        <ele>488.25977</ele>
        <time>2017-09-15T13:12:40Z</time>
      </trkpt>
      <trkpt lat="45.28924" lon="5.23689">
        <ele>489.4053</ele>
        <time>2017-09-15T13:12:46Z</time>
      </trkpt>
      <trkpt lat="45.28914" lon="5.23694">
        <ele>490.45786</ele>
        <time>2017-09-15T13:12:51Z</time>
      </trkpt>
      <trkpt lat="45.28903" lon="5.23699">
        <ele>491.79343</ele>
        <time>2017-09-15T13:12:57Z</time>
      </trkpt>
      <trkpt lat="45.28894" lon="5.23705">
        <ele>492.8039</ele>
        <time>2017-09-15T13:13:02Z</time>
      </trkpt>
      <trkpt lat="45.28883" lon="5.23712">
        <ele>493.54013</ele>
        <time>2017-09-15T13:13:07Z</time>
      </trkpt>
      <trkpt lat="45.2887" lon="5.23718">
        <ele>494.33875</ele>
        <time>2017-09-15T13:13:13Z</time>
      </trkpt>
      <trkpt lat="45.28859" lon="5.23725">
        <ele>494.9724</ele>
        <time>2017-09-15T13:13:18Z</time>
      </trkpt>
      <trkpt lat="45.28845" lon="5.23732">
        <ele>495.4913</ele>
        <time>2017-09-15T13:13:24Z</time>
      </trkpt>
      <trkpt lat="45.28834" lon="5.23738">
        <ele>495.8814</ele>
        <time>2017-09-15T13:13:29Z</time>
      </trkpt>
      <trkpt lat="45.28822" lon="5.23746">
        <ele>496.4844</ele>
        <time>2017-09-15T13:13:35Z</time>
      </trkpt>
      <trkpt lat="45.28812" lon="5.23753">
        <ele>496.7093</ele>
        <time>2017-09-15T13:13:40Z</time>
      </trkpt>
      <trkpt lat="45.288" lon="5.23762">
        <ele>496.8576</ele>
        <time>2017-09-15T13:13:46Z</time>
      </trkpt>
      <trkpt lat="45.28789" lon="5.23771">
        <ele>496.99008</ele>
        <time>2017-09-15T13:13:52Z</time>
      </trkpt>
      <trkpt lat="45.2878" lon="5.2378">
        <ele>497.1654</ele>
        <time>2017-09-15T13:13:57Z</time>
      </trkpt>
      <trkpt lat="45.28769" lon="5.23791">
        <ele>497.58203</ele>
        <time>2017-09-15T13:14:03Z</time>
      </trkpt>
      <trkpt lat="45.28758" lon="5.23801">
        <ele>498.18878</ele>
        <time>2017-09-15T13:14:08Z</time>
      </trkpt>
      <trkpt lat="45.28747" lon="5.23817">
        <ele>498.89087</ele>
        <time>2017-09-15T13:14:14Z</time>
      </trkpt>
      <trkpt lat="45.28738" lon="5.23827">
        <ele>499.38916</ele>
        <time>2017-09-15T13:14:19Z</time>
      </trkpt>
      <trkpt lat="45.28727" lon="5.23841">
        <ele>499.97653</ele>
        <time>2017-09-15T13:14:25Z</time>
      </trkpt>
      <trkpt lat="45.28719" lon="5.2385">
        <ele>500.64172</ele>
        <time>2017-09-15T13:14:30Z</time>
      </trkpt>
      <trkpt lat="45.28708" lon="5.23864">
        <ele>501.41495</ele>
        <time>2017-09-15T13:14:36Z</time>
      </trkpt>
      <trkpt lat="45.287" lon="5.23875">
        <ele>501.96268</ele>
        <time>2017-09-15T13:14:41Z</time>
      </trkpt>
      <trkpt lat="45.2869" lon="5.23888">
        <ele>502.7311</ele>
        <time>2017-09-15T13:14:47Z</time>
      </trkpt>
      <trkpt lat="45.2868" lon="5.23899">
        <ele>503.2746</ele>
        <time>2017-09-15T13:14:52Z</time>
      </trkpt>
      <trkpt lat="45.28668" lon="5.2391">
        <ele>503.9323</ele>
        <time>2017-09-15T13:14:58Z</time>
      </trkpt>
      <trkpt lat="45.28656" lon="5.2392">
        <ele>504.68198</ele>
        <time>2017-09-15T13:15:04Z</time>
      </trkpt>
      <trkpt lat="45.28646" lon="5.23932">
        <ele>505.6037</ele>
        <time>2017-09-15T13:15:10Z</time>
      </trkpt>
      <trkpt lat="45.28647" lon="5.23947">
        <ele>506.51154</ele>
        <time>2017-09-15T13:15:15Z</time>
      </trkpt>
      <trkpt lat="45.28656" lon="5.23952">
        <ele>507.33456</ele>
        <time>2017-09-15T13:15:20Z</time>
      </trkpt>
      <trkpt lat="45.28669" lon="5.23943">
        <ele>508.25494</ele>
        <time>2017-09-15T13:15:26Z</time>
      </trkpt>
      <trkpt lat="45.28682" lon="5.23933">
        <ele>508.98563</ele>
        <time>2017-09-15T13:15:31Z</time>
      </trkpt>
      <trkpt lat="45.28697" lon="5.23925">
        <ele>509.6265</ele>
        <time>2017-09-15T13:15:37Z</time>
      </trkpt>
      <trkpt lat="45.28711" lon="5.23919">
        <ele>510.33704</ele>
        <time>2017-09-15T13:15:43Z</time>
      </trkpt>
      <trkpt lat="45.28722" lon="5.23917">
        <ele>511.03314</ele>
        <time>2017-09-15T13:15:48Z</time>
      </trkpt>
      <trkpt lat="45.28738" lon="5.2391">
        <ele>511.86768</ele>
        <time>2017-09-15T13:15:54Z</time>
      </trkpt>
      <trkpt lat="45.28753" lon="5.23906">
        <ele>512.7271</ele>
        <time>2017-09-15T13:16:00Z</time>
      </trkpt>
      <trkpt lat="45.28766" lon="5.23901">
        <ele>513.338</ele>
        <time>2017-09-15T13:16:05Z</time>
      </trkpt>
      <trkpt lat="45.28778" lon="5.23898">
        <ele>513.9502</ele>
        <time>2017-09-15T13:16:10Z</time>
      </trkpt>
      <trkpt lat="45.28791" lon="5.23894">
        <ele>514.7639</ele>
        <time>2017-09-15T13:16:15Z</time>
      </trkpt>
      <trkpt lat="45.28802" lon="5.2389">
        <ele>515.6049</ele>
        <time>2017-09-15T13:16:20Z</time>
      </trkpt>
      <trkpt lat="45.28813" lon="5.23887">
        <ele>517.14105</ele>
        <time>2017-09-15T13:16:26Z</time>
      </trkpt>
      <trkpt lat="45.28823" lon="5.23884">
        <ele>519.02136</ele>
        <time>2017-09-15T13:16:31Z</time>
      </trkpt>
      <trkpt lat="45.28834" lon="5.23877">
        <ele>521.4134</ele>
        <time>2017-09-15T13:16:37Z</time>
      </trkpt>
      <trkpt lat="45.28846" lon="5.23871">
        <ele>523.2769</ele>
        <time>2017-09-15T13:16:42Z</time>
      </trkpt>
      <trkpt lat="45.28859" lon="5.23861">
        <ele>525.0333</ele>
        <time>2017-09-15T13:16:48Z</time>
      </trkpt>
      <trkpt lat="45.28871" lon="5.23848">
        <ele>526.23846</ele>
        <time>2017-09-15T13:16:53Z</time>
      </trkpt>
      <trkpt lat="45.28882" lon="5.23833">
        <ele>527.0844</ele>
        <time>2017-09-15T13:16:59Z</time>
      </trkpt>
      <trkpt lat="45.28892" lon="5.2382">
        <ele>527.5515</ele>
        <time>2017-09-15T13:17:05Z</time>
      </trkpt>
      <trkpt lat="45.28903" lon="5.23811">
        <ele>527.8314</ele>
        <time>2017-09-15T13:17:10Z</time>
      </trkpt>
      <trkpt lat="45.28916" lon="5.23803">
        <ele>528.2263</ele>
        <time>2017-09-15T13:17:16Z</time>
      </trkpt>
      <trkpt lat="45.28928" lon="5.23801">
        <ele>528.8592</ele>
        <time>2017-09-15T13:17:22Z</time>
      </trkpt>
      <trkpt lat="45.28939" lon="5.23808">
        <ele>529.5538</ele>
        <time>2017-09-15T13:17:27Z</time>
      </trkpt>
      <trkpt lat="45.28947" lon="5.23822">
        <ele>530.40436</ele>
        <time>2017-09-15T13:17:33Z</time>
      </trkpt>
      <trkpt lat="45.28954" lon="5.23838">
        <ele>530.92834</ele>
        <time>2017-09-15T13:17:39Z</time>
      </trkpt>
      <trkpt lat="45.28958" lon="5.23851">
        <ele>531.30316</ele>
        <time>2017-09-15T13:17:44Z</time>
      </trkpt>
      <trkpt lat="45.2896" lon="5.23866">
        <ele>531.63074</ele>
        <time>2017-09-15T13:17:49Z</time>
      </trkpt>
      <trkpt lat="45.28968" lon="5.23883">
        <ele>532.06256</ele>
        <time>2017-09-15T13:17:55Z</time>
      </trkpt>
      <trkpt lat="45.28974" lon="5.23903">
        <ele>532.10925</ele>
        <time>2017-09-15T13:18:00Z</time>
      </trkpt>
      <trkpt lat="45.28975" lon="5.23927">
        <ele>533.0914</ele>
        <time>2017-09-15T13:18:06Z</time>
      </trkpt>
      <trkpt lat="45.28974" lon="5.2395">
        <ele>534.44464</ele>
        <time>2017-09-15T13:18:12Z</time>
      </trkpt>
      <trkpt lat="45.28979" lon="5.23966">
        <ele>535.4894</ele>
        <time>2017-09-15T13:18:17Z</time>
      </trkpt>
      <trkpt lat="45.28994" lon="5.23974">
        <ele>536.7649</ele>
        <time>2017-09-15T13:18:23Z</time>
      </trkpt>
      <trkpt lat="45.29006" lon="5.23969">
        <ele>537.70746</ele>
        <time>2017-09-15T13:18:28Z</time>
      </trkpt>
      <trkpt lat="45.29018" lon="5.23961">
        <ele>538.72156</ele>
        <time>2017-09-15T13:18:34Z</time>
      </trkpt>
      <trkpt lat="45.29032" lon="5.23952">
        <ele>539.363</ele>
        <time>2017-09-15T13:18:39Z</time>
      </trkpt>
      <trkpt lat="45.29046" lon="5.23944">
        <ele>539.81226</ele>
        <time>2017-09-15T13:18:44Z</time>
      </trkpt>
      <trkpt lat="45.29061" lon="5.23936">
        <ele>540.6109</ele>
        <time>2017-09-15T13:18:50Z</time>
      </trkpt>
      <trkpt lat="45.29076" lon="5.23931">
        <ele>541.51105</ele>
        <time>2017-09-15T13:18:56Z</time>
      </trkpt>
      <trkpt lat="45.29086" lon="5.23938">
        <ele>542.2512</ele>
        <time>2017-09-15T13:19:01Z</time>
      </trkpt>
      <trkpt lat="45.29083" lon="5.23957">
        <ele>543.14966</ele>
        <time>2017-09-15T13:19:07Z</time>
      </trkpt>
      <trkpt lat="45.29071" lon="5.23973">
        <ele>543.9209</ele>
        <time>2017-09-15T13:19:13Z</time>
      </trkpt>
      <trkpt lat="45.29059" lon="5.23989">
        <ele>544.5335</ele>
        <time>2017-09-15T13:19:19Z</time>
      </trkpt>
      <trkpt lat="45.29049" lon="5.24004">
        <ele>545.15015</ele>
        <time>2017-09-15T13:19:25Z</time>
      </trkpt>
      <trkpt lat="45.2904" lon="5.24023">
        <ele>545.7761</ele>
        <time>2017-09-15T13:19:31Z</time>
      </trkpt>
      <trkpt lat="45.29033" lon="5.24036">
        <ele>546.545</ele>
        <time>2017-09-15T13:19:36Z</time>
      </trkpt>
      <trkpt lat="45.29027" lon="5.24057">
        <ele>547.42456</ele>
        <time>2017-09-15T13:19:42Z</time>
      </trkpt>
      <trkpt lat="45.29018" lon="5.24069">
        <ele>548.1717</ele>
        <time>2017-09-15T13:19:47Z</time>
      </trkpt>
      <trkpt lat="45.29005" lon="5.24081">
        <ele>549.03827</ele>
        <time>2017-09-15T13:19:53Z</time>
      </trkpt>
      <trkpt lat="45.28994" lon="5.24087">
        <ele>549.96155</ele>
        <time>2017-09-15T13:19:58Z</time>
      </trkpt>
      <trkpt lat="45.28979" lon="5.24092">
        <ele>551.23663</ele>
        <time>2017-09-15T13:20:04Z</time>
      </trkpt>
      <trkpt lat="45.28963" lon="5.24099">
        <ele>552.1487</ele>
        <time>2017-09-15T13:20:10Z</time>
      </trkpt>
      <trkpt lat="45.28952" lon="5.24108">
        <ele>552.6507</ele>
        <time>2017-09-15T13:20:15Z</time>
      </trkpt>
      <trkpt lat="45.28943" lon="5.2412">
        <ele>553.04785</ele>
        <time>2017-09-15T13:20:20Z</time>
      </trkpt>
      <trkpt lat="45.28931" lon="5.24131">
        <ele>553.624</ele>
        <time>2017-09-15T13:20:26Z</time>
      </trkpt>
      <trkpt lat="45.2892" lon="5.24143">
        <ele>554.29565</ele>
        <time>2017-09-15T13:20:32Z</time>
      </trkpt>
      <trkpt lat="45.28909" lon="5.24154">
        <ele>554.98627</ele>
        <time>2017-09-15T13:20:38Z</time>
      </trkpt>
      <trkpt lat="45.28899" lon="5.24168">
        <ele>555.6638</ele>
        <time>2017-09-15T13:20:44Z</time>
      </trkpt>
      <trkpt lat="45.28888" lon="5.24181">
        <ele>556.35657</ele>
        <time>2017-09-15T13:20:50Z</time>
      </trkpt>
      <trkpt lat="45.28878" lon="5.24192">
        <ele>556.9431</ele>
        <time>2017-09-15T13:20:55Z</time>
      </trkpt>
      <trkpt lat="45.2887" lon="5.24203">
        <ele>557.6061</ele>
        <time>2017-09-15T13:21:00Z</time>
      </trkpt>
      <trkpt lat="45.28858" lon="5.24218">
        <ele>558.3591</ele>
        <time>2017-09-15T13:21:06Z</time>
      </trkpt>
      <trkpt lat="45.28849" lon="5.24231">
        <ele>558.9008</ele>
        <time>2017-09-15T13:21:11Z</time>
      </trkpt>
      <trkpt lat="45.2884" lon="5.24243">
        <ele>559.4122</ele>
        <time>2017-09-15T13:21:16Z</time>
      </trkpt>
      <trkpt lat="45.28829" lon="5.24255">
        <ele>560.0562</ele>
        <time>2017-09-15T13:21:22Z</time>
      </trkpt>
      <trkpt lat="45.28816" lon="5.24269">
        <ele>560.7894</ele>
        <time>2017-09-15T13:21:28Z</time>
      </trkpt>
      <trkpt lat="45.28805" lon="5.24279">
        <ele>561.5151</ele>
        <time>2017-09-15T13:21:33Z</time>
      </trkpt>
      <trkpt lat="45.28796" lon="5.24291">
        <ele>562.2539</ele>
        <time>2017-09-15T13:21:38Z</time>
      </trkpt>
      <trkpt lat="45.28785" lon="5.24305">
        <ele>563.2464</ele>
        <time>2017-09-15T13:21:44Z</time>
      </trkpt>
      <trkpt lat="45.28773" lon="5.24321">
        <ele>564.2676</ele>
        <time>2017-09-15T13:21:50Z</time>
      </trkpt>
      <trkpt lat="45.28763" lon="5.24334">
        <ele>565.3061</ele>
        <time>2017-09-15T13:21:56Z</time>
      </trkpt>
      <trkpt lat="45.28754" lon="5.24345">
        <ele>566.23474</ele>
        <time>2017-09-15T13:22:01Z</time>
      </trkpt>
      <trkpt lat="45.28746" lon="5.24355">
        <ele>567.1173</ele>
        <time>2017-09-15T13:22:06Z</time>
      </trkpt>
      <trkpt lat="45.28736" lon="5.24368">
        <ele>568.0659</ele>
        <time>2017-09-15T13:22:12Z</time>
      </trkpt>
      <trkpt lat="45.28726" lon="5.24383">
        <ele>568.92194</ele>
        <time>2017-09-15T13:22:18Z</time>
      </trkpt>
      <trkpt lat="45.28716" lon="5.24394">
        <ele>569.7634</ele>
        <time>2017-09-15T13:22:23Z</time>
      </trkpt>
      <trkpt lat="45.28705" lon="5.24409">
        <ele>570.8236</ele>
        <time>2017-09-15T13:22:29Z</time>
      </trkpt>
      <trkpt lat="45.28692" lon="5.24424">
        <ele>571.89404</ele>
        <time>2017-09-15T13:22:35Z</time>
      </trkpt>
      <trkpt lat="45.28679" lon="5.24439">
        <ele>572.9489</ele>
        <time>2017-09-15T13:22:41Z</time>
      </trkpt>
      <trkpt lat="45.28666" lon="5.24452">
        <ele>573.9185</ele>
        <time>2017-09-15T13:22:47Z</time>
      </trkpt>
      <trkpt lat="45.28655" lon="5.24462">
        <ele>574.75055</ele>
        <time>2017-09-15T13:22:52Z</time>
      </trkpt>
      <trkpt lat="45.28645" lon="5.24472">
        <ele>575.52216</ele>
        <time>2017-09-15T13:22:57Z</time>
      </trkpt>
      <trkpt lat="45.28632" lon="5.24481">
        <ele>576.3057</ele>
        <time>2017-09-15T13:23:02Z</time>
      </trkpt>
      <trkpt lat="45.28619" lon="5.24491">
        <ele>577.24097</ele>
        <time>2017-09-15T13:23:08Z</time>
      </trkpt>
      <trkpt lat="45.28608" lon="5.24499">
        <ele>578.1958</ele>
        <time>2017-09-15T13:23:13Z</time>
      </trkpt>
      <trkpt lat="45.28594" lon="5.24512">
        <ele>579.71765</ele>
        <time>2017-09-15T13:23:19Z</time>
      </trkpt>
      <trkpt lat="45.2858" lon="5.24524">
        <ele>581.2393</ele>
        <time>2017-09-15T13:23:24Z</time>
      </trkpt>
      <trkpt lat="45.28566" lon="5.24536">
        <ele>582.8617</ele>
        <time>2017-09-15T13:23:30Z</time>
      </trkpt>
      <trkpt lat="45.28557" lon="5.24544">
        <ele>584.4699</ele>
        <time>2017-09-15T13:23:36Z</time>
      </trkpt>
      <trkpt lat="45.28547" lon="5.24561">
        <ele>585.7572</ele>
        <time>2017-09-15T13:23:41Z</time>
      </trkpt>
      <trkpt lat="45.28535" lon="5.24574">
        <ele>587.01355</ele>
        <time>2017-09-15T13:23:47Z</time>
      </trkpt>
      <trkpt lat="45.28521" lon="5.2459">
        <ele>588.14526</ele>
        <time>2017-09-15T13:23:53Z</time>
      </trkpt>
      <trkpt lat="45.28512" lon="5.24599">
        <ele>589.3627</ele>
        <time>2017-09-15T13:23:59Z</time>
      </trkpt>
      <trkpt lat="45.285" lon="5.24609">
        <ele>590.8745</ele>
        <time>2017-09-15T13:24:05Z</time>
      </trkpt>
      <trkpt lat="45.28488" lon="5.24619">
        <ele>592.36334</ele>
        <time>2017-09-15T13:24:10Z</time>
      </trkpt>
      <trkpt lat="45.28472" lon="5.24628">
        <ele>594.0272</ele>
        <time>2017-09-15T13:24:16Z</time>
      </trkpt>
      <trkpt lat="45.28457" lon="5.24633">
        <ele>595.65643</ele>
        <time>2017-09-15T13:24:22Z</time>
      </trkpt>
      <trkpt lat="45.2844" lon="5.24633">
        <ele>596.8765</ele>
        <time>2017-09-15T13:24:28Z</time>
      </trkpt>
      <trkpt lat="45.28427" lon="5.2463">
        <ele>597.5224</ele>
        <time>2017-09-15T13:24:33Z</time>
      </trkpt>
      <trkpt lat="45.28412" lon="5.24627">
        <ele>597.936</ele>
        <time>2017-09-15T13:24:38Z</time>
      </trkpt>
      <trkpt lat="45.28396" lon="5.24631">
        <ele>597.9916</ele>
        <time>2017-09-15T13:24:44Z</time>
      </trkpt>
      <trkpt lat="45.2838" lon="5.24641">
        <ele>598.37036</ele>
        <time>2017-09-15T13:24:50Z</time>
      </trkpt>
      <trkpt lat="45.28369" lon="5.24654">
        <ele>598.80206</ele>
        <time>2017-09-15T13:24:55Z</time>
      </trkpt>
      <trkpt lat="45.28358" lon="5.24674">
        <ele>599.10095</ele>
        <time>2017-09-15T13:25:01Z</time>
      </trkpt>
      <trkpt lat="45.28347" lon="5.24697">
        <ele>599.21484</ele>
        <time>2017-09-15T13:25:07Z</time>
      </trkpt>
      <trkpt lat="45.28339" lon="5.24721">
        <ele>599.4601</ele>
        <time>2017-09-15T13:25:12Z</time>
      </trkpt>
      <trkpt lat="45.2833" lon="5.24752">
        <ele>602.834</ele>
        <time>2017-09-15T13:25:18Z</time>
      </trkpt>
      <trkpt lat="45.28325" lon="5.2478">
        <ele>604.0389</ele>
        <time>2017-09-15T13:25:23Z</time>
      </trkpt>
      <trkpt lat="45.28316" lon="5.24812">
        <ele>602.10187</ele>
        <time>2017-09-15T13:25:29Z</time>
      </trkpt>
      <trkpt lat="45.28301" lon="5.24845">
        <ele>600.68695</ele>
        <time>2017-09-15T13:25:35Z</time>
      </trkpt>
      <trkpt lat="45.28287" lon="5.24872">
        <ele>600.6862</ele>
        <time>2017-09-15T13:25:40Z</time>
      </trkpt>
      <trkpt lat="45.28279" lon="5.24884">
        <ele>604.0447</ele>
        <time>2017-09-15T13:28:11Z</time>
      </trkpt>
      <trkpt lat="45.28262" lon="5.24899">
        <ele>603.8104</ele>
        <time>2017-09-15T13:28:17Z</time>
      </trkpt>
      <trkpt lat="45.28246" lon="5.24913">
        <ele>603.95593</ele>
        <time>2017-09-15T13:28:22Z</time>
      </trkpt>
      <trkpt lat="45.28229" lon="5.24926">
        <ele>604.79913</ele>
        <time>2017-09-15T13:28:27Z</time>
      </trkpt>
      <trkpt lat="45.28206" lon="5.24941">
        <ele>605.71936</ele>
        <time>2017-09-15T13:28:33Z</time>
      </trkpt>
      <trkpt lat="45.28184" lon="5.24955">
        <ele>606.6798</ele>
        <time>2017-09-15T13:28:39Z</time>
      </trkpt>
      <trkpt lat="45.28163" lon="5.24971">
        <ele>607.7807</ele>
        <time>2017-09-15T13:28:45Z</time>
      </trkpt>
      <trkpt lat="45.28139" lon="5.24985">
        <ele>608.8151</ele>
        <time>2017-09-15T13:28:51Z</time>
      </trkpt>
      <trkpt lat="45.28117" lon="5.25">
        <ele>609.9273</ele>
        <time>2017-09-15T13:28:57Z</time>
      </trkpt>
      <trkpt lat="45.28099" lon="5.25011">
        <ele>610.91425</ele>
        <time>2017-09-15T13:29:02Z</time>
      </trkpt>
      <trkpt lat="45.28079" lon="5.25026">
        <ele>611.451</ele>
        <time>2017-09-15T13:29:08Z</time>
      </trkpt>
      <trkpt lat="45.2806" lon="5.2504">
        <ele>611.585</ele>
        <time>2017-09-15T13:29:14Z</time>
      </trkpt>
      <trkpt lat="45.28042" lon="5.25051">
        <ele>611.5732</ele>
        <time>2017-09-15T13:29:19Z</time>
      </trkpt>
      <trkpt lat="45.28014" lon="5.2506">
        <ele>612.09894</ele>
        <time>2017-09-15T13:29:25Z</time>
      </trkpt>
      <trkpt lat="45.27986" lon="5.25065">
        <ele>612.3758</ele>
        <time>2017-09-15T13:29:30Z</time>
      </trkpt>
      <trkpt lat="45.27954" lon="5.25071">
        <ele>611.8099</ele>
        <time>2017-09-15T13:29:35Z</time>
      </trkpt>
      <trkpt lat="45.27912" lon="5.25078">
        <ele>610.99866</ele>
        <time>2017-09-15T13:29:41Z</time>
      </trkpt>
      <trkpt lat="45.27877" lon="5.25084">
        <ele>610.34186</ele>
        <time>2017-09-15T13:29:46Z</time>
      </trkpt>
      <trkpt lat="45.27847" lon="5.2509">
        <ele>609.8463</ele>
        <time>2017-09-15T13:29:51Z</time>
      </trkpt>
      <trkpt lat="45.27821" lon="5.25094">
        <ele>609.7002</ele>
        <time>2017-09-15T13:29:56Z</time>
      </trkpt>
      <trkpt lat="45.27794" lon="5.25098">
        <ele>610.05884</ele>
        <time>2017-09-15T13:30:02Z</time>
      </trkpt>
      <trkpt lat="45.27762" lon="5.25099">
        <ele>610.38385</ele>
        <time>2017-09-15T13:30:08Z</time>
      </trkpt>
      <trkpt lat="45.27729" lon="5.25094">
        <ele>610.15814</ele>
        <time>2017-09-15T13:30:13Z</time>
      </trkpt>
      <trkpt lat="45.27687" lon="5.25085">
        <ele>609.2225</ele>
        <time>2017-09-15T13:30:19Z</time>
      </trkpt>
      <trkpt lat="45.2765" lon="5.25076">
        <ele>608.6503</ele>
        <time>2017-09-15T13:30:24Z</time>
      </trkpt>
      <trkpt lat="45.27606" lon="5.25066">
        <ele>608.1531</ele>
        <time>2017-09-15T13:30:30Z</time>
      </trkpt>
      <trkpt lat="45.27568" lon="5.25057">
        <ele>607.70984</ele>
        <time>2017-09-15T13:30:36Z</time>
      </trkpt>
      <trkpt lat="45.27533" lon="5.2505">
        <ele>607.399</ele>
        <time>2017-09-15T13:30:42Z</time>
      </trkpt>
      <trkpt lat="45.275" lon="5.25042">
        <ele>607.39966</ele>
        <time>2017-09-15T13:30:48Z</time>
      </trkpt>
      <trkpt lat="45.27467" lon="5.25034">
        <ele>607.25995</ele>
        <time>2017-09-15T13:30:54Z</time>
      </trkpt>
      <trkpt lat="45.27436" lon="5.25028">
        <ele>606.9168</ele>
        <time>2017-09-15T13:30:59Z</time>
      </trkpt>
      <trkpt lat="45.27392" lon="5.25019">
        <ele>606.1819</ele>
        <time>2017-09-15T13:31:05Z</time>
      </trkpt>
      <trkpt lat="45.2735" lon="5.25009">
        <ele>605.3931</ele>
        <time>2017-09-15T13:31:10Z</time>
      </trkpt>
      <trkpt lat="45.27293" lon="5.24996">
        <ele>603.9936</ele>
        <time>2017-09-15T13:31:16Z</time>
      </trkpt>
      <trkpt lat="45.27234" lon="5.24982">
        <ele>602.92285</ele>
        <time>2017-09-15T13:31:22Z</time>
      </trkpt>
      <trkpt lat="45.27174" lon="5.24984">
        <ele>601.82526</ele>
        <time>2017-09-15T13:31:28Z</time>
      </trkpt>
      <trkpt lat="45.27116" lon="5.24995">
        <ele>600.3962</ele>
        <time>2017-09-15T13:31:34Z</time>
      </trkpt>
      <trkpt lat="45.27059" lon="5.24986">
        <ele>598.4242</ele>
        <time>2017-09-15T13:31:40Z</time>
      </trkpt>
      <trkpt lat="45.27003" lon="5.24965">
        <ele>596.4597</ele>
        <time>2017-09-15T13:31:46Z</time>
      </trkpt>
      <trkpt lat="45.26967" lon="5.24919">
        <ele>594.8235</ele>
        <time>2017-09-15T13:31:51Z</time>
      </trkpt>
      <trkpt lat="45.26926" lon="5.24863">
        <ele>592.90717</ele>
        <time>2017-09-15T13:31:57Z</time>
      </trkpt>
      <trkpt lat="45.26881" lon="5.24817">
        <ele>590.8808</ele>
        <time>2017-09-15T13:32:03Z</time>
      </trkpt>
      <trkpt lat="45.2683" lon="5.24786">
        <ele>589.16266</ele>
        <time>2017-09-15T13:32:09Z</time>
      </trkpt>
      <trkpt lat="45.26788" lon="5.2476">
        <ele>587.7064</ele>
        <time>2017-09-15T13:32:14Z</time>
      </trkpt>
      <trkpt lat="45.26746" lon="5.247">
        <ele>585.4965</ele>
        <time>2017-09-15T13:32:20Z</time>
      </trkpt>
      <trkpt lat="45.26734" lon="5.2462">
        <ele>583.14386</ele>
        <time>2017-09-15T13:32:26Z</time>
      </trkpt>
      <trkpt lat="45.26745" lon="5.24559">
        <ele>580.0936</ele>
        <time>2017-09-15T13:32:32Z</time>
      </trkpt>
      <trkpt lat="45.26735" lon="5.24542">
        <ele>578.6769</ele>
        <time>2017-09-15T13:32:53Z</time>
      </trkpt>
      <trkpt lat="45.26714" lon="5.24534">
        <ele>573.6936</ele>
        <time>2017-09-15T13:32:59Z</time>
      </trkpt>
      <trkpt lat="45.26685" lon="5.24552">
        <ele>566.9293</ele>
        <time>2017-09-15T13:33:05Z</time>
      </trkpt>
      <trkpt lat="45.26647" lon="5.24576">
        <ele>560.62915</ele>
        <time>2017-09-15T13:33:11Z</time>
      </trkpt>
      <trkpt lat="45.26591" lon="5.24573">
        <ele>556.17017</ele>
        <time>2017-09-15T13:33:17Z</time>
      </trkpt>
      <trkpt lat="45.26564" lon="5.24507">
        <ele>555.53436</ele>
        <time>2017-09-15T13:33:23Z</time>
      </trkpt>
      <trkpt lat="45.26582" lon="5.24442">
        <ele>554.66895</ele>
        <time>2017-09-15T13:33:29Z</time>
      </trkpt>
      <trkpt lat="45.26539" lon="5.24413">
        <ele>553.339</ele>
        <time>2017-09-15T13:33:35Z</time>
      </trkpt>
      <trkpt lat="45.265" lon="5.24388">
        <ele>551.99927</ele>
        <time>2017-09-15T13:33:40Z</time>
      </trkpt>
      <trkpt lat="45.26503" lon="5.24322">
        <ele>550.78674</ele>
        <time>2017-09-15T13:33:46Z</time>
      </trkpt>
      <trkpt lat="45.26495" lon="5.243">
        <ele>549.3148</ele>
        <time>2017-09-15T13:33:51Z</time>
      </trkpt>
      <trkpt lat="45.2648" lon="5.24329">
        <ele>546.0455</ele>
        <time>2017-09-15T13:33:56Z</time>
      </trkpt>
      <trkpt lat="45.26479" lon="5.24384">
        <ele>542.5279</ele>
        <time>2017-09-15T13:34:02Z</time>
      </trkpt>
      <trkpt lat="45.26493" lon="5.24425">
        <ele>540.511</ele>
        <time>2017-09-15T13:34:08Z</time>
      </trkpt>
      <trkpt lat="45.26495" lon="5.24434">
        <ele>539.51764</ele>
        <time>2017-09-15T13:35:09Z</time>
      </trkpt>
      <trkpt lat="45.26508" lon="5.24467">
        <ele>535.65497</ele>
        <time>2017-09-15T13:35:15Z</time>
      </trkpt>
      <trkpt lat="45.26511" lon="5.24512">
        <ele>531.9311</ele>
        <time>2017-09-15T13:35:20Z</time>
      </trkpt>
      <trkpt lat="45.26525" lon="5.24573">
        <ele>527.1195</ele>
        <time>2017-09-15T13:35:26Z</time>
      </trkpt>
      <trkpt lat="45.26533" lon="5.24642">
        <ele>523.5035</ele>
        <time>2017-09-15T13:35:32Z</time>
      </trkpt>
      <trkpt lat="45.26535" lon="5.24717">
        <ele>520.7994</ele>
        <time>2017-09-15T13:35:38Z</time>
      </trkpt>
      <trkpt lat="45.26534" lon="5.24796">
        <ele>519.4811</ele>
        <time>2017-09-15T13:35:44Z</time>
      </trkpt>
      <trkpt lat="45.26534" lon="5.24862">
        <ele>518.12054</ele>
        <time>2017-09-15T13:35:49Z</time>
      </trkpt>
      <trkpt lat="45.26533" lon="5.24941">
        <ele>516.3845</ele>
        <time>2017-09-15T13:35:55Z</time>
      </trkpt>
      <trkpt lat="45.26503" lon="5.25001">
        <ele>515.13763</ele>
        <time>2017-09-15T13:36:01Z</time>
      </trkpt>
      <trkpt lat="45.26463" lon="5.25007">
        <ele>514.1497</ele>
        <time>2017-09-15T13:36:07Z</time>
      </trkpt>
      <trkpt lat="45.26428" lon="5.24992">
        <ele>512.9861</ele>
        <time>2017-09-15T13:36:13Z</time>
      </trkpt>
      <trkpt lat="45.26392" lon="5.24975">
        <ele>512.43085</ele>
        <time>2017-09-15T13:36:19Z</time>
      </trkpt>
      <trkpt lat="45.26367" lon="5.24951">
        <ele>511.18222</ele>
        <time>2017-09-15T13:36:24Z</time>
      </trkpt>
      <trkpt lat="45.26346" lon="5.24917">
        <ele>509.5293</ele>
        <time>2017-09-15T13:36:30Z</time>
      </trkpt>
      <trkpt lat="45.26333" lon="5.24893">
        <ele>509.4556</ele>
        <time>2017-09-15T13:36:36Z</time>
      </trkpt>
      <trkpt lat="45.26317" lon="5.24871">
        <ele>509.44324</ele>
        <time>2017-09-15T13:36:42Z</time>
      </trkpt>
      <trkpt lat="45.26304" lon="5.24861">
        <ele>509.50012</ele>
        <time>2017-09-15T13:36:48Z</time>
      </trkpt>
      <trkpt lat="45.26289" lon="5.24857">
        <ele>509.8627</ele>
        <time>2017-09-15T13:36:54Z</time>
      </trkpt>
      <trkpt lat="45.26275" lon="5.24849">
        <ele>510.5301</ele>
        <time>2017-09-15T13:37:00Z</time>
      </trkpt>
      <trkpt lat="45.26264" lon="5.2484">
        <ele>511.1773</ele>
        <time>2017-09-15T13:37:05Z</time>
      </trkpt>
      <trkpt lat="45.26251" lon="5.24828">
        <ele>511.9153</ele>
        <time>2017-09-15T13:37:11Z</time>
      </trkpt>
      <trkpt lat="45.26242" lon="5.24818">
        <ele>512.46326</ele>
        <time>2017-09-15T13:37:16Z</time>
      </trkpt>
      <trkpt lat="45.26232" lon="5.24806">
        <ele>513.0863</ele>
        <time>2017-09-15T13:37:22Z</time>
      </trkpt>
      <trkpt lat="45.26222" lon="5.24795">
        <ele>513.46027</ele>
        <time>2017-09-15T13:37:27Z</time>
      </trkpt>
      <trkpt lat="45.26208" lon="5.2478">
        <ele>513.927</ele>
        <time>2017-09-15T13:37:33Z</time>
      </trkpt>
      <trkpt lat="45.26197" lon="5.24766">
        <ele>514.54083</ele>
        <time>2017-09-15T13:37:39Z</time>
      </trkpt>
      <trkpt lat="45.26184" lon="5.24754">
        <ele>515.3484</ele>
        <time>2017-09-15T13:37:45Z</time>
      </trkpt>
      <trkpt lat="45.26171" lon="5.24741">
        <ele>516.24194</ele>
        <time>2017-09-15T13:37:51Z</time>
      </trkpt>
      <trkpt lat="45.26157" lon="5.2473">
        <ele>517.0962</ele>
        <time>2017-09-15T13:37:57Z</time>
      </trkpt>
      <trkpt lat="45.26142" lon="5.24719">
        <ele>517.91223</ele>
        <time>2017-09-15T13:38:03Z</time>
      </trkpt>
      <trkpt lat="45.2613" lon="5.24709">
        <ele>518.6568</ele>
        <time>2017-09-15T13:38:08Z</time>
      </trkpt>
      <trkpt lat="45.26115" lon="5.24698">
        <ele>519.54584</ele>
        <time>2017-09-15T13:38:14Z</time>
      </trkpt>
      <trkpt lat="45.26102" lon="5.24683">
        <ele>520.3752</ele>
        <time>2017-09-15T13:38:20Z</time>
      </trkpt>
      <trkpt lat="45.26089" lon="5.24662">
        <ele>521.07666</ele>
        <time>2017-09-15T13:38:26Z</time>
      </trkpt>
      <trkpt lat="45.26078" lon="5.24634">
        <ele>522.6677</ele>
        <time>2017-09-15T13:38:32Z</time>
      </trkpt>
      <trkpt lat="45.2607" lon="5.2462">
        <ele>525.84064</ele>
        <time>2017-09-15T13:40:33Z</time>
      </trkpt>
      <trkpt lat="45.26057" lon="5.24611">
        <ele>526.94</ele>
        <time>2017-09-15T13:40:38Z</time>
      </trkpt>
      <trkpt lat="45.26041" lon="5.24596">
        <ele>532.2289</ele>
        <time>2017-09-15T13:40:43Z</time>
      </trkpt>
      <trkpt lat="45.26018" lon="5.24565">
        <ele>533.1728</ele>
        <time>2017-09-15T13:40:49Z</time>
      </trkpt>
      <trkpt lat="45.25993" lon="5.24529">
        <ele>530.8315</ele>
        <time>2017-09-15T13:40:55Z</time>
      </trkpt>
      <trkpt lat="45.25966" lon="5.24491">
        <ele>528.54816</ele>
        <time>2017-09-15T13:41:01Z</time>
      </trkpt>
      <trkpt lat="45.25938" lon="5.24452">
        <ele>526.0514</ele>
        <time>2017-09-15T13:41:07Z</time>
      </trkpt>
      <trkpt lat="45.25914" lon="5.24423">
        <ele>524.9134</ele>
        <time>2017-09-15T13:41:13Z</time>
      </trkpt>
      <trkpt lat="45.25893" lon="5.24397">
        <ele>521.0629</ele>
        <time>2017-09-15T13:41:19Z</time>
      </trkpt>
      <trkpt lat="45.25865" lon="5.24379">
        <ele>519.778</ele>
        <time>2017-09-15T13:41:24Z</time>
      </trkpt>
      <trkpt lat="45.25829" lon="5.24363">
        <ele>518.97815</ele>
        <time>2017-09-15T13:41:30Z</time>
      </trkpt>
      <trkpt lat="45.25786" lon="5.2437">
        <ele>517.24664</ele>
        <time>2017-09-15T13:41:36Z</time>
      </trkpt>
      <trkpt lat="45.25751" lon="5.24392">
        <ele>516.8174</ele>
        <time>2017-09-15T13:41:41Z</time>
      </trkpt>
      <trkpt lat="45.25719" lon="5.24415">
        <ele>516.9317</ele>
        <time>2017-09-15T13:41:46Z</time>
      </trkpt>
      <trkpt lat="45.25691" lon="5.24441">
        <ele>516.5474</ele>
        <time>2017-09-15T13:41:52Z</time>
      </trkpt>
      <trkpt lat="45.25669" lon="5.24465">
        <ele>516.0185</ele>
        <time>2017-09-15T13:41:58Z</time>
      </trkpt>
      <trkpt lat="45.25647" lon="5.24492">
        <ele>515.09924</ele>
        <time>2017-09-15T13:42:04Z</time>
      </trkpt>
      <trkpt lat="45.25619" lon="5.24522">
        <ele>514.09784</ele>
        <time>2017-09-15T13:42:10Z</time>
      </trkpt>
      <trkpt lat="45.25593" lon="5.24546">
        <ele>514.2813</ele>
        <time>2017-09-15T13:42:15Z</time>
      </trkpt>
      <trkpt lat="45.2557" lon="5.24568">
        <ele>514.9983</ele>
        <time>2017-09-15T13:42:20Z</time>
      </trkpt>
      <trkpt lat="45.25549" lon="5.24584">
        <ele>516.65857</ele>
        <time>2017-09-15T13:42:25Z</time>
      </trkpt>
      <trkpt lat="45.25521" lon="5.246">
        <ele>517.46893</ele>
        <time>2017-09-15T13:42:30Z</time>
      </trkpt>
      <trkpt lat="45.25486" lon="5.24621">
        <ele>516.9136</ele>
        <time>2017-09-15T13:42:36Z</time>
      </trkpt>
      <trkpt lat="45.25461" lon="5.24637">
        <ele>515.8811</ele>
        <time>2017-09-15T13:42:41Z</time>
      </trkpt>
      <trkpt lat="45.2543" lon="5.24659">
        <ele>515.1177</ele>
        <time>2017-09-15T13:42:47Z</time>
      </trkpt>
      <trkpt lat="45.25396" lon="5.24676">
        <ele>514.8454</ele>
        <time>2017-09-15T13:42:53Z</time>
      </trkpt>
      <trkpt lat="45.2537" lon="5.24691">
        <ele>514.4912</ele>
        <time>2017-09-15T13:42:58Z</time>
      </trkpt>
      <trkpt lat="45.25338" lon="5.24711">
        <ele>513.7108</ele>
        <time>2017-09-15T13:43:04Z</time>
      </trkpt>
      <trkpt lat="45.25305" lon="5.24729">
        <ele>513.32117</ele>
        <time>2017-09-15T13:43:10Z</time>
      </trkpt>
      <trkpt lat="45.25272" lon="5.24737">
        <ele>512.487</ele>
        <time>2017-09-15T13:43:16Z</time>
      </trkpt>
      <trkpt lat="45.25238" lon="5.24736">
        <ele>512.6644</ele>
        <time>2017-09-15T13:43:22Z</time>
      </trkpt>
      <trkpt lat="45.25207" lon="5.24741">
        <ele>512.8023</ele>
        <time>2017-09-15T13:43:28Z</time>
      </trkpt>
      <trkpt lat="45.25175" lon="5.24755">
        <ele>512.91156</ele>
        <time>2017-09-15T13:43:34Z</time>
      </trkpt>
      <trkpt lat="45.25144" lon="5.24773">
        <ele>513.3371</ele>
        <time>2017-09-15T13:43:40Z</time>
      </trkpt>
      <trkpt lat="45.25114" lon="5.24792">
        <ele>514.0261</ele>
        <time>2017-09-15T13:43:46Z</time>
      </trkpt>
      <trkpt lat="45.25102" lon="5.248">
        <ele>514.7223</ele>
        <time>2017-09-15T13:44:46Z</time>
      </trkpt>
      <trkpt lat="45.25087" lon="5.2481">
        <ele>514.85876</ele>
        <time>2017-09-15T13:44:52Z</time>
      </trkpt>
      <trkpt lat="45.25067" lon="5.24823">
        <ele>514.69543</ele>
        <time>2017-09-15T13:44:58Z</time>
      </trkpt>
      <trkpt lat="45.2504" lon="5.24842">
        <ele>514.38354</ele>
        <time>2017-09-15T13:45:04Z</time>
      </trkpt>
      <trkpt lat="45.25009" lon="5.24862">
        <ele>514.3751</ele>
        <time>2017-09-15T13:45:10Z</time>
      </trkpt>
      <trkpt lat="45.24983" lon="5.24879">
        <ele>513.55194</ele>
        <time>2017-09-15T13:45:15Z</time>
      </trkpt>
      <trkpt lat="45.24949" lon="5.24895">
        <ele>513.72644</ele>
        <time>2017-09-15T13:45:21Z</time>
      </trkpt>
      <trkpt lat="45.24915" lon="5.24906">
        <ele>513.5827</ele>
        <time>2017-09-15T13:45:27Z</time>
      </trkpt>
      <trkpt lat="45.24881" lon="5.24915">
        <ele>513.8533</ele>
        <time>2017-09-15T13:45:33Z</time>
      </trkpt>
      <trkpt lat="45.24846" lon="5.24926">
        <ele>512.8841</ele>
        <time>2017-09-15T13:45:39Z</time>
      </trkpt>
      <trkpt lat="45.2481" lon="5.24935">
        <ele>511.12277</ele>
        <time>2017-09-15T13:45:45Z</time>
      </trkpt>
      <trkpt lat="45.24782" lon="5.24933">
        <ele>510.52817</ele>
        <time>2017-09-15T13:45:50Z</time>
      </trkpt>
      <trkpt lat="45.24747" lon="5.24921">
        <ele>509.90024</ele>
        <time>2017-09-15T13:45:56Z</time>
      </trkpt>
      <trkpt lat="45.24711" lon="5.24907">
        <ele>509.16562</ele>
        <time>2017-09-15T13:46:02Z</time>
      </trkpt>
      <trkpt lat="45.24681" lon="5.24889">
        <ele>510.49646</ele>
        <time>2017-09-15T13:46:08Z</time>
      </trkpt>
      <trkpt lat="45.24653" lon="5.24873">
        <ele>512.7393</ele>
        <time>2017-09-15T13:46:14Z</time>
      </trkpt>
      <trkpt lat="45.24628" lon="5.24859">
        <ele>513.8689</ele>
        <time>2017-09-15T13:46:19Z</time>
      </trkpt>
      <trkpt lat="45.24594" lon="5.24849">
        <ele>513.7373</ele>
        <time>2017-09-15T13:46:24Z</time>
      </trkpt>
      <trkpt lat="45.2456" lon="5.24855">
        <ele>513.1447</ele>
        <time>2017-09-15T13:46:30Z</time>
      </trkpt>
      <trkpt lat="45.24532" lon="5.24874">
        <ele>513.6739</ele>
        <time>2017-09-15T13:46:36Z</time>
      </trkpt>
      <trkpt lat="45.24503" lon="5.24892">
        <ele>515.5363</ele>
        <time>2017-09-15T13:46:42Z</time>
      </trkpt>
      <trkpt lat="45.24478" lon="5.24909">
        <ele>516.95496</ele>
        <time>2017-09-15T13:46:48Z</time>
      </trkpt>
      <trkpt lat="45.24456" lon="5.24923">
        <ele>517.6069</ele>
        <time>2017-09-15T13:46:54Z</time>
      </trkpt>
      <trkpt lat="45.24432" lon="5.24935">
        <ele>518.0623</ele>
        <time>2017-09-15T13:47:00Z</time>
      </trkpt>
      <trkpt lat="45.24405" lon="5.24947">
        <ele>518.1916</ele>
        <time>2017-09-15T13:47:06Z</time>
      </trkpt>
      <trkpt lat="45.24382" lon="5.24954">
        <ele>518.18256</ele>
        <time>2017-09-15T13:47:12Z</time>
      </trkpt>
      <trkpt lat="45.24357" lon="5.24965">
        <ele>518.3914</ele>
        <time>2017-09-15T13:47:18Z</time>
      </trkpt>
      <trkpt lat="45.24339" lon="5.2497">
        <ele>518.56696</ele>
        <time>2017-09-15T13:47:24Z</time>
      </trkpt>
      <trkpt lat="45.24316" lon="5.24974">
        <ele>519.0165</ele>
        <time>2017-09-15T13:47:30Z</time>
      </trkpt>
      <trkpt lat="45.24291" lon="5.24981">
        <ele>520.0447</ele>
        <time>2017-09-15T13:47:36Z</time>
      </trkpt>
      <trkpt lat="45.24264" lon="5.24988">
        <ele>521.3251</ele>
        <time>2017-09-15T13:47:42Z</time>
      </trkpt>
      <trkpt lat="45.24234" lon="5.24996">
        <ele>524.957</ele>
        <time>2017-09-15T13:47:48Z</time>
      </trkpt>
      <trkpt lat="45.24207" lon="5.24998">
        <ele>528.3864</ele>
        <time>2017-09-15T13:47:54Z</time>
      </trkpt>
      <trkpt lat="45.24185" lon="5.2499">
        <ele>528.6452</ele>
        <time>2017-09-15T13:47:59Z</time>
      </trkpt>
      <trkpt lat="45.24158" lon="5.24977">
        <ele>528.5142</ele>
        <time>2017-09-15T13:48:05Z</time>
      </trkpt>
      <trkpt lat="45.24138" lon="5.24963">
        <ele>528.9108</ele>
        <time>2017-09-15T13:48:10Z</time>
      </trkpt>
      <trkpt lat="45.24115" lon="5.24942">
        <ele>529.78534</ele>
        <time>2017-09-15T13:48:16Z</time>
      </trkpt>
      <trkpt lat="45.24097" lon="5.24924">
        <ele>530.3593</ele>
        <time>2017-09-15T13:48:21Z</time>
      </trkpt>
      <trkpt lat="45.24079" lon="5.24907">
        <ele>531.3228</ele>
        <time>2017-09-15T13:48:26Z</time>
      </trkpt>
      <trkpt lat="45.24058" lon="5.24886">
        <ele>532.55023</ele>
        <time>2017-09-15T13:48:32Z</time>
      </trkpt>
      <trkpt lat="45.24036" lon="5.24865">
        <ele>533.7163</ele>
        <time>2017-09-15T13:48:38Z</time>
      </trkpt>
      <trkpt lat="45.24017" lon="5.24846">
        <ele>533.88727</ele>
        <time>2017-09-15T13:48:43Z</time>
      </trkpt>
      <trkpt lat="45.24" lon="5.24828">
        <ele>534.0234</ele>
        <time>2017-09-15T13:48:48Z</time>
      </trkpt>
      <trkpt lat="45.23979" lon="5.24805">
        <ele>534.5887</ele>
        <time>2017-09-15T13:48:54Z</time>
      </trkpt>
      <trkpt lat="45.23957" lon="5.24782">
        <ele>535.171</ele>
        <time>2017-09-15T13:49:00Z</time>
      </trkpt>
      <trkpt lat="45.23938" lon="5.24764">
        <ele>535.5385</ele>
        <time>2017-09-15T13:49:05Z</time>
      </trkpt>
      <trkpt lat="45.23919" lon="5.24745">
        <ele>536.046</ele>
        <time>2017-09-15T13:49:10Z</time>
      </trkpt>
      <trkpt lat="45.23899" lon="5.2473">
        <ele>536.486</ele>
        <time>2017-09-15T13:49:15Z</time>
      </trkpt>
      <trkpt lat="45.23872" lon="5.24718">
        <ele>537.6983</ele>
        <time>2017-09-15T13:49:21Z</time>
      </trkpt>
      <trkpt lat="45.23845" lon="5.24706">
        <ele>538.5746</ele>
        <time>2017-09-15T13:49:27Z</time>
      </trkpt>
      <trkpt lat="45.23822" lon="5.24697">
        <ele>539.03</ele>
        <time>2017-09-15T13:49:32Z</time>
      </trkpt>
      <trkpt lat="45.23794" lon="5.24683">
        <ele>539.38385</ele>
        <time>2017-09-15T13:49:38Z</time>
      </trkpt>
      <trkpt lat="45.23772" lon="5.24667">
        <ele>539.3796</ele>
        <time>2017-09-15T13:49:43Z</time>
      </trkpt>
      <trkpt lat="45.23753" lon="5.24648">
        <ele>539.52124</ele>
        <time>2017-09-15T13:49:48Z</time>
      </trkpt>
      <trkpt lat="45.23737" lon="5.24629">
        <ele>539.5871</ele>
        <time>2017-09-15T13:49:53Z</time>
      </trkpt>
      <trkpt lat="45.23717" lon="5.24604">
        <ele>539.1556</ele>
        <time>2017-09-15T13:49:59Z</time>
      </trkpt>
      <trkpt lat="45.23699" lon="5.24582">
        <ele>539.09924</ele>
        <time>2017-09-15T13:50:04Z</time>
      </trkpt>
      <trkpt lat="45.23681" lon="5.2456">
        <ele>538.9227</ele>
        <time>2017-09-15T13:50:09Z</time>
      </trkpt>
      <trkpt lat="45.23661" lon="5.24536">
        <ele>539.08295</ele>
        <time>2017-09-15T13:50:15Z</time>
      </trkpt>
      <trkpt lat="45.23641" lon="5.24512">
        <ele>539.75824</ele>
        <time>2017-09-15T13:50:21Z</time>
      </trkpt>
      <trkpt lat="45.23621" lon="5.24489">
        <ele>540.1625</ele>
        <time>2017-09-15T13:50:27Z</time>
      </trkpt>
      <trkpt lat="45.23601" lon="5.24462">
        <ele>540.8437</ele>
        <time>2017-09-15T13:50:33Z</time>
      </trkpt>
      <trkpt lat="45.2358" lon="5.24435">
        <ele>541.46234</ele>
        <time>2017-09-15T13:50:39Z</time>
      </trkpt>
      <trkpt lat="45.23556" lon="5.24413">
        <ele>542.6277</ele>
        <time>2017-09-15T13:50:45Z</time>
      </trkpt>
      <trkpt lat="45.23529" lon="5.244">
        <ele>543.57214</ele>
        <time>2017-09-15T13:50:51Z</time>
      </trkpt>
      <trkpt lat="45.23508" lon="5.24393">
        <ele>543.96356</ele>
        <time>2017-09-15T13:50:56Z</time>
      </trkpt>
      <trkpt lat="45.23482" lon="5.24383">
        <ele>544.1558</ele>
        <time>2017-09-15T13:51:02Z</time>
      </trkpt>
      <trkpt lat="45.23462" lon="5.24372">
        <ele>544.22876</ele>
        <time>2017-09-15T13:51:07Z</time>
      </trkpt>
      <trkpt lat="45.23432" lon="5.24352">
        <ele>545.2854</ele>
        <time>2017-09-15T13:51:13Z</time>
      </trkpt>
      <trkpt lat="45.23409" lon="5.2433">
        <ele>547.26416</ele>
        <time>2017-09-15T13:51:19Z</time>
      </trkpt>
      <trkpt lat="45.23387" lon="5.24307">
        <ele>547.61566</ele>
        <time>2017-09-15T13:51:25Z</time>
      </trkpt>
      <trkpt lat="45.23364" lon="5.24281">
        <ele>547.22217</ele>
        <time>2017-09-15T13:51:31Z</time>
      </trkpt>
      <trkpt lat="45.23338" lon="5.24258">
        <ele>552.1935</ele>
        <time>2017-09-15T13:51:37Z</time>
      </trkpt>
      <trkpt lat="45.23315" lon="5.24234">
        <ele>556.4285</ele>
        <time>2017-09-15T13:51:43Z</time>
      </trkpt>
      <trkpt lat="45.23292" lon="5.24216">
        <ele>556.5589</ele>
        <time>2017-09-15T13:51:48Z</time>
      </trkpt>
      <trkpt lat="45.23269" lon="5.24193">
        <ele>555.85333</ele>
        <time>2017-09-15T13:51:54Z</time>
      </trkpt>
      <trkpt lat="45.23248" lon="5.24168">
        <ele>555.04816</ele>
        <time>2017-09-15T13:52:00Z</time>
      </trkpt>
      <trkpt lat="45.23225" lon="5.24139">
        <ele>550.6647</ele>
        <time>2017-09-15T13:52:06Z</time>
      </trkpt>
      <trkpt lat="45.23203" lon="5.24116">
        <ele>549.9179</ele>
        <time>2017-09-15T13:52:12Z</time>
      </trkpt>
      <trkpt lat="45.23183" lon="5.24094">
        <ele>551.8359</ele>
        <time>2017-09-15T13:52:18Z</time>
      </trkpt>
      <trkpt lat="45.23162" lon="5.24073">
        <ele>553.54443</ele>
        <time>2017-09-15T13:52:24Z</time>
      </trkpt>
      <trkpt lat="45.23142" lon="5.24049">
        <ele>554.8035</ele>
        <time>2017-09-15T13:52:30Z</time>
      </trkpt>
      <trkpt lat="45.23121" lon="5.24032">
        <ele>555.7013</ele>
        <time>2017-09-15T13:52:36Z</time>
      </trkpt>
      <trkpt lat="45.23101" lon="5.2402">
        <ele>556.92615</ele>
        <time>2017-09-15T13:52:41Z</time>
      </trkpt>
      <trkpt lat="45.23079" lon="5.23999">
        <ele>557.5257</ele>
        <time>2017-09-15T13:52:47Z</time>
      </trkpt>
      <trkpt lat="45.23057" lon="5.2398">
        <ele>558.6854</ele>
        <time>2017-09-15T13:52:53Z</time>
      </trkpt>
      <trkpt lat="45.23035" lon="5.23965">
        <ele>559.9302</ele>
        <time>2017-09-15T13:52:59Z</time>
      </trkpt>
      <trkpt lat="45.2301" lon="5.23952">
        <ele>559.3568</ele>
        <time>2017-09-15T13:53:05Z</time>
      </trkpt>
      <trkpt lat="45.22987" lon="5.23944">
        <ele>558.02795</ele>
        <time>2017-09-15T13:53:11Z</time>
      </trkpt>
      <trkpt lat="45.22982" lon="5.23937">
        <ele>558.1015</ele>
        <time>2017-09-15T13:53:59Z</time>
      </trkpt>
      <trkpt lat="45.22974" lon="5.23939">
        <ele>559.15497</ele>
        <time>2017-09-15T13:55:45Z</time>
      </trkpt>
      <trkpt lat="45.2296" lon="5.2394">
        <ele>558.733</ele>
        <time>2017-09-15T13:55:50Z</time>
      </trkpt>
      <trkpt lat="45.22927" lon="5.23934">
        <ele>558.43744</ele>
        <time>2017-09-15T13:55:56Z</time>
      </trkpt>
      <trkpt lat="45.22887" lon="5.23928">
        <ele>558.0818</ele>
        <time>2017-09-15T13:56:02Z</time>
      </trkpt>
      <trkpt lat="45.22858" lon="5.23948">
        <ele>557.7343</ele>
        <time>2017-09-15T13:56:07Z</time>
      </trkpt>
      <trkpt lat="45.22836" lon="5.23988">
        <ele>557.3234</ele>
        <time>2017-09-15T13:56:13Z</time>
      </trkpt>
      <trkpt lat="45.22811" lon="5.2401">
        <ele>557.3388</ele>
        <time>2017-09-15T13:56:19Z</time>
      </trkpt>
      <trkpt lat="45.22782" lon="5.24012">
        <ele>557.7339</ele>
        <time>2017-09-15T13:56:25Z</time>
      </trkpt>
      <trkpt lat="45.2276" lon="5.24011">
        <ele>558.60205</ele>
        <time>2017-09-15T13:56:30Z</time>
      </trkpt>
      <trkpt lat="45.22736" lon="5.24012">
        <ele>559.83154</ele>
        <time>2017-09-15T13:56:36Z</time>
      </trkpt>
      <trkpt lat="45.22715" lon="5.24011">
        <ele>560.605</ele>
        <time>2017-09-15T13:56:41Z</time>
      </trkpt>
      <trkpt lat="45.22692" lon="5.24012">
        <ele>561.53156</ele>
        <time>2017-09-15T13:56:47Z</time>
      </trkpt>
      <trkpt lat="45.22668" lon="5.24011">
        <ele>562.79254</ele>
        <time>2017-09-15T13:56:53Z</time>
      </trkpt>
      <trkpt lat="45.22645" lon="5.24011">
        <ele>563.48804</ele>
        <time>2017-09-15T13:56:59Z</time>
      </trkpt>
      <trkpt lat="45.22623" lon="5.24012">
        <ele>563.97217</ele>
        <time>2017-09-15T13:57:05Z</time>
      </trkpt>
      <trkpt lat="45.226" lon="5.24014">
        <ele>565.3478</ele>
        <time>2017-09-15T13:57:11Z</time>
      </trkpt>
      <trkpt lat="45.22578" lon="5.24021">
        <ele>565.8855</ele>
        <time>2017-09-15T13:57:17Z</time>
      </trkpt>
      <trkpt lat="45.22558" lon="5.24036">
        <ele>566.9076</ele>
        <time>2017-09-15T13:57:23Z</time>
      </trkpt>
      <trkpt lat="45.22538" lon="5.24056">
        <ele>567.5037</ele>
        <time>2017-09-15T13:57:29Z</time>
      </trkpt>
      <trkpt lat="45.22518" lon="5.24074">
        <ele>567.9133</ele>
        <time>2017-09-15T13:57:35Z</time>
      </trkpt>
      <trkpt lat="45.22499" lon="5.24085">
        <ele>568.3539</ele>
        <time>2017-09-15T13:57:40Z</time>
      </trkpt>
      <trkpt lat="45.22475" lon="5.2409">
        <ele>569.3963</ele>
        <time>2017-09-15T13:57:46Z</time>
      </trkpt>
      <trkpt lat="45.22451" lon="5.24092">
        <ele>570.5124</ele>
        <time>2017-09-15T13:57:52Z</time>
      </trkpt>
      <trkpt lat="45.22427" lon="5.24097">
        <ele>571.5375</ele>
        <time>2017-09-15T13:57:58Z</time>
      </trkpt>
      <trkpt lat="45.22404" lon="5.24106">
        <ele>572.5363</ele>
        <time>2017-09-15T13:58:04Z</time>
      </trkpt>
      <trkpt lat="45.22381" lon="5.24117">
        <ele>573.44696</ele>
        <time>2017-09-15T13:58:10Z</time>
      </trkpt>
      <trkpt lat="45.22362" lon="5.24126">
        <ele>573.86646</ele>
        <time>2017-09-15T13:58:15Z</time>
      </trkpt>
      <trkpt lat="45.22343" lon="5.24133">
        <ele>574.57117</ele>
        <time>2017-09-15T13:58:20Z</time>
      </trkpt>
      <trkpt lat="45.22322" lon="5.24132">
        <ele>575.29</ele>
        <time>2017-09-15T13:58:25Z</time>
      </trkpt>
      <trkpt lat="45.22302" lon="5.24126">
        <ele>575.7702</ele>
        <time>2017-09-15T13:58:30Z</time>
      </trkpt>
      <trkpt lat="45.2228" lon="5.24116">
        <ele>576.35333</ele>
        <time>2017-09-15T13:58:36Z</time>
      </trkpt>
      <trkpt lat="45.22262" lon="5.24113">
        <ele>577.1069</ele>
        <time>2017-09-15T13:58:41Z</time>
      </trkpt>
      <trkpt lat="45.22239" lon="5.24113">
        <ele>578.0555</ele>
        <time>2017-09-15T13:58:47Z</time>
      </trkpt>
      <trkpt lat="45.22215" lon="5.2411">
        <ele>579.0125</ele>
        <time>2017-09-15T13:58:53Z</time>
      </trkpt>
      <trkpt lat="45.22196" lon="5.24101">
        <ele>579.63025</ele>
        <time>2017-09-15T13:58:58Z</time>
      </trkpt>
      <trkpt lat="45.22175" lon="5.24087">
        <ele>580.2268</ele>
        <time>2017-09-15T13:59:04Z</time>
      </trkpt>
      <trkpt lat="45.22156" lon="5.24075">
        <ele>580.5996</ele>
        <time>2017-09-15T13:59:09Z</time>
      </trkpt>
      <trkpt lat="45.22136" lon="5.24068">
        <ele>581.1934</ele>
        <time>2017-09-15T13:59:14Z</time>
      </trkpt>
      <trkpt lat="45.22112" lon="5.2407">
        <ele>581.94995</ele>
        <time>2017-09-15T13:59:20Z</time>
      </trkpt>
      <trkpt lat="45.22088" lon="5.24076">
        <ele>582.54553</ele>
        <time>2017-09-15T13:59:26Z</time>
      </trkpt>
      <trkpt lat="45.22064" lon="5.24084">
        <ele>583.31635</ele>
        <time>2017-09-15T13:59:32Z</time>
      </trkpt>
      <trkpt lat="45.22042" lon="5.241">
        <ele>583.92084</ele>
        <time>2017-09-15T13:59:38Z</time>
      </trkpt>
      <trkpt lat="45.22027" lon="5.24119">
        <ele>584.4783</ele>
        <time>2017-09-15T13:59:43Z</time>
      </trkpt>
      <trkpt lat="45.22015" lon="5.24141">
        <ele>584.9798</ele>
        <time>2017-09-15T13:59:48Z</time>
      </trkpt>
      <trkpt lat="45.22003" lon="5.24171">
        <ele>585.243</ele>
        <time>2017-09-15T13:59:54Z</time>
      </trkpt>
      <trkpt lat="45.21997" lon="5.242">
        <ele>585.2568</ele>
        <time>2017-09-15T14:00:00Z</time>
      </trkpt>
      <trkpt lat="45.21995" lon="5.24226">
        <ele>586.12714</ele>
        <time>2017-09-15T14:00:05Z</time>
      </trkpt>
      <trkpt lat="45.21995" lon="5.24259">
        <ele>586.34174</ele>
        <time>2017-09-15T14:00:11Z</time>
      </trkpt>
      <trkpt lat="45.21997" lon="5.24289">
        <ele>586.80975</ele>
        <time>2017-09-15T14:00:17Z</time>
      </trkpt>
      <trkpt lat="45.22003" lon="5.2432">
        <ele>587.43353</ele>
        <time>2017-09-15T14:00:23Z</time>
      </trkpt>
      <trkpt lat="45.22008" lon="5.24346">
        <ele>587.94104</ele>
        <time>2017-09-15T14:00:29Z</time>
      </trkpt>
      <trkpt lat="45.22004" lon="5.24374">
        <ele>588.5383</ele>
        <time>2017-09-15T14:00:35Z</time>
      </trkpt>
      <trkpt lat="45.22" lon="5.24401">
        <ele>589.20026</ele>
        <time>2017-09-15T14:00:41Z</time>
      </trkpt>
      <trkpt lat="45.21999" lon="5.24429">
        <ele>589.8428</ele>
        <time>2017-09-15T14:00:47Z</time>
      </trkpt>
      <trkpt lat="45.21996" lon="5.24465">
        <ele>590.48114</ele>
        <time>2017-09-15T14:00:53Z</time>
      </trkpt>
      <trkpt lat="45.21988" lon="5.24492">
        <ele>591.2344</ele>
        <time>2017-09-15T14:00:59Z</time>
      </trkpt>
      <trkpt lat="45.21977" lon="5.24513">
        <ele>592.03485</ele>
        <time>2017-09-15T14:01:05Z</time>
      </trkpt>
      <trkpt lat="45.21966" lon="5.24533">
        <ele>592.89</ele>
        <time>2017-09-15T14:01:11Z</time>
      </trkpt>
      <trkpt lat="45.21953" lon="5.24553">
        <ele>593.46594</ele>
        <time>2017-09-15T14:01:17Z</time>
      </trkpt>
      <trkpt lat="45.21938" lon="5.24576">
        <ele>594.09454</ele>
        <time>2017-09-15T14:01:23Z</time>
      </trkpt>
      <trkpt lat="45.21927" lon="5.24597">
        <ele>594.803</ele>
        <time>2017-09-15T14:01:29Z</time>
      </trkpt>
      <trkpt lat="45.21915" lon="5.24618">
        <ele>595.5813</ele>
        <time>2017-09-15T14:01:35Z</time>
      </trkpt>
      <trkpt lat="45.21905" lon="5.24641">
        <ele>596.25024</ele>
        <time>2017-09-15T14:01:41Z</time>
      </trkpt>
      <trkpt lat="45.21898" lon="5.2467">
        <ele>596.76215</ele>
        <time>2017-09-15T14:01:47Z</time>
      </trkpt>
      <trkpt lat="45.21896" lon="5.24699">
        <ele>597.20056</ele>
        <time>2017-09-15T14:01:53Z</time>
      </trkpt>
      <trkpt lat="45.21894" lon="5.2473">
        <ele>598.81055</ele>
        <time>2017-09-15T14:01:59Z</time>
      </trkpt>
      <trkpt lat="45.21895" lon="5.24759">
        <ele>599.2224</ele>
        <time>2017-09-15T14:02:05Z</time>
      </trkpt>
      <trkpt lat="45.21897" lon="5.24784">
        <ele>599.5978</ele>
        <time>2017-09-15T14:02:10Z</time>
      </trkpt>
      <trkpt lat="45.21899" lon="5.2481">
        <ele>600.3866</ele>
        <time>2017-09-15T14:02:15Z</time>
      </trkpt>
      <trkpt lat="45.21901" lon="5.24846">
        <ele>602.57935</ele>
        <time>2017-09-15T14:02:21Z</time>
      </trkpt>
      <trkpt lat="45.21895" lon="5.24885">
        <ele>603.31354</ele>
        <time>2017-09-15T14:02:27Z</time>
      </trkpt>
      <trkpt lat="45.21887" lon="5.24918">
        <ele>603.6417</ele>
        <time>2017-09-15T14:02:32Z</time>
      </trkpt>
      <trkpt lat="45.21889" lon="5.24953">
        <ele>603.75195</ele>
        <time>2017-09-15T14:02:38Z</time>
      </trkpt>
      <trkpt lat="45.2189" lon="5.2498">
        <ele>604.0489</ele>
        <time>2017-09-15T14:02:44Z</time>
      </trkpt>
      <trkpt lat="45.21893" lon="5.25002">
        <ele>604.5854</ele>
        <time>2017-09-15T14:02:49Z</time>
      </trkpt>
      <trkpt lat="45.21895" lon="5.25027">
        <ele>605.01447</ele>
        <time>2017-09-15T14:02:55Z</time>
      </trkpt>
      <trkpt lat="45.21897" lon="5.25053">
        <ele>605.46826</ele>
        <time>2017-09-15T14:03:01Z</time>
      </trkpt>
      <trkpt lat="45.21899" lon="5.25074">
        <ele>605.8927</ele>
        <time>2017-09-15T14:03:06Z</time>
      </trkpt>
      <trkpt lat="45.21902" lon="5.25095">
        <ele>606.34906</ele>
        <time>2017-09-15T14:03:11Z</time>
      </trkpt>
      <trkpt lat="45.21905" lon="5.2512">
        <ele>606.9549</ele>
        <time>2017-09-15T14:03:17Z</time>
      </trkpt>
      <trkpt lat="45.21906" lon="5.25139">
        <ele>607.52094</ele>
        <time>2017-09-15T14:03:22Z</time>
      </trkpt>
      <trkpt lat="45.21898" lon="5.25157">
        <ele>608.0253</ele>
        <time>2017-09-15T14:03:27Z</time>
      </trkpt>
      <trkpt lat="45.21906" lon="5.25164">
        <ele>608.70306</ele>
        <time>2017-09-15T14:03:33Z</time>
      </trkpt>
      <trkpt lat="45.21912" lon="5.25166">
        <ele>609.21796</ele>
        <time>2017-09-15T14:03:39Z</time>
      </trkpt>
      <trkpt lat="45.2192" lon="5.25237">
        <ele>611.9716</ele>
        <time>2017-09-15T14:06:42Z</time>
      </trkpt>
      <trkpt lat="45.21909" lon="5.25233">
        <ele>633.0867</ele>
        <time>2017-09-15T14:15:17Z</time>
      </trkpt>
      <trkpt lat="45.21907" lon="5.25191">
        <ele>619.0448</ele>
        <time>2017-09-15T14:19:01Z</time>
      </trkpt>
      <trkpt lat="45.21907" lon="5.25172">
        <ele>619.2388</ele>
        <time>2017-09-15T14:19:06Z</time>
      </trkpt>
      <trkpt lat="45.21909" lon="5.25147">
        <ele>619.15283</ele>
        <time>2017-09-15T14:19:12Z</time>
      </trkpt>
      <trkpt lat="45.2191" lon="5.2514">
        <ele>619.00507</ele>
        <time>2017-09-15T14:19:21Z</time>
      </trkpt>
      <trkpt lat="45.21908" lon="5.25114">
        <ele>618.9074</ele>
        <time>2017-09-15T14:19:27Z</time>
      </trkpt>
      <trkpt lat="45.21905" lon="5.25079">
        <ele>618.0119</ele>
        <time>2017-09-15T14:19:32Z</time>
      </trkpt>
      <trkpt lat="45.219" lon="5.25029">
        <ele>616.49146</ele>
        <time>2017-09-15T14:19:38Z</time>
      </trkpt>
      <trkpt lat="45.21894" lon="5.2497">
        <ele>613.2967</ele>
        <time>2017-09-15T14:19:44Z</time>
      </trkpt>
      <trkpt lat="45.21886" lon="5.24943">
        <ele>612.0374</ele>
        <time>2017-09-15T14:19:50Z</time>
      </trkpt>
      <trkpt lat="45.21878" lon="5.24979">
        <ele>609.8081</ele>
        <time>2017-09-15T14:19:56Z</time>
      </trkpt>
      <trkpt lat="45.21874" lon="5.25021">
        <ele>607.35394</ele>
        <time>2017-09-15T14:20:02Z</time>
      </trkpt>
      <trkpt lat="45.21869" lon="5.25059">
        <ele>606.8221</ele>
        <time>2017-09-15T14:20:07Z</time>
      </trkpt>
      <trkpt lat="45.21864" lon="5.25104">
        <ele>606.8218</ele>
        <time>2017-09-15T14:20:13Z</time>
      </trkpt>
      <trkpt lat="45.21852" lon="5.25156">
        <ele>607.02167</ele>
        <time>2017-09-15T14:20:19Z</time>
      </trkpt>
      <trkpt lat="45.21812" lon="5.25179">
        <ele>608.2264</ele>
        <time>2017-09-15T14:20:24Z</time>
      </trkpt>
      <trkpt lat="45.21773" lon="5.25188">
        <ele>608.0878</ele>
        <time>2017-09-15T14:20:30Z</time>
      </trkpt>
      <trkpt lat="45.21744" lon="5.25197">
        <ele>608.12836</ele>
        <time>2017-09-15T14:20:36Z</time>
      </trkpt>
      <trkpt lat="45.21722" lon="5.25201">
        <ele>608.3034</ele>
        <time>2017-09-15T14:20:42Z</time>
      </trkpt>
      <trkpt lat="45.21703" lon="5.252">
        <ele>608.4318</ele>
        <time>2017-09-15T14:20:48Z</time>
      </trkpt>
      <trkpt lat="45.21685" lon="5.25193">
        <ele>608.6528</ele>
        <time>2017-09-15T14:20:54Z</time>
      </trkpt>
      <trkpt lat="45.2167" lon="5.2518">
        <ele>608.9114</ele>
        <time>2017-09-15T14:21:00Z</time>
      </trkpt>
      <trkpt lat="45.21662" lon="5.25163">
        <ele>609.31006</ele>
        <time>2017-09-15T14:21:05Z</time>
      </trkpt>
      <trkpt lat="45.21662" lon="5.25141">
        <ele>610.132</ele>
        <time>2017-09-15T14:21:11Z</time>
      </trkpt>
      <trkpt lat="45.21665" lon="5.25124">
        <ele>610.8464</ele>
        <time>2017-09-15T14:21:16Z</time>
      </trkpt>
      <trkpt lat="45.21666" lon="5.25102">
        <ele>611.56744</ele>
        <time>2017-09-15T14:21:22Z</time>
      </trkpt>
      <trkpt lat="45.21663" lon="5.2508">
        <ele>612.2412</ele>
        <time>2017-09-15T14:21:28Z</time>
      </trkpt>
      <trkpt lat="45.21655" lon="5.25061">
        <ele>612.9425</ele>
        <time>2017-09-15T14:21:34Z</time>
      </trkpt>
      <trkpt lat="45.21644" lon="5.25045">
        <ele>613.62744</ele>
        <time>2017-09-15T14:21:40Z</time>
      </trkpt>
      <trkpt lat="45.21633" lon="5.25026">
        <ele>614.3881</ele>
        <time>2017-09-15T14:21:46Z</time>
      </trkpt>
      <trkpt lat="45.21622" lon="5.25008">
        <ele>615.34296</ele>
        <time>2017-09-15T14:21:52Z</time>
      </trkpt>
      <trkpt lat="45.21611" lon="5.24992">
        <ele>616.2503</ele>
        <time>2017-09-15T14:21:58Z</time>
      </trkpt>
      <trkpt lat="45.21602" lon="5.2498">
        <ele>617.14874</ele>
        <time>2017-09-15T14:22:03Z</time>
      </trkpt>
      <trkpt lat="45.21587" lon="5.24962">
        <ele>618.0987</ele>
        <time>2017-09-15T14:22:09Z</time>
      </trkpt>
      <trkpt lat="45.21571" lon="5.24949">
        <ele>618.8975</ele>
        <time>2017-09-15T14:22:15Z</time>
      </trkpt>
      <trkpt lat="45.21557" lon="5.24938">
        <ele>619.52747</ele>
        <time>2017-09-15T14:22:21Z</time>
      </trkpt>
      <trkpt lat="45.21542" lon="5.24925">
        <ele>619.95355</ele>
        <time>2017-09-15T14:22:27Z</time>
      </trkpt>
      <trkpt lat="45.21527" lon="5.24911">
        <ele>620.37646</ele>
        <time>2017-09-15T14:22:33Z</time>
      </trkpt>
      <trkpt lat="45.21515" lon="5.24897">
        <ele>620.74084</ele>
        <time>2017-09-15T14:22:39Z</time>
      </trkpt>
      <trkpt lat="45.21502" lon="5.24882">
        <ele>621.1591</ele>
        <time>2017-09-15T14:22:45Z</time>
      </trkpt>
      <trkpt lat="45.21488" lon="5.24867">
        <ele>621.69617</ele>
        <time>2017-09-15T14:22:51Z</time>
      </trkpt>
      <trkpt lat="45.21473" lon="5.24853">
        <ele>622.3123</ele>
        <time>2017-09-15T14:22:57Z</time>
      </trkpt>
      <trkpt lat="45.21457" lon="5.24846">
        <ele>622.7576</ele>
        <time>2017-09-15T14:23:02Z</time>
      </trkpt>
      <trkpt lat="45.21439" lon="5.24836">
        <ele>623.08844</ele>
        <time>2017-09-15T14:23:08Z</time>
      </trkpt>
      <trkpt lat="45.21426" lon="5.24829">
        <ele>623.32947</ele>
        <time>2017-09-15T14:23:13Z</time>
      </trkpt>
      <trkpt lat="45.21408" lon="5.24816">
        <ele>623.6041</ele>
        <time>2017-09-15T14:23:19Z</time>
      </trkpt>
      <trkpt lat="45.21387" lon="5.24807">
        <ele>623.7567</ele>
        <time>2017-09-15T14:23:25Z</time>
      </trkpt>
      <trkpt lat="45.21373" lon="5.24802">
        <ele>623.7928</ele>
        <time>2017-09-15T14:23:30Z</time>
      </trkpt>
      <trkpt lat="45.21356" lon="5.24797">
        <ele>623.9038</ele>
        <time>2017-09-15T14:23:35Z</time>
      </trkpt>
      <trkpt lat="45.21337" lon="5.24795">
        <ele>624.2428</ele>
        <time>2017-09-15T14:23:41Z</time>
      </trkpt>
      <trkpt lat="45.2132" lon="5.248">
        <ele>624.5481</ele>
        <time>2017-09-15T14:23:46Z</time>
      </trkpt>
      <trkpt lat="45.213" lon="5.24806">
        <ele>624.90796</ele>
        <time>2017-09-15T14:23:52Z</time>
      </trkpt>
      <trkpt lat="45.21283" lon="5.24812">
        <ele>625.1384</ele>
        <time>2017-09-15T14:23:57Z</time>
      </trkpt>
      <trkpt lat="45.21263" lon="5.24818">
        <ele>625.5067</ele>
        <time>2017-09-15T14:24:03Z</time>
      </trkpt>
      <trkpt lat="45.21244" lon="5.24824">
        <ele>625.9424</ele>
        <time>2017-09-15T14:24:09Z</time>
      </trkpt>
      <trkpt lat="45.21224" lon="5.24831">
        <ele>626.40216</ele>
        <time>2017-09-15T14:24:15Z</time>
      </trkpt>
      <trkpt lat="45.21203" lon="5.24837">
        <ele>626.94305</ele>
        <time>2017-09-15T14:24:21Z</time>
      </trkpt>
      <trkpt lat="45.21184" lon="5.24842">
        <ele>627.4899</ele>
        <time>2017-09-15T14:24:27Z</time>
      </trkpt>
      <trkpt lat="45.21167" lon="5.24848">
        <ele>627.97516</ele>
        <time>2017-09-15T14:24:32Z</time>
      </trkpt>
      <trkpt lat="45.21147" lon="5.24857">
        <ele>630.2534</ele>
        <time>2017-09-15T14:24:38Z</time>
      </trkpt>
      <trkpt lat="45.21129" lon="5.24866">
        <ele>632.0715</ele>
        <time>2017-09-15T14:24:43Z</time>
      </trkpt>
      <trkpt lat="45.21106" lon="5.24879">
        <ele>636.10944</ele>
        <time>2017-09-15T14:24:49Z</time>
      </trkpt>
      <trkpt lat="45.21081" lon="5.24899">
        <ele>636.51483</ele>
        <time>2017-09-15T14:24:55Z</time>
      </trkpt>
      <trkpt lat="45.21053" lon="5.24927">
        <ele>635.63336</ele>
        <time>2017-09-15T14:25:01Z</time>
      </trkpt>
      <trkpt lat="45.21029" lon="5.24951">
        <ele>635.6448</ele>
        <time>2017-09-15T14:25:06Z</time>
      </trkpt>
      <trkpt lat="45.21005" lon="5.24974">
        <ele>636.2754</ele>
        <time>2017-09-15T14:25:11Z</time>
      </trkpt>
      <trkpt lat="45.20974" lon="5.25001">
        <ele>637.0118</ele>
        <time>2017-09-15T14:25:17Z</time>
      </trkpt>
      <trkpt lat="45.20943" lon="5.25018">
        <ele>636.1149</ele>
        <time>2017-09-15T14:25:22Z</time>
      </trkpt>
      <trkpt lat="45.20903" lon="5.25031">
        <ele>634.4882</ele>
        <time>2017-09-15T14:25:28Z</time>
      </trkpt>
      <trkpt lat="45.20863" lon="5.25042">
        <ele>633.0727</ele>
        <time>2017-09-15T14:25:34Z</time>
      </trkpt>
      <trkpt lat="45.20824" lon="5.25055">
        <ele>631.8207</ele>
        <time>2017-09-15T14:25:40Z</time>
      </trkpt>
      <trkpt lat="45.2078" lon="5.25069">
        <ele>630.25525</ele>
        <time>2017-09-15T14:25:46Z</time>
      </trkpt>
      <trkpt lat="45.20741" lon="5.25088">
        <ele>629.906</ele>
        <time>2017-09-15T14:25:51Z</time>
      </trkpt>
      <trkpt lat="45.20754" lon="5.25142">
        <ele>629.6144</ele>
        <time>2017-09-15T14:25:56Z</time>
      </trkpt>
      <trkpt lat="45.20795" lon="5.25165">
        <ele>629.05005</ele>
        <time>2017-09-15T14:26:02Z</time>
      </trkpt>
      <trkpt lat="45.20796" lon="5.25202">
        <ele>624.2691</ele>
        <time>2017-09-15T14:26:08Z</time>
      </trkpt>
      <trkpt lat="45.20761" lon="5.25188">
        <ele>620.1509</ele>
        <time>2017-09-15T14:26:13Z</time>
      </trkpt>
      <trkpt lat="45.20719" lon="5.2517">
        <ele>617.32263</ele>
        <time>2017-09-15T14:26:18Z</time>
      </trkpt>
      <trkpt lat="45.2066" lon="5.25187">
        <ele>614.6848</ele>
        <time>2017-09-15T14:26:24Z</time>
      </trkpt>
      <trkpt lat="45.206" lon="5.25203">
        <ele>612.6943</ele>
        <time>2017-09-15T14:26:30Z</time>
      </trkpt>
      <trkpt lat="45.20535" lon="5.25173">
        <ele>610.73535</ele>
        <time>2017-09-15T14:26:36Z</time>
      </trkpt>
      <trkpt lat="45.20465" lon="5.25154">
        <ele>608.2944</ele>
        <time>2017-09-15T14:26:42Z</time>
      </trkpt>
      <trkpt lat="45.20442" lon="5.25068">
        <ele>605.3394</ele>
        <time>2017-09-15T14:26:48Z</time>
      </trkpt>
      <trkpt lat="45.20429" lon="5.24981">
        <ele>601.7596</ele>
        <time>2017-09-15T14:26:54Z</time>
      </trkpt>
      <trkpt lat="45.2038" lon="5.24972">
        <ele>598.40216</ele>
        <time>2017-09-15T14:26:59Z</time>
      </trkpt>
      <trkpt lat="45.20313" lon="5.24962">
        <ele>593.577</ele>
        <time>2017-09-15T14:27:05Z</time>
      </trkpt>
      <trkpt lat="45.20262" lon="5.24966">
        <ele>590.0641</ele>
        <time>2017-09-15T14:27:10Z</time>
      </trkpt>
      <trkpt lat="45.20201" lon="5.25008">
        <ele>587.73425</ele>
        <time>2017-09-15T14:27:16Z</time>
      </trkpt>
      <trkpt lat="45.20132" lon="5.25036">
        <ele>582.5463</ele>
        <time>2017-09-15T14:27:22Z</time>
      </trkpt>
      <trkpt lat="45.2006" lon="5.25036">
        <ele>575.9396</ele>
        <time>2017-09-15T14:27:28Z</time>
      </trkpt>
      <trkpt lat="45.19992" lon="5.25062">
        <ele>569.79047</ele>
        <time>2017-09-15T14:27:34Z</time>
      </trkpt>
      <trkpt lat="45.19944" lon="5.25129">
        <ele>566.2731</ele>
        <time>2017-09-15T14:27:40Z</time>
      </trkpt>
      <trkpt lat="45.19899" lon="5.25201">
        <ele>564.4575</ele>
        <time>2017-09-15T14:27:46Z</time>
      </trkpt>
      <trkpt lat="45.19864" lon="5.2527">
        <ele>564.00116</ele>
        <time>2017-09-15T14:27:51Z</time>
      </trkpt>
      <trkpt lat="45.1981" lon="5.25334">
        <ele>563.36584</ele>
        <time>2017-09-15T14:27:57Z</time>
      </trkpt>
      <trkpt lat="45.19759" lon="5.25377">
        <ele>561.1805</ele>
        <time>2017-09-15T14:28:02Z</time>
      </trkpt>
      <trkpt lat="45.1971" lon="5.25426">
        <ele>557.95026</ele>
        <time>2017-09-15T14:28:07Z</time>
      </trkpt>
      <trkpt lat="45.1964" lon="5.25461">
        <ele>549.63354</ele>
        <time>2017-09-15T14:28:13Z</time>
      </trkpt>
      <trkpt lat="45.19578" lon="5.25513">
        <ele>538.9697</ele>
        <time>2017-09-15T14:28:19Z</time>
      </trkpt>
      <trkpt lat="45.19518" lon="5.25537">
        <ele>530.0883</ele>
        <time>2017-09-15T14:28:24Z</time>
      </trkpt>
      <trkpt lat="45.19444" lon="5.25543">
        <ele>523.15173</ele>
        <time>2017-09-15T14:28:30Z</time>
      </trkpt>
      <trkpt lat="45.19373" lon="5.25556">
        <ele>519.6814</ele>
        <time>2017-09-15T14:28:36Z</time>
      </trkpt>
      <trkpt lat="45.19318" lon="5.25589">
        <ele>516.5379</ele>
        <time>2017-09-15T14:28:41Z</time>
      </trkpt>
      <trkpt lat="45.19242" lon="5.25606">
        <ele>512.67694</ele>
        <time>2017-09-15T14:28:47Z</time>
      </trkpt>
      <trkpt lat="45.19167" lon="5.25631">
        <ele>509.1193</ele>
        <time>2017-09-15T14:28:53Z</time>
      </trkpt>
      <trkpt lat="45.19135" lon="5.25705">
        <ele>505.99673</ele>
        <time>2017-09-15T14:28:58Z</time>
      </trkpt>
      <trkpt lat="45.19108" lon="5.25803">
        <ele>502.38373</ele>
        <time>2017-09-15T14:29:04Z</time>
      </trkpt>
      <trkpt lat="45.1909" lon="5.25883">
        <ele>498.93033</ele>
        <time>2017-09-15T14:29:09Z</time>
      </trkpt>
      <trkpt lat="45.19059" lon="5.25966">
        <ele>495.1902</ele>
        <time>2017-09-15T14:29:15Z</time>
      </trkpt>
      <trkpt lat="45.19023" lon="5.26042">
        <ele>492.31427</ele>
        <time>2017-09-15T14:29:21Z</time>
      </trkpt>
      <trkpt lat="45.19011" lon="5.26133">
        <ele>489.09402</ele>
        <time>2017-09-15T14:29:27Z</time>
      </trkpt>
      <trkpt lat="45.18983" lon="5.26209">
        <ele>486.2368</ele>
        <time>2017-09-15T14:29:33Z</time>
      </trkpt>
      <trkpt lat="45.18939" lon="5.26254">
        <ele>483.42157</ele>
        <time>2017-09-15T14:29:38Z</time>
      </trkpt>
      <trkpt lat="45.18895" lon="5.26303">
        <ele>478.87402</ele>
        <time>2017-09-15T14:29:44Z</time>
      </trkpt>
      <trkpt lat="45.18861" lon="5.2627">
        <ele>474.04245</ele>
        <time>2017-09-15T14:29:50Z</time>
      </trkpt>
      <trkpt lat="45.1885" lon="5.26208">
        <ele>470.25494</ele>
        <time>2017-09-15T14:29:55Z</time>
      </trkpt>
      <trkpt lat="45.18828" lon="5.26136">
        <ele>465.68185</ele>
        <time>2017-09-15T14:30:01Z</time>
      </trkpt>
      <trkpt lat="45.18789" lon="5.26112">
        <ele>460.8417</ele>
        <time>2017-09-15T14:30:06Z</time>
      </trkpt>
      <trkpt lat="45.18758" lon="5.26164">
        <ele>455.6868</ele>
        <time>2017-09-15T14:30:12Z</time>
      </trkpt>
      <trkpt lat="45.18729" lon="5.26231">
        <ele>452.07037</ele>
        <time>2017-09-15T14:30:18Z</time>
      </trkpt>
      <trkpt lat="45.187" lon="5.26305">
        <ele>449.0539</ele>
        <time>2017-09-15T14:30:24Z</time>
      </trkpt>
      <trkpt lat="45.18669" lon="5.26383">
        <ele>445.7088</ele>
        <time>2017-09-15T14:30:30Z</time>
      </trkpt>
      <trkpt lat="45.18627" lon="5.26436">
        <ele>442.30972</ele>
        <time>2017-09-15T14:30:35Z</time>
      </trkpt>
      <trkpt lat="45.1857" lon="5.26452">
        <ele>439.17874</ele>
        <time>2017-09-15T14:30:40Z</time>
      </trkpt>
      <trkpt lat="45.1851" lon="5.26399">
        <ele>434.81155</ele>
        <time>2017-09-15T14:30:46Z</time>
      </trkpt>
      <trkpt lat="45.18457" lon="5.26336">
        <ele>430.6009</ele>
        <time>2017-09-15T14:30:52Z</time>
      </trkpt>
      <trkpt lat="45.18414" lon="5.26282">
        <ele>427.55807</ele>
        <time>2017-09-15T14:30:57Z</time>
      </trkpt>
      <trkpt lat="45.18349" lon="5.26261">
        <ele>423.39514</ele>
        <time>2017-09-15T14:31:03Z</time>
      </trkpt>
      <trkpt lat="45.18281" lon="5.26258">
        <ele>419.57126</ele>
        <time>2017-09-15T14:31:09Z</time>
      </trkpt>
      <trkpt lat="45.18214" lon="5.26267">
        <ele>415.53458</ele>
        <time>2017-09-15T14:31:15Z</time>
      </trkpt>
      <trkpt lat="45.18148" lon="5.26287">
        <ele>411.5804</ele>
        <time>2017-09-15T14:31:21Z</time>
      </trkpt>
      <trkpt lat="45.18083" lon="5.26303">
        <ele>407.2334</ele>
        <time>2017-09-15T14:31:27Z</time>
      </trkpt>
      <trkpt lat="45.18044" lon="5.26246">
        <ele>401.90564</ele>
        <time>2017-09-15T14:31:33Z</time>
      </trkpt>
      <trkpt lat="45.18017" lon="5.26175">
        <ele>397.9668</ele>
        <time>2017-09-15T14:31:38Z</time>
      </trkpt>
      <trkpt lat="45.17975" lon="5.26131">
        <ele>393.56155</ele>
        <time>2017-09-15T14:31:43Z</time>
      </trkpt>
      <trkpt lat="45.17917" lon="5.26142">
        <ele>389.1122</ele>
        <time>2017-09-15T14:31:49Z</time>
      </trkpt>
      <trkpt lat="45.17867" lon="5.26128">
        <ele>385.71915</ele>
        <time>2017-09-15T14:31:55Z</time>
      </trkpt>
      <trkpt lat="45.17817" lon="5.26129">
        <ele>381.13028</ele>
        <time>2017-09-15T14:32:01Z</time>
      </trkpt>
      <trkpt lat="45.17761" lon="5.26136">
        <ele>375.79166</ele>
        <time>2017-09-15T14:32:07Z</time>
      </trkpt>
      <trkpt lat="45.17719" lon="5.26168">
        <ele>375.12018</ele>
        <time>2017-09-15T14:32:12Z</time>
      </trkpt>
      <trkpt lat="45.17674" lon="5.26214">
        <ele>375.33353</ele>
        <time>2017-09-15T14:32:18Z</time>
      </trkpt>
      <trkpt lat="45.17631" lon="5.26253">
        <ele>376.10132</ele>
        <time>2017-09-15T14:32:24Z</time>
      </trkpt>
      <trkpt lat="45.17597" lon="5.26286">
        <ele>376.02975</ele>
        <time>2017-09-15T14:32:29Z</time>
      </trkpt>
      <trkpt lat="45.17558" lon="5.26329">
        <ele>375.12674</ele>
        <time>2017-09-15T14:32:35Z</time>
      </trkpt>
      <trkpt lat="45.17517" lon="5.26375">
        <ele>373.47968</ele>
        <time>2017-09-15T14:32:41Z</time>
      </trkpt>
      <trkpt lat="45.17489" lon="5.2642">
        <ele>371.71298</ele>
        <time>2017-09-15T14:32:46Z</time>
      </trkpt>
      <trkpt lat="45.17473" lon="5.26489">
        <ele>370.0348</ele>
        <time>2017-09-15T14:32:52Z</time>
      </trkpt>
      <trkpt lat="45.17456" lon="5.26552">
        <ele>368.13055</ele>
        <time>2017-09-15T14:32:58Z</time>
      </trkpt>
      <trkpt lat="45.17429" lon="5.26608">
        <ele>366.16312</ele>
        <time>2017-09-15T14:33:04Z</time>
      </trkpt>
      <trkpt lat="45.17401" lon="5.26653">
        <ele>364.65735</ele>
        <time>2017-09-15T14:33:09Z</time>
      </trkpt>
      <trkpt lat="45.17374" lon="5.267">
        <ele>363.45084</ele>
        <time>2017-09-15T14:33:14Z</time>
      </trkpt>
      <trkpt lat="45.17336" lon="5.26746">
        <ele>361.6964</ele>
        <time>2017-09-15T14:33:20Z</time>
      </trkpt>
      <trkpt lat="45.173" lon="5.26769">
        <ele>360.5781</ele>
        <time>2017-09-15T14:33:25Z</time>
      </trkpt>
      <trkpt lat="45.17259" lon="5.26805">
        <ele>359.25888</ele>
        <time>2017-09-15T14:33:31Z</time>
      </trkpt>
      <trkpt lat="45.17226" lon="5.26839">
        <ele>358.197</ele>
        <time>2017-09-15T14:33:36Z</time>
      </trkpt>
      <trkpt lat="45.17192" lon="5.26872">
        <ele>357.1837</ele>
        <time>2017-09-15T14:33:41Z</time>
      </trkpt>
      <trkpt lat="45.17158" lon="5.26913">
        <ele>355.5132</ele>
        <time>2017-09-15T14:33:47Z</time>
      </trkpt>
      <trkpt lat="45.17126" lon="5.26958">
        <ele>353.80582</ele>
        <time>2017-09-15T14:33:53Z</time>
      </trkpt>
      <trkpt lat="45.17094" lon="5.27003">
        <ele>352.34384</ele>
        <time>2017-09-15T14:33:59Z</time>
      </trkpt>
      <trkpt lat="45.17065" lon="5.27041">
        <ele>351.31055</ele>
        <time>2017-09-15T14:34:04Z</time>
      </trkpt>
      <trkpt lat="45.1703" lon="5.27088">
        <ele>349.97665</ele>
        <time>2017-09-15T14:34:10Z</time>
      </trkpt>
      <trkpt lat="45.16993" lon="5.27135">
        <ele>348.631</ele>
        <time>2017-09-15T14:34:16Z</time>
      </trkpt>
      <trkpt lat="45.16956" lon="5.27179">
        <ele>347.26535</ele>
        <time>2017-09-15T14:34:22Z</time>
      </trkpt>
      <trkpt lat="45.16922" lon="5.27219">
        <ele>346.1439</ele>
        <time>2017-09-15T14:34:28Z</time>
      </trkpt>
      <trkpt lat="45.16887" lon="5.27258">
        <ele>345.00662</ele>
        <time>2017-09-15T14:34:34Z</time>
      </trkpt>
      <trkpt lat="45.16853" lon="5.273">
        <ele>343.9658</ele>
        <time>2017-09-15T14:34:40Z</time>
      </trkpt>
      <trkpt lat="45.16822" lon="5.27348">
        <ele>343.041</ele>
        <time>2017-09-15T14:34:46Z</time>
      </trkpt>
      <trkpt lat="45.16788" lon="5.274">
        <ele>341.83847</ele>
        <time>2017-09-15T14:34:52Z</time>
      </trkpt>
      <trkpt lat="45.16756" lon="5.27446">
        <ele>340.28464</ele>
        <time>2017-09-15T14:34:57Z</time>
      </trkpt>
      <trkpt lat="45.16717" lon="5.27502">
        <ele>338.28726</ele>
        <time>2017-09-15T14:35:03Z</time>
      </trkpt>
      <trkpt lat="45.16681" lon="5.2756">
        <ele>336.45203</ele>
        <time>2017-09-15T14:35:09Z</time>
      </trkpt>
      <trkpt lat="45.16644" lon="5.27611">
        <ele>335.0299</ele>
        <time>2017-09-15T14:35:15Z</time>
      </trkpt>
      <trkpt lat="45.16605" lon="5.27654">
        <ele>333.97992</ele>
        <time>2017-09-15T14:35:21Z</time>
      </trkpt>
      <trkpt lat="45.16568" lon="5.27697">
        <ele>333.16882</ele>
        <time>2017-09-15T14:35:27Z</time>
      </trkpt>
      <trkpt lat="45.16533" lon="5.27742">
        <ele>332.39435</ele>
        <time>2017-09-15T14:35:33Z</time>
      </trkpt>
      <trkpt lat="45.16507" lon="5.2778">
        <ele>331.9098</ele>
        <time>2017-09-15T14:35:38Z</time>
      </trkpt>
      <trkpt lat="45.16481" lon="5.2783">
        <ele>330.427</ele>
        <time>2017-09-15T14:35:44Z</time>
      </trkpt>
      <trkpt lat="45.16462" lon="5.27888">
        <ele>328.02524</ele>
        <time>2017-09-15T14:35:50Z</time>
      </trkpt>
      <trkpt lat="45.16445" lon="5.2794">
        <ele>326.51852</ele>
        <time>2017-09-15T14:35:55Z</time>
      </trkpt>
      <trkpt lat="45.16416" lon="5.27996">
        <ele>325.59033</ele>
        <time>2017-09-15T14:36:01Z</time>
      </trkpt>
      <trkpt lat="45.16386" lon="5.28052">
        <ele>324.63834</ele>
        <time>2017-09-15T14:36:07Z</time>
      </trkpt>
      <trkpt lat="45.16356" lon="5.28106">
        <ele>323.5527</ele>
        <time>2017-09-15T14:36:13Z</time>
      </trkpt>
      <trkpt lat="45.16323" lon="5.28166">
        <ele>322.49142</ele>
        <time>2017-09-15T14:36:19Z</time>
      </trkpt>
      <trkpt lat="45.1628" lon="5.2821">
        <ele>321.04297</ele>
        <time>2017-09-15T14:36:25Z</time>
      </trkpt>
      <trkpt lat="45.16245" lon="5.28248">
        <ele>319.221</ele>
        <time>2017-09-15T14:36:30Z</time>
      </trkpt>
      <trkpt lat="45.16203" lon="5.28294">
        <ele>317.05167</ele>
        <time>2017-09-15T14:36:36Z</time>
      </trkpt>
      <trkpt lat="45.16163" lon="5.28339">
        <ele>315.7129</ele>
        <time>2017-09-15T14:36:42Z</time>
      </trkpt>
      <trkpt lat="45.16131" lon="5.28377">
        <ele>314.66473</ele>
        <time>2017-09-15T14:36:47Z</time>
      </trkpt>
      <trkpt lat="45.161" lon="5.2841">
        <ele>313.76654</ele>
        <time>2017-09-15T14:36:52Z</time>
      </trkpt>
      <trkpt lat="45.1606" lon="5.28429">
        <ele>313.11832</ele>
        <time>2017-09-15T14:36:58Z</time>
      </trkpt>
      <trkpt lat="45.16018" lon="5.28408">
        <ele>313.11203</ele>
        <time>2017-09-15T14:37:04Z</time>
      </trkpt>
      <trkpt lat="45.1598" lon="5.28392">
        <ele>313.07715</ele>
        <time>2017-09-15T14:37:09Z</time>
      </trkpt>
      <trkpt lat="45.15931" lon="5.28372">
        <ele>311.71228</ele>
        <time>2017-09-15T14:37:15Z</time>
      </trkpt>
      <trkpt lat="45.1588" lon="5.28362">
        <ele>310.41803</ele>
        <time>2017-09-15T14:37:21Z</time>
      </trkpt>
      <trkpt lat="45.15831" lon="5.28352">
        <ele>310.3353</ele>
        <time>2017-09-15T14:37:27Z</time>
      </trkpt>
      <trkpt lat="45.15792" lon="5.28343">
        <ele>309.63547</ele>
        <time>2017-09-15T14:37:32Z</time>
      </trkpt>
      <trkpt lat="45.15744" lon="5.28331">
        <ele>308.49365</ele>
        <time>2017-09-15T14:37:38Z</time>
      </trkpt>
      <trkpt lat="45.15695" lon="5.28326">
        <ele>307.06418</ele>
        <time>2017-09-15T14:37:44Z</time>
      </trkpt>
      <trkpt lat="45.15653" lon="5.28332">
        <ele>306.1606</ele>
        <time>2017-09-15T14:37:49Z</time>
      </trkpt>
      <trkpt lat="45.15603" lon="5.2835">
        <ele>305.47247</ele>
        <time>2017-09-15T14:37:55Z</time>
      </trkpt>
      <trkpt lat="45.15561" lon="5.28386">
        <ele>304.8018</ele>
        <time>2017-09-15T14:38:01Z</time>
      </trkpt>
      <trkpt lat="45.15524" lon="5.28431">
        <ele>304.0506</ele>
        <time>2017-09-15T14:38:07Z</time>
      </trkpt>
      <trkpt lat="45.15484" lon="5.28468">
        <ele>303.4156</ele>
        <time>2017-09-15T14:38:13Z</time>
      </trkpt>
      <trkpt lat="45.15436" lon="5.28487">
        <ele>302.47018</ele>
        <time>2017-09-15T14:38:19Z</time>
      </trkpt>
      <trkpt lat="45.15388" lon="5.28477">
        <ele>301.92908</ele>
        <time>2017-09-15T14:38:25Z</time>
      </trkpt>
      <trkpt lat="45.15346" lon="5.28451">
        <ele>301.6996</ele>
        <time>2017-09-15T14:38:31Z</time>
      </trkpt>
      <trkpt lat="45.15302" lon="5.2843">
        <ele>301.47806</ele>
        <time>2017-09-15T14:38:37Z</time>
      </trkpt>
      <trkpt lat="45.15263" lon="5.28419">
        <ele>301.81393</ele>
        <time>2017-09-15T14:38:42Z</time>
      </trkpt>
      <trkpt lat="45.15211" lon="5.28417">
        <ele>301.82773</ele>
        <time>2017-09-15T14:38:48Z</time>
      </trkpt>
      <trkpt lat="45.15159" lon="5.2843">
        <ele>300.71994</ele>
        <time>2017-09-15T14:38:54Z</time>
      </trkpt>
      <trkpt lat="45.15109" lon="5.28434">
        <ele>299.65732</ele>
        <time>2017-09-15T14:39:00Z</time>
      </trkpt>
      <trkpt lat="45.15067" lon="5.28433">
        <ele>298.8542</ele>
        <time>2017-09-15T14:39:05Z</time>
      </trkpt>
      <trkpt lat="45.15018" lon="5.28431">
        <ele>297.86905</ele>
        <time>2017-09-15T14:39:11Z</time>
      </trkpt>
      <trkpt lat="45.14978" lon="5.28431">
        <ele>297.03366</ele>
        <time>2017-09-15T14:39:16Z</time>
      </trkpt>
      <trkpt lat="45.14932" lon="5.2843">
        <ele>295.88593</ele>
        <time>2017-09-15T14:39:22Z</time>
      </trkpt>
      <trkpt lat="45.14887" lon="5.28429">
        <ele>294.87292</ele>
        <time>2017-09-15T14:39:28Z</time>
      </trkpt>
      <trkpt lat="45.14851" lon="5.2843">
        <ele>294.1814</ele>
        <time>2017-09-15T14:39:33Z</time>
      </trkpt>
      <trkpt lat="45.14816" lon="5.28426">
        <ele>293.85986</ele>
        <time>2017-09-15T14:39:38Z</time>
      </trkpt>
      <trkpt lat="45.14779" lon="5.28425">
        <ele>293.54868</ele>
        <time>2017-09-15T14:39:43Z</time>
      </trkpt>
      <trkpt lat="45.14736" lon="5.28412">
        <ele>293.18088</ele>
        <time>2017-09-15T14:39:49Z</time>
      </trkpt>
      <trkpt lat="45.14698" lon="5.28383">
        <ele>292.32675</ele>
        <time>2017-09-15T14:39:55Z</time>
      </trkpt>
      <trkpt lat="45.14655" lon="5.28362">
        <ele>291.37643</ele>
        <time>2017-09-15T14:40:01Z</time>
      </trkpt>
      <trkpt lat="45.14609" lon="5.28347">
        <ele>290.21378</ele>
        <time>2017-09-15T14:40:07Z</time>
      </trkpt>
      <trkpt lat="45.14574" lon="5.28336">
        <ele>288.61057</ele>
        <time>2017-09-15T14:40:12Z</time>
      </trkpt>
      <trkpt lat="45.14537" lon="5.28327">
        <ele>287.30713</ele>
        <time>2017-09-15T14:40:17Z</time>
      </trkpt>
      <trkpt lat="45.14503" lon="5.28315">
        <ele>286.66257</ele>
        <time>2017-09-15T14:40:22Z</time>
      </trkpt>
      <trkpt lat="45.14463" lon="5.28295">
        <ele>286.1154</ele>
        <time>2017-09-15T14:40:28Z</time>
      </trkpt>
      <trkpt lat="45.14421" lon="5.28276">
        <ele>285.76834</ele>
        <time>2017-09-15T14:40:34Z</time>
      </trkpt>
      <trkpt lat="45.14389" lon="5.28263">
        <ele>285.06137</ele>
        <time>2017-09-15T14:40:39Z</time>
      </trkpt>
      <trkpt lat="45.1435" lon="5.28256">
        <ele>284.25613</ele>
        <time>2017-09-15T14:40:45Z</time>
      </trkpt>
      <trkpt lat="45.14339" lon="5.28255">
        <ele>284.48743</ele>
        <time>2017-09-15T14:40:56Z</time>
      </trkpt>
      <trkpt lat="45.14333" lon="5.28271">
        <ele>284.8554</ele>
        <time>2017-09-15T14:41:01Z</time>
      </trkpt>
      <trkpt lat="45.14325" lon="5.28299">
        <ele>285.52606</ele>
        <time>2017-09-15T14:41:07Z</time>
      </trkpt>
      <trkpt lat="45.14312" lon="5.28327">
        <ele>285.19815</ele>
        <time>2017-09-15T14:41:13Z</time>
      </trkpt>
      <trkpt lat="45.14303" lon="5.28353">
        <ele>284.86978</ele>
        <time>2017-09-15T14:41:18Z</time>
      </trkpt>
      <trkpt lat="45.14289" lon="5.2838">
        <ele>284.6133</ele>
        <time>2017-09-15T14:41:24Z</time>
      </trkpt>
      <trkpt lat="45.14286" lon="5.28398">
        <ele>284.08252</ele>
        <time>2017-09-15T14:42:46Z</time>
      </trkpt>
      <trkpt lat="45.14276" lon="5.28427">
        <ele>283.12717</ele>
        <time>2017-09-15T14:42:52Z</time>
      </trkpt>
      <trkpt lat="45.14263" lon="5.28457">
        <ele>282.02213</ele>
        <time>2017-09-15T14:42:57Z</time>
      </trkpt>
      <trkpt lat="45.14246" lon="5.28499">
        <ele>281.9466</ele>
        <time>2017-09-15T14:43:03Z</time>
      </trkpt>
      <trkpt lat="45.14232" lon="5.28542">
        <ele>284.8501</ele>
        <time>2017-09-15T14:43:09Z</time>
      </trkpt>
      <trkpt lat="45.14222" lon="5.28582">
        <ele>286.18866</ele>
        <time>2017-09-15T14:43:14Z</time>
      </trkpt>
      <trkpt lat="45.14204" lon="5.28638">
        <ele>286.0264</ele>
        <time>2017-09-15T14:43:20Z</time>
      </trkpt>
      <trkpt lat="45.14184" lon="5.28675">
        <ele>285.1483</ele>
        <time>2017-09-15T14:43:25Z</time>
      </trkpt>
      <trkpt lat="45.14155" lon="5.28723">
        <ele>283.96954</ele>
        <time>2017-09-15T14:43:31Z</time>
      </trkpt>
      <trkpt lat="45.14132" lon="5.28773">
        <ele>282.7768</ele>
        <time>2017-09-15T14:43:37Z</time>
      </trkpt>
      <trkpt lat="45.14125" lon="5.28824">
        <ele>281.93472</ele>
        <time>2017-09-15T14:43:42Z</time>
      </trkpt>
      <trkpt lat="45.14124" lon="5.28875">
        <ele>281.3827</ele>
        <time>2017-09-15T14:43:47Z</time>
      </trkpt>
      <trkpt lat="45.14142" lon="5.28924">
        <ele>280.87064</ele>
        <time>2017-09-15T14:43:53Z</time>
      </trkpt>
      <trkpt lat="45.14152" lon="5.2896">
        <ele>279.65445</ele>
        <time>2017-09-15T14:43:58Z</time>
      </trkpt>
      <trkpt lat="45.14178" lon="5.28983">
        <ele>278.0336</ele>
        <time>2017-09-15T14:44:03Z</time>
      </trkpt>
      <trkpt lat="45.14204" lon="5.29028">
        <ele>276.30334</ele>
        <time>2017-09-15T14:44:09Z</time>
      </trkpt>
      <trkpt lat="45.1423" lon="5.29078">
        <ele>275.44818</ele>
        <time>2017-09-15T14:44:15Z</time>
      </trkpt>
      <trkpt lat="45.14258" lon="5.29128">
        <ele>274.7403</ele>
        <time>2017-09-15T14:44:21Z</time>
      </trkpt>
      <trkpt lat="45.14282" lon="5.29169">
        <ele>274.1752</ele>
        <time>2017-09-15T14:44:26Z</time>
      </trkpt>
      <trkpt lat="45.14306" lon="5.29208">
        <ele>273.56387</ele>
        <time>2017-09-15T14:44:31Z</time>
      </trkpt>
      <trkpt lat="45.14332" lon="5.29254">
        <ele>273.39777</ele>
        <time>2017-09-15T14:44:37Z</time>
      </trkpt>
      <trkpt lat="45.14356" lon="5.29301">
        <ele>273.4533</ele>
        <time>2017-09-15T14:44:43Z</time>
      </trkpt>
      <trkpt lat="45.14381" lon="5.29345">
        <ele>273.47202</ele>
        <time>2017-09-15T14:44:49Z</time>
      </trkpt>
      <trkpt lat="45.14401" lon="5.2938">
        <ele>273.4097</ele>
        <time>2017-09-15T14:44:54Z</time>
      </trkpt>
      <trkpt lat="45.14422" lon="5.29414">
        <ele>273.4006</ele>
        <time>2017-09-15T14:44:59Z</time>
      </trkpt>
      <trkpt lat="45.14444" lon="5.29454">
        <ele>273.3663</ele>
        <time>2017-09-15T14:45:05Z</time>
      </trkpt>
      <trkpt lat="45.14463" lon="5.29484">
        <ele>273.29822</ele>
        <time>2017-09-15T14:45:10Z</time>
      </trkpt>
      <trkpt lat="45.14484" lon="5.2952">
        <ele>273.3187</ele>
        <time>2017-09-15T14:45:16Z</time>
      </trkpt>
      <trkpt lat="45.14501" lon="5.2955">
        <ele>273.57773</ele>
        <time>2017-09-15T14:45:21Z</time>
      </trkpt>
      <trkpt lat="45.14523" lon="5.29575">
        <ele>273.70828</ele>
        <time>2017-09-15T14:45:27Z</time>
      </trkpt>
      <trkpt lat="45.14533" lon="5.29611">
        <ele>273.62418</ele>
        <time>2017-09-15T14:45:32Z</time>
      </trkpt>
      <trkpt lat="45.14539" lon="5.2966">
        <ele>273.8949</ele>
        <time>2017-09-15T14:45:38Z</time>
      </trkpt>
      <trkpt lat="45.14543" lon="5.29712">
        <ele>274.0056</ele>
        <time>2017-09-15T14:45:44Z</time>
      </trkpt>
      <trkpt lat="45.14548" lon="5.2976">
        <ele>273.7576</ele>
        <time>2017-09-15T14:45:50Z</time>
      </trkpt>
      <trkpt lat="45.14552" lon="5.298">
        <ele>273.4194</ele>
        <time>2017-09-15T14:45:55Z</time>
      </trkpt>
      <trkpt lat="45.14555" lon="5.29846">
        <ele>273.01407</ele>
        <time>2017-09-15T14:46:01Z</time>
      </trkpt>
      <trkpt lat="45.14558" lon="5.29891">
        <ele>272.48596</ele>
        <time>2017-09-15T14:46:07Z</time>
      </trkpt>
      <trkpt lat="45.14562" lon="5.29929">
        <ele>272.10532</ele>
        <time>2017-09-15T14:46:12Z</time>
      </trkpt>
      <trkpt lat="45.14565" lon="5.29974">
        <ele>271.54138</ele>
        <time>2017-09-15T14:46:18Z</time>
      </trkpt>
      <trkpt lat="45.14569" lon="5.3002">
        <ele>271.26535</ele>
        <time>2017-09-15T14:46:24Z</time>
      </trkpt>
      <trkpt lat="45.14573" lon="5.30059">
        <ele>271.4762</ele>
        <time>2017-09-15T14:46:29Z</time>
      </trkpt>
      <trkpt lat="45.14576" lon="5.30106">
        <ele>271.9885</ele>
        <time>2017-09-15T14:46:35Z</time>
      </trkpt>
      <trkpt lat="45.14582" lon="5.30151">
        <ele>272.4166</ele>
        <time>2017-09-15T14:46:41Z</time>
      </trkpt>
      <trkpt lat="45.14588" lon="5.30194">
        <ele>272.55972</ele>
        <time>2017-09-15T14:46:47Z</time>
      </trkpt>
      <trkpt lat="45.14596" lon="5.30229">
        <ele>272.82196</ele>
        <time>2017-09-15T14:46:52Z</time>
      </trkpt>
      <trkpt lat="45.14606" lon="5.30269">
        <ele>273.34393</ele>
        <time>2017-09-15T14:46:58Z</time>
      </trkpt>
      <trkpt lat="45.14615" lon="5.30301">
        <ele>274.00497</ele>
        <time>2017-09-15T14:47:04Z</time>
      </trkpt>
      <trkpt lat="45.14625" lon="5.3033">
        <ele>274.09857</ele>
        <time>2017-09-15T14:47:09Z</time>
      </trkpt>
      <trkpt lat="45.14637" lon="5.30366">
        <ele>273.60703</ele>
        <time>2017-09-15T14:47:15Z</time>
      </trkpt>
      <trkpt lat="45.14649" lon="5.30406">
        <ele>272.7548</ele>
        <time>2017-09-15T14:47:21Z</time>
      </trkpt>
      <trkpt lat="45.1466" lon="5.30445">
        <ele>272.59436</ele>
        <time>2017-09-15T14:47:27Z</time>
      </trkpt>
      <trkpt lat="45.1467" lon="5.30475">
        <ele>272.40808</ele>
        <time>2017-09-15T14:47:32Z</time>
      </trkpt>
      <trkpt lat="45.14683" lon="5.30507">
        <ele>271.9594</ele>
        <time>2017-09-15T14:47:38Z</time>
      </trkpt>
      <trkpt lat="45.14692" lon="5.30534">
        <ele>271.71088</ele>
        <time>2017-09-15T14:47:43Z</time>
      </trkpt>
      <trkpt lat="45.14701" lon="5.30562">
        <ele>271.62872</ele>
        <time>2017-09-15T14:47:49Z</time>
      </trkpt>
      <trkpt lat="45.14711" lon="5.30594">
        <ele>271.76965</ele>
        <time>2017-09-15T14:47:55Z</time>
      </trkpt>
      <trkpt lat="45.14721" lon="5.30627">
        <ele>272.4727</ele>
        <time>2017-09-15T14:48:01Z</time>
      </trkpt>
      <trkpt lat="45.14716" lon="5.3064">
        <ele>272.7303</ele>
        <time>2017-09-15T14:48:10Z</time>
      </trkpt>
      <trkpt lat="45.14719" lon="5.3066">
        <ele>272.98355</ele>
        <time>2017-09-15T14:48:16Z</time>
      </trkpt>
      <trkpt lat="45.14726" lon="5.30689">
        <ele>273.4404</ele>
        <time>2017-09-15T14:48:22Z</time>
      </trkpt>
      <trkpt lat="45.14726" lon="5.30723">
        <ele>273.238</ele>
        <time>2017-09-15T14:48:28Z</time>
      </trkpt>
      <trkpt lat="45.14746" lon="5.3073">
        <ele>273.42236</ele>
        <time>2017-09-15T14:48:33Z</time>
      </trkpt>
      <trkpt lat="45.14768" lon="5.30758">
        <ele>274.61646</ele>
        <time>2017-09-15T14:48:39Z</time>
      </trkpt>
      <trkpt lat="45.1479" lon="5.30788">
        <ele>275.9597</ele>
        <time>2017-09-15T14:48:45Z</time>
      </trkpt>
      <trkpt lat="45.14814" lon="5.30814">
        <ele>276.9348</ele>
        <time>2017-09-15T14:48:51Z</time>
      </trkpt>
      <trkpt lat="45.14838" lon="5.30841">
        <ele>277.56854</ele>
        <time>2017-09-15T14:48:57Z</time>
      </trkpt>
      <trkpt lat="45.14861" lon="5.30868">
        <ele>277.8727</ele>
        <time>2017-09-15T14:49:03Z</time>
      </trkpt>
      <trkpt lat="45.14883" lon="5.30897">
        <ele>278.04468</ele>
        <time>2017-09-15T14:49:09Z</time>
      </trkpt>
      <trkpt lat="45.14902" lon="5.30928">
        <ele>278.29544</ele>
        <time>2017-09-15T14:49:15Z</time>
      </trkpt>
      <trkpt lat="45.14917" lon="5.30961">
        <ele>278.53244</ele>
        <time>2017-09-15T14:49:21Z</time>
      </trkpt>
      <trkpt lat="45.14932" lon="5.30996">
        <ele>278.65396</ele>
        <time>2017-09-15T14:49:27Z</time>
      </trkpt>
      <trkpt lat="45.14945" lon="5.31032">
        <ele>278.63058</ele>
        <time>2017-09-15T14:49:33Z</time>
      </trkpt>
      <trkpt lat="45.14958" lon="5.31069">
        <ele>278.5596</ele>
        <time>2017-09-15T14:49:39Z</time>
      </trkpt>
      <trkpt lat="45.1497" lon="5.31108">
        <ele>278.72186</ele>
        <time>2017-09-15T14:49:45Z</time>
      </trkpt>
      <trkpt lat="45.1498" lon="5.31147">
        <ele>278.0834</ele>
        <time>2017-09-15T14:49:51Z</time>
      </trkpt>
      <trkpt lat="45.14988" lon="5.31181">
        <ele>277.01978</ele>
        <time>2017-09-15T14:49:56Z</time>
      </trkpt>
      <trkpt lat="45.15003" lon="5.31215">
        <ele>277.43207</ele>
        <time>2017-09-15T14:50:02Z</time>
      </trkpt>
      <trkpt lat="45.15026" lon="5.31249">
        <ele>278.27615</ele>
        <time>2017-09-15T14:50:08Z</time>
      </trkpt>
      <trkpt lat="45.15042" lon="5.31278">
        <ele>278.6861</ele>
        <time>2017-09-15T14:50:13Z</time>
      </trkpt>
      <trkpt lat="45.15064" lon="5.31308">
        <ele>278.7857</ele>
        <time>2017-09-15T14:50:19Z</time>
      </trkpt>
      <trkpt lat="45.15083" lon="5.31334">
        <ele>278.7575</ele>
        <time>2017-09-15T14:50:24Z</time>
      </trkpt>
      <trkpt lat="45.15107" lon="5.31365">
        <ele>279.1803</ele>
        <time>2017-09-15T14:50:30Z</time>
      </trkpt>
      <trkpt lat="45.15132" lon="5.31399">
        <ele>279.21225</ele>
        <time>2017-09-15T14:50:36Z</time>
      </trkpt>
      <trkpt lat="45.15156" lon="5.31432">
        <ele>279.6733</ele>
        <time>2017-09-15T14:50:42Z</time>
      </trkpt>
      <trkpt lat="45.15178" lon="5.31464">
        <ele>280.17596</ele>
        <time>2017-09-15T14:50:48Z</time>
      </trkpt>
      <trkpt lat="45.15201" lon="5.31494">
        <ele>282.21683</ele>
        <time>2017-09-15T14:50:54Z</time>
      </trkpt>
      <trkpt lat="45.15224" lon="5.31523">
        <ele>283.11313</ele>
        <time>2017-09-15T14:51:00Z</time>
      </trkpt>
      <trkpt lat="45.15245" lon="5.31553">
        <ele>283.0642</ele>
        <time>2017-09-15T14:51:06Z</time>
      </trkpt>
      <trkpt lat="45.15268" lon="5.31581">
        <ele>282.24512</ele>
        <time>2017-09-15T14:51:12Z</time>
      </trkpt>
      <trkpt lat="45.15285" lon="5.31605">
        <ele>282.9276</ele>
        <time>2017-09-15T14:51:17Z</time>
      </trkpt>
      <trkpt lat="45.15306" lon="5.31631">
        <ele>281.733</ele>
        <time>2017-09-15T14:51:23Z</time>
      </trkpt>
      <trkpt lat="45.15325" lon="5.31654">
        <ele>282.64236</ele>
        <time>2017-09-15T14:51:28Z</time>
      </trkpt>
      <trkpt lat="45.15345" lon="5.31681">
        <ele>284.76016</ele>
        <time>2017-09-15T14:51:34Z</time>
      </trkpt>
      <trkpt lat="45.15364" lon="5.31706">
        <ele>287.13556</ele>
        <time>2017-09-15T14:51:40Z</time>
      </trkpt>
      <trkpt lat="45.15378" lon="5.31725">
        <ele>287.76294</ele>
        <time>2017-09-15T14:51:45Z</time>
      </trkpt>
      <trkpt lat="45.1539" lon="5.31741">
        <ele>287.67038</ele>
        <time>2017-09-15T14:51:50Z</time>
      </trkpt>
      <trkpt lat="45.15387" lon="5.31754">
        <ele>287.37473</ele>
        <time>2017-09-15T14:51:56Z</time>
      </trkpt>
      <trkpt lat="45.15381" lon="5.31761">
        <ele>280.05908</ele>
        <time>2017-09-15T14:56:44Z</time>
      </trkpt>
      <trkpt lat="45.15366" lon="5.31759">
        <ele>279.7986</ele>
        <time>2017-09-15T14:56:50Z</time>
      </trkpt>
      <trkpt lat="45.15349" lon="5.31756">
        <ele>279.48877</ele>
        <time>2017-09-15T14:56:56Z</time>
      </trkpt>
      <trkpt lat="45.15354" lon="5.31764">
        <ele>279.4699</ele>
        <time>2017-09-15T14:57:19Z</time>
      </trkpt>
      <trkpt lat="45.15371" lon="5.31765">
        <ele>279.6172</ele>
        <time>2017-09-15T14:57:24Z</time>
      </trkpt>
      <trkpt lat="45.15391" lon="5.3177">
        <ele>280.266</ele>
        <time>2017-09-15T14:57:30Z</time>
      </trkpt>
      <trkpt lat="45.15394" lon="5.31803">
        <ele>281.29184</ele>
        <time>2017-09-15T14:57:36Z</time>
      </trkpt>
      <trkpt lat="45.15391" lon="5.31829">
        <ele>281.4831</ele>
        <time>2017-09-15T14:57:41Z</time>
      </trkpt>
      <trkpt lat="45.15389" lon="5.31858">
        <ele>281.66006</ele>
        <time>2017-09-15T14:57:47Z</time>
      </trkpt>
      <trkpt lat="45.15381" lon="5.3188">
        <ele>281.8955</ele>
        <time>2017-09-15T14:57:53Z</time>
      </trkpt>
      <trkpt lat="45.15374" lon="5.31888">
        <ele>281.73138</ele>
        <time>2017-09-15T14:58:22Z</time>
      </trkpt>
      <trkpt lat="45.15357" lon="5.31893">
        <ele>281.84558</ele>
        <time>2017-09-15T14:58:27Z</time>
      </trkpt>
      <trkpt lat="45.15331" lon="5.31904">
        <ele>284.01794</ele>
        <time>2017-09-15T14:58:33Z</time>
      </trkpt>
      <trkpt lat="45.15309" lon="5.31912">
        <ele>284.05872</ele>
        <time>2017-09-15T14:58:38Z</time>
      </trkpt>
      <trkpt lat="45.15288" lon="5.31922">
        <ele>284.21814</ele>
        <time>2017-09-15T14:58:44Z</time>
      </trkpt>
      <trkpt lat="45.15266" lon="5.31936">
        <ele>284.84894</ele>
        <time>2017-09-15T14:58:49Z</time>
      </trkpt>
      <trkpt lat="45.15244" lon="5.31958">
        <ele>286.03833</ele>
        <time>2017-09-15T14:58:55Z</time>
      </trkpt>
      <trkpt lat="45.15233" lon="5.31968">
        <ele>286.40033</ele>
        <time>2017-09-15T14:59:00Z</time>
      </trkpt>
      <trkpt lat="45.15227" lon="5.3197">
        <ele>286.9842</ele>
        <time>2017-09-15T14:59:17Z</time>
      </trkpt>
      <trkpt lat="45.15213" lon="5.31995">
        <ele>286.76715</ele>
        <time>2017-09-15T14:59:23Z</time>
      </trkpt>
      <trkpt lat="45.15221" lon="5.32021">
        <ele>285.8806</ele>
        <time>2017-09-15T14:59:29Z</time>
      </trkpt>
      <trkpt lat="45.15237" lon="5.32053">
        <ele>285.62262</ele>
        <time>2017-09-15T14:59:34Z</time>
      </trkpt>
      <trkpt lat="45.15225" lon="5.32075">
        <ele>287.6815</ele>
        <time>2017-09-15T14:59:40Z</time>
      </trkpt>
      <trkpt lat="45.15206" lon="5.32088">
        <ele>285.8908</ele>
        <time>2017-09-15T14:59:45Z</time>
      </trkpt>
      <trkpt lat="45.15182" lon="5.32111">
        <ele>285.12332</ele>
        <time>2017-09-15T14:59:51Z</time>
      </trkpt>
      <trkpt lat="45.15155" lon="5.32129">
        <ele>285.51895</ele>
        <time>2017-09-15T14:59:57Z</time>
      </trkpt>
      <trkpt lat="45.1513" lon="5.3215">
        <ele>284.78934</ele>
        <time>2017-09-15T15:00:03Z</time>
      </trkpt>
      <trkpt lat="45.15108" lon="5.32166">
        <ele>286.2369</ele>
        <time>2017-09-15T15:00:08Z</time>
      </trkpt>
      <trkpt lat="45.15078" lon="5.32182">
        <ele>285.6849</ele>
        <time>2017-09-15T15:00:14Z</time>
      </trkpt>
      <trkpt lat="45.15056" lon="5.32199">
        <ele>283.94815</ele>
        <time>2017-09-15T15:00:20Z</time>
      </trkpt>
      <trkpt lat="45.15046" lon="5.32222">
        <ele>283.19934</ele>
        <time>2017-09-15T15:00:25Z</time>
      </trkpt>
      <trkpt lat="45.15063" lon="5.32254">
        <ele>281.14578</ele>
        <time>2017-09-15T15:00:31Z</time>
      </trkpt>
      <trkpt lat="45.1507" lon="5.32284">
        <ele>281.13028</ele>
        <time>2017-09-15T15:00:36Z</time>
      </trkpt>
      <trkpt lat="45.15083" lon="5.32312">
        <ele>281.08524</ele>
        <time>2017-09-15T15:00:42Z</time>
      </trkpt>
      <trkpt lat="45.1508" lon="5.32331">
        <ele>281.09848</ele>
        <time>2017-09-15T15:00:48Z</time>
      </trkpt>
      <trkpt lat="45.15085" lon="5.32342">
        <ele>281.29132</ele>
        <time>2017-09-15T15:00:53Z</time>
      </trkpt>
      <trkpt lat="45.1509" lon="5.32349">
        <ele>282.43008</ele>
        <time>2017-09-15T15:01:04Z</time>
      </trkpt>
    </trkseg>
  </trk>
</gpx>